<?xml version="1.0" encoding="UTF-8" standalone="no" ?>
<gpx xmlns="http://www.topografix.com/GPX/1/1" xmlns:xsi="http://www.w3.org/2001/XMLSchema-instance" xsi:schemaLocation="http://www.topografix.com/GPX/1/1 http://www.topografix.com/GPX/1/1/gpx.xsd" version="1.1" creator="VisuGPX - https://www.visugpx.com">
  <metadata>
    <name>Boucle de Pignan à La Gardiole Est</name>
    <desc><![CDATA[Belle virée au départ de Pignan faisant une boucle sur l\'extrémité Est de la Gardiole avec passage en crête (et belle vue sur la Méditerranée). A faire.]]></desc>
  </metadata>
  <trk>
    <name><![CDATA[2010-12-12-01]]></name>
    <trkseg>
      <trkpt lat="43.58077" lon="3.7491">
        <ele>57</ele>
        <time>2010-12-12T07:50:34Z</time>
      </trkpt>
      <trkpt lat="43.58079" lon="3.74924">
        <ele>56.7</ele>
        <time>2010-12-12T07:50:36Z</time>
      </trkpt>
      <trkpt lat="43.58082" lon="3.7493">
        <ele>56.8</ele>
        <time>2010-12-12T07:50:38Z</time>
      </trkpt>
      <trkpt lat="43.58102" lon="3.7497">
        <ele>57.5</ele>
        <time>2010-12-12T07:50:45Z</time>
      </trkpt>
      <trkpt lat="43.58114" lon="3.74996">
        <ele>57.9</ele>
        <time>2010-12-12T07:50:49Z</time>
      </trkpt>
      <trkpt lat="43.58127" lon="3.75021">
        <ele>58.7</ele>
        <time>2010-12-12T07:50:53Z</time>
      </trkpt>
      <trkpt lat="43.58138" lon="3.75046">
        <ele>59.3</ele>
        <time>2010-12-12T07:50:57Z</time>
      </trkpt>
      <trkpt lat="43.58153" lon="3.75078">
        <ele>59.7</ele>
        <time>2010-12-12T07:51:02Z</time>
      </trkpt>
      <trkpt lat="43.5816" lon="3.75092">
        <ele>59.5</ele>
        <time>2010-12-12T07:51:04Z</time>
      </trkpt>
      <trkpt lat="43.58236" lon="3.75248">
        <ele>55.6</ele>
        <time>2010-12-12T07:51:27Z</time>
      </trkpt>
      <trkpt lat="43.5824" lon="3.75255">
        <ele>55.5</ele>
        <time>2010-12-12T07:51:28Z</time>
      </trkpt>
      <trkpt lat="43.58244" lon="3.75262">
        <ele>55.5</ele>
        <time>2010-12-12T07:51:29Z</time>
      </trkpt>
      <trkpt lat="43.58248" lon="3.7527">
        <ele>55.5</ele>
        <time>2010-12-12T07:51:30Z</time>
      </trkpt>
      <trkpt lat="43.58252" lon="3.75278">
        <ele>55.4</ele>
        <time>2010-12-12T07:51:31Z</time>
      </trkpt>
      <trkpt lat="43.58255" lon="3.75285">
        <ele>55.5</ele>
        <time>2010-12-12T07:51:32Z</time>
      </trkpt>
      <trkpt lat="43.58259" lon="3.75293">
        <ele>55.5</ele>
        <time>2010-12-12T07:51:33Z</time>
      </trkpt>
      <trkpt lat="43.58262" lon="3.75301">
        <ele>55.5</ele>
        <time>2010-12-12T07:51:34Z</time>
      </trkpt>
      <trkpt lat="43.58266" lon="3.75309">
        <ele>55.4</ele>
        <time>2010-12-12T07:51:35Z</time>
      </trkpt>
      <trkpt lat="43.58269" lon="3.75317">
        <ele>55.4</ele>
        <time>2010-12-12T07:51:36Z</time>
      </trkpt>
      <trkpt lat="43.58273" lon="3.75325">
        <ele>55.3</ele>
        <time>2010-12-12T07:51:37Z</time>
      </trkpt>
      <trkpt lat="43.58276" lon="3.75333">
        <ele>55.3</ele>
        <time>2010-12-12T07:51:38Z</time>
      </trkpt>
      <trkpt lat="43.5828" lon="3.75341">
        <ele>55.2</ele>
        <time>2010-12-12T07:51:39Z</time>
      </trkpt>
      <trkpt lat="43.58283" lon="3.75349">
        <ele>55.1</ele>
        <time>2010-12-12T07:51:40Z</time>
      </trkpt>
      <trkpt lat="43.58287" lon="3.75357">
        <ele>55.1</ele>
        <time>2010-12-12T07:51:41Z</time>
      </trkpt>
      <trkpt lat="43.5829" lon="3.75364">
        <ele>55</ele>
        <time>2010-12-12T07:51:42Z</time>
      </trkpt>
      <trkpt lat="43.58293" lon="3.75372">
        <ele>54.9</ele>
        <time>2010-12-12T07:51:43Z</time>
      </trkpt>
      <trkpt lat="43.58297" lon="3.7538">
        <ele>54.8</ele>
        <time>2010-12-12T07:51:44Z</time>
      </trkpt>
      <trkpt lat="43.583" lon="3.75388">
        <ele>54.7</ele>
        <time>2010-12-12T07:51:45Z</time>
      </trkpt>
      <trkpt lat="43.58304" lon="3.75395">
        <ele>54.6</ele>
        <time>2010-12-12T07:51:46Z</time>
      </trkpt>
      <trkpt lat="43.58307" lon="3.75403">
        <ele>54.5</ele>
        <time>2010-12-12T07:51:47Z</time>
      </trkpt>
      <trkpt lat="43.5831" lon="3.75411">
        <ele>54.4</ele>
        <time>2010-12-12T07:51:48Z</time>
      </trkpt>
      <trkpt lat="43.58314" lon="3.75419">
        <ele>54.3</ele>
        <time>2010-12-12T07:51:49Z</time>
      </trkpt>
      <trkpt lat="43.58317" lon="3.75426">
        <ele>54.2</ele>
        <time>2010-12-12T07:51:50Z</time>
      </trkpt>
      <trkpt lat="43.5832" lon="3.75434">
        <ele>54.2</ele>
        <time>2010-12-12T07:51:51Z</time>
      </trkpt>
      <trkpt lat="43.58324" lon="3.75442">
        <ele>54.1</ele>
        <time>2010-12-12T07:51:52Z</time>
      </trkpt>
      <trkpt lat="43.58327" lon="3.7545">
        <ele>54</ele>
        <time>2010-12-12T07:51:53Z</time>
      </trkpt>
      <trkpt lat="43.58331" lon="3.75457">
        <ele>54</ele>
        <time>2010-12-12T07:51:54Z</time>
      </trkpt>
      <trkpt lat="43.58334" lon="3.75465">
        <ele>53.9</ele>
        <time>2010-12-12T07:51:55Z</time>
      </trkpt>
      <trkpt lat="43.58338" lon="3.75472">
        <ele>53.9</ele>
        <time>2010-12-12T07:51:56Z</time>
      </trkpt>
      <trkpt lat="43.58341" lon="3.7548">
        <ele>53.9</ele>
        <time>2010-12-12T07:51:57Z</time>
      </trkpt>
      <trkpt lat="43.58344" lon="3.75488">
        <ele>53.8</ele>
        <time>2010-12-12T07:51:58Z</time>
      </trkpt>
      <trkpt lat="43.58348" lon="3.75495">
        <ele>53.8</ele>
        <time>2010-12-12T07:51:59Z</time>
      </trkpt>
      <trkpt lat="43.58351" lon="3.75503">
        <ele>53.8</ele>
        <time>2010-12-12T07:52:00Z</time>
      </trkpt>
      <trkpt lat="43.58355" lon="3.7551">
        <ele>53.8</ele>
        <time>2010-12-12T07:52:01Z</time>
      </trkpt>
      <trkpt lat="43.58358" lon="3.75518">
        <ele>53.9</ele>
        <time>2010-12-12T07:52:02Z</time>
      </trkpt>
      <trkpt lat="43.58362" lon="3.75525">
        <ele>53.9</ele>
        <time>2010-12-12T07:52:03Z</time>
      </trkpt>
      <trkpt lat="43.58366" lon="3.75532">
        <ele>53.9</ele>
        <time>2010-12-12T07:52:04Z</time>
      </trkpt>
      <trkpt lat="43.58369" lon="3.7554">
        <ele>53.8</ele>
        <time>2010-12-12T07:52:05Z</time>
      </trkpt>
      <trkpt lat="43.58373" lon="3.75547">
        <ele>53.8</ele>
        <time>2010-12-12T07:52:06Z</time>
      </trkpt>
      <trkpt lat="43.58376" lon="3.75555">
        <ele>53.7</ele>
        <time>2010-12-12T07:52:07Z</time>
      </trkpt>
      <trkpt lat="43.58379" lon="3.75562">
        <ele>53.6</ele>
        <time>2010-12-12T07:52:08Z</time>
      </trkpt>
      <trkpt lat="43.58383" lon="3.7557">
        <ele>53.5</ele>
        <time>2010-12-12T07:52:09Z</time>
      </trkpt>
      <trkpt lat="43.58386" lon="3.75577">
        <ele>53.4</ele>
        <time>2010-12-12T07:52:10Z</time>
      </trkpt>
      <trkpt lat="43.58389" lon="3.75584">
        <ele>53.3</ele>
        <time>2010-12-12T07:52:11Z</time>
      </trkpt>
      <trkpt lat="43.58392" lon="3.75592">
        <ele>53.4</ele>
        <time>2010-12-12T07:52:12Z</time>
      </trkpt>
      <trkpt lat="43.58395" lon="3.75599">
        <ele>53.5</ele>
        <time>2010-12-12T07:52:13Z</time>
      </trkpt>
      <trkpt lat="43.58398" lon="3.75607">
        <ele>53.5</ele>
        <time>2010-12-12T07:52:14Z</time>
      </trkpt>
      <trkpt lat="43.58401" lon="3.75614">
        <ele>53.6</ele>
        <time>2010-12-12T07:52:15Z</time>
      </trkpt>
      <trkpt lat="43.58404" lon="3.75621">
        <ele>53.7</ele>
        <time>2010-12-12T07:52:16Z</time>
      </trkpt>
      <trkpt lat="43.58407" lon="3.75629">
        <ele>53.8</ele>
        <time>2010-12-12T07:52:17Z</time>
      </trkpt>
      <trkpt lat="43.5841" lon="3.75636">
        <ele>53.8</ele>
        <time>2010-12-12T07:52:18Z</time>
      </trkpt>
      <trkpt lat="43.58413" lon="3.75643">
        <ele>53.9</ele>
        <time>2010-12-12T07:52:19Z</time>
      </trkpt>
      <trkpt lat="43.58416" lon="3.7565">
        <ele>54</ele>
        <time>2010-12-12T07:52:20Z</time>
      </trkpt>
      <trkpt lat="43.5842" lon="3.75658">
        <ele>54.1</ele>
        <time>2010-12-12T07:52:21Z</time>
      </trkpt>
      <trkpt lat="43.58423" lon="3.75665">
        <ele>54.3</ele>
        <time>2010-12-12T07:52:22Z</time>
      </trkpt>
      <trkpt lat="43.58426" lon="3.75673">
        <ele>54.4</ele>
        <time>2010-12-12T07:52:23Z</time>
      </trkpt>
      <trkpt lat="43.5843" lon="3.7568">
        <ele>54.4</ele>
        <time>2010-12-12T07:52:24Z</time>
      </trkpt>
      <trkpt lat="43.58433" lon="3.75688">
        <ele>54.5</ele>
        <time>2010-12-12T07:52:25Z</time>
      </trkpt>
      <trkpt lat="43.58436" lon="3.75695">
        <ele>54.5</ele>
        <time>2010-12-12T07:52:26Z</time>
      </trkpt>
      <trkpt lat="43.5844" lon="3.75703">
        <ele>54.6</ele>
        <time>2010-12-12T07:52:27Z</time>
      </trkpt>
      <trkpt lat="43.58444" lon="3.7571">
        <ele>54.6</ele>
        <time>2010-12-12T07:52:28Z</time>
      </trkpt>
      <trkpt lat="43.58447" lon="3.75717">
        <ele>54.6</ele>
        <time>2010-12-12T07:52:29Z</time>
      </trkpt>
      <trkpt lat="43.58451" lon="3.75724">
        <ele>54.7</ele>
        <time>2010-12-12T07:52:30Z</time>
      </trkpt>
      <trkpt lat="43.58454" lon="3.75732">
        <ele>54.7</ele>
        <time>2010-12-12T07:52:31Z</time>
      </trkpt>
      <trkpt lat="43.58457" lon="3.75739">
        <ele>54.6</ele>
        <time>2010-12-12T07:52:32Z</time>
      </trkpt>
      <trkpt lat="43.58461" lon="3.75746">
        <ele>54.7</ele>
        <time>2010-12-12T07:52:33Z</time>
      </trkpt>
      <trkpt lat="43.58465" lon="3.75751">
        <ele>54.7</ele>
        <time>2010-12-12T07:52:34Z</time>
      </trkpt>
      <trkpt lat="43.58473" lon="3.75752">
        <ele>55</ele>
        <time>2010-12-12T07:52:36Z</time>
      </trkpt>
      <trkpt lat="43.58478" lon="3.75746">
        <ele>55.3</ele>
        <time>2010-12-12T07:52:38Z</time>
      </trkpt>
      <trkpt lat="43.58481" lon="3.75737">
        <ele>55.6</ele>
        <time>2010-12-12T07:52:40Z</time>
      </trkpt>
      <trkpt lat="43.58481" lon="3.75733">
        <ele>55.7</ele>
        <time>2010-12-12T07:52:41Z</time>
      </trkpt>
      <trkpt lat="43.58472" lon="3.75729">
        <ele>55.4</ele>
        <time>2010-12-12T07:55:48Z</time>
      </trkpt>
      <trkpt lat="43.58471" lon="3.75728">
        <ele>55.4</ele>
        <time>2010-12-12T07:55:49Z</time>
      </trkpt>
      <trkpt lat="43.58471" lon="3.75733">
        <ele>55.3</ele>
        <time>2010-12-12T07:56:05Z</time>
      </trkpt>
      <trkpt lat="43.58472" lon="3.75721">
        <ele>55.6</ele>
        <time>2010-12-12T07:56:21Z</time>
      </trkpt>
      <trkpt lat="43.58475" lon="3.75732">
        <ele>55.5</ele>
        <time>2010-12-12T08:07:29Z</time>
      </trkpt>
      <trkpt lat="43.58476" lon="3.75734">
        <ele>55.5</ele>
        <time>2010-12-12T08:07:30Z</time>
      </trkpt>
      <trkpt lat="43.58471" lon="3.75753">
        <ele>54.9</ele>
        <time>2010-12-12T08:07:37Z</time>
      </trkpt>
      <trkpt lat="43.58466" lon="3.7576">
        <ele>54.6</ele>
        <time>2010-12-12T08:07:39Z</time>
      </trkpt>
      <trkpt lat="43.58462" lon="3.75771">
        <ele>54.4</ele>
        <time>2010-12-12T08:07:41Z</time>
      </trkpt>
      <trkpt lat="43.58461" lon="3.75777">
        <ele>54.3</ele>
        <time>2010-12-12T08:07:42Z</time>
      </trkpt>
      <trkpt lat="43.5846" lon="3.75783">
        <ele>54.2</ele>
        <time>2010-12-12T08:07:43Z</time>
      </trkpt>
      <trkpt lat="43.58458" lon="3.7579">
        <ele>54</ele>
        <time>2010-12-12T08:07:44Z</time>
      </trkpt>
      <trkpt lat="43.58456" lon="3.75796">
        <ele>53.9</ele>
        <time>2010-12-12T08:07:45Z</time>
      </trkpt>
      <trkpt lat="43.58453" lon="3.75803">
        <ele>53.7</ele>
        <time>2010-12-12T08:07:46Z</time>
      </trkpt>
      <trkpt lat="43.5845" lon="3.75809">
        <ele>53.5</ele>
        <time>2010-12-12T08:07:47Z</time>
      </trkpt>
      <trkpt lat="43.58447" lon="3.75816">
        <ele>53.3</ele>
        <time>2010-12-12T08:07:48Z</time>
      </trkpt>
      <trkpt lat="43.58444" lon="3.75823">
        <ele>53.1</ele>
        <time>2010-12-12T08:07:49Z</time>
      </trkpt>
      <trkpt lat="43.58441" lon="3.75831">
        <ele>52.9</ele>
        <time>2010-12-12T08:07:50Z</time>
      </trkpt>
      <trkpt lat="43.58438" lon="3.75839">
        <ele>52.7</ele>
        <time>2010-12-12T08:07:51Z</time>
      </trkpt>
      <trkpt lat="43.58436" lon="3.75847">
        <ele>52.5</ele>
        <time>2010-12-12T08:07:52Z</time>
      </trkpt>
      <trkpt lat="43.58433" lon="3.75855">
        <ele>52.3</ele>
        <time>2010-12-12T08:07:53Z</time>
      </trkpt>
      <trkpt lat="43.5843" lon="3.75863">
        <ele>52.1</ele>
        <time>2010-12-12T08:07:54Z</time>
      </trkpt>
      <trkpt lat="43.58427" lon="3.75871">
        <ele>51.9</ele>
        <time>2010-12-12T08:07:55Z</time>
      </trkpt>
      <trkpt lat="43.58423" lon="3.75879">
        <ele>51.6</ele>
        <time>2010-12-12T08:07:56Z</time>
      </trkpt>
      <trkpt lat="43.5842" lon="3.75887">
        <ele>51.4</ele>
        <time>2010-12-12T08:07:57Z</time>
      </trkpt>
      <trkpt lat="43.58416" lon="3.75895">
        <ele>51.3</ele>
        <time>2010-12-12T08:07:58Z</time>
      </trkpt>
      <trkpt lat="43.58413" lon="3.75903">
        <ele>51.1</ele>
        <time>2010-12-12T08:07:59Z</time>
      </trkpt>
      <trkpt lat="43.5841" lon="3.75912">
        <ele>51</ele>
        <time>2010-12-12T08:08:00Z</time>
      </trkpt>
      <trkpt lat="43.58407" lon="3.7592">
        <ele>50.8</ele>
        <time>2010-12-12T08:08:01Z</time>
      </trkpt>
      <trkpt lat="43.58403" lon="3.75928">
        <ele>50.6</ele>
        <time>2010-12-12T08:08:02Z</time>
      </trkpt>
      <trkpt lat="43.584" lon="3.75936">
        <ele>50.3</ele>
        <time>2010-12-12T08:08:03Z</time>
      </trkpt>
      <trkpt lat="43.58397" lon="3.75943">
        <ele>50.1</ele>
        <time>2010-12-12T08:08:04Z</time>
      </trkpt>
      <trkpt lat="43.58394" lon="3.75951">
        <ele>49.9</ele>
        <time>2010-12-12T08:08:05Z</time>
      </trkpt>
      <trkpt lat="43.58391" lon="3.75958">
        <ele>49.7</ele>
        <time>2010-12-12T08:08:06Z</time>
      </trkpt>
      <trkpt lat="43.58388" lon="3.75966">
        <ele>49.5</ele>
        <time>2010-12-12T08:08:07Z</time>
      </trkpt>
      <trkpt lat="43.58385" lon="3.75973">
        <ele>49.3</ele>
        <time>2010-12-12T08:08:08Z</time>
      </trkpt>
      <trkpt lat="43.58382" lon="3.75981">
        <ele>49</ele>
        <time>2010-12-12T08:08:09Z</time>
      </trkpt>
      <trkpt lat="43.58379" lon="3.75988">
        <ele>48.8</ele>
        <time>2010-12-12T08:08:10Z</time>
      </trkpt>
      <trkpt lat="43.58376" lon="3.75994">
        <ele>48.7</ele>
        <time>2010-12-12T08:08:11Z</time>
      </trkpt>
      <trkpt lat="43.58368" lon="3.75991">
        <ele>48.6</ele>
        <time>2010-12-12T08:08:13Z</time>
      </trkpt>
      <trkpt lat="43.58365" lon="3.75987">
        <ele>48.7</ele>
        <time>2010-12-12T08:08:14Z</time>
      </trkpt>
      <trkpt lat="43.58362" lon="3.75982">
        <ele>48.8</ele>
        <time>2010-12-12T08:08:15Z</time>
      </trkpt>
      <trkpt lat="43.58359" lon="3.75976">
        <ele>48.9</ele>
        <time>2010-12-12T08:08:16Z</time>
      </trkpt>
      <trkpt lat="43.58356" lon="3.75971">
        <ele>49</ele>
        <time>2010-12-12T08:08:17Z</time>
      </trkpt>
      <trkpt lat="43.58353" lon="3.75966">
        <ele>49.1</ele>
        <time>2010-12-12T08:08:18Z</time>
      </trkpt>
      <trkpt lat="43.5835" lon="3.7596">
        <ele>49.2</ele>
        <time>2010-12-12T08:08:19Z</time>
      </trkpt>
      <trkpt lat="43.58343" lon="3.75955">
        <ele>49.2</ele>
        <time>2010-12-12T08:08:21Z</time>
      </trkpt>
      <trkpt lat="43.58335" lon="3.7596">
        <ele>49</ele>
        <time>2010-12-12T08:08:23Z</time>
      </trkpt>
      <trkpt lat="43.58328" lon="3.75967">
        <ele>48.8</ele>
        <time>2010-12-12T08:08:25Z</time>
      </trkpt>
      <trkpt lat="43.58322" lon="3.75975">
        <ele>48.6</ele>
        <time>2010-12-12T08:08:27Z</time>
      </trkpt>
      <trkpt lat="43.58316" lon="3.75979">
        <ele>48.6</ele>
        <time>2010-12-12T08:08:29Z</time>
      </trkpt>
      <trkpt lat="43.58308" lon="3.75977">
        <ele>48.6</ele>
        <time>2010-12-12T08:08:31Z</time>
      </trkpt>
      <trkpt lat="43.58305" lon="3.75975">
        <ele>48.6</ele>
        <time>2010-12-12T08:08:32Z</time>
      </trkpt>
      <trkpt lat="43.58294" lon="3.75967">
        <ele>48.7</ele>
        <time>2010-12-12T08:08:35Z</time>
      </trkpt>
      <trkpt lat="43.58286" lon="3.75961">
        <ele>48.7</ele>
        <time>2010-12-12T08:08:37Z</time>
      </trkpt>
      <trkpt lat="43.58279" lon="3.75954">
        <ele>48.7</ele>
        <time>2010-12-12T08:08:39Z</time>
      </trkpt>
      <trkpt lat="43.58271" lon="3.75948">
        <ele>48.6</ele>
        <time>2010-12-12T08:08:41Z</time>
      </trkpt>
      <trkpt lat="43.58264" lon="3.75941">
        <ele>48.5</ele>
        <time>2010-12-12T08:08:43Z</time>
      </trkpt>
      <trkpt lat="43.58257" lon="3.75934">
        <ele>48.3</ele>
        <time>2010-12-12T08:08:45Z</time>
      </trkpt>
      <trkpt lat="43.58253" lon="3.7593">
        <ele>48.2</ele>
        <time>2010-12-12T08:08:46Z</time>
      </trkpt>
      <trkpt lat="43.5825" lon="3.75925">
        <ele>48.1</ele>
        <time>2010-12-12T08:08:47Z</time>
      </trkpt>
      <trkpt lat="43.58247" lon="3.75921">
        <ele>48.1</ele>
        <time>2010-12-12T08:08:48Z</time>
      </trkpt>
      <trkpt lat="43.58241" lon="3.75912">
        <ele>48.2</ele>
        <time>2010-12-12T08:08:50Z</time>
      </trkpt>
      <trkpt lat="43.58234" lon="3.75913">
        <ele>48.3</ele>
        <time>2010-12-12T08:08:52Z</time>
      </trkpt>
      <trkpt lat="43.58231" lon="3.75923">
        <ele>48.3</ele>
        <time>2010-12-12T08:08:54Z</time>
      </trkpt>
      <trkpt lat="43.58227" lon="3.75932">
        <ele>48.5</ele>
        <time>2010-12-12T08:08:56Z</time>
      </trkpt>
      <trkpt lat="43.58222" lon="3.75941">
        <ele>48.7</ele>
        <time>2010-12-12T08:08:58Z</time>
      </trkpt>
      <trkpt lat="43.58216" lon="3.75951">
        <ele>49</ele>
        <time>2010-12-12T08:09:00Z</time>
      </trkpt>
      <trkpt lat="43.58213" lon="3.75956">
        <ele>49.1</ele>
        <time>2010-12-12T08:09:01Z</time>
      </trkpt>
      <trkpt lat="43.58211" lon="3.75961">
        <ele>49.3</ele>
        <time>2010-12-12T08:09:02Z</time>
      </trkpt>
      <trkpt lat="43.58208" lon="3.75967">
        <ele>49.4</ele>
        <time>2010-12-12T08:09:03Z</time>
      </trkpt>
      <trkpt lat="43.58205" lon="3.75972">
        <ele>49.6</ele>
        <time>2010-12-12T08:09:04Z</time>
      </trkpt>
      <trkpt lat="43.58203" lon="3.75978">
        <ele>49.7</ele>
        <time>2010-12-12T08:09:05Z</time>
      </trkpt>
      <trkpt lat="43.582" lon="3.75984">
        <ele>49.9</ele>
        <time>2010-12-12T08:09:06Z</time>
      </trkpt>
      <trkpt lat="43.58197" lon="3.75989">
        <ele>50.1</ele>
        <time>2010-12-12T08:09:07Z</time>
      </trkpt>
      <trkpt lat="43.58194" lon="3.75994">
        <ele>50.2</ele>
        <time>2010-12-12T08:09:08Z</time>
      </trkpt>
      <trkpt lat="43.58191" lon="3.75999">
        <ele>50.4</ele>
        <time>2010-12-12T08:09:09Z</time>
      </trkpt>
      <trkpt lat="43.58184" lon="3.76006">
        <ele>50.6</ele>
        <time>2010-12-12T08:09:11Z</time>
      </trkpt>
      <trkpt lat="43.58176" lon="3.76005">
        <ele>50.8</ele>
        <time>2010-12-12T08:09:13Z</time>
      </trkpt>
      <trkpt lat="43.58172" lon="3.76002">
        <ele>50.9</ele>
        <time>2010-12-12T08:09:14Z</time>
      </trkpt>
      <trkpt lat="43.58168" lon="3.75999">
        <ele>50.9</ele>
        <time>2010-12-12T08:09:15Z</time>
      </trkpt>
      <trkpt lat="43.58164" lon="3.75995">
        <ele>50.7</ele>
        <time>2010-12-12T08:09:16Z</time>
      </trkpt>
      <trkpt lat="43.5816" lon="3.75992">
        <ele>50.5</ele>
        <time>2010-12-12T08:09:17Z</time>
      </trkpt>
      <trkpt lat="43.58156" lon="3.75989">
        <ele>50.2</ele>
        <time>2010-12-12T08:09:18Z</time>
      </trkpt>
      <trkpt lat="43.58152" lon="3.75986">
        <ele>50</ele>
        <time>2010-12-12T08:09:19Z</time>
      </trkpt>
      <trkpt lat="43.58148" lon="3.75982">
        <ele>49.8</ele>
        <time>2010-12-12T08:09:20Z</time>
      </trkpt>
      <trkpt lat="43.58143" lon="3.75979">
        <ele>49.5</ele>
        <time>2010-12-12T08:09:21Z</time>
      </trkpt>
      <trkpt lat="43.58139" lon="3.75975">
        <ele>49.3</ele>
        <time>2010-12-12T08:09:22Z</time>
      </trkpt>
      <trkpt lat="43.58135" lon="3.75972">
        <ele>49.1</ele>
        <time>2010-12-12T08:09:23Z</time>
      </trkpt>
      <trkpt lat="43.58131" lon="3.75969">
        <ele>48.9</ele>
        <time>2010-12-12T08:09:24Z</time>
      </trkpt>
      <trkpt lat="43.58127" lon="3.75965">
        <ele>48.7</ele>
        <time>2010-12-12T08:09:25Z</time>
      </trkpt>
      <trkpt lat="43.58123" lon="3.75962">
        <ele>48.5</ele>
        <time>2010-12-12T08:09:26Z</time>
      </trkpt>
      <trkpt lat="43.58119" lon="3.75958">
        <ele>48.3</ele>
        <time>2010-12-12T08:09:27Z</time>
      </trkpt>
      <trkpt lat="43.58115" lon="3.75955">
        <ele>48.1</ele>
        <time>2010-12-12T08:09:28Z</time>
      </trkpt>
      <trkpt lat="43.58111" lon="3.75951">
        <ele>47.9</ele>
        <time>2010-12-12T08:09:29Z</time>
      </trkpt>
      <trkpt lat="43.58106" lon="3.75947">
        <ele>47.8</ele>
        <time>2010-12-12T08:09:30Z</time>
      </trkpt>
      <trkpt lat="43.58102" lon="3.75944">
        <ele>47.6</ele>
        <time>2010-12-12T08:09:31Z</time>
      </trkpt>
      <trkpt lat="43.58098" lon="3.7594">
        <ele>47.5</ele>
        <time>2010-12-12T08:09:32Z</time>
      </trkpt>
      <trkpt lat="43.58094" lon="3.75937">
        <ele>47.3</ele>
        <time>2010-12-12T08:09:33Z</time>
      </trkpt>
      <trkpt lat="43.58089" lon="3.75933">
        <ele>47.2</ele>
        <time>2010-12-12T08:09:34Z</time>
      </trkpt>
      <trkpt lat="43.58085" lon="3.75929">
        <ele>47</ele>
        <time>2010-12-12T08:09:35Z</time>
      </trkpt>
      <trkpt lat="43.58081" lon="3.75925">
        <ele>47</ele>
        <time>2010-12-12T08:09:36Z</time>
      </trkpt>
      <trkpt lat="43.58076" lon="3.75921">
        <ele>46.9</ele>
        <time>2010-12-12T08:09:37Z</time>
      </trkpt>
      <trkpt lat="43.58072" lon="3.75917">
        <ele>46.9</ele>
        <time>2010-12-12T08:09:38Z</time>
      </trkpt>
      <trkpt lat="43.58067" lon="3.75913">
        <ele>46.8</ele>
        <time>2010-12-12T08:09:39Z</time>
      </trkpt>
      <trkpt lat="43.58063" lon="3.75909">
        <ele>46.7</ele>
        <time>2010-12-12T08:09:40Z</time>
      </trkpt>
      <trkpt lat="43.58059" lon="3.75904">
        <ele>46.6</ele>
        <time>2010-12-12T08:09:41Z</time>
      </trkpt>
      <trkpt lat="43.58055" lon="3.75899">
        <ele>46.5</ele>
        <time>2010-12-12T08:09:42Z</time>
      </trkpt>
      <trkpt lat="43.5805" lon="3.75897">
        <ele>46.4</ele>
        <time>2010-12-12T08:09:43Z</time>
      </trkpt>
      <trkpt lat="43.58044" lon="3.75897">
        <ele>46.3</ele>
        <time>2010-12-12T08:09:44Z</time>
      </trkpt>
      <trkpt lat="43.5804" lon="3.759">
        <ele>46.3</ele>
        <time>2010-12-12T08:09:45Z</time>
      </trkpt>
      <trkpt lat="43.58035" lon="3.75904">
        <ele>46.2</ele>
        <time>2010-12-12T08:09:46Z</time>
      </trkpt>
      <trkpt lat="43.58031" lon="3.75909">
        <ele>46.2</ele>
        <time>2010-12-12T08:09:47Z</time>
      </trkpt>
      <trkpt lat="43.58026" lon="3.75913">
        <ele>46.3</ele>
        <time>2010-12-12T08:09:48Z</time>
      </trkpt>
      <trkpt lat="43.58021" lon="3.75918">
        <ele>46.3</ele>
        <time>2010-12-12T08:09:49Z</time>
      </trkpt>
      <trkpt lat="43.58017" lon="3.75923">
        <ele>46.2</ele>
        <time>2010-12-12T08:09:50Z</time>
      </trkpt>
      <trkpt lat="43.58012" lon="3.75928">
        <ele>46.1</ele>
        <time>2010-12-12T08:09:51Z</time>
      </trkpt>
      <trkpt lat="43.58006" lon="3.75933">
        <ele>46.1</ele>
        <time>2010-12-12T08:09:52Z</time>
      </trkpt>
      <trkpt lat="43.58001" lon="3.75938">
        <ele>46</ele>
        <time>2010-12-12T08:09:53Z</time>
      </trkpt>
      <trkpt lat="43.57996" lon="3.75943">
        <ele>45.8</ele>
        <time>2010-12-12T08:09:54Z</time>
      </trkpt>
      <trkpt lat="43.57991" lon="3.75949">
        <ele>45.4</ele>
        <time>2010-12-12T08:09:55Z</time>
      </trkpt>
      <trkpt lat="43.57986" lon="3.75954">
        <ele>45.1</ele>
        <time>2010-12-12T08:09:56Z</time>
      </trkpt>
      <trkpt lat="43.57981" lon="3.7596">
        <ele>44.8</ele>
        <time>2010-12-12T08:09:57Z</time>
      </trkpt>
      <trkpt lat="43.57976" lon="3.75965">
        <ele>44.5</ele>
        <time>2010-12-12T08:09:58Z</time>
      </trkpt>
      <trkpt lat="43.57971" lon="3.7597">
        <ele>44.2</ele>
        <time>2010-12-12T08:09:59Z</time>
      </trkpt>
      <trkpt lat="43.57966" lon="3.75976">
        <ele>43.9</ele>
        <time>2010-12-12T08:10:00Z</time>
      </trkpt>
      <trkpt lat="43.57961" lon="3.75981">
        <ele>43.6</ele>
        <time>2010-12-12T08:10:01Z</time>
      </trkpt>
      <trkpt lat="43.57955" lon="3.75986">
        <ele>43.3</ele>
        <time>2010-12-12T08:10:02Z</time>
      </trkpt>
      <trkpt lat="43.5795" lon="3.75991">
        <ele>43</ele>
        <time>2010-12-12T08:10:03Z</time>
      </trkpt>
      <trkpt lat="43.57945" lon="3.75996">
        <ele>42.7</ele>
        <time>2010-12-12T08:10:04Z</time>
      </trkpt>
      <trkpt lat="43.57941" lon="3.76002">
        <ele>42.4</ele>
        <time>2010-12-12T08:10:05Z</time>
      </trkpt>
      <trkpt lat="43.57936" lon="3.76007">
        <ele>42</ele>
        <time>2010-12-12T08:10:06Z</time>
      </trkpt>
      <trkpt lat="43.57931" lon="3.76012">
        <ele>41.7</ele>
        <time>2010-12-12T08:10:07Z</time>
      </trkpt>
      <trkpt lat="43.57926" lon="3.76017">
        <ele>41.3</ele>
        <time>2010-12-12T08:10:08Z</time>
      </trkpt>
      <trkpt lat="43.57922" lon="3.76022">
        <ele>41</ele>
        <time>2010-12-12T08:10:09Z</time>
      </trkpt>
      <trkpt lat="43.57917" lon="3.76027">
        <ele>40.7</ele>
        <time>2010-12-12T08:10:10Z</time>
      </trkpt>
      <trkpt lat="43.57912" lon="3.76031">
        <ele>40.6</ele>
        <time>2010-12-12T08:10:11Z</time>
      </trkpt>
      <trkpt lat="43.57907" lon="3.76036">
        <ele>40.6</ele>
        <time>2010-12-12T08:10:12Z</time>
      </trkpt>
      <trkpt lat="43.57902" lon="3.76041">
        <ele>40.5</ele>
        <time>2010-12-12T08:10:13Z</time>
      </trkpt>
      <trkpt lat="43.57897" lon="3.76045">
        <ele>40.5</ele>
        <time>2010-12-12T08:10:14Z</time>
      </trkpt>
      <trkpt lat="43.57892" lon="3.7605">
        <ele>40.4</ele>
        <time>2010-12-12T08:10:15Z</time>
      </trkpt>
      <trkpt lat="43.57887" lon="3.76055">
        <ele>40.3</ele>
        <time>2010-12-12T08:10:16Z</time>
      </trkpt>
      <trkpt lat="43.57882" lon="3.76059">
        <ele>40.3</ele>
        <time>2010-12-12T08:10:17Z</time>
      </trkpt>
      <trkpt lat="43.57877" lon="3.76064">
        <ele>40.2</ele>
        <time>2010-12-12T08:10:18Z</time>
      </trkpt>
      <trkpt lat="43.57872" lon="3.7607">
        <ele>40.2</ele>
        <time>2010-12-12T08:10:19Z</time>
      </trkpt>
      <trkpt lat="43.57853" lon="3.76088">
        <ele>39.9</ele>
        <time>2010-12-12T08:10:22Z</time>
      </trkpt>
      <trkpt lat="43.57845" lon="3.76096">
        <ele>39.8</ele>
        <time>2010-12-12T08:10:24Z</time>
      </trkpt>
      <trkpt lat="43.5784" lon="3.76101">
        <ele>39.6</ele>
        <time>2010-12-12T08:10:25Z</time>
      </trkpt>
      <trkpt lat="43.57835" lon="3.76106">
        <ele>39.5</ele>
        <time>2010-12-12T08:10:26Z</time>
      </trkpt>
      <trkpt lat="43.5783" lon="3.7611">
        <ele>39.3</ele>
        <time>2010-12-12T08:10:27Z</time>
      </trkpt>
      <trkpt lat="43.57824" lon="3.76113">
        <ele>39.1</ele>
        <time>2010-12-12T08:10:28Z</time>
      </trkpt>
      <trkpt lat="43.57819" lon="3.76116">
        <ele>38.9</ele>
        <time>2010-12-12T08:10:29Z</time>
      </trkpt>
      <trkpt lat="43.57812" lon="3.76124">
        <ele>38.6</ele>
        <time>2010-12-12T08:10:31Z</time>
      </trkpt>
      <trkpt lat="43.57803" lon="3.76123">
        <ele>38.5</ele>
        <time>2010-12-12T08:10:35Z</time>
      </trkpt>
      <trkpt lat="43.57803" lon="3.7612">
        <ele>38.5</ele>
        <time>2010-12-12T08:10:36Z</time>
      </trkpt>
      <trkpt lat="43.57799" lon="3.76101">
        <ele>38.8</ele>
        <time>2010-12-12T08:10:42Z</time>
      </trkpt>
      <trkpt lat="43.57792" lon="3.76099">
        <ele>38.7</ele>
        <time>2010-12-12T08:10:46Z</time>
      </trkpt>
      <trkpt lat="43.57786" lon="3.76095">
        <ele>38.7</ele>
        <time>2010-12-12T08:10:48Z</time>
      </trkpt>
      <trkpt lat="43.57779" lon="3.76095">
        <ele>38.5</ele>
        <time>2010-12-12T08:10:50Z</time>
      </trkpt>
      <trkpt lat="43.57775" lon="3.76104">
        <ele>38.3</ele>
        <time>2010-12-12T08:10:52Z</time>
      </trkpt>
      <trkpt lat="43.57773" lon="3.76115">
        <ele>38.1</ele>
        <time>2010-12-12T08:10:54Z</time>
      </trkpt>
      <trkpt lat="43.57772" lon="3.76126">
        <ele>37.9</ele>
        <time>2010-12-12T08:10:56Z</time>
      </trkpt>
      <trkpt lat="43.57771" lon="3.76137">
        <ele>37.7</ele>
        <time>2010-12-12T08:10:58Z</time>
      </trkpt>
      <trkpt lat="43.57769" lon="3.76148">
        <ele>37.5</ele>
        <time>2010-12-12T08:11:00Z</time>
      </trkpt>
      <trkpt lat="43.57766" lon="3.76157">
        <ele>37.3</ele>
        <time>2010-12-12T08:11:02Z</time>
      </trkpt>
      <trkpt lat="43.57761" lon="3.76164">
        <ele>37.2</ele>
        <time>2010-12-12T08:11:04Z</time>
      </trkpt>
      <trkpt lat="43.57755" lon="3.7617">
        <ele>37</ele>
        <time>2010-12-12T08:11:06Z</time>
      </trkpt>
      <trkpt lat="43.57749" lon="3.76176">
        <ele>36.9</ele>
        <time>2010-12-12T08:11:08Z</time>
      </trkpt>
      <trkpt lat="43.57742" lon="3.76181">
        <ele>36.8</ele>
        <time>2010-12-12T08:11:10Z</time>
      </trkpt>
      <trkpt lat="43.57736" lon="3.76187">
        <ele>36.7</ele>
        <time>2010-12-12T08:11:12Z</time>
      </trkpt>
      <trkpt lat="43.5773" lon="3.76192">
        <ele>36.6</ele>
        <time>2010-12-12T08:11:14Z</time>
      </trkpt>
      <trkpt lat="43.57724" lon="3.76198">
        <ele>36.5</ele>
        <time>2010-12-12T08:11:16Z</time>
      </trkpt>
      <trkpt lat="43.57718" lon="3.76204">
        <ele>36.4</ele>
        <time>2010-12-12T08:11:18Z</time>
      </trkpt>
      <trkpt lat="43.57712" lon="3.7621">
        <ele>36.2</ele>
        <time>2010-12-12T08:11:20Z</time>
      </trkpt>
      <trkpt lat="43.57705" lon="3.76216">
        <ele>36.1</ele>
        <time>2010-12-12T08:11:22Z</time>
      </trkpt>
      <trkpt lat="43.57698" lon="3.76224">
        <ele>35.9</ele>
        <time>2010-12-12T08:11:24Z</time>
      </trkpt>
      <trkpt lat="43.57694" lon="3.76227">
        <ele>35.8</ele>
        <time>2010-12-12T08:11:25Z</time>
      </trkpt>
      <trkpt lat="43.5769" lon="3.76231">
        <ele>35.7</ele>
        <time>2010-12-12T08:11:26Z</time>
      </trkpt>
      <trkpt lat="43.57683" lon="3.76238">
        <ele>35.5</ele>
        <time>2010-12-12T08:11:28Z</time>
      </trkpt>
      <trkpt lat="43.57677" lon="3.76245">
        <ele>35.2</ele>
        <time>2010-12-12T08:11:30Z</time>
      </trkpt>
      <trkpt lat="43.5767" lon="3.76252">
        <ele>35</ele>
        <time>2010-12-12T08:11:32Z</time>
      </trkpt>
      <trkpt lat="43.57663" lon="3.76259">
        <ele>34.9</ele>
        <time>2010-12-12T08:11:34Z</time>
      </trkpt>
      <trkpt lat="43.57656" lon="3.76264">
        <ele>34.8</ele>
        <time>2010-12-12T08:11:36Z</time>
      </trkpt>
      <trkpt lat="43.57652" lon="3.76267">
        <ele>34.8</ele>
        <time>2010-12-12T08:11:37Z</time>
      </trkpt>
      <trkpt lat="43.57641" lon="3.76273">
        <ele>34.7</ele>
        <time>2010-12-12T08:11:40Z</time>
      </trkpt>
      <trkpt lat="43.57633" lon="3.76278">
        <ele>34.7</ele>
        <time>2010-12-12T08:11:42Z</time>
      </trkpt>
      <trkpt lat="43.57625" lon="3.76282">
        <ele>34.6</ele>
        <time>2010-12-12T08:11:44Z</time>
      </trkpt>
      <trkpt lat="43.57618" lon="3.76287">
        <ele>34.6</ele>
        <time>2010-12-12T08:11:46Z</time>
      </trkpt>
      <trkpt lat="43.5761" lon="3.76291">
        <ele>34.5</ele>
        <time>2010-12-12T08:11:48Z</time>
      </trkpt>
      <trkpt lat="43.57602" lon="3.76296">
        <ele>34.4</ele>
        <time>2010-12-12T08:11:50Z</time>
      </trkpt>
      <trkpt lat="43.57595" lon="3.76301">
        <ele>34.4</ele>
        <time>2010-12-12T08:11:52Z</time>
      </trkpt>
      <trkpt lat="43.57587" lon="3.76306">
        <ele>34.3</ele>
        <time>2010-12-12T08:11:54Z</time>
      </trkpt>
      <trkpt lat="43.5758" lon="3.76311">
        <ele>34.3</ele>
        <time>2010-12-12T08:11:56Z</time>
      </trkpt>
      <trkpt lat="43.57572" lon="3.76316">
        <ele>34.2</ele>
        <time>2010-12-12T08:11:58Z</time>
      </trkpt>
      <trkpt lat="43.57565" lon="3.76322">
        <ele>34.1</ele>
        <time>2010-12-12T08:12:00Z</time>
      </trkpt>
      <trkpt lat="43.57557" lon="3.76326">
        <ele>34.1</ele>
        <time>2010-12-12T08:12:02Z</time>
      </trkpt>
      <trkpt lat="43.5755" lon="3.76331">
        <ele>34</ele>
        <time>2010-12-12T08:12:04Z</time>
      </trkpt>
      <trkpt lat="43.57543" lon="3.76336">
        <ele>34</ele>
        <time>2010-12-12T08:12:06Z</time>
      </trkpt>
      <trkpt lat="43.57536" lon="3.7634">
        <ele>34</ele>
        <time>2010-12-12T08:12:08Z</time>
      </trkpt>
      <trkpt lat="43.57529" lon="3.76338">
        <ele>34</ele>
        <time>2010-12-12T08:12:10Z</time>
      </trkpt>
      <trkpt lat="43.57523" lon="3.76331">
        <ele>34</ele>
        <time>2010-12-12T08:12:12Z</time>
      </trkpt>
      <trkpt lat="43.57519" lon="3.76323">
        <ele>34</ele>
        <time>2010-12-12T08:12:14Z</time>
      </trkpt>
      <trkpt lat="43.57514" lon="3.76314">
        <ele>34</ele>
        <time>2010-12-12T08:12:16Z</time>
      </trkpt>
      <trkpt lat="43.57509" lon="3.76305">
        <ele>34</ele>
        <time>2010-12-12T08:12:18Z</time>
      </trkpt>
      <trkpt lat="43.57505" lon="3.76297">
        <ele>34</ele>
        <time>2010-12-12T08:12:20Z</time>
      </trkpt>
      <trkpt lat="43.575" lon="3.76287">
        <ele>34</ele>
        <time>2010-12-12T08:12:22Z</time>
      </trkpt>
      <trkpt lat="43.57495" lon="3.76278">
        <ele>33.9</ele>
        <time>2010-12-12T08:12:24Z</time>
      </trkpt>
      <trkpt lat="43.57489" lon="3.76269">
        <ele>33.7</ele>
        <time>2010-12-12T08:12:26Z</time>
      </trkpt>
      <trkpt lat="43.57484" lon="3.7626">
        <ele>33.6</ele>
        <time>2010-12-12T08:12:28Z</time>
      </trkpt>
      <trkpt lat="43.57479" lon="3.76251">
        <ele>33.5</ele>
        <time>2010-12-12T08:12:30Z</time>
      </trkpt>
      <trkpt lat="43.57473" lon="3.76243">
        <ele>33.4</ele>
        <time>2010-12-12T08:12:32Z</time>
      </trkpt>
      <trkpt lat="43.57468" lon="3.76234">
        <ele>33.3</ele>
        <time>2010-12-12T08:12:34Z</time>
      </trkpt>
      <trkpt lat="43.57463" lon="3.76226">
        <ele>33.2</ele>
        <time>2010-12-12T08:12:36Z</time>
      </trkpt>
      <trkpt lat="43.57458" lon="3.76218">
        <ele>33.2</ele>
        <time>2010-12-12T08:12:38Z</time>
      </trkpt>
      <trkpt lat="43.57456" lon="3.76214">
        <ele>33.2</ele>
        <time>2010-12-12T08:12:39Z</time>
      </trkpt>
      <trkpt lat="43.57449" lon="3.76203">
        <ele>33.1</ele>
        <time>2010-12-12T08:12:42Z</time>
      </trkpt>
      <trkpt lat="43.57444" lon="3.76195">
        <ele>33.1</ele>
        <time>2010-12-12T08:12:44Z</time>
      </trkpt>
      <trkpt lat="43.5744" lon="3.76187">
        <ele>33.1</ele>
        <time>2010-12-12T08:12:46Z</time>
      </trkpt>
      <trkpt lat="43.57435" lon="3.76179">
        <ele>33.1</ele>
        <time>2010-12-12T08:12:48Z</time>
      </trkpt>
      <trkpt lat="43.5743" lon="3.76174">
        <ele>33.1</ele>
        <time>2010-12-12T08:12:50Z</time>
      </trkpt>
      <trkpt lat="43.57424" lon="3.76169">
        <ele>33.1</ele>
        <time>2010-12-12T08:12:52Z</time>
      </trkpt>
      <trkpt lat="43.5742" lon="3.76163">
        <ele>33.1</ele>
        <time>2010-12-12T08:12:54Z</time>
      </trkpt>
      <trkpt lat="43.57415" lon="3.76156">
        <ele>33.3</ele>
        <time>2010-12-12T08:12:56Z</time>
      </trkpt>
      <trkpt lat="43.57411" lon="3.76148">
        <ele>33.4</ele>
        <time>2010-12-12T08:12:58Z</time>
      </trkpt>
      <trkpt lat="43.57406" lon="3.76141">
        <ele>33.6</ele>
        <time>2010-12-12T08:13:00Z</time>
      </trkpt>
      <trkpt lat="43.57402" lon="3.76134">
        <ele>33.7</ele>
        <time>2010-12-12T08:13:02Z</time>
      </trkpt>
      <trkpt lat="43.57398" lon="3.76127">
        <ele>33.8</ele>
        <time>2010-12-12T08:13:04Z</time>
      </trkpt>
      <trkpt lat="43.57393" lon="3.7612">
        <ele>34</ele>
        <time>2010-12-12T08:13:06Z</time>
      </trkpt>
      <trkpt lat="43.57389" lon="3.76113">
        <ele>34.1</ele>
        <time>2010-12-12T08:13:08Z</time>
      </trkpt>
      <trkpt lat="43.57384" lon="3.76106">
        <ele>34.2</ele>
        <time>2010-12-12T08:13:10Z</time>
      </trkpt>
      <trkpt lat="43.5738" lon="3.76099">
        <ele>34.3</ele>
        <time>2010-12-12T08:13:12Z</time>
      </trkpt>
      <trkpt lat="43.57375" lon="3.76092">
        <ele>34.4</ele>
        <time>2010-12-12T08:13:14Z</time>
      </trkpt>
      <trkpt lat="43.5737" lon="3.76085">
        <ele>34.4</ele>
        <time>2010-12-12T08:13:16Z</time>
      </trkpt>
      <trkpt lat="43.57365" lon="3.76077">
        <ele>34.4</ele>
        <time>2010-12-12T08:13:18Z</time>
      </trkpt>
      <trkpt lat="43.57361" lon="3.7607">
        <ele>34.3</ele>
        <time>2010-12-12T08:13:20Z</time>
      </trkpt>
      <trkpt lat="43.57356" lon="3.76062">
        <ele>34.3</ele>
        <time>2010-12-12T08:13:22Z</time>
      </trkpt>
      <trkpt lat="43.57351" lon="3.76055">
        <ele>34.2</ele>
        <time>2010-12-12T08:13:24Z</time>
      </trkpt>
      <trkpt lat="43.57347" lon="3.76047">
        <ele>34.2</ele>
        <time>2010-12-12T08:13:26Z</time>
      </trkpt>
      <trkpt lat="43.57342" lon="3.7604">
        <ele>34.1</ele>
        <time>2010-12-12T08:13:28Z</time>
      </trkpt>
      <trkpt lat="43.57337" lon="3.76032">
        <ele>34</ele>
        <time>2010-12-12T08:13:30Z</time>
      </trkpt>
      <trkpt lat="43.57333" lon="3.76024">
        <ele>34</ele>
        <time>2010-12-12T08:13:32Z</time>
      </trkpt>
      <trkpt lat="43.57328" lon="3.76016">
        <ele>34</ele>
        <time>2010-12-12T08:13:34Z</time>
      </trkpt>
      <trkpt lat="43.57323" lon="3.76009">
        <ele>34</ele>
        <time>2010-12-12T08:13:36Z</time>
      </trkpt>
      <trkpt lat="43.57319" lon="3.76001">
        <ele>34</ele>
        <time>2010-12-12T08:13:38Z</time>
      </trkpt>
      <trkpt lat="43.57314" lon="3.75994">
        <ele>34</ele>
        <time>2010-12-12T08:13:40Z</time>
      </trkpt>
      <trkpt lat="43.57312" lon="3.7599">
        <ele>34</ele>
        <time>2010-12-12T08:13:41Z</time>
      </trkpt>
      <trkpt lat="43.57305" lon="3.75978">
        <ele>34.1</ele>
        <time>2010-12-12T08:13:44Z</time>
      </trkpt>
      <trkpt lat="43.573" lon="3.7597">
        <ele>34.1</ele>
        <time>2010-12-12T08:13:46Z</time>
      </trkpt>
      <trkpt lat="43.57296" lon="3.75962">
        <ele>34.2</ele>
        <time>2010-12-12T08:13:48Z</time>
      </trkpt>
      <trkpt lat="43.57291" lon="3.75954">
        <ele>34.3</ele>
        <time>2010-12-12T08:13:50Z</time>
      </trkpt>
      <trkpt lat="43.57286" lon="3.75947">
        <ele>34.4</ele>
        <time>2010-12-12T08:13:52Z</time>
      </trkpt>
      <trkpt lat="43.57281" lon="3.75939">
        <ele>34.5</ele>
        <time>2010-12-12T08:13:54Z</time>
      </trkpt>
      <trkpt lat="43.57276" lon="3.75931">
        <ele>34.6</ele>
        <time>2010-12-12T08:13:56Z</time>
      </trkpt>
      <trkpt lat="43.57271" lon="3.75923">
        <ele>34.7</ele>
        <time>2010-12-12T08:13:58Z</time>
      </trkpt>
      <trkpt lat="43.57267" lon="3.75915">
        <ele>34.8</ele>
        <time>2010-12-12T08:14:00Z</time>
      </trkpt>
      <trkpt lat="43.57262" lon="3.75907">
        <ele>34.9</ele>
        <time>2010-12-12T08:14:02Z</time>
      </trkpt>
      <trkpt lat="43.57257" lon="3.75899">
        <ele>34.9</ele>
        <time>2010-12-12T08:14:04Z</time>
      </trkpt>
      <trkpt lat="43.57251" lon="3.75892">
        <ele>35</ele>
        <time>2010-12-12T08:14:06Z</time>
      </trkpt>
      <trkpt lat="43.57246" lon="3.75885">
        <ele>35</ele>
        <time>2010-12-12T08:14:08Z</time>
      </trkpt>
      <trkpt lat="43.57241" lon="3.75877">
        <ele>34.9</ele>
        <time>2010-12-12T08:14:10Z</time>
      </trkpt>
      <trkpt lat="43.57236" lon="3.7587">
        <ele>34.9</ele>
        <time>2010-12-12T08:14:12Z</time>
      </trkpt>
      <trkpt lat="43.5723" lon="3.75862">
        <ele>34.9</ele>
        <time>2010-12-12T08:14:14Z</time>
      </trkpt>
      <trkpt lat="43.57225" lon="3.75855">
        <ele>34.9</ele>
        <time>2010-12-12T08:14:16Z</time>
      </trkpt>
      <trkpt lat="43.5722" lon="3.75847">
        <ele>34.9</ele>
        <time>2010-12-12T08:14:18Z</time>
      </trkpt>
      <trkpt lat="43.57216" lon="3.75839">
        <ele>35</ele>
        <time>2010-12-12T08:14:20Z</time>
      </trkpt>
      <trkpt lat="43.57211" lon="3.75831">
        <ele>35</ele>
        <time>2010-12-12T08:14:22Z</time>
      </trkpt>
      <trkpt lat="43.57207" lon="3.75822">
        <ele>35.1</ele>
        <time>2010-12-12T08:14:24Z</time>
      </trkpt>
      <trkpt lat="43.57202" lon="3.75814">
        <ele>35.2</ele>
        <time>2010-12-12T08:14:26Z</time>
      </trkpt>
      <trkpt lat="43.57198" lon="3.75806">
        <ele>35.2</ele>
        <time>2010-12-12T08:14:28Z</time>
      </trkpt>
      <trkpt lat="43.57193" lon="3.75798">
        <ele>35.3</ele>
        <time>2010-12-12T08:14:30Z</time>
      </trkpt>
      <trkpt lat="43.57188" lon="3.7579">
        <ele>35.3</ele>
        <time>2010-12-12T08:14:32Z</time>
      </trkpt>
      <trkpt lat="43.57183" lon="3.75782">
        <ele>35.2</ele>
        <time>2010-12-12T08:14:34Z</time>
      </trkpt>
      <trkpt lat="43.57177" lon="3.75777">
        <ele>35.2</ele>
        <time>2010-12-12T08:14:36Z</time>
      </trkpt>
      <trkpt lat="43.5717" lon="3.75782">
        <ele>35</ele>
        <time>2010-12-12T08:14:39Z</time>
      </trkpt>
      <trkpt lat="43.57169" lon="3.75791">
        <ele>35</ele>
        <time>2010-12-12T08:14:41Z</time>
      </trkpt>
      <trkpt lat="43.57168" lon="3.75795">
        <ele>35</ele>
        <time>2010-12-12T08:14:42Z</time>
      </trkpt>
      <trkpt lat="43.57164" lon="3.75809">
        <ele>35</ele>
        <time>2010-12-12T08:14:45Z</time>
      </trkpt>
      <trkpt lat="43.5716" lon="3.75818">
        <ele>35.1</ele>
        <time>2010-12-12T08:14:47Z</time>
      </trkpt>
      <trkpt lat="43.57155" lon="3.75827">
        <ele>35.1</ele>
        <time>2010-12-12T08:14:49Z</time>
      </trkpt>
      <trkpt lat="43.5715" lon="3.75836">
        <ele>35.2</ele>
        <time>2010-12-12T08:14:51Z</time>
      </trkpt>
      <trkpt lat="43.57146" lon="3.75844">
        <ele>35.1</ele>
        <time>2010-12-12T08:14:53Z</time>
      </trkpt>
      <trkpt lat="43.57141" lon="3.75853">
        <ele>35</ele>
        <time>2010-12-12T08:14:55Z</time>
      </trkpt>
      <trkpt lat="43.57136" lon="3.75861">
        <ele>34.9</ele>
        <time>2010-12-12T08:14:57Z</time>
      </trkpt>
      <trkpt lat="43.5713" lon="3.75868">
        <ele>34.8</ele>
        <time>2010-12-12T08:14:59Z</time>
      </trkpt>
      <trkpt lat="43.57125" lon="3.75876">
        <ele>34.7</ele>
        <time>2010-12-12T08:15:01Z</time>
      </trkpt>
      <trkpt lat="43.5712" lon="3.75885">
        <ele>34.6</ele>
        <time>2010-12-12T08:15:03Z</time>
      </trkpt>
      <trkpt lat="43.57114" lon="3.75894">
        <ele>34.5</ele>
        <time>2010-12-12T08:15:05Z</time>
      </trkpt>
      <trkpt lat="43.57109" lon="3.75902">
        <ele>34.3</ele>
        <time>2010-12-12T08:15:07Z</time>
      </trkpt>
      <trkpt lat="43.57103" lon="3.7591">
        <ele>34.1</ele>
        <time>2010-12-12T08:15:09Z</time>
      </trkpt>
      <trkpt lat="43.57098" lon="3.75918">
        <ele>34</ele>
        <time>2010-12-12T08:15:11Z</time>
      </trkpt>
      <trkpt lat="43.57093" lon="3.75927">
        <ele>33.9</ele>
        <time>2010-12-12T08:15:13Z</time>
      </trkpt>
      <trkpt lat="43.57087" lon="3.75936">
        <ele>33.8</ele>
        <time>2010-12-12T08:15:15Z</time>
      </trkpt>
      <trkpt lat="43.57084" lon="3.75946">
        <ele>33.7</ele>
        <time>2010-12-12T08:15:17Z</time>
      </trkpt>
      <trkpt lat="43.57086" lon="3.75956">
        <ele>33.5</ele>
        <time>2010-12-12T08:15:19Z</time>
      </trkpt>
      <trkpt lat="43.57089" lon="3.75966">
        <ele>33.4</ele>
        <time>2010-12-12T08:15:21Z</time>
      </trkpt>
      <trkpt lat="43.57092" lon="3.75976">
        <ele>33.3</ele>
        <time>2010-12-12T08:15:23Z</time>
      </trkpt>
      <trkpt lat="43.57095" lon="3.75986">
        <ele>33.2</ele>
        <time>2010-12-12T08:15:25Z</time>
      </trkpt>
      <trkpt lat="43.57098" lon="3.75997">
        <ele>33</ele>
        <time>2010-12-12T08:15:27Z</time>
      </trkpt>
      <trkpt lat="43.571" lon="3.76007">
        <ele>33</ele>
        <time>2010-12-12T08:15:29Z</time>
      </trkpt>
      <trkpt lat="43.57104" lon="3.76017">
        <ele>33.1</ele>
        <time>2010-12-12T08:15:31Z</time>
      </trkpt>
      <trkpt lat="43.5711" lon="3.76025">
        <ele>33.1</ele>
        <time>2010-12-12T08:15:33Z</time>
      </trkpt>
      <trkpt lat="43.57116" lon="3.76032">
        <ele>33.1</ele>
        <time>2010-12-12T08:15:35Z</time>
      </trkpt>
      <trkpt lat="43.57121" lon="3.76041">
        <ele>33</ele>
        <time>2010-12-12T08:15:37Z</time>
      </trkpt>
      <trkpt lat="43.57126" lon="3.76049">
        <ele>33</ele>
        <time>2010-12-12T08:15:39Z</time>
      </trkpt>
      <trkpt lat="43.57131" lon="3.76058">
        <ele>32.9</ele>
        <time>2010-12-12T08:15:41Z</time>
      </trkpt>
      <trkpt lat="43.57136" lon="3.76067">
        <ele>32.8</ele>
        <time>2010-12-12T08:15:43Z</time>
      </trkpt>
      <trkpt lat="43.57138" lon="3.76071">
        <ele>32.7</ele>
        <time>2010-12-12T08:15:44Z</time>
      </trkpt>
      <trkpt lat="43.57146" lon="3.76084">
        <ele>32.5</ele>
        <time>2010-12-12T08:15:47Z</time>
      </trkpt>
      <trkpt lat="43.57151" lon="3.76092">
        <ele>32.3</ele>
        <time>2010-12-12T08:15:49Z</time>
      </trkpt>
      <trkpt lat="43.57156" lon="3.76101">
        <ele>32.1</ele>
        <time>2010-12-12T08:15:51Z</time>
      </trkpt>
      <trkpt lat="43.57161" lon="3.7611">
        <ele>31.8</ele>
        <time>2010-12-12T08:15:53Z</time>
      </trkpt>
      <trkpt lat="43.57167" lon="3.76118">
        <ele>31.6</ele>
        <time>2010-12-12T08:15:55Z</time>
      </trkpt>
      <trkpt lat="43.57168" lon="3.76129">
        <ele>31.5</ele>
        <time>2010-12-12T08:15:58Z</time>
      </trkpt>
      <trkpt lat="43.57163" lon="3.76135">
        <ele>31.5</ele>
        <time>2010-12-12T08:16:00Z</time>
      </trkpt>
      <trkpt lat="43.57158" lon="3.76141">
        <ele>31.5</ele>
        <time>2010-12-12T08:16:02Z</time>
      </trkpt>
      <trkpt lat="43.57152" lon="3.76147">
        <ele>31.6</ele>
        <time>2010-12-12T08:16:04Z</time>
      </trkpt>
      <trkpt lat="43.57146" lon="3.76153">
        <ele>31.7</ele>
        <time>2010-12-12T08:16:06Z</time>
      </trkpt>
      <trkpt lat="43.5714" lon="3.7616">
        <ele>31.7</ele>
        <time>2010-12-12T08:16:08Z</time>
      </trkpt>
      <trkpt lat="43.57134" lon="3.76166">
        <ele>31.8</ele>
        <time>2010-12-12T08:16:10Z</time>
      </trkpt>
      <trkpt lat="43.57129" lon="3.76173">
        <ele>32.1</ele>
        <time>2010-12-12T08:16:12Z</time>
      </trkpt>
      <trkpt lat="43.57128" lon="3.76183">
        <ele>32.3</ele>
        <time>2010-12-12T08:16:14Z</time>
      </trkpt>
      <trkpt lat="43.57132" lon="3.7619">
        <ele>32.4</ele>
        <time>2010-12-12T08:16:16Z</time>
      </trkpt>
      <trkpt lat="43.57136" lon="3.76198">
        <ele>32.5</ele>
        <time>2010-12-12T08:16:18Z</time>
      </trkpt>
      <trkpt lat="43.5714" lon="3.76207">
        <ele>32.6</ele>
        <time>2010-12-12T08:16:20Z</time>
      </trkpt>
      <trkpt lat="43.57144" lon="3.76215">
        <ele>32.7</ele>
        <time>2010-12-12T08:16:22Z</time>
      </trkpt>
      <trkpt lat="43.57148" lon="3.76225">
        <ele>32.8</ele>
        <time>2010-12-12T08:16:24Z</time>
      </trkpt>
      <trkpt lat="43.57152" lon="3.76233">
        <ele>33</ele>
        <time>2010-12-12T08:16:26Z</time>
      </trkpt>
      <trkpt lat="43.57156" lon="3.76243">
        <ele>33.1</ele>
        <time>2010-12-12T08:16:28Z</time>
      </trkpt>
      <trkpt lat="43.57159" lon="3.76252">
        <ele>33.3</ele>
        <time>2010-12-12T08:16:30Z</time>
      </trkpt>
      <trkpt lat="43.57161" lon="3.76263">
        <ele>33.5</ele>
        <time>2010-12-12T08:16:32Z</time>
      </trkpt>
      <trkpt lat="43.57163" lon="3.76273">
        <ele>33.7</ele>
        <time>2010-12-12T08:16:34Z</time>
      </trkpt>
      <trkpt lat="43.57165" lon="3.76284">
        <ele>33.9</ele>
        <time>2010-12-12T08:16:36Z</time>
      </trkpt>
      <trkpt lat="43.57167" lon="3.76294">
        <ele>34.1</ele>
        <time>2010-12-12T08:16:38Z</time>
      </trkpt>
      <trkpt lat="43.5717" lon="3.76305">
        <ele>34.2</ele>
        <time>2010-12-12T08:16:40Z</time>
      </trkpt>
      <trkpt lat="43.57172" lon="3.76315">
        <ele>34.4</ele>
        <time>2010-12-12T08:16:42Z</time>
      </trkpt>
      <trkpt lat="43.57175" lon="3.76326">
        <ele>34.5</ele>
        <time>2010-12-12T08:16:44Z</time>
      </trkpt>
      <trkpt lat="43.57176" lon="3.76331">
        <ele>34.6</ele>
        <time>2010-12-12T08:16:45Z</time>
      </trkpt>
      <trkpt lat="43.57179" lon="3.76346">
        <ele>34.7</ele>
        <time>2010-12-12T08:16:48Z</time>
      </trkpt>
      <trkpt lat="43.57182" lon="3.76356">
        <ele>34.8</ele>
        <time>2010-12-12T08:16:50Z</time>
      </trkpt>
      <trkpt lat="43.57184" lon="3.76366">
        <ele>34.8</ele>
        <time>2010-12-12T08:16:52Z</time>
      </trkpt>
      <trkpt lat="43.57187" lon="3.76376">
        <ele>34.9</ele>
        <time>2010-12-12T08:16:54Z</time>
      </trkpt>
      <trkpt lat="43.57189" lon="3.76385">
        <ele>35</ele>
        <time>2010-12-12T08:16:56Z</time>
      </trkpt>
      <trkpt lat="43.57192" lon="3.76392">
        <ele>35</ele>
        <time>2010-12-12T08:16:58Z</time>
      </trkpt>
      <trkpt lat="43.57196" lon="3.76402">
        <ele>35.1</ele>
        <time>2010-12-12T08:17:00Z</time>
      </trkpt>
      <trkpt lat="43.57198" lon="3.76407">
        <ele>35.1</ele>
        <time>2010-12-12T08:17:01Z</time>
      </trkpt>
      <trkpt lat="43.572" lon="3.76413">
        <ele>35.1</ele>
        <time>2010-12-12T08:17:02Z</time>
      </trkpt>
      <trkpt lat="43.57202" lon="3.76419">
        <ele>35.1</ele>
        <time>2010-12-12T08:17:03Z</time>
      </trkpt>
      <trkpt lat="43.57204" lon="3.76425">
        <ele>34.8</ele>
        <time>2010-12-12T08:17:04Z</time>
      </trkpt>
      <trkpt lat="43.57206" lon="3.76431">
        <ele>34.6</ele>
        <time>2010-12-12T08:17:05Z</time>
      </trkpt>
      <trkpt lat="43.57208" lon="3.76437">
        <ele>34.3</ele>
        <time>2010-12-12T08:17:06Z</time>
      </trkpt>
      <trkpt lat="43.5721" lon="3.76442">
        <ele>34</ele>
        <time>2010-12-12T08:17:07Z</time>
      </trkpt>
      <trkpt lat="43.57212" lon="3.76448">
        <ele>33.8</ele>
        <time>2010-12-12T08:17:08Z</time>
      </trkpt>
      <trkpt lat="43.57214" lon="3.76454">
        <ele>33.5</ele>
        <time>2010-12-12T08:17:09Z</time>
      </trkpt>
      <trkpt lat="43.57216" lon="3.76459">
        <ele>33.3</ele>
        <time>2010-12-12T08:17:10Z</time>
      </trkpt>
      <trkpt lat="43.57218" lon="3.76465">
        <ele>33</ele>
        <time>2010-12-12T08:17:11Z</time>
      </trkpt>
      <trkpt lat="43.5722" lon="3.76471">
        <ele>32.8</ele>
        <time>2010-12-12T08:17:12Z</time>
      </trkpt>
      <trkpt lat="43.57224" lon="3.76483">
        <ele>32.3</ele>
        <time>2010-12-12T08:17:14Z</time>
      </trkpt>
      <trkpt lat="43.57218" lon="3.76492">
        <ele>32.1</ele>
        <time>2010-12-12T08:17:19Z</time>
      </trkpt>
      <trkpt lat="43.57211" lon="3.76487">
        <ele>32.4</ele>
        <time>2010-12-12T08:17:22Z</time>
      </trkpt>
      <trkpt lat="43.57205" lon="3.76485">
        <ele>32.6</ele>
        <time>2010-12-12T08:17:24Z</time>
      </trkpt>
      <trkpt lat="43.57199" lon="3.76483">
        <ele>32.8</ele>
        <time>2010-12-12T08:17:26Z</time>
      </trkpt>
      <trkpt lat="43.57193" lon="3.7648">
        <ele>33.1</ele>
        <time>2010-12-12T08:17:28Z</time>
      </trkpt>
      <trkpt lat="43.57187" lon="3.76478">
        <ele>33.3</ele>
        <time>2010-12-12T08:17:30Z</time>
      </trkpt>
      <trkpt lat="43.5718" lon="3.76476">
        <ele>33.5</ele>
        <time>2010-12-12T08:17:32Z</time>
      </trkpt>
      <trkpt lat="43.57173" lon="3.76473">
        <ele>33.8</ele>
        <time>2010-12-12T08:17:34Z</time>
      </trkpt>
      <trkpt lat="43.57167" lon="3.76472">
        <ele>34</ele>
        <time>2010-12-12T08:17:36Z</time>
      </trkpt>
      <trkpt lat="43.5716" lon="3.76471">
        <ele>34.5</ele>
        <time>2010-12-12T08:17:38Z</time>
      </trkpt>
      <trkpt lat="43.57153" lon="3.7647">
        <ele>35</ele>
        <time>2010-12-12T08:17:40Z</time>
      </trkpt>
      <trkpt lat="43.57145" lon="3.76471">
        <ele>35.5</ele>
        <time>2010-12-12T08:17:42Z</time>
      </trkpt>
      <trkpt lat="43.57138" lon="3.76472">
        <ele>36</ele>
        <time>2010-12-12T08:17:44Z</time>
      </trkpt>
      <trkpt lat="43.57131" lon="3.76473">
        <ele>36.4</ele>
        <time>2010-12-12T08:17:46Z</time>
      </trkpt>
      <trkpt lat="43.57128" lon="3.76474">
        <ele>36.6</ele>
        <time>2010-12-12T08:17:47Z</time>
      </trkpt>
      <trkpt lat="43.57117" lon="3.76477">
        <ele>37</ele>
        <time>2010-12-12T08:17:50Z</time>
      </trkpt>
      <trkpt lat="43.5711" lon="3.76479">
        <ele>37.4</ele>
        <time>2010-12-12T08:17:52Z</time>
      </trkpt>
      <trkpt lat="43.57103" lon="3.76481">
        <ele>37.6</ele>
        <time>2010-12-12T08:17:54Z</time>
      </trkpt>
      <trkpt lat="43.57096" lon="3.76482">
        <ele>37.9</ele>
        <time>2010-12-12T08:17:56Z</time>
      </trkpt>
      <trkpt lat="43.57089" lon="3.76485">
        <ele>38.1</ele>
        <time>2010-12-12T08:17:58Z</time>
      </trkpt>
      <trkpt lat="43.57082" lon="3.76487">
        <ele>38.3</ele>
        <time>2010-12-12T08:18:00Z</time>
      </trkpt>
      <trkpt lat="43.57076" lon="3.76488">
        <ele>38.3</ele>
        <time>2010-12-12T08:18:02Z</time>
      </trkpt>
      <trkpt lat="43.57069" lon="3.76489">
        <ele>38.5</ele>
        <time>2010-12-12T08:18:04Z</time>
      </trkpt>
      <trkpt lat="43.57062" lon="3.76489">
        <ele>38.7</ele>
        <time>2010-12-12T08:18:06Z</time>
      </trkpt>
      <trkpt lat="43.57056" lon="3.7649">
        <ele>38.8</ele>
        <time>2010-12-12T08:18:08Z</time>
      </trkpt>
      <trkpt lat="43.57049" lon="3.7649">
        <ele>39</ele>
        <time>2010-12-12T08:18:10Z</time>
      </trkpt>
      <trkpt lat="43.57042" lon="3.76491">
        <ele>39.2</ele>
        <time>2010-12-12T08:18:12Z</time>
      </trkpt>
      <trkpt lat="43.57034" lon="3.76492">
        <ele>39.3</ele>
        <time>2010-12-12T08:18:14Z</time>
      </trkpt>
      <trkpt lat="43.57027" lon="3.76494">
        <ele>39.4</ele>
        <time>2010-12-12T08:18:16Z</time>
      </trkpt>
      <trkpt lat="43.5702" lon="3.76496">
        <ele>39.5</ele>
        <time>2010-12-12T08:18:18Z</time>
      </trkpt>
      <trkpt lat="43.57014" lon="3.76497">
        <ele>39.7</ele>
        <time>2010-12-12T08:18:20Z</time>
      </trkpt>
      <trkpt lat="43.57007" lon="3.76498">
        <ele>39.9</ele>
        <time>2010-12-12T08:18:22Z</time>
      </trkpt>
      <trkpt lat="43.56999" lon="3.76499">
        <ele>40.1</ele>
        <time>2010-12-12T08:18:24Z</time>
      </trkpt>
      <trkpt lat="43.56992" lon="3.76499">
        <ele>40.1</ele>
        <time>2010-12-12T08:18:26Z</time>
      </trkpt>
      <trkpt lat="43.56985" lon="3.76499">
        <ele>40.2</ele>
        <time>2010-12-12T08:18:28Z</time>
      </trkpt>
      <trkpt lat="43.56977" lon="3.76499">
        <ele>40.3</ele>
        <time>2010-12-12T08:18:30Z</time>
      </trkpt>
      <trkpt lat="43.5697" lon="3.76498">
        <ele>40.4</ele>
        <time>2010-12-12T08:18:32Z</time>
      </trkpt>
      <trkpt lat="43.56963" lon="3.76498">
        <ele>40.5</ele>
        <time>2010-12-12T08:18:34Z</time>
      </trkpt>
      <trkpt lat="43.56955" lon="3.76498">
        <ele>40.6</ele>
        <time>2010-12-12T08:18:36Z</time>
      </trkpt>
      <trkpt lat="43.56947" lon="3.76497">
        <ele>40.7</ele>
        <time>2010-12-12T08:18:38Z</time>
      </trkpt>
      <trkpt lat="43.5694" lon="3.76497">
        <ele>40.8</ele>
        <time>2010-12-12T08:18:40Z</time>
      </trkpt>
      <trkpt lat="43.56932" lon="3.76496">
        <ele>40.9</ele>
        <time>2010-12-12T08:18:42Z</time>
      </trkpt>
      <trkpt lat="43.56924" lon="3.76496">
        <ele>41</ele>
        <time>2010-12-12T08:18:44Z</time>
      </trkpt>
      <trkpt lat="43.56916" lon="3.76494">
        <ele>41.1</ele>
        <time>2010-12-12T08:18:46Z</time>
      </trkpt>
      <trkpt lat="43.56907" lon="3.76493">
        <ele>41.2</ele>
        <time>2010-12-12T08:18:48Z</time>
      </trkpt>
      <trkpt lat="43.56903" lon="3.76493">
        <ele>41.2</ele>
        <time>2010-12-12T08:18:49Z</time>
      </trkpt>
      <trkpt lat="43.56891" lon="3.7649">
        <ele>41.4</ele>
        <time>2010-12-12T08:18:52Z</time>
      </trkpt>
      <trkpt lat="43.56883" lon="3.76487">
        <ele>41.4</ele>
        <time>2010-12-12T08:18:54Z</time>
      </trkpt>
      <trkpt lat="43.56874" lon="3.76483">
        <ele>41.5</ele>
        <time>2010-12-12T08:18:56Z</time>
      </trkpt>
      <trkpt lat="43.56866" lon="3.76479">
        <ele>41.6</ele>
        <time>2010-12-12T08:18:58Z</time>
      </trkpt>
      <trkpt lat="43.56858" lon="3.76477">
        <ele>41.6</ele>
        <time>2010-12-12T08:19:00Z</time>
      </trkpt>
      <trkpt lat="43.56851" lon="3.76475">
        <ele>41.6</ele>
        <time>2010-12-12T08:19:02Z</time>
      </trkpt>
      <trkpt lat="43.56844" lon="3.76473">
        <ele>41.6</ele>
        <time>2010-12-12T08:19:04Z</time>
      </trkpt>
      <trkpt lat="43.56837" lon="3.76471">
        <ele>41.6</ele>
        <time>2010-12-12T08:19:06Z</time>
      </trkpt>
      <trkpt lat="43.5683" lon="3.7647">
        <ele>41.8</ele>
        <time>2010-12-12T08:19:08Z</time>
      </trkpt>
      <trkpt lat="43.56823" lon="3.76468">
        <ele>42</ele>
        <time>2010-12-12T08:19:10Z</time>
      </trkpt>
      <trkpt lat="43.56816" lon="3.76467">
        <ele>42.1</ele>
        <time>2010-12-12T08:19:12Z</time>
      </trkpt>
      <trkpt lat="43.56809" lon="3.76466">
        <ele>42.3</ele>
        <time>2010-12-12T08:19:14Z</time>
      </trkpt>
      <trkpt lat="43.56802" lon="3.76465">
        <ele>42.5</ele>
        <time>2010-12-12T08:19:16Z</time>
      </trkpt>
      <trkpt lat="43.56795" lon="3.76464">
        <ele>42.7</ele>
        <time>2010-12-12T08:19:18Z</time>
      </trkpt>
      <trkpt lat="43.56788" lon="3.76463">
        <ele>42.9</ele>
        <time>2010-12-12T08:19:20Z</time>
      </trkpt>
      <trkpt lat="43.56781" lon="3.76462">
        <ele>43.1</ele>
        <time>2010-12-12T08:19:22Z</time>
      </trkpt>
      <trkpt lat="43.56775" lon="3.76461">
        <ele>43.3</ele>
        <time>2010-12-12T08:19:24Z</time>
      </trkpt>
      <trkpt lat="43.56768" lon="3.76461">
        <ele>43.5</ele>
        <time>2010-12-12T08:19:26Z</time>
      </trkpt>
      <trkpt lat="43.56761" lon="3.76462">
        <ele>43.8</ele>
        <time>2010-12-12T08:19:28Z</time>
      </trkpt>
      <trkpt lat="43.56754" lon="3.76462">
        <ele>44</ele>
        <time>2010-12-12T08:19:30Z</time>
      </trkpt>
      <trkpt lat="43.56747" lon="3.76462">
        <ele>44.1</ele>
        <time>2010-12-12T08:19:32Z</time>
      </trkpt>
      <trkpt lat="43.5674" lon="3.76463">
        <ele>44.3</ele>
        <time>2010-12-12T08:19:34Z</time>
      </trkpt>
      <trkpt lat="43.56733" lon="3.76463">
        <ele>44.4</ele>
        <time>2010-12-12T08:19:36Z</time>
      </trkpt>
      <trkpt lat="43.56726" lon="3.76463">
        <ele>44.5</ele>
        <time>2010-12-12T08:19:38Z</time>
      </trkpt>
      <trkpt lat="43.56719" lon="3.76463">
        <ele>44.7</ele>
        <time>2010-12-12T08:19:40Z</time>
      </trkpt>
      <trkpt lat="43.56712" lon="3.76463">
        <ele>44.8</ele>
        <time>2010-12-12T08:19:42Z</time>
      </trkpt>
      <trkpt lat="43.56704" lon="3.76463">
        <ele>44.9</ele>
        <time>2010-12-12T08:19:44Z</time>
      </trkpt>
      <trkpt lat="43.56696" lon="3.76464">
        <ele>45.1</ele>
        <time>2010-12-12T08:19:46Z</time>
      </trkpt>
      <trkpt lat="43.56689" lon="3.76464">
        <ele>45.2</ele>
        <time>2010-12-12T08:19:48Z</time>
      </trkpt>
      <trkpt lat="43.56681" lon="3.76463">
        <ele>45.3</ele>
        <time>2010-12-12T08:19:50Z</time>
      </trkpt>
      <trkpt lat="43.56677" lon="3.76463">
        <ele>45.4</ele>
        <time>2010-12-12T08:19:51Z</time>
      </trkpt>
      <trkpt lat="43.56665" lon="3.76464">
        <ele>45.6</ele>
        <time>2010-12-12T08:19:54Z</time>
      </trkpt>
      <trkpt lat="43.56657" lon="3.76464">
        <ele>45.7</ele>
        <time>2010-12-12T08:19:56Z</time>
      </trkpt>
      <trkpt lat="43.56649" lon="3.76464">
        <ele>45.9</ele>
        <time>2010-12-12T08:19:58Z</time>
      </trkpt>
      <trkpt lat="43.56642" lon="3.76464">
        <ele>46</ele>
        <time>2010-12-12T08:20:00Z</time>
      </trkpt>
      <trkpt lat="43.56634" lon="3.76464">
        <ele>46.1</ele>
        <time>2010-12-12T08:20:02Z</time>
      </trkpt>
      <trkpt lat="43.56626" lon="3.76464">
        <ele>46.3</ele>
        <time>2010-12-12T08:20:04Z</time>
      </trkpt>
      <trkpt lat="43.56618" lon="3.76464">
        <ele>46.4</ele>
        <time>2010-12-12T08:20:06Z</time>
      </trkpt>
      <trkpt lat="43.5661" lon="3.76465">
        <ele>46.5</ele>
        <time>2010-12-12T08:20:08Z</time>
      </trkpt>
      <trkpt lat="43.56603" lon="3.76465">
        <ele>46.7</ele>
        <time>2010-12-12T08:20:10Z</time>
      </trkpt>
      <trkpt lat="43.56595" lon="3.76465">
        <ele>46.8</ele>
        <time>2010-12-12T08:20:12Z</time>
      </trkpt>
      <trkpt lat="43.5659" lon="3.76465">
        <ele>46.9</ele>
        <time>2010-12-12T08:20:13Z</time>
      </trkpt>
      <trkpt lat="43.56586" lon="3.76464">
        <ele>47</ele>
        <time>2010-12-12T08:20:14Z</time>
      </trkpt>
      <trkpt lat="43.5658" lon="3.76463">
        <ele>46.9</ele>
        <time>2010-12-12T08:20:15Z</time>
      </trkpt>
      <trkpt lat="43.56575" lon="3.76463">
        <ele>46.6</ele>
        <time>2010-12-12T08:20:16Z</time>
      </trkpt>
      <trkpt lat="43.5657" lon="3.76462">
        <ele>46.4</ele>
        <time>2010-12-12T08:20:17Z</time>
      </trkpt>
      <trkpt lat="43.56565" lon="3.7646">
        <ele>46.1</ele>
        <time>2010-12-12T08:20:18Z</time>
      </trkpt>
      <trkpt lat="43.5656" lon="3.7646">
        <ele>45.9</ele>
        <time>2010-12-12T08:20:19Z</time>
      </trkpt>
      <trkpt lat="43.56554" lon="3.76459">
        <ele>45.6</ele>
        <time>2010-12-12T08:20:20Z</time>
      </trkpt>
      <trkpt lat="43.56548" lon="3.7646">
        <ele>45.3</ele>
        <time>2010-12-12T08:20:21Z</time>
      </trkpt>
      <trkpt lat="43.56543" lon="3.7646">
        <ele>45</ele>
        <time>2010-12-12T08:20:22Z</time>
      </trkpt>
      <trkpt lat="43.56537" lon="3.7646">
        <ele>44.8</ele>
        <time>2010-12-12T08:20:23Z</time>
      </trkpt>
      <trkpt lat="43.56531" lon="3.76459">
        <ele>44.5</ele>
        <time>2010-12-12T08:20:24Z</time>
      </trkpt>
      <trkpt lat="43.56525" lon="3.76457">
        <ele>44.2</ele>
        <time>2010-12-12T08:20:25Z</time>
      </trkpt>
      <trkpt lat="43.56519" lon="3.76454">
        <ele>43.9</ele>
        <time>2010-12-12T08:20:26Z</time>
      </trkpt>
      <trkpt lat="43.56514" lon="3.7645">
        <ele>43.7</ele>
        <time>2010-12-12T08:20:27Z</time>
      </trkpt>
      <trkpt lat="43.56508" lon="3.76446">
        <ele>43.4</ele>
        <time>2010-12-12T08:20:28Z</time>
      </trkpt>
      <trkpt lat="43.56502" lon="3.76442">
        <ele>43.1</ele>
        <time>2010-12-12T08:20:29Z</time>
      </trkpt>
      <trkpt lat="43.56496" lon="3.76438">
        <ele>42.8</ele>
        <time>2010-12-12T08:20:30Z</time>
      </trkpt>
      <trkpt lat="43.5649" lon="3.76434">
        <ele>42.6</ele>
        <time>2010-12-12T08:20:31Z</time>
      </trkpt>
      <trkpt lat="43.56484" lon="3.7643">
        <ele>42.4</ele>
        <time>2010-12-12T08:20:32Z</time>
      </trkpt>
      <trkpt lat="43.56478" lon="3.76426">
        <ele>42.2</ele>
        <time>2010-12-12T08:20:33Z</time>
      </trkpt>
      <trkpt lat="43.56473" lon="3.76422">
        <ele>42</ele>
        <time>2010-12-12T08:20:34Z</time>
      </trkpt>
      <trkpt lat="43.56467" lon="3.76417">
        <ele>41.8</ele>
        <time>2010-12-12T08:20:35Z</time>
      </trkpt>
      <trkpt lat="43.56463" lon="3.76412">
        <ele>41.8</ele>
        <time>2010-12-12T08:20:36Z</time>
      </trkpt>
      <trkpt lat="43.56458" lon="3.76407">
        <ele>41.9</ele>
        <time>2010-12-12T08:20:37Z</time>
      </trkpt>
      <trkpt lat="43.56454" lon="3.76401">
        <ele>41.9</ele>
        <time>2010-12-12T08:20:38Z</time>
      </trkpt>
      <trkpt lat="43.56449" lon="3.76396">
        <ele>41.9</ele>
        <time>2010-12-12T08:20:39Z</time>
      </trkpt>
      <trkpt lat="43.56445" lon="3.76392">
        <ele>41.8</ele>
        <time>2010-12-12T08:20:40Z</time>
      </trkpt>
      <trkpt lat="43.5644" lon="3.76389">
        <ele>41.7</ele>
        <time>2010-12-12T08:20:41Z</time>
      </trkpt>
      <trkpt lat="43.56434" lon="3.76386">
        <ele>41.5</ele>
        <time>2010-12-12T08:20:42Z</time>
      </trkpt>
      <trkpt lat="43.56429" lon="3.76385">
        <ele>41.3</ele>
        <time>2010-12-12T08:20:43Z</time>
      </trkpt>
      <trkpt lat="43.56424" lon="3.76384">
        <ele>41.1</ele>
        <time>2010-12-12T08:20:44Z</time>
      </trkpt>
      <trkpt lat="43.56418" lon="3.76385">
        <ele>40.8</ele>
        <time>2010-12-12T08:20:45Z</time>
      </trkpt>
      <trkpt lat="43.56413" lon="3.76386">
        <ele>40.7</ele>
        <time>2010-12-12T08:20:46Z</time>
      </trkpt>
      <trkpt lat="43.56407" lon="3.76389">
        <ele>40.5</ele>
        <time>2010-12-12T08:20:47Z</time>
      </trkpt>
      <trkpt lat="43.56402" lon="3.76393">
        <ele>40.3</ele>
        <time>2010-12-12T08:20:48Z</time>
      </trkpt>
      <trkpt lat="43.56397" lon="3.76398">
        <ele>40</ele>
        <time>2010-12-12T08:20:49Z</time>
      </trkpt>
      <trkpt lat="43.56391" lon="3.76404">
        <ele>39.8</ele>
        <time>2010-12-12T08:20:50Z</time>
      </trkpt>
      <trkpt lat="43.56386" lon="3.76409">
        <ele>39.5</ele>
        <time>2010-12-12T08:20:51Z</time>
      </trkpt>
      <trkpt lat="43.5638" lon="3.76413">
        <ele>39.2</ele>
        <time>2010-12-12T08:20:52Z</time>
      </trkpt>
      <trkpt lat="43.56374" lon="3.76417">
        <ele>39</ele>
        <time>2010-12-12T08:20:53Z</time>
      </trkpt>
      <trkpt lat="43.56368" lon="3.7642">
        <ele>38.8</ele>
        <time>2010-12-12T08:20:54Z</time>
      </trkpt>
      <trkpt lat="43.56362" lon="3.76422">
        <ele>38.6</ele>
        <time>2010-12-12T08:20:55Z</time>
      </trkpt>
      <trkpt lat="43.56356" lon="3.76424">
        <ele>38.4</ele>
        <time>2010-12-12T08:20:56Z</time>
      </trkpt>
      <trkpt lat="43.5635" lon="3.76425">
        <ele>38.3</ele>
        <time>2010-12-12T08:20:57Z</time>
      </trkpt>
      <trkpt lat="43.56344" lon="3.76426">
        <ele>38.1</ele>
        <time>2010-12-12T08:20:58Z</time>
      </trkpt>
      <trkpt lat="43.56338" lon="3.76427">
        <ele>38</ele>
        <time>2010-12-12T08:20:59Z</time>
      </trkpt>
      <trkpt lat="43.56332" lon="3.76429">
        <ele>37.8</ele>
        <time>2010-12-12T08:21:00Z</time>
      </trkpt>
      <trkpt lat="43.56326" lon="3.7643">
        <ele>37.8</ele>
        <time>2010-12-12T08:21:01Z</time>
      </trkpt>
      <trkpt lat="43.56321" lon="3.76431">
        <ele>37.7</ele>
        <time>2010-12-12T08:21:02Z</time>
      </trkpt>
      <trkpt lat="43.56315" lon="3.76432">
        <ele>37.6</ele>
        <time>2010-12-12T08:21:03Z</time>
      </trkpt>
      <trkpt lat="43.56309" lon="3.76433">
        <ele>37.5</ele>
        <time>2010-12-12T08:21:04Z</time>
      </trkpt>
      <trkpt lat="43.56303" lon="3.76435">
        <ele>37.4</ele>
        <time>2010-12-12T08:21:05Z</time>
      </trkpt>
      <trkpt lat="43.56297" lon="3.76437">
        <ele>37.3</ele>
        <time>2010-12-12T08:21:06Z</time>
      </trkpt>
      <trkpt lat="43.56292" lon="3.76438">
        <ele>37.2</ele>
        <time>2010-12-12T08:21:07Z</time>
      </trkpt>
      <trkpt lat="43.56286" lon="3.7644">
        <ele>37.2</ele>
        <time>2010-12-12T08:21:08Z</time>
      </trkpt>
      <trkpt lat="43.56281" lon="3.76442">
        <ele>37.1</ele>
        <time>2010-12-12T08:21:09Z</time>
      </trkpt>
      <trkpt lat="43.56275" lon="3.76443">
        <ele>37</ele>
        <time>2010-12-12T08:21:10Z</time>
      </trkpt>
      <trkpt lat="43.56269" lon="3.76445">
        <ele>36.9</ele>
        <time>2010-12-12T08:21:11Z</time>
      </trkpt>
      <trkpt lat="43.56264" lon="3.76446">
        <ele>36.8</ele>
        <time>2010-12-12T08:21:12Z</time>
      </trkpt>
      <trkpt lat="43.56259" lon="3.76447">
        <ele>36.7</ele>
        <time>2010-12-12T08:21:13Z</time>
      </trkpt>
      <trkpt lat="43.56253" lon="3.76448">
        <ele>36.7</ele>
        <time>2010-12-12T08:21:14Z</time>
      </trkpt>
      <trkpt lat="43.56248" lon="3.76448">
        <ele>36.6</ele>
        <time>2010-12-12T08:21:15Z</time>
      </trkpt>
      <trkpt lat="43.56242" lon="3.76448">
        <ele>36.5</ele>
        <time>2010-12-12T08:21:16Z</time>
      </trkpt>
      <trkpt lat="43.56236" lon="3.76446">
        <ele>36.4</ele>
        <time>2010-12-12T08:21:17Z</time>
      </trkpt>
      <trkpt lat="43.56231" lon="3.76445">
        <ele>36.4</ele>
        <time>2010-12-12T08:21:18Z</time>
      </trkpt>
      <trkpt lat="43.56225" lon="3.76443">
        <ele>36.3</ele>
        <time>2010-12-12T08:21:19Z</time>
      </trkpt>
      <trkpt lat="43.5622" lon="3.76441">
        <ele>36.2</ele>
        <time>2010-12-12T08:21:20Z</time>
      </trkpt>
      <trkpt lat="43.56214" lon="3.76439">
        <ele>36.1</ele>
        <time>2010-12-12T08:21:21Z</time>
      </trkpt>
      <trkpt lat="43.56208" lon="3.76437">
        <ele>36</ele>
        <time>2010-12-12T08:21:22Z</time>
      </trkpt>
      <trkpt lat="43.56203" lon="3.76436">
        <ele>35.9</ele>
        <time>2010-12-12T08:21:23Z</time>
      </trkpt>
      <trkpt lat="43.56197" lon="3.76434">
        <ele>35.8</ele>
        <time>2010-12-12T08:21:24Z</time>
      </trkpt>
      <trkpt lat="43.56191" lon="3.76433">
        <ele>35.7</ele>
        <time>2010-12-12T08:21:25Z</time>
      </trkpt>
      <trkpt lat="43.56185" lon="3.76432">
        <ele>35.5</ele>
        <time>2010-12-12T08:21:26Z</time>
      </trkpt>
      <trkpt lat="43.56179" lon="3.7643">
        <ele>35.4</ele>
        <time>2010-12-12T08:21:27Z</time>
      </trkpt>
      <trkpt lat="43.56174" lon="3.76429">
        <ele>35.3</ele>
        <time>2010-12-12T08:21:28Z</time>
      </trkpt>
      <trkpt lat="43.56168" lon="3.76428">
        <ele>35.1</ele>
        <time>2010-12-12T08:21:29Z</time>
      </trkpt>
      <trkpt lat="43.56162" lon="3.76426">
        <ele>34.9</ele>
        <time>2010-12-12T08:21:30Z</time>
      </trkpt>
      <trkpt lat="43.56156" lon="3.76425">
        <ele>34.7</ele>
        <time>2010-12-12T08:21:31Z</time>
      </trkpt>
      <trkpt lat="43.5615" lon="3.76424">
        <ele>34.4</ele>
        <time>2010-12-12T08:21:32Z</time>
      </trkpt>
      <trkpt lat="43.56144" lon="3.76422">
        <ele>34.2</ele>
        <time>2010-12-12T08:21:33Z</time>
      </trkpt>
      <trkpt lat="43.56138" lon="3.76421">
        <ele>34</ele>
        <time>2010-12-12T08:21:34Z</time>
      </trkpt>
      <trkpt lat="43.56132" lon="3.7642">
        <ele>33.8</ele>
        <time>2010-12-12T08:21:35Z</time>
      </trkpt>
      <trkpt lat="43.56126" lon="3.76418">
        <ele>33.5</ele>
        <time>2010-12-12T08:21:36Z</time>
      </trkpt>
      <trkpt lat="43.5612" lon="3.76417">
        <ele>33.3</ele>
        <time>2010-12-12T08:21:37Z</time>
      </trkpt>
      <trkpt lat="43.56114" lon="3.76415">
        <ele>33.1</ele>
        <time>2010-12-12T08:21:38Z</time>
      </trkpt>
      <trkpt lat="43.56109" lon="3.76414">
        <ele>32.9</ele>
        <time>2010-12-12T08:21:39Z</time>
      </trkpt>
      <trkpt lat="43.56103" lon="3.76412">
        <ele>32.6</ele>
        <time>2010-12-12T08:21:40Z</time>
      </trkpt>
      <trkpt lat="43.56097" lon="3.76411">
        <ele>32.4</ele>
        <time>2010-12-12T08:21:41Z</time>
      </trkpt>
      <trkpt lat="43.56091" lon="3.7641">
        <ele>32.1</ele>
        <time>2010-12-12T08:21:42Z</time>
      </trkpt>
      <trkpt lat="43.56086" lon="3.76408">
        <ele>31.9</ele>
        <time>2010-12-12T08:21:43Z</time>
      </trkpt>
      <trkpt lat="43.5608" lon="3.76407">
        <ele>31.7</ele>
        <time>2010-12-12T08:21:44Z</time>
      </trkpt>
      <trkpt lat="43.56074" lon="3.76405">
        <ele>31.5</ele>
        <time>2010-12-12T08:21:45Z</time>
      </trkpt>
      <trkpt lat="43.56069" lon="3.76404">
        <ele>31.3</ele>
        <time>2010-12-12T08:21:46Z</time>
      </trkpt>
      <trkpt lat="43.56064" lon="3.76403">
        <ele>31.2</ele>
        <time>2010-12-12T08:21:47Z</time>
      </trkpt>
      <trkpt lat="43.56058" lon="3.76402">
        <ele>31</ele>
        <time>2010-12-12T08:21:48Z</time>
      </trkpt>
      <trkpt lat="43.56052" lon="3.76402">
        <ele>30.9</ele>
        <time>2010-12-12T08:21:49Z</time>
      </trkpt>
      <trkpt lat="43.56046" lon="3.76402">
        <ele>30.8</ele>
        <time>2010-12-12T08:21:50Z</time>
      </trkpt>
      <trkpt lat="43.5604" lon="3.76403">
        <ele>30.6</ele>
        <time>2010-12-12T08:21:51Z</time>
      </trkpt>
      <trkpt lat="43.56034" lon="3.76404">
        <ele>30.5</ele>
        <time>2010-12-12T08:21:52Z</time>
      </trkpt>
      <trkpt lat="43.56028" lon="3.76406">
        <ele>30.4</ele>
        <time>2010-12-12T08:21:53Z</time>
      </trkpt>
      <trkpt lat="43.56021" lon="3.76407">
        <ele>30.3</ele>
        <time>2010-12-12T08:21:54Z</time>
      </trkpt>
      <trkpt lat="43.56015" lon="3.76408">
        <ele>30.2</ele>
        <time>2010-12-12T08:21:55Z</time>
      </trkpt>
      <trkpt lat="43.56009" lon="3.76409">
        <ele>30</ele>
        <time>2010-12-12T08:21:56Z</time>
      </trkpt>
      <trkpt lat="43.56002" lon="3.76411">
        <ele>29.9</ele>
        <time>2010-12-12T08:21:57Z</time>
      </trkpt>
      <trkpt lat="43.55996" lon="3.76412">
        <ele>29.8</ele>
        <time>2010-12-12T08:21:58Z</time>
      </trkpt>
      <trkpt lat="43.5599" lon="3.76413">
        <ele>29.7</ele>
        <time>2010-12-12T08:21:59Z</time>
      </trkpt>
      <trkpt lat="43.55984" lon="3.76415">
        <ele>29.6</ele>
        <time>2010-12-12T08:22:00Z</time>
      </trkpt>
      <trkpt lat="43.55977" lon="3.76416">
        <ele>29.4</ele>
        <time>2010-12-12T08:22:01Z</time>
      </trkpt>
      <trkpt lat="43.55971" lon="3.76417">
        <ele>29.3</ele>
        <time>2010-12-12T08:22:02Z</time>
      </trkpt>
      <trkpt lat="43.55965" lon="3.76418">
        <ele>29.1</ele>
        <time>2010-12-12T08:22:03Z</time>
      </trkpt>
      <trkpt lat="43.55958" lon="3.7642">
        <ele>29</ele>
        <time>2010-12-12T08:22:04Z</time>
      </trkpt>
      <trkpt lat="43.55952" lon="3.76421">
        <ele>28.8</ele>
        <time>2010-12-12T08:22:05Z</time>
      </trkpt>
      <trkpt lat="43.55946" lon="3.76422">
        <ele>28.7</ele>
        <time>2010-12-12T08:22:06Z</time>
      </trkpt>
      <trkpt lat="43.55939" lon="3.76423">
        <ele>28.5</ele>
        <time>2010-12-12T08:22:07Z</time>
      </trkpt>
      <trkpt lat="43.55933" lon="3.76424">
        <ele>28.4</ele>
        <time>2010-12-12T08:22:08Z</time>
      </trkpt>
      <trkpt lat="43.55927" lon="3.76425">
        <ele>28.2</ele>
        <time>2010-12-12T08:22:09Z</time>
      </trkpt>
      <trkpt lat="43.55921" lon="3.76426">
        <ele>28.1</ele>
        <time>2010-12-12T08:22:10Z</time>
      </trkpt>
      <trkpt lat="43.55915" lon="3.76427">
        <ele>28</ele>
        <time>2010-12-12T08:22:11Z</time>
      </trkpt>
      <trkpt lat="43.55909" lon="3.76429">
        <ele>28.2</ele>
        <time>2010-12-12T08:22:12Z</time>
      </trkpt>
      <trkpt lat="43.55903" lon="3.7643">
        <ele>28.3</ele>
        <time>2010-12-12T08:22:13Z</time>
      </trkpt>
      <trkpt lat="43.55898" lon="3.76432">
        <ele>28.4</ele>
        <time>2010-12-12T08:22:14Z</time>
      </trkpt>
      <trkpt lat="43.55892" lon="3.76435">
        <ele>28.5</ele>
        <time>2010-12-12T08:22:15Z</time>
      </trkpt>
      <trkpt lat="43.55887" lon="3.76438">
        <ele>28.6</ele>
        <time>2010-12-12T08:22:16Z</time>
      </trkpt>
      <trkpt lat="43.55882" lon="3.76442">
        <ele>28.7</ele>
        <time>2010-12-12T08:22:17Z</time>
      </trkpt>
      <trkpt lat="43.55877" lon="3.76447">
        <ele>28.8</ele>
        <time>2010-12-12T08:22:18Z</time>
      </trkpt>
      <trkpt lat="43.55873" lon="3.76452">
        <ele>28.8</ele>
        <time>2010-12-12T08:22:19Z</time>
      </trkpt>
      <trkpt lat="43.55868" lon="3.76457">
        <ele>28.9</ele>
        <time>2010-12-12T08:22:20Z</time>
      </trkpt>
      <trkpt lat="43.55864" lon="3.76463">
        <ele>28.9</ele>
        <time>2010-12-12T08:22:21Z</time>
      </trkpt>
      <trkpt lat="43.55861" lon="3.76469">
        <ele>28.9</ele>
        <time>2010-12-12T08:22:22Z</time>
      </trkpt>
      <trkpt lat="43.55857" lon="3.76475">
        <ele>28.9</ele>
        <time>2010-12-12T08:22:23Z</time>
      </trkpt>
      <trkpt lat="43.55854" lon="3.76482">
        <ele>28.9</ele>
        <time>2010-12-12T08:22:24Z</time>
      </trkpt>
      <trkpt lat="43.5585" lon="3.76488">
        <ele>28.9</ele>
        <time>2010-12-12T08:22:25Z</time>
      </trkpt>
      <trkpt lat="43.55845" lon="3.76492">
        <ele>28.9</ele>
        <time>2010-12-12T08:22:26Z</time>
      </trkpt>
      <trkpt lat="43.5584" lon="3.76497">
        <ele>29</ele>
        <time>2010-12-12T08:22:27Z</time>
      </trkpt>
      <trkpt lat="43.55834" lon="3.765">
        <ele>29</ele>
        <time>2010-12-12T08:22:28Z</time>
      </trkpt>
      <trkpt lat="43.55829" lon="3.76502">
        <ele>28.9</ele>
        <time>2010-12-12T08:22:29Z</time>
      </trkpt>
      <trkpt lat="43.55823" lon="3.76503">
        <ele>28.8</ele>
        <time>2010-12-12T08:22:30Z</time>
      </trkpt>
      <trkpt lat="43.55817" lon="3.76505">
        <ele>28.7</ele>
        <time>2010-12-12T08:22:31Z</time>
      </trkpt>
      <trkpt lat="43.55812" lon="3.76508">
        <ele>28.6</ele>
        <time>2010-12-12T08:22:32Z</time>
      </trkpt>
      <trkpt lat="43.55806" lon="3.76511">
        <ele>28.5</ele>
        <time>2010-12-12T08:22:33Z</time>
      </trkpt>
      <trkpt lat="43.55801" lon="3.76515">
        <ele>28.4</ele>
        <time>2010-12-12T08:22:34Z</time>
      </trkpt>
      <trkpt lat="43.55796" lon="3.76519">
        <ele>28.2</ele>
        <time>2010-12-12T08:22:35Z</time>
      </trkpt>
      <trkpt lat="43.55791" lon="3.76524">
        <ele>28.1</ele>
        <time>2010-12-12T08:22:36Z</time>
      </trkpt>
      <trkpt lat="43.55786" lon="3.76529">
        <ele>27.9</ele>
        <time>2010-12-12T08:22:37Z</time>
      </trkpt>
      <trkpt lat="43.55781" lon="3.76534">
        <ele>27.7</ele>
        <time>2010-12-12T08:22:38Z</time>
      </trkpt>
      <trkpt lat="43.55777" lon="3.76538">
        <ele>27.5</ele>
        <time>2010-12-12T08:22:39Z</time>
      </trkpt>
      <trkpt lat="43.55772" lon="3.76544">
        <ele>27.4</ele>
        <time>2010-12-12T08:22:40Z</time>
      </trkpt>
      <trkpt lat="43.55768" lon="3.7655">
        <ele>27.2</ele>
        <time>2010-12-12T08:22:41Z</time>
      </trkpt>
      <trkpt lat="43.55764" lon="3.76555">
        <ele>26.9</ele>
        <time>2010-12-12T08:22:42Z</time>
      </trkpt>
      <trkpt lat="43.5576" lon="3.7656">
        <ele>26.8</ele>
        <time>2010-12-12T08:22:43Z</time>
      </trkpt>
      <trkpt lat="43.55755" lon="3.76566">
        <ele>26.5</ele>
        <time>2010-12-12T08:22:45Z</time>
      </trkpt>
      <trkpt lat="43.55751" lon="3.76573">
        <ele>26.3</ele>
        <time>2010-12-12T08:22:47Z</time>
      </trkpt>
      <trkpt lat="43.55747" lon="3.76581">
        <ele>26.1</ele>
        <time>2010-12-12T08:22:49Z</time>
      </trkpt>
      <trkpt lat="43.55743" lon="3.76589">
        <ele>26.1</ele>
        <time>2010-12-12T08:22:51Z</time>
      </trkpt>
      <trkpt lat="43.55738" lon="3.76598">
        <ele>26.1</ele>
        <time>2010-12-12T08:22:53Z</time>
      </trkpt>
      <trkpt lat="43.55735" lon="3.76603">
        <ele>26.1</ele>
        <time>2010-12-12T08:22:54Z</time>
      </trkpt>
      <trkpt lat="43.55732" lon="3.76608">
        <ele>26.2</ele>
        <time>2010-12-12T08:22:55Z</time>
      </trkpt>
      <trkpt lat="43.55729" lon="3.76613">
        <ele>26.2</ele>
        <time>2010-12-12T08:22:56Z</time>
      </trkpt>
      <trkpt lat="43.55726" lon="3.76618">
        <ele>26.2</ele>
        <time>2010-12-12T08:22:57Z</time>
      </trkpt>
      <trkpt lat="43.55723" lon="3.76623">
        <ele>26.2</ele>
        <time>2010-12-12T08:22:58Z</time>
      </trkpt>
      <trkpt lat="43.5572" lon="3.76628">
        <ele>26.1</ele>
        <time>2010-12-12T08:22:59Z</time>
      </trkpt>
      <trkpt lat="43.55716" lon="3.76633">
        <ele>26.1</ele>
        <time>2010-12-12T08:23:00Z</time>
      </trkpt>
      <trkpt lat="43.55712" lon="3.76637">
        <ele>26.1</ele>
        <time>2010-12-12T08:23:01Z</time>
      </trkpt>
      <trkpt lat="43.55708" lon="3.76641">
        <ele>26</ele>
        <time>2010-12-12T08:23:02Z</time>
      </trkpt>
      <trkpt lat="43.55704" lon="3.76645">
        <ele>25.9</ele>
        <time>2010-12-12T08:23:03Z</time>
      </trkpt>
      <trkpt lat="43.557" lon="3.76648">
        <ele>25.8</ele>
        <time>2010-12-12T08:23:04Z</time>
      </trkpt>
      <trkpt lat="43.55695" lon="3.76652">
        <ele>25.7</ele>
        <time>2010-12-12T08:23:05Z</time>
      </trkpt>
      <trkpt lat="43.55691" lon="3.76656">
        <ele>25.6</ele>
        <time>2010-12-12T08:23:06Z</time>
      </trkpt>
      <trkpt lat="43.55687" lon="3.76659">
        <ele>25.5</ele>
        <time>2010-12-12T08:23:07Z</time>
      </trkpt>
      <trkpt lat="43.55682" lon="3.76663">
        <ele>25.4</ele>
        <time>2010-12-12T08:23:08Z</time>
      </trkpt>
      <trkpt lat="43.55678" lon="3.76667">
        <ele>25.3</ele>
        <time>2010-12-12T08:23:09Z</time>
      </trkpt>
      <trkpt lat="43.55674" lon="3.76671">
        <ele>25.2</ele>
        <time>2010-12-12T08:23:10Z</time>
      </trkpt>
      <trkpt lat="43.55671" lon="3.76676">
        <ele>25.1</ele>
        <time>2010-12-12T08:23:11Z</time>
      </trkpt>
      <trkpt lat="43.55669" lon="3.76682">
        <ele>25</ele>
        <time>2010-12-12T08:23:12Z</time>
      </trkpt>
      <trkpt lat="43.55668" lon="3.76689">
        <ele>25</ele>
        <time>2010-12-12T08:23:13Z</time>
      </trkpt>
      <trkpt lat="43.55668" lon="3.76696">
        <ele>25</ele>
        <time>2010-12-12T08:23:14Z</time>
      </trkpt>
      <trkpt lat="43.55669" lon="3.76702">
        <ele>25.1</ele>
        <time>2010-12-12T08:23:15Z</time>
      </trkpt>
      <trkpt lat="43.5567" lon="3.76709">
        <ele>25.1</ele>
        <time>2010-12-12T08:23:16Z</time>
      </trkpt>
      <trkpt lat="43.55671" lon="3.76716">
        <ele>25.1</ele>
        <time>2010-12-12T08:23:17Z</time>
      </trkpt>
      <trkpt lat="43.55672" lon="3.76722">
        <ele>25.1</ele>
        <time>2010-12-12T08:23:18Z</time>
      </trkpt>
      <trkpt lat="43.55673" lon="3.76729">
        <ele>25.2</ele>
        <time>2010-12-12T08:23:19Z</time>
      </trkpt>
      <trkpt lat="43.55675" lon="3.76736">
        <ele>25.2</ele>
        <time>2010-12-12T08:23:20Z</time>
      </trkpt>
      <trkpt lat="43.55676" lon="3.76743">
        <ele>25.2</ele>
        <time>2010-12-12T08:23:21Z</time>
      </trkpt>
      <trkpt lat="43.55676" lon="3.7675">
        <ele>25.2</ele>
        <time>2010-12-12T08:23:22Z</time>
      </trkpt>
      <trkpt lat="43.55677" lon="3.76757">
        <ele>25.3</ele>
        <time>2010-12-12T08:23:23Z</time>
      </trkpt>
      <trkpt lat="43.55677" lon="3.76765">
        <ele>25.4</ele>
        <time>2010-12-12T08:23:24Z</time>
      </trkpt>
      <trkpt lat="43.55678" lon="3.76772">
        <ele>25.4</ele>
        <time>2010-12-12T08:23:25Z</time>
      </trkpt>
      <trkpt lat="43.55678" lon="3.76779">
        <ele>25.5</ele>
        <time>2010-12-12T08:23:26Z</time>
      </trkpt>
      <trkpt lat="43.55678" lon="3.76787">
        <ele>25.5</ele>
        <time>2010-12-12T08:23:27Z</time>
      </trkpt>
      <trkpt lat="43.55678" lon="3.76794">
        <ele>25.6</ele>
        <time>2010-12-12T08:23:28Z</time>
      </trkpt>
      <trkpt lat="43.55678" lon="3.76801">
        <ele>25.6</ele>
        <time>2010-12-12T08:23:29Z</time>
      </trkpt>
      <trkpt lat="43.55679" lon="3.76809">
        <ele>25.7</ele>
        <time>2010-12-12T08:23:30Z</time>
      </trkpt>
      <trkpt lat="43.55679" lon="3.76816">
        <ele>25.7</ele>
        <time>2010-12-12T08:23:31Z</time>
      </trkpt>
      <trkpt lat="43.55679" lon="3.76824">
        <ele>25.8</ele>
        <time>2010-12-12T08:23:32Z</time>
      </trkpt>
      <trkpt lat="43.5568" lon="3.76832">
        <ele>25.8</ele>
        <time>2010-12-12T08:23:33Z</time>
      </trkpt>
      <trkpt lat="43.5568" lon="3.76839">
        <ele>25.8</ele>
        <time>2010-12-12T08:23:34Z</time>
      </trkpt>
      <trkpt lat="43.55681" lon="3.76847">
        <ele>25.8</ele>
        <time>2010-12-12T08:23:35Z</time>
      </trkpt>
      <trkpt lat="43.55682" lon="3.76854">
        <ele>25.8</ele>
        <time>2010-12-12T08:23:36Z</time>
      </trkpt>
      <trkpt lat="43.55682" lon="3.76862">
        <ele>25.8</ele>
        <time>2010-12-12T08:23:37Z</time>
      </trkpt>
      <trkpt lat="43.55683" lon="3.76869">
        <ele>25.8</ele>
        <time>2010-12-12T08:23:38Z</time>
      </trkpt>
      <trkpt lat="43.55684" lon="3.76877">
        <ele>25.8</ele>
        <time>2010-12-12T08:23:39Z</time>
      </trkpt>
      <trkpt lat="43.55684" lon="3.76884">
        <ele>25.8</ele>
        <time>2010-12-12T08:23:40Z</time>
      </trkpt>
      <trkpt lat="43.55685" lon="3.76892">
        <ele>25.8</ele>
        <time>2010-12-12T08:23:41Z</time>
      </trkpt>
      <trkpt lat="43.55686" lon="3.76899">
        <ele>25.8</ele>
        <time>2010-12-12T08:23:42Z</time>
      </trkpt>
      <trkpt lat="43.55686" lon="3.76907">
        <ele>25.8</ele>
        <time>2010-12-12T08:23:43Z</time>
      </trkpt>
      <trkpt lat="43.55687" lon="3.76915">
        <ele>25.8</ele>
        <time>2010-12-12T08:23:44Z</time>
      </trkpt>
      <trkpt lat="43.55687" lon="3.76922">
        <ele>25.8</ele>
        <time>2010-12-12T08:23:45Z</time>
      </trkpt>
      <trkpt lat="43.55688" lon="3.7693">
        <ele>25.9</ele>
        <time>2010-12-12T08:23:46Z</time>
      </trkpt>
      <trkpt lat="43.55689" lon="3.76937">
        <ele>26</ele>
        <time>2010-12-12T08:23:47Z</time>
      </trkpt>
      <trkpt lat="43.55689" lon="3.76945">
        <ele>26.1</ele>
        <time>2010-12-12T08:23:48Z</time>
      </trkpt>
      <trkpt lat="43.5569" lon="3.76953">
        <ele>26.2</ele>
        <time>2010-12-12T08:23:49Z</time>
      </trkpt>
      <trkpt lat="43.5569" lon="3.7696">
        <ele>26.2</ele>
        <time>2010-12-12T08:23:50Z</time>
      </trkpt>
      <trkpt lat="43.55691" lon="3.76968">
        <ele>26.3</ele>
        <time>2010-12-12T08:23:51Z</time>
      </trkpt>
      <trkpt lat="43.55691" lon="3.76976">
        <ele>26.4</ele>
        <time>2010-12-12T08:23:52Z</time>
      </trkpt>
      <trkpt lat="43.55692" lon="3.76983">
        <ele>26.5</ele>
        <time>2010-12-12T08:23:53Z</time>
      </trkpt>
      <trkpt lat="43.55692" lon="3.76991">
        <ele>26.6</ele>
        <time>2010-12-12T08:23:54Z</time>
      </trkpt>
      <trkpt lat="43.55693" lon="3.76999">
        <ele>26.7</ele>
        <time>2010-12-12T08:23:55Z</time>
      </trkpt>
      <trkpt lat="43.55694" lon="3.77007">
        <ele>26.6</ele>
        <time>2010-12-12T08:23:56Z</time>
      </trkpt>
      <trkpt lat="43.55694" lon="3.77014">
        <ele>26.6</ele>
        <time>2010-12-12T08:23:57Z</time>
      </trkpt>
      <trkpt lat="43.55695" lon="3.77022">
        <ele>26.5</ele>
        <time>2010-12-12T08:23:58Z</time>
      </trkpt>
      <trkpt lat="43.55696" lon="3.77029">
        <ele>26.4</ele>
        <time>2010-12-12T08:23:59Z</time>
      </trkpt>
      <trkpt lat="43.55696" lon="3.77037">
        <ele>26.4</ele>
        <time>2010-12-12T08:24:00Z</time>
      </trkpt>
      <trkpt lat="43.55697" lon="3.77044">
        <ele>26.3</ele>
        <time>2010-12-12T08:24:01Z</time>
      </trkpt>
      <trkpt lat="43.55698" lon="3.77052">
        <ele>26.2</ele>
        <time>2010-12-12T08:24:02Z</time>
      </trkpt>
      <trkpt lat="43.55699" lon="3.77059">
        <ele>26.2</ele>
        <time>2010-12-12T08:24:03Z</time>
      </trkpt>
      <trkpt lat="43.55699" lon="3.77067">
        <ele>26.1</ele>
        <time>2010-12-12T08:24:04Z</time>
      </trkpt>
      <trkpt lat="43.55699" lon="3.77074">
        <ele>26.1</ele>
        <time>2010-12-12T08:24:05Z</time>
      </trkpt>
      <trkpt lat="43.55699" lon="3.77082">
        <ele>26</ele>
        <time>2010-12-12T08:24:06Z</time>
      </trkpt>
      <trkpt lat="43.55699" lon="3.7709">
        <ele>25.9</ele>
        <time>2010-12-12T08:24:07Z</time>
      </trkpt>
      <trkpt lat="43.557" lon="3.77097">
        <ele>25.7</ele>
        <time>2010-12-12T08:24:08Z</time>
      </trkpt>
      <trkpt lat="43.557" lon="3.77105">
        <ele>25.5</ele>
        <time>2010-12-12T08:24:09Z</time>
      </trkpt>
      <trkpt lat="43.55701" lon="3.77112">
        <ele>25.3</ele>
        <time>2010-12-12T08:24:10Z</time>
      </trkpt>
      <trkpt lat="43.55701" lon="3.7712">
        <ele>25.1</ele>
        <time>2010-12-12T08:24:11Z</time>
      </trkpt>
      <trkpt lat="43.55702" lon="3.77128">
        <ele>24.9</ele>
        <time>2010-12-12T08:24:12Z</time>
      </trkpt>
      <trkpt lat="43.55703" lon="3.77135">
        <ele>24.8</ele>
        <time>2010-12-12T08:24:13Z</time>
      </trkpt>
      <trkpt lat="43.55704" lon="3.77143">
        <ele>24.6</ele>
        <time>2010-12-12T08:24:14Z</time>
      </trkpt>
      <trkpt lat="43.55704" lon="3.7715">
        <ele>24.4</ele>
        <time>2010-12-12T08:24:15Z</time>
      </trkpt>
      <trkpt lat="43.55705" lon="3.77157">
        <ele>24.2</ele>
        <time>2010-12-12T08:24:16Z</time>
      </trkpt>
      <trkpt lat="43.55707" lon="3.77169">
        <ele>24</ele>
        <time>2010-12-12T08:24:19Z</time>
      </trkpt>
      <trkpt lat="43.55709" lon="3.77181">
        <ele>24</ele>
        <time>2010-12-12T08:24:33Z</time>
      </trkpt>
      <trkpt lat="43.55709" lon="3.77171">
        <ele>24</ele>
        <time>2010-12-12T08:24:43Z</time>
      </trkpt>
      <trkpt lat="43.55708" lon="3.7716">
        <ele>24.2</ele>
        <time>2010-12-12T08:24:47Z</time>
      </trkpt>
      <trkpt lat="43.55707" lon="3.7715">
        <ele>24.4</ele>
        <time>2010-12-12T08:24:50Z</time>
      </trkpt>
      <trkpt lat="43.55705" lon="3.77141">
        <ele>24.6</ele>
        <time>2010-12-12T08:24:53Z</time>
      </trkpt>
      <trkpt lat="43.55711" lon="3.7715">
        <ele>24.4</ele>
        <time>2010-12-12T08:34:12Z</time>
      </trkpt>
      <trkpt lat="43.55711" lon="3.77151">
        <ele>24.4</ele>
        <time>2010-12-12T08:34:13Z</time>
      </trkpt>
      <trkpt lat="43.5571" lon="3.77164">
        <ele>24.1</ele>
        <time>2010-12-12T08:35:20Z</time>
      </trkpt>
      <trkpt lat="43.55713" lon="3.77185">
        <ele>24</ele>
        <time>2010-12-12T08:35:26Z</time>
      </trkpt>
      <trkpt lat="43.55714" lon="3.77193">
        <ele>24</ele>
        <time>2010-12-12T08:35:28Z</time>
      </trkpt>
      <trkpt lat="43.55716" lon="3.77201">
        <ele>24</ele>
        <time>2010-12-12T08:35:30Z</time>
      </trkpt>
      <trkpt lat="43.55717" lon="3.7721">
        <ele>24</ele>
        <time>2010-12-12T08:35:32Z</time>
      </trkpt>
      <trkpt lat="43.55719" lon="3.77218">
        <ele>24</ele>
        <time>2010-12-12T08:35:34Z</time>
      </trkpt>
      <trkpt lat="43.55721" lon="3.7723">
        <ele>24</ele>
        <time>2010-12-12T08:35:37Z</time>
      </trkpt>
      <trkpt lat="43.55723" lon="3.77238">
        <ele>24</ele>
        <time>2010-12-12T08:35:39Z</time>
      </trkpt>
      <trkpt lat="43.55724" lon="3.77248">
        <ele>24</ele>
        <time>2010-12-12T08:35:41Z</time>
      </trkpt>
      <trkpt lat="43.55724" lon="3.77257">
        <ele>24.1</ele>
        <time>2010-12-12T08:35:43Z</time>
      </trkpt>
      <trkpt lat="43.55725" lon="3.77267">
        <ele>24.2</ele>
        <time>2010-12-12T08:35:45Z</time>
      </trkpt>
      <trkpt lat="43.55726" lon="3.77277">
        <ele>24.3</ele>
        <time>2010-12-12T08:35:47Z</time>
      </trkpt>
      <trkpt lat="43.55727" lon="3.77287">
        <ele>24.4</ele>
        <time>2010-12-12T08:35:49Z</time>
      </trkpt>
      <trkpt lat="43.55728" lon="3.77296">
        <ele>24.6</ele>
        <time>2010-12-12T08:35:51Z</time>
      </trkpt>
      <trkpt lat="43.55729" lon="3.77305">
        <ele>24.7</ele>
        <time>2010-12-12T08:35:53Z</time>
      </trkpt>
      <trkpt lat="43.5573" lon="3.77315">
        <ele>24.8</ele>
        <time>2010-12-12T08:35:55Z</time>
      </trkpt>
      <trkpt lat="43.55731" lon="3.77326">
        <ele>24.9</ele>
        <time>2010-12-12T08:35:57Z</time>
      </trkpt>
      <trkpt lat="43.55732" lon="3.77336">
        <ele>25</ele>
        <time>2010-12-12T08:35:59Z</time>
      </trkpt>
      <trkpt lat="43.55732" lon="3.77347">
        <ele>25</ele>
        <time>2010-12-12T08:36:01Z</time>
      </trkpt>
      <trkpt lat="43.55732" lon="3.77358">
        <ele>25</ele>
        <time>2010-12-12T08:36:03Z</time>
      </trkpt>
      <trkpt lat="43.55732" lon="3.77369">
        <ele>25</ele>
        <time>2010-12-12T08:36:05Z</time>
      </trkpt>
      <trkpt lat="43.55729" lon="3.7738">
        <ele>25</ele>
        <time>2010-12-12T08:36:07Z</time>
      </trkpt>
      <trkpt lat="43.55727" lon="3.77391">
        <ele>25</ele>
        <time>2010-12-12T08:36:09Z</time>
      </trkpt>
      <trkpt lat="43.55722" lon="3.77401">
        <ele>25</ele>
        <time>2010-12-12T08:36:11Z</time>
      </trkpt>
      <trkpt lat="43.55718" lon="3.7741">
        <ele>25</ele>
        <time>2010-12-12T08:36:13Z</time>
      </trkpt>
      <trkpt lat="43.55713" lon="3.7742">
        <ele>25</ele>
        <time>2010-12-12T08:36:15Z</time>
      </trkpt>
      <trkpt lat="43.55709" lon="3.77431">
        <ele>25.1</ele>
        <time>2010-12-12T08:36:17Z</time>
      </trkpt>
      <trkpt lat="43.55707" lon="3.77437">
        <ele>25.1</ele>
        <time>2010-12-12T08:36:18Z</time>
      </trkpt>
      <trkpt lat="43.55706" lon="3.77443">
        <ele>25.2</ele>
        <time>2010-12-12T08:36:19Z</time>
      </trkpt>
      <trkpt lat="43.55705" lon="3.77455">
        <ele>25.2</ele>
        <time>2010-12-12T08:36:21Z</time>
      </trkpt>
      <trkpt lat="43.55706" lon="3.77461">
        <ele>25.3</ele>
        <time>2010-12-12T08:36:22Z</time>
      </trkpt>
      <trkpt lat="43.55707" lon="3.77467">
        <ele>25.3</ele>
        <time>2010-12-12T08:36:23Z</time>
      </trkpt>
      <trkpt lat="43.55709" lon="3.77474">
        <ele>25.3</ele>
        <time>2010-12-12T08:36:24Z</time>
      </trkpt>
      <trkpt lat="43.5571" lon="3.7748">
        <ele>25.4</ele>
        <time>2010-12-12T08:36:25Z</time>
      </trkpt>
      <trkpt lat="43.55711" lon="3.77486">
        <ele>25.4</ele>
        <time>2010-12-12T08:36:26Z</time>
      </trkpt>
      <trkpt lat="43.55713" lon="3.77492">
        <ele>25.4</ele>
        <time>2010-12-12T08:36:27Z</time>
      </trkpt>
      <trkpt lat="43.55714" lon="3.77498">
        <ele>25.4</ele>
        <time>2010-12-12T08:36:28Z</time>
      </trkpt>
      <trkpt lat="43.55715" lon="3.77504">
        <ele>25.4</ele>
        <time>2010-12-12T08:36:29Z</time>
      </trkpt>
      <trkpt lat="43.55717" lon="3.7751">
        <ele>25.5</ele>
        <time>2010-12-12T08:36:30Z</time>
      </trkpt>
      <trkpt lat="43.55718" lon="3.77517">
        <ele>25.5</ele>
        <time>2010-12-12T08:36:31Z</time>
      </trkpt>
      <trkpt lat="43.55719" lon="3.77523">
        <ele>25.5</ele>
        <time>2010-12-12T08:36:32Z</time>
      </trkpt>
      <trkpt lat="43.55721" lon="3.77529">
        <ele>25.6</ele>
        <time>2010-12-12T08:36:33Z</time>
      </trkpt>
      <trkpt lat="43.55722" lon="3.77535">
        <ele>25.6</ele>
        <time>2010-12-12T08:36:34Z</time>
      </trkpt>
      <trkpt lat="43.55723" lon="3.77541">
        <ele>25.7</ele>
        <time>2010-12-12T08:36:35Z</time>
      </trkpt>
      <trkpt lat="43.55725" lon="3.77554">
        <ele>25.8</ele>
        <time>2010-12-12T08:36:37Z</time>
      </trkpt>
      <trkpt lat="43.55724" lon="3.77565">
        <ele>25.8</ele>
        <time>2010-12-12T08:36:39Z</time>
      </trkpt>
      <trkpt lat="43.55719" lon="3.77571">
        <ele>25.9</ele>
        <time>2010-12-12T08:36:41Z</time>
      </trkpt>
      <trkpt lat="43.55712" lon="3.77575">
        <ele>25.9</ele>
        <time>2010-12-12T08:36:43Z</time>
      </trkpt>
      <trkpt lat="43.55704" lon="3.77579">
        <ele>26</ele>
        <time>2010-12-12T08:36:45Z</time>
      </trkpt>
      <trkpt lat="43.55697" lon="3.77585">
        <ele>26</ele>
        <time>2010-12-12T08:36:47Z</time>
      </trkpt>
      <trkpt lat="43.55689" lon="3.77589">
        <ele>25.9</ele>
        <time>2010-12-12T08:36:49Z</time>
      </trkpt>
      <trkpt lat="43.55684" lon="3.77589">
        <ele>25.9</ele>
        <time>2010-12-12T08:36:50Z</time>
      </trkpt>
      <trkpt lat="43.5568" lon="3.77591">
        <ele>25.8</ele>
        <time>2010-12-12T08:36:51Z</time>
      </trkpt>
      <trkpt lat="43.55675" lon="3.77593">
        <ele>25.8</ele>
        <time>2010-12-12T08:36:52Z</time>
      </trkpt>
      <trkpt lat="43.5567" lon="3.77595">
        <ele>25.7</ele>
        <time>2010-12-12T08:36:53Z</time>
      </trkpt>
      <trkpt lat="43.55664" lon="3.77596">
        <ele>25.7</ele>
        <time>2010-12-12T08:36:54Z</time>
      </trkpt>
      <trkpt lat="43.55659" lon="3.77598">
        <ele>25.7</ele>
        <time>2010-12-12T08:36:55Z</time>
      </trkpt>
      <trkpt lat="43.55654" lon="3.776">
        <ele>25.8</ele>
        <time>2010-12-12T08:36:56Z</time>
      </trkpt>
      <trkpt lat="43.55648" lon="3.77603">
        <ele>25.8</ele>
        <time>2010-12-12T08:36:57Z</time>
      </trkpt>
      <trkpt lat="43.55643" lon="3.77606">
        <ele>25.8</ele>
        <time>2010-12-12T08:36:58Z</time>
      </trkpt>
      <trkpt lat="43.55638" lon="3.77608">
        <ele>25.9</ele>
        <time>2010-12-12T08:36:59Z</time>
      </trkpt>
      <trkpt lat="43.55633" lon="3.77611">
        <ele>25.9</ele>
        <time>2010-12-12T08:37:00Z</time>
      </trkpt>
      <trkpt lat="43.55628" lon="3.77613">
        <ele>25.9</ele>
        <time>2010-12-12T08:37:01Z</time>
      </trkpt>
      <trkpt lat="43.55623" lon="3.77616">
        <ele>26</ele>
        <time>2010-12-12T08:37:02Z</time>
      </trkpt>
      <trkpt lat="43.55618" lon="3.77618">
        <ele>26</ele>
        <time>2010-12-12T08:37:03Z</time>
      </trkpt>
      <trkpt lat="43.55613" lon="3.7762">
        <ele>26</ele>
        <time>2010-12-12T08:37:04Z</time>
      </trkpt>
      <trkpt lat="43.55608" lon="3.77622">
        <ele>26.1</ele>
        <time>2010-12-12T08:37:05Z</time>
      </trkpt>
      <trkpt lat="43.55603" lon="3.77625">
        <ele>26.1</ele>
        <time>2010-12-12T08:37:06Z</time>
      </trkpt>
      <trkpt lat="43.55599" lon="3.77627">
        <ele>26.2</ele>
        <time>2010-12-12T08:37:07Z</time>
      </trkpt>
      <trkpt lat="43.55594" lon="3.77629">
        <ele>26.3</ele>
        <time>2010-12-12T08:37:08Z</time>
      </trkpt>
      <trkpt lat="43.55589" lon="3.77631">
        <ele>26.3</ele>
        <time>2010-12-12T08:37:09Z</time>
      </trkpt>
      <trkpt lat="43.55584" lon="3.77634">
        <ele>26.4</ele>
        <time>2010-12-12T08:37:10Z</time>
      </trkpt>
      <trkpt lat="43.55579" lon="3.77636">
        <ele>26.3</ele>
        <time>2010-12-12T08:37:11Z</time>
      </trkpt>
      <trkpt lat="43.55574" lon="3.77638">
        <ele>26.2</ele>
        <time>2010-12-12T08:37:12Z</time>
      </trkpt>
      <trkpt lat="43.55569" lon="3.7764">
        <ele>26.1</ele>
        <time>2010-12-12T08:37:13Z</time>
      </trkpt>
      <trkpt lat="43.55564" lon="3.77642">
        <ele>26.1</ele>
        <time>2010-12-12T08:37:14Z</time>
      </trkpt>
      <trkpt lat="43.55559" lon="3.77644">
        <ele>26</ele>
        <time>2010-12-12T08:37:15Z</time>
      </trkpt>
      <trkpt lat="43.55554" lon="3.77646">
        <ele>25.9</ele>
        <time>2010-12-12T08:37:16Z</time>
      </trkpt>
      <trkpt lat="43.55549" lon="3.77649">
        <ele>25.8</ele>
        <time>2010-12-12T08:37:17Z</time>
      </trkpt>
      <trkpt lat="43.55544" lon="3.77651">
        <ele>25.7</ele>
        <time>2010-12-12T08:37:18Z</time>
      </trkpt>
      <trkpt lat="43.55539" lon="3.77653">
        <ele>25.6</ele>
        <time>2010-12-12T08:37:19Z</time>
      </trkpt>
      <trkpt lat="43.55534" lon="3.77655">
        <ele>25.5</ele>
        <time>2010-12-12T08:37:20Z</time>
      </trkpt>
      <trkpt lat="43.55529" lon="3.77657">
        <ele>25.5</ele>
        <time>2010-12-12T08:37:21Z</time>
      </trkpt>
      <trkpt lat="43.55524" lon="3.77659">
        <ele>25.4</ele>
        <time>2010-12-12T08:37:22Z</time>
      </trkpt>
      <trkpt lat="43.55519" lon="3.77661">
        <ele>25.3</ele>
        <time>2010-12-12T08:37:23Z</time>
      </trkpt>
      <trkpt lat="43.55514" lon="3.77663">
        <ele>25.2</ele>
        <time>2010-12-12T08:37:24Z</time>
      </trkpt>
      <trkpt lat="43.55509" lon="3.77665">
        <ele>25.1</ele>
        <time>2010-12-12T08:37:25Z</time>
      </trkpt>
      <trkpt lat="43.55504" lon="3.77666">
        <ele>25.1</ele>
        <time>2010-12-12T08:37:26Z</time>
      </trkpt>
      <trkpt lat="43.55499" lon="3.77667">
        <ele>25</ele>
        <time>2010-12-12T08:37:27Z</time>
      </trkpt>
      <trkpt lat="43.55494" lon="3.77669">
        <ele>25</ele>
        <time>2010-12-12T08:37:28Z</time>
      </trkpt>
      <trkpt lat="43.55489" lon="3.7767">
        <ele>25</ele>
        <time>2010-12-12T08:37:29Z</time>
      </trkpt>
      <trkpt lat="43.55484" lon="3.77672">
        <ele>25</ele>
        <time>2010-12-12T08:37:30Z</time>
      </trkpt>
      <trkpt lat="43.55479" lon="3.77674">
        <ele>25</ele>
        <time>2010-12-12T08:37:31Z</time>
      </trkpt>
      <trkpt lat="43.55473" lon="3.77675">
        <ele>25</ele>
        <time>2010-12-12T08:37:32Z</time>
      </trkpt>
      <trkpt lat="43.55469" lon="3.77676">
        <ele>25</ele>
        <time>2010-12-12T08:37:33Z</time>
      </trkpt>
      <trkpt lat="43.55464" lon="3.77676">
        <ele>24.9</ele>
        <time>2010-12-12T08:37:34Z</time>
      </trkpt>
      <trkpt lat="43.55459" lon="3.77677">
        <ele>24.9</ele>
        <time>2010-12-12T08:37:35Z</time>
      </trkpt>
      <trkpt lat="43.55454" lon="3.77677">
        <ele>24.9</ele>
        <time>2010-12-12T08:37:36Z</time>
      </trkpt>
      <trkpt lat="43.55449" lon="3.77677">
        <ele>24.9</ele>
        <time>2010-12-12T08:37:37Z</time>
      </trkpt>
      <trkpt lat="43.55444" lon="3.77676">
        <ele>24.9</ele>
        <time>2010-12-12T08:37:38Z</time>
      </trkpt>
      <trkpt lat="43.5544" lon="3.77676">
        <ele>24.9</ele>
        <time>2010-12-12T08:37:39Z</time>
      </trkpt>
      <trkpt lat="43.55435" lon="3.77675">
        <ele>24.9</ele>
        <time>2010-12-12T08:37:40Z</time>
      </trkpt>
      <trkpt lat="43.55431" lon="3.77675">
        <ele>24.9</ele>
        <time>2010-12-12T08:37:41Z</time>
      </trkpt>
      <trkpt lat="43.55422" lon="3.77673">
        <ele>24.9</ele>
        <time>2010-12-12T08:37:43Z</time>
      </trkpt>
      <trkpt lat="43.55414" lon="3.77672">
        <ele>24.9</ele>
        <time>2010-12-12T08:37:45Z</time>
      </trkpt>
      <trkpt lat="43.5541" lon="3.77672">
        <ele>24.9</ele>
        <time>2010-12-12T08:37:46Z</time>
      </trkpt>
      <trkpt lat="43.55405" lon="3.77672">
        <ele>24.9</ele>
        <time>2010-12-12T08:37:47Z</time>
      </trkpt>
      <trkpt lat="43.55396" lon="3.7767">
        <ele>24.9</ele>
        <time>2010-12-12T08:37:49Z</time>
      </trkpt>
      <trkpt lat="43.55388" lon="3.77669">
        <ele>25</ele>
        <time>2010-12-12T08:37:51Z</time>
      </trkpt>
      <trkpt lat="43.5538" lon="3.77667">
        <ele>25</ele>
        <time>2010-12-12T08:37:53Z</time>
      </trkpt>
      <trkpt lat="43.55375" lon="3.77666">
        <ele>25</ele>
        <time>2010-12-12T08:37:54Z</time>
      </trkpt>
      <trkpt lat="43.55371" lon="3.77666">
        <ele>25</ele>
        <time>2010-12-12T08:37:55Z</time>
      </trkpt>
      <trkpt lat="43.55366" lon="3.77665">
        <ele>25</ele>
        <time>2010-12-12T08:37:56Z</time>
      </trkpt>
      <trkpt lat="43.55361" lon="3.77664">
        <ele>25</ele>
        <time>2010-12-12T08:37:57Z</time>
      </trkpt>
      <trkpt lat="43.55356" lon="3.77664">
        <ele>25</ele>
        <time>2010-12-12T08:37:58Z</time>
      </trkpt>
      <trkpt lat="43.55351" lon="3.77663">
        <ele>25.1</ele>
        <time>2010-12-12T08:37:59Z</time>
      </trkpt>
      <trkpt lat="43.55346" lon="3.77663">
        <ele>25.1</ele>
        <time>2010-12-12T08:38:00Z</time>
      </trkpt>
      <trkpt lat="43.55341" lon="3.77663">
        <ele>25.1</ele>
        <time>2010-12-12T08:38:01Z</time>
      </trkpt>
      <trkpt lat="43.55336" lon="3.77662">
        <ele>25.1</ele>
        <time>2010-12-12T08:38:02Z</time>
      </trkpt>
      <trkpt lat="43.55331" lon="3.77661">
        <ele>25.4</ele>
        <time>2010-12-12T08:38:03Z</time>
      </trkpt>
      <trkpt lat="43.55326" lon="3.7766">
        <ele>25.8</ele>
        <time>2010-12-12T08:38:04Z</time>
      </trkpt>
      <trkpt lat="43.5532" lon="3.77659">
        <ele>26.3</ele>
        <time>2010-12-12T08:38:05Z</time>
      </trkpt>
      <trkpt lat="43.55315" lon="3.77658">
        <ele>26.8</ele>
        <time>2010-12-12T08:38:06Z</time>
      </trkpt>
      <trkpt lat="43.5531" lon="3.77657">
        <ele>27.2</ele>
        <time>2010-12-12T08:38:07Z</time>
      </trkpt>
      <trkpt lat="43.55305" lon="3.77657">
        <ele>27.7</ele>
        <time>2010-12-12T08:38:08Z</time>
      </trkpt>
      <trkpt lat="43.553" lon="3.77656">
        <ele>28.1</ele>
        <time>2010-12-12T08:38:09Z</time>
      </trkpt>
      <trkpt lat="43.55295" lon="3.77655">
        <ele>28.5</ele>
        <time>2010-12-12T08:38:10Z</time>
      </trkpt>
      <trkpt lat="43.55291" lon="3.77655">
        <ele>28.9</ele>
        <time>2010-12-12T08:38:11Z</time>
      </trkpt>
      <trkpt lat="43.55286" lon="3.77654">
        <ele>29.4</ele>
        <time>2010-12-12T08:38:12Z</time>
      </trkpt>
      <trkpt lat="43.55281" lon="3.77653">
        <ele>29.8</ele>
        <time>2010-12-12T08:38:13Z</time>
      </trkpt>
      <trkpt lat="43.55277" lon="3.77653">
        <ele>30.2</ele>
        <time>2010-12-12T08:38:14Z</time>
      </trkpt>
      <trkpt lat="43.55272" lon="3.77652">
        <ele>30.6</ele>
        <time>2010-12-12T08:38:15Z</time>
      </trkpt>
      <trkpt lat="43.55267" lon="3.77652">
        <ele>31</ele>
        <time>2010-12-12T08:38:16Z</time>
      </trkpt>
      <trkpt lat="43.55263" lon="3.77652">
        <ele>31.4</ele>
        <time>2010-12-12T08:38:17Z</time>
      </trkpt>
      <trkpt lat="43.55258" lon="3.77651">
        <ele>31.9</ele>
        <time>2010-12-12T08:38:18Z</time>
      </trkpt>
      <trkpt lat="43.55254" lon="3.7765">
        <ele>32.3</ele>
        <time>2010-12-12T08:38:19Z</time>
      </trkpt>
      <trkpt lat="43.55245" lon="3.77649">
        <ele>33.1</ele>
        <time>2010-12-12T08:38:21Z</time>
      </trkpt>
      <trkpt lat="43.55237" lon="3.77647">
        <ele>33.9</ele>
        <time>2010-12-12T08:38:23Z</time>
      </trkpt>
      <trkpt lat="43.55234" lon="3.77646">
        <ele>34.3</ele>
        <time>2010-12-12T08:38:24Z</time>
      </trkpt>
      <trkpt lat="43.55223" lon="3.77645">
        <ele>35.3</ele>
        <time>2010-12-12T08:38:27Z</time>
      </trkpt>
      <trkpt lat="43.55215" lon="3.77645">
        <ele>36</ele>
        <time>2010-12-12T08:38:29Z</time>
      </trkpt>
      <trkpt lat="43.55207" lon="3.77644">
        <ele>36.8</ele>
        <time>2010-12-12T08:38:31Z</time>
      </trkpt>
      <trkpt lat="43.55199" lon="3.77641">
        <ele>37.5</ele>
        <time>2010-12-12T08:38:33Z</time>
      </trkpt>
      <trkpt lat="43.55193" lon="3.77635">
        <ele>38</ele>
        <time>2010-12-12T08:38:35Z</time>
      </trkpt>
      <trkpt lat="43.55188" lon="3.77628">
        <ele>38.4</ele>
        <time>2010-12-12T08:38:37Z</time>
      </trkpt>
      <trkpt lat="43.55181" lon="3.77623">
        <ele>38.9</ele>
        <time>2010-12-12T08:38:39Z</time>
      </trkpt>
      <trkpt lat="43.55173" lon="3.77618">
        <ele>39.4</ele>
        <time>2010-12-12T08:38:41Z</time>
      </trkpt>
      <trkpt lat="43.55165" lon="3.77614">
        <ele>39.7</ele>
        <time>2010-12-12T08:38:43Z</time>
      </trkpt>
      <trkpt lat="43.55157" lon="3.77612">
        <ele>39.6</ele>
        <time>2010-12-12T08:38:45Z</time>
      </trkpt>
      <trkpt lat="43.5515" lon="3.77611">
        <ele>39.4</ele>
        <time>2010-12-12T08:38:47Z</time>
      </trkpt>
      <trkpt lat="43.55146" lon="3.77611">
        <ele>39.4</ele>
        <time>2010-12-12T08:38:48Z</time>
      </trkpt>
      <trkpt lat="43.55141" lon="3.77612">
        <ele>39.4</ele>
        <time>2010-12-12T08:38:49Z</time>
      </trkpt>
      <trkpt lat="43.55137" lon="3.77613">
        <ele>39.4</ele>
        <time>2010-12-12T08:38:50Z</time>
      </trkpt>
      <trkpt lat="43.55132" lon="3.77614">
        <ele>39.4</ele>
        <time>2010-12-12T08:38:51Z</time>
      </trkpt>
      <trkpt lat="43.55127" lon="3.77616">
        <ele>39.4</ele>
        <time>2010-12-12T08:38:52Z</time>
      </trkpt>
      <trkpt lat="43.55123" lon="3.77617">
        <ele>39.4</ele>
        <time>2010-12-12T08:38:53Z</time>
      </trkpt>
      <trkpt lat="43.55118" lon="3.77619">
        <ele>39.4</ele>
        <time>2010-12-12T08:38:54Z</time>
      </trkpt>
      <trkpt lat="43.55111" lon="3.77623">
        <ele>39.6</ele>
        <time>2010-12-12T08:38:56Z</time>
      </trkpt>
      <trkpt lat="43.55104" lon="3.77629">
        <ele>39.8</ele>
        <time>2010-12-12T08:38:58Z</time>
      </trkpt>
      <trkpt lat="43.55097" lon="3.77638">
        <ele>40.3</ele>
        <time>2010-12-12T08:39:00Z</time>
      </trkpt>
      <trkpt lat="43.5509" lon="3.77646">
        <ele>40.7</ele>
        <time>2010-12-12T08:39:02Z</time>
      </trkpt>
      <trkpt lat="43.55084" lon="3.77653">
        <ele>41.2</ele>
        <time>2010-12-12T08:39:04Z</time>
      </trkpt>
      <trkpt lat="43.55078" lon="3.77662">
        <ele>41.4</ele>
        <time>2010-12-12T08:39:06Z</time>
      </trkpt>
      <trkpt lat="43.55072" lon="3.7767">
        <ele>41.5</ele>
        <time>2010-12-12T08:39:08Z</time>
      </trkpt>
      <trkpt lat="43.55066" lon="3.77677">
        <ele>41.2</ele>
        <time>2010-12-12T08:39:10Z</time>
      </trkpt>
      <trkpt lat="43.55061" lon="3.77686">
        <ele>41.1</ele>
        <time>2010-12-12T08:39:12Z</time>
      </trkpt>
      <trkpt lat="43.55056" lon="3.77694">
        <ele>41</ele>
        <time>2010-12-12T08:39:14Z</time>
      </trkpt>
      <trkpt lat="43.5505" lon="3.77702">
        <ele>40.9</ele>
        <time>2010-12-12T08:39:16Z</time>
      </trkpt>
      <trkpt lat="43.55044" lon="3.7771">
        <ele>40.9</ele>
        <time>2010-12-12T08:39:18Z</time>
      </trkpt>
      <trkpt lat="43.55039" lon="3.7772">
        <ele>40.9</ele>
        <time>2010-12-12T08:39:20Z</time>
      </trkpt>
      <trkpt lat="43.55035" lon="3.77729">
        <ele>41</ele>
        <time>2010-12-12T08:39:22Z</time>
      </trkpt>
      <trkpt lat="43.55029" lon="3.77738">
        <ele>41.1</ele>
        <time>2010-12-12T08:39:24Z</time>
      </trkpt>
      <trkpt lat="43.55026" lon="3.77742">
        <ele>41.1</ele>
        <time>2010-12-12T08:39:25Z</time>
      </trkpt>
      <trkpt lat="43.55019" lon="3.77756">
        <ele>41.2</ele>
        <time>2010-12-12T08:39:28Z</time>
      </trkpt>
      <trkpt lat="43.55013" lon="3.77766">
        <ele>41.3</ele>
        <time>2010-12-12T08:39:30Z</time>
      </trkpt>
      <trkpt lat="43.55008" lon="3.77776">
        <ele>41.3</ele>
        <time>2010-12-12T08:39:32Z</time>
      </trkpt>
      <trkpt lat="43.55005" lon="3.7778">
        <ele>41.4</ele>
        <time>2010-12-12T08:39:33Z</time>
      </trkpt>
      <trkpt lat="43.55002" lon="3.77785">
        <ele>41.4</ele>
        <time>2010-12-12T08:39:34Z</time>
      </trkpt>
      <trkpt lat="43.54999" lon="3.7779">
        <ele>41.4</ele>
        <time>2010-12-12T08:39:35Z</time>
      </trkpt>
      <trkpt lat="43.54996" lon="3.77795">
        <ele>41.3</ele>
        <time>2010-12-12T08:39:36Z</time>
      </trkpt>
      <trkpt lat="43.54991" lon="3.77804">
        <ele>41.2</ele>
        <time>2010-12-12T08:39:38Z</time>
      </trkpt>
      <trkpt lat="43.54988" lon="3.77809">
        <ele>41.1</ele>
        <time>2010-12-12T08:39:39Z</time>
      </trkpt>
      <trkpt lat="43.54985" lon="3.77814">
        <ele>41</ele>
        <time>2010-12-12T08:39:40Z</time>
      </trkpt>
      <trkpt lat="43.54982" lon="3.77819">
        <ele>40.9</ele>
        <time>2010-12-12T08:39:41Z</time>
      </trkpt>
      <trkpt lat="43.54977" lon="3.77829">
        <ele>40.9</ele>
        <time>2010-12-12T08:39:43Z</time>
      </trkpt>
      <trkpt lat="43.54975" lon="3.77835">
        <ele>40.8</ele>
        <time>2010-12-12T08:39:44Z</time>
      </trkpt>
      <trkpt lat="43.5497" lon="3.77845">
        <ele>40.6</ele>
        <time>2010-12-12T08:39:46Z</time>
      </trkpt>
      <trkpt lat="43.54964" lon="3.77855">
        <ele>40.5</ele>
        <time>2010-12-12T08:39:48Z</time>
      </trkpt>
      <trkpt lat="43.54962" lon="3.7786">
        <ele>40.4</ele>
        <time>2010-12-12T08:39:49Z</time>
      </trkpt>
      <trkpt lat="43.54959" lon="3.77865">
        <ele>40.4</ele>
        <time>2010-12-12T08:39:50Z</time>
      </trkpt>
      <trkpt lat="43.54957" lon="3.7787">
        <ele>40.4</ele>
        <time>2010-12-12T08:39:51Z</time>
      </trkpt>
      <trkpt lat="43.54954" lon="3.77876">
        <ele>40.4</ele>
        <time>2010-12-12T08:39:52Z</time>
      </trkpt>
      <trkpt lat="43.54952" lon="3.77881">
        <ele>40.4</ele>
        <time>2010-12-12T08:39:53Z</time>
      </trkpt>
      <trkpt lat="43.54949" lon="3.77887">
        <ele>40.5</ele>
        <time>2010-12-12T08:39:54Z</time>
      </trkpt>
      <trkpt lat="43.54947" lon="3.77893">
        <ele>40.6</ele>
        <time>2010-12-12T08:39:55Z</time>
      </trkpt>
      <trkpt lat="43.54945" lon="3.77899">
        <ele>40.6</ele>
        <time>2010-12-12T08:39:56Z</time>
      </trkpt>
      <trkpt lat="43.54942" lon="3.77905">
        <ele>40.7</ele>
        <time>2010-12-12T08:39:57Z</time>
      </trkpt>
      <trkpt lat="43.5494" lon="3.77911">
        <ele>40.9</ele>
        <time>2010-12-12T08:39:58Z</time>
      </trkpt>
      <trkpt lat="43.54937" lon="3.77917">
        <ele>41</ele>
        <time>2010-12-12T08:39:59Z</time>
      </trkpt>
      <trkpt lat="43.54934" lon="3.77922">
        <ele>41</ele>
        <time>2010-12-12T08:40:00Z</time>
      </trkpt>
      <trkpt lat="43.5493" lon="3.77927">
        <ele>41.1</ele>
        <time>2010-12-12T08:40:01Z</time>
      </trkpt>
      <trkpt lat="43.54927" lon="3.77933">
        <ele>41.1</ele>
        <time>2010-12-12T08:40:02Z</time>
      </trkpt>
      <trkpt lat="43.54924" lon="3.77938">
        <ele>41.2</ele>
        <time>2010-12-12T08:40:03Z</time>
      </trkpt>
      <trkpt lat="43.54921" lon="3.77944">
        <ele>41.3</ele>
        <time>2010-12-12T08:40:04Z</time>
      </trkpt>
      <trkpt lat="43.54919" lon="3.7795">
        <ele>41.4</ele>
        <time>2010-12-12T08:40:05Z</time>
      </trkpt>
      <trkpt lat="43.54915" lon="3.77955">
        <ele>41.4</ele>
        <time>2010-12-12T08:40:06Z</time>
      </trkpt>
      <trkpt lat="43.54912" lon="3.77961">
        <ele>41.4</ele>
        <time>2010-12-12T08:40:07Z</time>
      </trkpt>
      <trkpt lat="43.54907" lon="3.7797">
        <ele>41.4</ele>
        <time>2010-12-12T08:40:09Z</time>
      </trkpt>
      <trkpt lat="43.54903" lon="3.7798">
        <ele>41.4</ele>
        <time>2010-12-12T08:40:17Z</time>
      </trkpt>
      <trkpt lat="43.54905" lon="3.77992">
        <ele>41.6</ele>
        <time>2010-12-12T08:41:10Z</time>
      </trkpt>
      <trkpt lat="43.54904" lon="3.77993">
        <ele>41.6</ele>
        <time>2010-12-12T08:41:11Z</time>
      </trkpt>
      <trkpt lat="43.549" lon="3.78011">
        <ele>41.4</ele>
        <time>2010-12-12T08:41:17Z</time>
      </trkpt>
      <trkpt lat="43.54897" lon="3.78021">
        <ele>41.1</ele>
        <time>2010-12-12T08:41:20Z</time>
      </trkpt>
      <trkpt lat="43.54891" lon="3.78029">
        <ele>40.9</ele>
        <time>2010-12-12T08:41:23Z</time>
      </trkpt>
      <trkpt lat="43.54885" lon="3.78038">
        <ele>40.7</ele>
        <time>2010-12-12T08:41:26Z</time>
      </trkpt>
      <trkpt lat="43.5488" lon="3.78044">
        <ele>40.5</ele>
        <time>2010-12-12T08:41:28Z</time>
      </trkpt>
      <trkpt lat="43.54875" lon="3.78051">
        <ele>40.4</ele>
        <time>2010-12-12T08:41:30Z</time>
      </trkpt>
      <trkpt lat="43.54869" lon="3.78059">
        <ele>40.3</ele>
        <time>2010-12-12T08:41:32Z</time>
      </trkpt>
      <trkpt lat="43.54866" lon="3.78063">
        <ele>40.2</ele>
        <time>2010-12-12T08:41:33Z</time>
      </trkpt>
      <trkpt lat="43.54863" lon="3.78068">
        <ele>40.1</ele>
        <time>2010-12-12T08:41:34Z</time>
      </trkpt>
      <trkpt lat="43.54861" lon="3.78074">
        <ele>40.1</ele>
        <time>2010-12-12T08:41:35Z</time>
      </trkpt>
      <trkpt lat="43.5486" lon="3.78081">
        <ele>40</ele>
        <time>2010-12-12T08:41:36Z</time>
      </trkpt>
      <trkpt lat="43.5486" lon="3.78092">
        <ele>39.9</ele>
        <time>2010-12-12T08:41:38Z</time>
      </trkpt>
      <trkpt lat="43.54861" lon="3.78102">
        <ele>39.7</ele>
        <time>2010-12-12T08:41:40Z</time>
      </trkpt>
      <trkpt lat="43.54861" lon="3.78113">
        <ele>39.5</ele>
        <time>2010-12-12T08:41:42Z</time>
      </trkpt>
      <trkpt lat="43.54861" lon="3.78123">
        <ele>39.4</ele>
        <time>2010-12-12T08:41:44Z</time>
      </trkpt>
      <trkpt lat="43.5486" lon="3.78133">
        <ele>39.2</ele>
        <time>2010-12-12T08:41:46Z</time>
      </trkpt>
      <trkpt lat="43.54862" lon="3.78142">
        <ele>39.1</ele>
        <time>2010-12-12T08:41:48Z</time>
      </trkpt>
      <trkpt lat="43.54867" lon="3.78149">
        <ele>39.1</ele>
        <time>2010-12-12T08:41:50Z</time>
      </trkpt>
      <trkpt lat="43.54873" lon="3.78156">
        <ele>39.1</ele>
        <time>2010-12-12T08:41:52Z</time>
      </trkpt>
      <trkpt lat="43.54879" lon="3.78163">
        <ele>39.1</ele>
        <time>2010-12-12T08:41:54Z</time>
      </trkpt>
      <trkpt lat="43.54884" lon="3.78171">
        <ele>39.1</ele>
        <time>2010-12-12T08:41:56Z</time>
      </trkpt>
      <trkpt lat="43.5489" lon="3.78178">
        <ele>39</ele>
        <time>2010-12-12T08:41:58Z</time>
      </trkpt>
      <trkpt lat="43.54894" lon="3.78186">
        <ele>38.8</ele>
        <time>2010-12-12T08:42:00Z</time>
      </trkpt>
      <trkpt lat="43.54899" lon="3.78193">
        <ele>38.7</ele>
        <time>2010-12-12T08:42:02Z</time>
      </trkpt>
      <trkpt lat="43.54904" lon="3.78201">
        <ele>38.5</ele>
        <time>2010-12-12T08:42:04Z</time>
      </trkpt>
      <trkpt lat="43.54909" lon="3.78209">
        <ele>38.3</ele>
        <time>2010-12-12T08:42:06Z</time>
      </trkpt>
      <trkpt lat="43.54914" lon="3.78216">
        <ele>38.2</ele>
        <time>2010-12-12T08:42:08Z</time>
      </trkpt>
      <trkpt lat="43.54917" lon="3.78224">
        <ele>37.9</ele>
        <time>2010-12-12T08:42:10Z</time>
      </trkpt>
      <trkpt lat="43.54915" lon="3.78235">
        <ele>37.5</ele>
        <time>2010-12-12T08:42:12Z</time>
      </trkpt>
      <trkpt lat="43.54912" lon="3.78241">
        <ele>37.3</ele>
        <time>2010-12-12T08:42:13Z</time>
      </trkpt>
      <trkpt lat="43.54907" lon="3.78251">
        <ele>36.9</ele>
        <time>2010-12-12T08:42:15Z</time>
      </trkpt>
      <trkpt lat="43.54904" lon="3.78256">
        <ele>36.7</ele>
        <time>2010-12-12T08:42:16Z</time>
      </trkpt>
      <trkpt lat="43.54902" lon="3.78262">
        <ele>36.5</ele>
        <time>2010-12-12T08:42:17Z</time>
      </trkpt>
      <trkpt lat="43.54899" lon="3.78267">
        <ele>36.3</ele>
        <time>2010-12-12T08:42:18Z</time>
      </trkpt>
      <trkpt lat="43.54896" lon="3.78273">
        <ele>36.1</ele>
        <time>2010-12-12T08:42:19Z</time>
      </trkpt>
      <trkpt lat="43.54892" lon="3.78278">
        <ele>36</ele>
        <time>2010-12-12T08:42:20Z</time>
      </trkpt>
      <trkpt lat="43.54889" lon="3.78283">
        <ele>35.9</ele>
        <time>2010-12-12T08:42:21Z</time>
      </trkpt>
      <trkpt lat="43.54886" lon="3.78289">
        <ele>35.7</ele>
        <time>2010-12-12T08:42:22Z</time>
      </trkpt>
      <trkpt lat="43.54883" lon="3.78295">
        <ele>35.6</ele>
        <time>2010-12-12T08:42:23Z</time>
      </trkpt>
      <trkpt lat="43.54879" lon="3.78301">
        <ele>35.5</ele>
        <time>2010-12-12T08:42:24Z</time>
      </trkpt>
      <trkpt lat="43.54876" lon="3.78307">
        <ele>35.5</ele>
        <time>2010-12-12T08:42:25Z</time>
      </trkpt>
      <trkpt lat="43.54873" lon="3.78313">
        <ele>35.4</ele>
        <time>2010-12-12T08:42:26Z</time>
      </trkpt>
      <trkpt lat="43.54871" lon="3.7832">
        <ele>35.3</ele>
        <time>2010-12-12T08:42:27Z</time>
      </trkpt>
      <trkpt lat="43.54868" lon="3.78327">
        <ele>35.3</ele>
        <time>2010-12-12T08:42:28Z</time>
      </trkpt>
      <trkpt lat="43.54865" lon="3.78333">
        <ele>35.2</ele>
        <time>2010-12-12T08:42:29Z</time>
      </trkpt>
      <trkpt lat="43.54863" lon="3.7834">
        <ele>35.2</ele>
        <time>2010-12-12T08:42:30Z</time>
      </trkpt>
      <trkpt lat="43.5486" lon="3.78347">
        <ele>35.2</ele>
        <time>2010-12-12T08:42:31Z</time>
      </trkpt>
      <trkpt lat="43.54858" lon="3.78353">
        <ele>35.2</ele>
        <time>2010-12-12T08:42:32Z</time>
      </trkpt>
      <trkpt lat="43.54855" lon="3.7836">
        <ele>35.2</ele>
        <time>2010-12-12T08:42:33Z</time>
      </trkpt>
      <trkpt lat="43.54853" lon="3.78367">
        <ele>35.3</ele>
        <time>2010-12-12T08:42:34Z</time>
      </trkpt>
      <trkpt lat="43.5485" lon="3.78373">
        <ele>35.3</ele>
        <time>2010-12-12T08:42:35Z</time>
      </trkpt>
      <trkpt lat="43.54848" lon="3.7838">
        <ele>35.4</ele>
        <time>2010-12-12T08:42:36Z</time>
      </trkpt>
      <trkpt lat="43.54845" lon="3.78386">
        <ele>35.4</ele>
        <time>2010-12-12T08:42:37Z</time>
      </trkpt>
      <trkpt lat="43.54843" lon="3.78392">
        <ele>35.5</ele>
        <time>2010-12-12T08:42:38Z</time>
      </trkpt>
      <trkpt lat="43.54841" lon="3.78398">
        <ele>35.6</ele>
        <time>2010-12-12T08:42:39Z</time>
      </trkpt>
      <trkpt lat="43.54838" lon="3.78405">
        <ele>35.7</ele>
        <time>2010-12-12T08:42:40Z</time>
      </trkpt>
      <trkpt lat="43.54836" lon="3.78411">
        <ele>35.8</ele>
        <time>2010-12-12T08:42:41Z</time>
      </trkpt>
      <trkpt lat="43.54834" lon="3.78418">
        <ele>36</ele>
        <time>2010-12-12T08:42:42Z</time>
      </trkpt>
      <trkpt lat="43.54831" lon="3.78424">
        <ele>35.8</ele>
        <time>2010-12-12T08:42:43Z</time>
      </trkpt>
      <trkpt lat="43.54829" lon="3.78432">
        <ele>35.6</ele>
        <time>2010-12-12T08:42:44Z</time>
      </trkpt>
      <trkpt lat="43.54826" lon="3.78439">
        <ele>35.5</ele>
        <time>2010-12-12T08:42:45Z</time>
      </trkpt>
      <trkpt lat="43.54824" lon="3.78447">
        <ele>35.3</ele>
        <time>2010-12-12T08:42:46Z</time>
      </trkpt>
      <trkpt lat="43.54821" lon="3.78454">
        <ele>35.1</ele>
        <time>2010-12-12T08:42:47Z</time>
      </trkpt>
      <trkpt lat="43.54819" lon="3.78462">
        <ele>34.9</ele>
        <time>2010-12-12T08:42:48Z</time>
      </trkpt>
      <trkpt lat="43.54816" lon="3.7847">
        <ele>34.7</ele>
        <time>2010-12-12T08:42:49Z</time>
      </trkpt>
      <trkpt lat="43.54813" lon="3.78477">
        <ele>34.5</ele>
        <time>2010-12-12T08:42:50Z</time>
      </trkpt>
      <trkpt lat="43.5481" lon="3.78485">
        <ele>34.4</ele>
        <time>2010-12-12T08:42:51Z</time>
      </trkpt>
      <trkpt lat="43.54808" lon="3.78493">
        <ele>34.2</ele>
        <time>2010-12-12T08:42:52Z</time>
      </trkpt>
      <trkpt lat="43.54805" lon="3.78501">
        <ele>34</ele>
        <time>2010-12-12T08:42:53Z</time>
      </trkpt>
      <trkpt lat="43.54803" lon="3.78509">
        <ele>33.9</ele>
        <time>2010-12-12T08:42:54Z</time>
      </trkpt>
      <trkpt lat="43.548" lon="3.78517">
        <ele>33.7</ele>
        <time>2010-12-12T08:42:55Z</time>
      </trkpt>
      <trkpt lat="43.54797" lon="3.78525">
        <ele>33.6</ele>
        <time>2010-12-12T08:42:56Z</time>
      </trkpt>
      <trkpt lat="43.54794" lon="3.78533">
        <ele>33.4</ele>
        <time>2010-12-12T08:42:57Z</time>
      </trkpt>
      <trkpt lat="43.54791" lon="3.78541">
        <ele>33.3</ele>
        <time>2010-12-12T08:42:58Z</time>
      </trkpt>
      <trkpt lat="43.54788" lon="3.78549">
        <ele>33.1</ele>
        <time>2010-12-12T08:42:59Z</time>
      </trkpt>
      <trkpt lat="43.54785" lon="3.78557">
        <ele>32.9</ele>
        <time>2010-12-12T08:43:00Z</time>
      </trkpt>
      <trkpt lat="43.54782" lon="3.78565">
        <ele>32.8</ele>
        <time>2010-12-12T08:43:01Z</time>
      </trkpt>
      <trkpt lat="43.54779" lon="3.78572">
        <ele>32.6</ele>
        <time>2010-12-12T08:43:02Z</time>
      </trkpt>
      <trkpt lat="43.54777" lon="3.7858">
        <ele>32.4</ele>
        <time>2010-12-12T08:43:03Z</time>
      </trkpt>
      <trkpt lat="43.54774" lon="3.78587">
        <ele>32.3</ele>
        <time>2010-12-12T08:43:04Z</time>
      </trkpt>
      <trkpt lat="43.54772" lon="3.78593">
        <ele>32.3</ele>
        <time>2010-12-12T08:43:05Z</time>
      </trkpt>
      <trkpt lat="43.5477" lon="3.78599">
        <ele>32.2</ele>
        <time>2010-12-12T08:43:06Z</time>
      </trkpt>
      <trkpt lat="43.54766" lon="3.78609">
        <ele>32.2</ele>
        <time>2010-12-12T08:43:08Z</time>
      </trkpt>
      <trkpt lat="43.54762" lon="3.78619">
        <ele>32.1</ele>
        <time>2010-12-12T08:43:15Z</time>
      </trkpt>
      <trkpt lat="43.54761" lon="3.78621">
        <ele>32.1</ele>
        <time>2010-12-12T08:43:16Z</time>
      </trkpt>
      <trkpt lat="43.54754" lon="3.78637">
        <ele>32.1</ele>
        <time>2010-12-12T08:43:21Z</time>
      </trkpt>
      <trkpt lat="43.5475" lon="3.78646">
        <ele>32</ele>
        <time>2010-12-12T08:43:23Z</time>
      </trkpt>
      <trkpt lat="43.54748" lon="3.78651">
        <ele>31.9</ele>
        <time>2010-12-12T08:43:24Z</time>
      </trkpt>
      <trkpt lat="43.54745" lon="3.78656">
        <ele>31.9</ele>
        <time>2010-12-12T08:43:25Z</time>
      </trkpt>
      <trkpt lat="43.54743" lon="3.78663">
        <ele>31.8</ele>
        <time>2010-12-12T08:43:26Z</time>
      </trkpt>
      <trkpt lat="43.5474" lon="3.78669">
        <ele>31.8</ele>
        <time>2010-12-12T08:43:27Z</time>
      </trkpt>
      <trkpt lat="43.54737" lon="3.78675">
        <ele>31.7</ele>
        <time>2010-12-12T08:43:28Z</time>
      </trkpt>
      <trkpt lat="43.54734" lon="3.78681">
        <ele>31.6</ele>
        <time>2010-12-12T08:43:29Z</time>
      </trkpt>
      <trkpt lat="43.54731" lon="3.78686">
        <ele>31.6</ele>
        <time>2010-12-12T08:43:30Z</time>
      </trkpt>
      <trkpt lat="43.54728" lon="3.78692">
        <ele>31.4</ele>
        <time>2010-12-12T08:43:31Z</time>
      </trkpt>
      <trkpt lat="43.54725" lon="3.78697">
        <ele>31.3</ele>
        <time>2010-12-12T08:43:32Z</time>
      </trkpt>
      <trkpt lat="43.54721" lon="3.78703">
        <ele>31.1</ele>
        <time>2010-12-12T08:43:33Z</time>
      </trkpt>
      <trkpt lat="43.54718" lon="3.78709">
        <ele>30.9</ele>
        <time>2010-12-12T08:43:34Z</time>
      </trkpt>
      <trkpt lat="43.54714" lon="3.78716">
        <ele>30.7</ele>
        <time>2010-12-12T08:43:35Z</time>
      </trkpt>
      <trkpt lat="43.54711" lon="3.78723">
        <ele>30.5</ele>
        <time>2010-12-12T08:43:36Z</time>
      </trkpt>
      <trkpt lat="43.54707" lon="3.7873">
        <ele>30.2</ele>
        <time>2010-12-12T08:43:37Z</time>
      </trkpt>
      <trkpt lat="43.54704" lon="3.78737">
        <ele>29.9</ele>
        <time>2010-12-12T08:43:38Z</time>
      </trkpt>
      <trkpt lat="43.54701" lon="3.78744">
        <ele>29.5</ele>
        <time>2010-12-12T08:43:39Z</time>
      </trkpt>
      <trkpt lat="43.54697" lon="3.78751">
        <ele>29.2</ele>
        <time>2010-12-12T08:43:40Z</time>
      </trkpt>
      <trkpt lat="43.54694" lon="3.78758">
        <ele>28.8</ele>
        <time>2010-12-12T08:43:41Z</time>
      </trkpt>
      <trkpt lat="43.54691" lon="3.78765">
        <ele>28.4</ele>
        <time>2010-12-12T08:43:42Z</time>
      </trkpt>
      <trkpt lat="43.54688" lon="3.78772">
        <ele>28</ele>
        <time>2010-12-12T08:43:43Z</time>
      </trkpt>
      <trkpt lat="43.54685" lon="3.78777">
        <ele>27.6</ele>
        <time>2010-12-12T08:43:44Z</time>
      </trkpt>
      <trkpt lat="43.54681" lon="3.78782">
        <ele>27.3</ele>
        <time>2010-12-12T08:43:45Z</time>
      </trkpt>
      <trkpt lat="43.54678" lon="3.78787">
        <ele>26.9</ele>
        <time>2010-12-12T08:43:46Z</time>
      </trkpt>
      <trkpt lat="43.54674" lon="3.78792">
        <ele>26.6</ele>
        <time>2010-12-12T08:43:47Z</time>
      </trkpt>
      <trkpt lat="43.54671" lon="3.78797">
        <ele>26.2</ele>
        <time>2010-12-12T08:43:48Z</time>
      </trkpt>
      <trkpt lat="43.54667" lon="3.78803">
        <ele>25.8</ele>
        <time>2010-12-12T08:43:49Z</time>
      </trkpt>
      <trkpt lat="43.54664" lon="3.78809">
        <ele>25.7</ele>
        <time>2010-12-12T08:43:50Z</time>
      </trkpt>
      <trkpt lat="43.5466" lon="3.78815">
        <ele>25.6</ele>
        <time>2010-12-12T08:43:51Z</time>
      </trkpt>
      <trkpt lat="43.54657" lon="3.78826">
        <ele>25.5</ele>
        <time>2010-12-12T08:43:53Z</time>
      </trkpt>
      <trkpt lat="43.54657" lon="3.78837">
        <ele>25.4</ele>
        <time>2010-12-12T08:43:55Z</time>
      </trkpt>
      <trkpt lat="43.54657" lon="3.78847">
        <ele>25.5</ele>
        <time>2010-12-12T08:43:57Z</time>
      </trkpt>
      <trkpt lat="43.54651" lon="3.78852">
        <ele>25.9</ele>
        <time>2010-12-12T08:44:26Z</time>
      </trkpt>
      <trkpt lat="43.54649" lon="3.78853">
        <ele>26</ele>
        <time>2010-12-12T08:44:27Z</time>
      </trkpt>
      <trkpt lat="43.54637" lon="3.78862">
        <ele>26.8</ele>
        <time>2010-12-12T08:44:33Z</time>
      </trkpt>
      <trkpt lat="43.54633" lon="3.78869">
        <ele>27.2</ele>
        <time>2010-12-12T08:44:35Z</time>
      </trkpt>
      <trkpt lat="43.5463" lon="3.78879">
        <ele>27.6</ele>
        <time>2010-12-12T08:44:38Z</time>
      </trkpt>
      <trkpt lat="43.54625" lon="3.78889">
        <ele>28.1</ele>
        <time>2010-12-12T08:44:46Z</time>
      </trkpt>
      <trkpt lat="43.54622" lon="3.78899">
        <ele>28.7</ele>
        <time>2010-12-12T08:44:53Z</time>
      </trkpt>
      <trkpt lat="43.54618" lon="3.78909">
        <ele>29.2</ele>
        <time>2010-12-12T08:45:00Z</time>
      </trkpt>
      <trkpt lat="43.54615" lon="3.78919">
        <ele>29.8</ele>
        <time>2010-12-12T08:45:08Z</time>
      </trkpt>
      <trkpt lat="43.54611" lon="3.7893">
        <ele>30</ele>
        <time>2010-12-12T08:45:21Z</time>
      </trkpt>
      <trkpt lat="43.54606" lon="3.78939">
        <ele>30.3</ele>
        <time>2010-12-12T08:45:26Z</time>
      </trkpt>
      <trkpt lat="43.54603" lon="3.78947">
        <ele>30.6</ele>
        <time>2010-12-12T08:45:29Z</time>
      </trkpt>
      <trkpt lat="43.54602" lon="3.7895">
        <ele>30.7</ele>
        <time>2010-12-12T08:45:30Z</time>
      </trkpt>
      <trkpt lat="43.54595" lon="3.78965">
        <ele>31.1</ele>
        <time>2010-12-12T08:45:35Z</time>
      </trkpt>
      <trkpt lat="43.54593" lon="3.78974">
        <ele>31.3</ele>
        <time>2010-12-12T08:45:38Z</time>
      </trkpt>
      <trkpt lat="43.5459" lon="3.78984">
        <ele>31.5</ele>
        <time>2010-12-12T08:45:41Z</time>
      </trkpt>
      <trkpt lat="43.54587" lon="3.78994">
        <ele>31.7</ele>
        <time>2010-12-12T08:45:44Z</time>
      </trkpt>
      <trkpt lat="43.54581" lon="3.79004">
        <ele>32.1</ele>
        <time>2010-12-12T08:45:47Z</time>
      </trkpt>
      <trkpt lat="43.54577" lon="3.79014">
        <ele>32.3</ele>
        <time>2010-12-12T08:45:50Z</time>
      </trkpt>
      <trkpt lat="43.54573" lon="3.79023">
        <ele>32.5</ele>
        <time>2010-12-12T08:45:53Z</time>
      </trkpt>
      <trkpt lat="43.54567" lon="3.79031">
        <ele>32.9</ele>
        <time>2010-12-12T08:45:56Z</time>
      </trkpt>
      <trkpt lat="43.54562" lon="3.79041">
        <ele>33.1</ele>
        <time>2010-12-12T08:45:59Z</time>
      </trkpt>
      <trkpt lat="43.5456" lon="3.79049">
        <ele>33.3</ele>
        <time>2010-12-12T08:46:01Z</time>
      </trkpt>
      <trkpt lat="43.54556" lon="3.79059">
        <ele>33.5</ele>
        <time>2010-12-12T08:46:04Z</time>
      </trkpt>
      <trkpt lat="43.54558" lon="3.79069">
        <ele>33.5</ele>
        <time>2010-12-12T08:46:07Z</time>
      </trkpt>
      <trkpt lat="43.54561" lon="3.79078">
        <ele>33.4</ele>
        <time>2010-12-12T08:46:10Z</time>
      </trkpt>
      <trkpt lat="43.54562" lon="3.79089">
        <ele>33.5</ele>
        <time>2010-12-12T08:46:14Z</time>
      </trkpt>
      <trkpt lat="43.54563" lon="3.791">
        <ele>33.9</ele>
        <time>2010-12-12T08:46:18Z</time>
      </trkpt>
      <trkpt lat="43.54566" lon="3.79112">
        <ele>34.2</ele>
        <time>2010-12-12T08:46:23Z</time>
      </trkpt>
      <trkpt lat="43.54567" lon="3.79122">
        <ele>34.4</ele>
        <time>2010-12-12T08:46:26Z</time>
      </trkpt>
      <trkpt lat="43.54569" lon="3.79133">
        <ele>34.7</ele>
        <time>2010-12-12T08:46:29Z</time>
      </trkpt>
      <trkpt lat="43.54571" lon="3.79142">
        <ele>34.9</ele>
        <time>2010-12-12T08:46:32Z</time>
      </trkpt>
      <trkpt lat="43.54572" lon="3.79146">
        <ele>35</ele>
        <time>2010-12-12T08:46:33Z</time>
      </trkpt>
      <trkpt lat="43.54581" lon="3.79153">
        <ele>34.7</ele>
        <time>2010-12-12T08:46:49Z</time>
      </trkpt>
      <trkpt lat="43.54588" lon="3.79149">
        <ele>34.2</ele>
        <time>2010-12-12T08:46:52Z</time>
      </trkpt>
      <trkpt lat="43.54594" lon="3.79147">
        <ele>33.9</ele>
        <time>2010-12-12T08:46:54Z</time>
      </trkpt>
      <trkpt lat="43.546" lon="3.79144">
        <ele>33.6</ele>
        <time>2010-12-12T08:46:56Z</time>
      </trkpt>
      <trkpt lat="43.54606" lon="3.79137">
        <ele>33.1</ele>
        <time>2010-12-12T08:46:58Z</time>
      </trkpt>
      <trkpt lat="43.54612" lon="3.79133">
        <ele>32.8</ele>
        <time>2010-12-12T08:47:00Z</time>
      </trkpt>
      <trkpt lat="43.5462" lon="3.7913">
        <ele>32.4</ele>
        <time>2010-12-12T08:47:02Z</time>
      </trkpt>
      <trkpt lat="43.54624" lon="3.79129">
        <ele>32.2</ele>
        <time>2010-12-12T08:47:03Z</time>
      </trkpt>
      <trkpt lat="43.54629" lon="3.79127">
        <ele>31.9</ele>
        <time>2010-12-12T08:47:04Z</time>
      </trkpt>
      <trkpt lat="43.54633" lon="3.79125">
        <ele>31.7</ele>
        <time>2010-12-12T08:47:05Z</time>
      </trkpt>
      <trkpt lat="43.54638" lon="3.79124">
        <ele>31.5</ele>
        <time>2010-12-12T08:47:06Z</time>
      </trkpt>
      <trkpt lat="43.54642" lon="3.79124">
        <ele>31.3</ele>
        <time>2010-12-12T08:47:07Z</time>
      </trkpt>
      <trkpt lat="43.54651" lon="3.79126">
        <ele>31.1</ele>
        <time>2010-12-12T08:47:09Z</time>
      </trkpt>
      <trkpt lat="43.54657" lon="3.79134">
        <ele>31.1</ele>
        <time>2010-12-12T08:47:11Z</time>
      </trkpt>
      <trkpt lat="43.54662" lon="3.79142">
        <ele>31.3</ele>
        <time>2010-12-12T08:47:13Z</time>
      </trkpt>
      <trkpt lat="43.54667" lon="3.79151">
        <ele>31.4</ele>
        <time>2010-12-12T08:47:15Z</time>
      </trkpt>
      <trkpt lat="43.54672" lon="3.7916">
        <ele>31.6</ele>
        <time>2010-12-12T08:47:17Z</time>
      </trkpt>
      <trkpt lat="43.54677" lon="3.79167">
        <ele>31.6</ele>
        <time>2010-12-12T08:47:19Z</time>
      </trkpt>
      <trkpt lat="43.54683" lon="3.79176">
        <ele>31.8</ele>
        <time>2010-12-12T08:47:21Z</time>
      </trkpt>
      <trkpt lat="43.54689" lon="3.79185">
        <ele>31.9</ele>
        <time>2010-12-12T08:47:23Z</time>
      </trkpt>
      <trkpt lat="43.54695" lon="3.79194">
        <ele>32</ele>
        <time>2010-12-12T08:47:25Z</time>
      </trkpt>
      <trkpt lat="43.54701" lon="3.79203">
        <ele>32.1</ele>
        <time>2010-12-12T08:47:27Z</time>
      </trkpt>
      <trkpt lat="43.54706" lon="3.79213">
        <ele>32.3</ele>
        <time>2010-12-12T08:47:29Z</time>
      </trkpt>
      <trkpt lat="43.54712" lon="3.79216">
        <ele>32.1</ele>
        <time>2010-12-12T08:47:32Z</time>
      </trkpt>
      <trkpt lat="43.54718" lon="3.79223">
        <ele>32.2</ele>
        <time>2010-12-12T08:47:35Z</time>
      </trkpt>
      <trkpt lat="43.5472" lon="3.79226">
        <ele>32.2</ele>
        <time>2010-12-12T08:47:36Z</time>
      </trkpt>
      <trkpt lat="43.54728" lon="3.79209">
        <ele>31.3</ele>
        <time>2010-12-12T08:47:44Z</time>
      </trkpt>
      <trkpt lat="43.5473" lon="3.79199">
        <ele>30.9</ele>
        <time>2010-12-12T08:47:46Z</time>
      </trkpt>
      <trkpt lat="43.54731" lon="3.79188">
        <ele>30.4</ele>
        <time>2010-12-12T08:47:48Z</time>
      </trkpt>
      <trkpt lat="43.54733" lon="3.79177">
        <ele>30</ele>
        <time>2010-12-12T08:47:50Z</time>
      </trkpt>
      <trkpt lat="43.54735" lon="3.79166">
        <ele>29.5</ele>
        <time>2010-12-12T08:47:52Z</time>
      </trkpt>
      <trkpt lat="43.54738" lon="3.79155">
        <ele>29.1</ele>
        <time>2010-12-12T08:47:54Z</time>
      </trkpt>
      <trkpt lat="43.54744" lon="3.79145">
        <ele>28.7</ele>
        <time>2010-12-12T08:47:56Z</time>
      </trkpt>
      <trkpt lat="43.54748" lon="3.79141">
        <ele>28.5</ele>
        <time>2010-12-12T08:47:57Z</time>
      </trkpt>
      <trkpt lat="43.54752" lon="3.79138">
        <ele>28.2</ele>
        <time>2010-12-12T08:47:58Z</time>
      </trkpt>
      <trkpt lat="43.54756" lon="3.79134">
        <ele>28</ele>
        <time>2010-12-12T08:47:59Z</time>
      </trkpt>
      <trkpt lat="43.54761" lon="3.79131">
        <ele>27.7</ele>
        <time>2010-12-12T08:48:00Z</time>
      </trkpt>
      <trkpt lat="43.54768" lon="3.79123">
        <ele>27.2</ele>
        <time>2010-12-12T08:48:02Z</time>
      </trkpt>
      <trkpt lat="43.54771" lon="3.79113">
        <ele>26.7</ele>
        <time>2010-12-12T08:48:09Z</time>
      </trkpt>
      <trkpt lat="43.54778" lon="3.79106">
        <ele>26.1</ele>
        <time>2010-12-12T08:48:14Z</time>
      </trkpt>
      <trkpt lat="43.54785" lon="3.79105">
        <ele>25.7</ele>
        <time>2010-12-12T08:48:18Z</time>
      </trkpt>
      <trkpt lat="43.5479" lon="3.79105">
        <ele>25.5</ele>
        <time>2010-12-12T08:48:20Z</time>
      </trkpt>
      <trkpt lat="43.54794" lon="3.79104">
        <ele>25.2</ele>
        <time>2010-12-12T08:48:21Z</time>
      </trkpt>
      <trkpt lat="43.54799" lon="3.79104">
        <ele>25</ele>
        <time>2010-12-12T08:48:22Z</time>
      </trkpt>
      <trkpt lat="43.54807" lon="3.79103">
        <ele>24.5</ele>
        <time>2010-12-12T08:48:24Z</time>
      </trkpt>
      <trkpt lat="43.54815" lon="3.79103">
        <ele>24.1</ele>
        <time>2010-12-12T08:48:26Z</time>
      </trkpt>
      <trkpt lat="43.54822" lon="3.7911">
        <ele>24.2</ele>
        <time>2010-12-12T08:48:32Z</time>
      </trkpt>
      <trkpt lat="43.54825" lon="3.79119">
        <ele>24.5</ele>
        <time>2010-12-12T08:48:35Z</time>
      </trkpt>
      <trkpt lat="43.54829" lon="3.7913">
        <ele>24.9</ele>
        <time>2010-12-12T08:48:38Z</time>
      </trkpt>
      <trkpt lat="43.54831" lon="3.79134">
        <ele>25.1</ele>
        <time>2010-12-12T08:48:39Z</time>
      </trkpt>
      <trkpt lat="43.54842" lon="3.79142">
        <ele>25.2</ele>
        <time>2010-12-12T08:48:44Z</time>
      </trkpt>
      <trkpt lat="43.54849" lon="3.79148">
        <ele>25.3</ele>
        <time>2010-12-12T08:48:47Z</time>
      </trkpt>
      <trkpt lat="43.54853" lon="3.79158">
        <ele>25.6</ele>
        <time>2010-12-12T08:48:50Z</time>
      </trkpt>
      <trkpt lat="43.54859" lon="3.79167">
        <ele>25.8</ele>
        <time>2010-12-12T08:48:53Z</time>
      </trkpt>
      <trkpt lat="43.54862" lon="3.79175">
        <ele>26</ele>
        <time>2010-12-12T08:48:55Z</time>
      </trkpt>
      <trkpt lat="43.54863" lon="3.79183">
        <ele>26.3</ele>
        <time>2010-12-12T08:48:57Z</time>
      </trkpt>
      <trkpt lat="43.54866" lon="3.79191">
        <ele>26.6</ele>
        <time>2010-12-12T08:48:59Z</time>
      </trkpt>
      <trkpt lat="43.54869" lon="3.79199">
        <ele>26.7</ele>
        <time>2010-12-12T08:49:01Z</time>
      </trkpt>
      <trkpt lat="43.54873" lon="3.79205">
        <ele>26.7</ele>
        <time>2010-12-12T08:49:03Z</time>
      </trkpt>
      <trkpt lat="43.54879" lon="3.79211">
        <ele>26.6</ele>
        <time>2010-12-12T08:49:05Z</time>
      </trkpt>
      <trkpt lat="43.54884" lon="3.79219">
        <ele>26.6</ele>
        <time>2010-12-12T08:49:07Z</time>
      </trkpt>
      <trkpt lat="43.54889" lon="3.79225">
        <ele>26.4</ele>
        <time>2010-12-12T08:49:09Z</time>
      </trkpt>
      <trkpt lat="43.54896" lon="3.79232">
        <ele>26.1</ele>
        <time>2010-12-12T08:49:12Z</time>
      </trkpt>
      <trkpt lat="43.54903" lon="3.79237">
        <ele>25.8</ele>
        <time>2010-12-12T08:49:15Z</time>
      </trkpt>
      <trkpt lat="43.5491" lon="3.79239">
        <ele>25.2</ele>
        <time>2010-12-12T08:49:18Z</time>
      </trkpt>
      <trkpt lat="43.54916" lon="3.79245">
        <ele>25</ele>
        <time>2010-12-12T08:49:21Z</time>
      </trkpt>
      <trkpt lat="43.54921" lon="3.79251">
        <ele>24.9</ele>
        <time>2010-12-12T08:49:24Z</time>
      </trkpt>
      <trkpt lat="43.54927" lon="3.79258">
        <ele>25.1</ele>
        <time>2010-12-12T08:49:27Z</time>
      </trkpt>
      <trkpt lat="43.54934" lon="3.79263">
        <ele>25.1</ele>
        <time>2010-12-12T08:49:30Z</time>
      </trkpt>
      <trkpt lat="43.54933" lon="3.79275">
        <ele>25.8</ele>
        <time>2010-12-12T08:49:58Z</time>
      </trkpt>
      <trkpt lat="43.54932" lon="3.79276">
        <ele>25.9</ele>
        <time>2010-12-12T08:49:59Z</time>
      </trkpt>
      <trkpt lat="43.54941" lon="3.79288">
        <ele>25.9</ele>
        <time>2010-12-12T08:50:12Z</time>
      </trkpt>
      <trkpt lat="43.54946" lon="3.79295">
        <ele>25.8</ele>
        <time>2010-12-12T08:50:14Z</time>
      </trkpt>
      <trkpt lat="43.54952" lon="3.79301">
        <ele>25.6</ele>
        <time>2010-12-12T08:50:16Z</time>
      </trkpt>
      <trkpt lat="43.54957" lon="3.79309">
        <ele>25.4</ele>
        <time>2010-12-12T08:50:18Z</time>
      </trkpt>
      <trkpt lat="43.54962" lon="3.79319">
        <ele>25.2</ele>
        <time>2010-12-12T08:50:20Z</time>
      </trkpt>
      <trkpt lat="43.54965" lon="3.7933">
        <ele>25.1</ele>
        <time>2010-12-12T08:50:22Z</time>
      </trkpt>
      <trkpt lat="43.5497" lon="3.79337">
        <ele>25</ele>
        <time>2010-12-12T08:50:24Z</time>
      </trkpt>
      <trkpt lat="43.54976" lon="3.79344">
        <ele>24.9</ele>
        <time>2010-12-12T08:50:26Z</time>
      </trkpt>
      <trkpt lat="43.54983" lon="3.79351">
        <ele>24.6</ele>
        <time>2010-12-12T08:50:28Z</time>
      </trkpt>
      <trkpt lat="43.54991" lon="3.79353">
        <ele>23.7</ele>
        <time>2010-12-12T08:50:30Z</time>
      </trkpt>
      <trkpt lat="43.54999" lon="3.7936">
        <ele>23.4</ele>
        <time>2010-12-12T08:50:32Z</time>
      </trkpt>
      <trkpt lat="43.55004" lon="3.79367">
        <ele>23.6</ele>
        <time>2010-12-12T08:50:34Z</time>
      </trkpt>
      <trkpt lat="43.5501" lon="3.7937">
        <ele>23.6</ele>
        <time>2010-12-12T08:50:36Z</time>
      </trkpt>
      <trkpt lat="43.55017" lon="3.79377">
        <ele>23.7</ele>
        <time>2010-12-12T08:50:38Z</time>
      </trkpt>
      <trkpt lat="43.5502" lon="3.79384">
        <ele>24</ele>
        <time>2010-12-12T08:50:40Z</time>
      </trkpt>
      <trkpt lat="43.55025" lon="3.79392">
        <ele>24.1</ele>
        <time>2010-12-12T08:50:42Z</time>
      </trkpt>
      <trkpt lat="43.55031" lon="3.794">
        <ele>24.2</ele>
        <time>2010-12-12T08:50:46Z</time>
      </trkpt>
      <trkpt lat="43.55034" lon="3.79409">
        <ele>24.3</ele>
        <time>2010-12-12T08:50:51Z</time>
      </trkpt>
      <trkpt lat="43.55039" lon="3.79418">
        <ele>24.4</ele>
        <time>2010-12-12T08:50:54Z</time>
      </trkpt>
      <trkpt lat="43.55045" lon="3.79424">
        <ele>24.5</ele>
        <time>2010-12-12T08:50:57Z</time>
      </trkpt>
      <trkpt lat="43.5505" lon="3.7943">
        <ele>24.6</ele>
        <time>2010-12-12T08:51:00Z</time>
      </trkpt>
      <trkpt lat="43.55053" lon="3.7943">
        <ele>24.3</ele>
        <time>2010-12-12T08:51:01Z</time>
      </trkpt>
      <trkpt lat="43.55064" lon="3.79427">
        <ele>22.8</ele>
        <time>2010-12-12T08:51:05Z</time>
      </trkpt>
      <trkpt lat="43.5507" lon="3.79431">
        <ele>22.7</ele>
        <time>2010-12-12T08:51:07Z</time>
      </trkpt>
      <trkpt lat="43.55076" lon="3.79437">
        <ele>22.7</ele>
        <time>2010-12-12T08:51:09Z</time>
      </trkpt>
      <trkpt lat="43.55082" lon="3.79444">
        <ele>22.7</ele>
        <time>2010-12-12T08:51:11Z</time>
      </trkpt>
      <trkpt lat="43.55089" lon="3.7945">
        <ele>22.9</ele>
        <time>2010-12-12T08:51:13Z</time>
      </trkpt>
      <trkpt lat="43.55096" lon="3.79456">
        <ele>23.1</ele>
        <time>2010-12-12T08:51:15Z</time>
      </trkpt>
      <trkpt lat="43.55103" lon="3.79461">
        <ele>23.1</ele>
        <time>2010-12-12T08:51:17Z</time>
      </trkpt>
      <trkpt lat="43.55111" lon="3.79467">
        <ele>23.2</ele>
        <time>2010-12-12T08:51:19Z</time>
      </trkpt>
      <trkpt lat="43.55118" lon="3.79473">
        <ele>23.1</ele>
        <time>2010-12-12T08:51:21Z</time>
      </trkpt>
      <trkpt lat="43.55125" lon="3.7948">
        <ele>23.2</ele>
        <time>2010-12-12T08:51:23Z</time>
      </trkpt>
      <trkpt lat="43.5513" lon="3.7949">
        <ele>23.4</ele>
        <time>2010-12-12T08:51:25Z</time>
      </trkpt>
      <trkpt lat="43.55134" lon="3.79499">
        <ele>23.6</ele>
        <time>2010-12-12T08:51:28Z</time>
      </trkpt>
      <trkpt lat="43.55137" lon="3.79509">
        <ele>24.1</ele>
        <time>2010-12-12T08:51:47Z</time>
      </trkpt>
      <trkpt lat="43.55145" lon="3.79514">
        <ele>23.7</ele>
        <time>2010-12-12T08:51:58Z</time>
      </trkpt>
      <trkpt lat="43.5515" lon="3.79523">
        <ele>23.9</ele>
        <time>2010-12-12T08:52:02Z</time>
      </trkpt>
      <trkpt lat="43.5515" lon="3.79526">
        <ele>24.1</ele>
        <time>2010-12-12T08:52:03Z</time>
      </trkpt>
      <trkpt lat="43.55157" lon="3.79542">
        <ele>24.4</ele>
        <time>2010-12-12T08:52:13Z</time>
      </trkpt>
      <trkpt lat="43.55163" lon="3.79547">
        <ele>24.2</ele>
        <time>2010-12-12T08:52:16Z</time>
      </trkpt>
      <trkpt lat="43.55168" lon="3.79553">
        <ele>24.1</ele>
        <time>2010-12-12T08:52:18Z</time>
      </trkpt>
      <trkpt lat="43.55171" lon="3.7956">
        <ele>24.3</ele>
        <time>2010-12-12T08:52:20Z</time>
      </trkpt>
      <trkpt lat="43.55174" lon="3.79571">
        <ele>24.7</ele>
        <time>2010-12-12T08:52:23Z</time>
      </trkpt>
      <trkpt lat="43.55177" lon="3.79581">
        <ele>25.1</ele>
        <time>2010-12-12T08:52:26Z</time>
      </trkpt>
      <trkpt lat="43.55183" lon="3.79589">
        <ele>25.4</ele>
        <time>2010-12-12T08:52:29Z</time>
      </trkpt>
      <trkpt lat="43.55188" lon="3.79596">
        <ele>25.7</ele>
        <time>2010-12-12T08:52:31Z</time>
      </trkpt>
      <trkpt lat="43.55193" lon="3.79602">
        <ele>25.9</ele>
        <time>2010-12-12T08:52:33Z</time>
      </trkpt>
      <trkpt lat="43.55197" lon="3.79609">
        <ele>26.2</ele>
        <time>2010-12-12T08:52:35Z</time>
      </trkpt>
      <trkpt lat="43.55201" lon="3.79615">
        <ele>26.4</ele>
        <time>2010-12-12T08:52:37Z</time>
      </trkpt>
      <trkpt lat="43.55208" lon="3.79619">
        <ele>26.3</ele>
        <time>2010-12-12T08:52:39Z</time>
      </trkpt>
      <trkpt lat="43.55212" lon="3.79627">
        <ele>26.6</ele>
        <time>2010-12-12T08:52:41Z</time>
      </trkpt>
      <trkpt lat="43.55214" lon="3.79636">
        <ele>27.3</ele>
        <time>2010-12-12T08:52:43Z</time>
      </trkpt>
      <trkpt lat="43.55215" lon="3.79648">
        <ele>28.1</ele>
        <time>2010-12-12T08:52:46Z</time>
      </trkpt>
      <trkpt lat="43.55219" lon="3.79658">
        <ele>28.6</ele>
        <time>2010-12-12T08:52:49Z</time>
      </trkpt>
      <trkpt lat="43.55225" lon="3.79667">
        <ele>28.7</ele>
        <time>2010-12-12T08:52:52Z</time>
      </trkpt>
      <trkpt lat="43.55231" lon="3.79676">
        <ele>28.8</ele>
        <time>2010-12-12T08:52:55Z</time>
      </trkpt>
      <trkpt lat="43.55237" lon="3.79685">
        <ele>28.9</ele>
        <time>2010-12-12T08:52:58Z</time>
      </trkpt>
      <trkpt lat="43.5524" lon="3.79693">
        <ele>29.3</ele>
        <time>2010-12-12T08:53:00Z</time>
      </trkpt>
      <trkpt lat="43.55242" lon="3.79704">
        <ele>29.9</ele>
        <time>2010-12-12T08:53:03Z</time>
      </trkpt>
      <trkpt lat="43.55242" lon="3.79707">
        <ele>30.2</ele>
        <time>2010-12-12T08:53:04Z</time>
      </trkpt>
      <trkpt lat="43.55252" lon="3.79722">
        <ele>30.5</ele>
        <time>2010-12-12T08:53:10Z</time>
      </trkpt>
      <trkpt lat="43.55257" lon="3.79728">
        <ele>30.6</ele>
        <time>2010-12-12T08:53:12Z</time>
      </trkpt>
      <trkpt lat="43.5526" lon="3.79736">
        <ele>30.9</ele>
        <time>2010-12-12T08:53:14Z</time>
      </trkpt>
      <trkpt lat="43.55264" lon="3.79747">
        <ele>31.4</ele>
        <time>2010-12-12T08:53:17Z</time>
      </trkpt>
      <trkpt lat="43.55265" lon="3.79757">
        <ele>31.9</ele>
        <time>2010-12-12T08:53:20Z</time>
      </trkpt>
      <trkpt lat="43.55258" lon="3.79762">
        <ele>32.8</ele>
        <time>2010-12-12T08:53:28Z</time>
      </trkpt>
      <trkpt lat="43.5525" lon="3.79761">
        <ele>33.5</ele>
        <time>2010-12-12T08:53:35Z</time>
      </trkpt>
      <trkpt lat="43.55242" lon="3.79764">
        <ele>34.3</ele>
        <time>2010-12-12T08:53:40Z</time>
      </trkpt>
      <trkpt lat="43.55235" lon="3.79764">
        <ele>34.9</ele>
        <time>2010-12-12T08:53:44Z</time>
      </trkpt>
      <trkpt lat="43.55228" lon="3.79771">
        <ele>35.8</ele>
        <time>2010-12-12T08:53:48Z</time>
      </trkpt>
      <trkpt lat="43.55222" lon="3.79779">
        <ele>36.6</ele>
        <time>2010-12-12T08:53:52Z</time>
      </trkpt>
      <trkpt lat="43.55218" lon="3.7979">
        <ele>37.4</ele>
        <time>2010-12-12T08:53:56Z</time>
      </trkpt>
      <trkpt lat="43.55216" lon="3.79799">
        <ele>38</ele>
        <time>2010-12-12T08:53:59Z</time>
      </trkpt>
      <trkpt lat="43.55215" lon="3.79809">
        <ele>38.4</ele>
        <time>2010-12-12T08:54:02Z</time>
      </trkpt>
      <trkpt lat="43.55214" lon="3.79819">
        <ele>39</ele>
        <time>2010-12-12T08:54:05Z</time>
      </trkpt>
      <trkpt lat="43.55213" lon="3.79821">
        <ele>39.2</ele>
        <time>2010-12-12T08:54:06Z</time>
      </trkpt>
      <trkpt lat="43.55205" lon="3.79834">
        <ele>40.3</ele>
        <time>2010-12-12T08:54:11Z</time>
      </trkpt>
      <trkpt lat="43.552" lon="3.79842">
        <ele>40.6</ele>
        <time>2010-12-12T08:54:14Z</time>
      </trkpt>
      <trkpt lat="43.55197" lon="3.79851">
        <ele>40.7</ele>
        <time>2010-12-12T08:54:17Z</time>
      </trkpt>
      <trkpt lat="43.55194" lon="3.79861">
        <ele>40.8</ele>
        <time>2010-12-12T08:54:20Z</time>
      </trkpt>
      <trkpt lat="43.55191" lon="3.7987">
        <ele>40.9</ele>
        <time>2010-12-12T08:54:23Z</time>
      </trkpt>
      <trkpt lat="43.55186" lon="3.79878">
        <ele>41.2</ele>
        <time>2010-12-12T08:54:26Z</time>
      </trkpt>
      <trkpt lat="43.55181" lon="3.79886">
        <ele>41.5</ele>
        <time>2010-12-12T08:54:29Z</time>
      </trkpt>
      <trkpt lat="43.55177" lon="3.79895">
        <ele>41.6</ele>
        <time>2010-12-12T08:54:32Z</time>
      </trkpt>
      <trkpt lat="43.55174" lon="3.79906">
        <ele>41.7</ele>
        <time>2010-12-12T08:54:35Z</time>
      </trkpt>
      <trkpt lat="43.55177" lon="3.79917">
        <ele>41.4</ele>
        <time>2010-12-12T08:54:38Z</time>
      </trkpt>
      <trkpt lat="43.55182" lon="3.79923">
        <ele>41.2</ele>
        <time>2010-12-12T08:54:40Z</time>
      </trkpt>
      <trkpt lat="43.55187" lon="3.79932">
        <ele>40.9</ele>
        <time>2010-12-12T08:54:45Z</time>
      </trkpt>
      <trkpt lat="43.5519" lon="3.79941">
        <ele>40.8</ele>
        <time>2010-12-12T08:54:49Z</time>
      </trkpt>
      <trkpt lat="43.5519" lon="3.79952">
        <ele>40.9</ele>
        <time>2010-12-12T08:54:52Z</time>
      </trkpt>
      <trkpt lat="43.55183" lon="3.79957">
        <ele>41.4</ele>
        <time>2010-12-12T08:54:55Z</time>
      </trkpt>
      <trkpt lat="43.55179" lon="3.79967">
        <ele>41.8</ele>
        <time>2010-12-12T08:55:01Z</time>
      </trkpt>
      <trkpt lat="43.55178" lon="3.79978">
        <ele>41.9</ele>
        <time>2010-12-12T08:55:08Z</time>
      </trkpt>
      <trkpt lat="43.55179" lon="3.79979">
        <ele>41.9</ele>
        <time>2010-12-12T08:55:09Z</time>
      </trkpt>
      <trkpt lat="43.55189" lon="3.79991">
        <ele>41.3</ele>
        <time>2010-12-12T08:56:01Z</time>
      </trkpt>
      <trkpt lat="43.55197" lon="3.79993">
        <ele>40.7</ele>
        <time>2010-12-12T08:56:05Z</time>
      </trkpt>
      <trkpt lat="43.55205" lon="3.79986">
        <ele>40.2</ele>
        <time>2010-12-12T08:56:10Z</time>
      </trkpt>
      <trkpt lat="43.55207" lon="3.79984">
        <ele>40</ele>
        <time>2010-12-12T08:56:11Z</time>
      </trkpt>
      <trkpt lat="43.55216" lon="3.7999">
        <ele>39.4</ele>
        <time>2010-12-12T08:56:15Z</time>
      </trkpt>
      <trkpt lat="43.55224" lon="3.79996">
        <ele>38.9</ele>
        <time>2010-12-12T08:56:20Z</time>
      </trkpt>
      <trkpt lat="43.55231" lon="3.79993">
        <ele>38.4</ele>
        <time>2010-12-12T08:56:24Z</time>
      </trkpt>
      <trkpt lat="43.55238" lon="3.79994">
        <ele>37.9</ele>
        <time>2010-12-12T08:56:27Z</time>
      </trkpt>
      <trkpt lat="43.55245" lon="3.79995">
        <ele>37.4</ele>
        <time>2010-12-12T08:56:29Z</time>
      </trkpt>
      <trkpt lat="43.55253" lon="3.79993">
        <ele>36.9</ele>
        <time>2010-12-12T08:56:31Z</time>
      </trkpt>
      <trkpt lat="43.55257" lon="3.79991">
        <ele>36.6</ele>
        <time>2010-12-12T08:56:32Z</time>
      </trkpt>
      <trkpt lat="43.55262" lon="3.7999">
        <ele>36.4</ele>
        <time>2010-12-12T08:56:33Z</time>
      </trkpt>
      <trkpt lat="43.55267" lon="3.79989">
        <ele>36.2</ele>
        <time>2010-12-12T08:56:34Z</time>
      </trkpt>
      <trkpt lat="43.55272" lon="3.79989">
        <ele>35.9</ele>
        <time>2010-12-12T08:56:35Z</time>
      </trkpt>
      <trkpt lat="43.55278" lon="3.79988">
        <ele>35.6</ele>
        <time>2010-12-12T08:56:36Z</time>
      </trkpt>
      <trkpt lat="43.55283" lon="3.79986">
        <ele>35.4</ele>
        <time>2010-12-12T08:56:37Z</time>
      </trkpt>
      <trkpt lat="43.55289" lon="3.79986">
        <ele>35.1</ele>
        <time>2010-12-12T08:56:38Z</time>
      </trkpt>
      <trkpt lat="43.55295" lon="3.79986">
        <ele>34.8</ele>
        <time>2010-12-12T08:56:39Z</time>
      </trkpt>
      <trkpt lat="43.55301" lon="3.79986">
        <ele>34.5</ele>
        <time>2010-12-12T08:56:40Z</time>
      </trkpt>
      <trkpt lat="43.55307" lon="3.79986">
        <ele>34.1</ele>
        <time>2010-12-12T08:56:41Z</time>
      </trkpt>
      <trkpt lat="43.55314" lon="3.79986">
        <ele>33.8</ele>
        <time>2010-12-12T08:56:42Z</time>
      </trkpt>
      <trkpt lat="43.55321" lon="3.79987">
        <ele>33.5</ele>
        <time>2010-12-12T08:56:43Z</time>
      </trkpt>
      <trkpt lat="43.55327" lon="3.79988">
        <ele>33.2</ele>
        <time>2010-12-12T08:56:44Z</time>
      </trkpt>
      <trkpt lat="43.55333" lon="3.7999">
        <ele>32.9</ele>
        <time>2010-12-12T08:56:45Z</time>
      </trkpt>
      <trkpt lat="43.55337" lon="3.79995">
        <ele>32.8</ele>
        <time>2010-12-12T08:56:46Z</time>
      </trkpt>
      <trkpt lat="43.55344" lon="3.80002">
        <ele>32.6</ele>
        <time>2010-12-12T08:56:48Z</time>
      </trkpt>
      <trkpt lat="43.55352" lon="3.80005">
        <ele>32.2</ele>
        <time>2010-12-12T08:56:50Z</time>
      </trkpt>
      <trkpt lat="43.55359" lon="3.80007">
        <ele>31.9</ele>
        <time>2010-12-12T08:56:52Z</time>
      </trkpt>
      <trkpt lat="43.55367" lon="3.8001">
        <ele>31.5</ele>
        <time>2010-12-12T08:56:54Z</time>
      </trkpt>
      <trkpt lat="43.55375" lon="3.80017">
        <ele>31.2</ele>
        <time>2010-12-12T08:56:56Z</time>
      </trkpt>
      <trkpt lat="43.5538" lon="3.80026">
        <ele>31</ele>
        <time>2010-12-12T08:56:58Z</time>
      </trkpt>
      <trkpt lat="43.55384" lon="3.80036">
        <ele>30.8</ele>
        <time>2010-12-12T08:57:00Z</time>
      </trkpt>
      <trkpt lat="43.55388" lon="3.80047">
        <ele>30.6</ele>
        <time>2010-12-12T08:57:02Z</time>
      </trkpt>
      <trkpt lat="43.55391" lon="3.80058">
        <ele>30.4</ele>
        <time>2010-12-12T08:57:04Z</time>
      </trkpt>
      <trkpt lat="43.55391" lon="3.8007">
        <ele>30.4</ele>
        <time>2010-12-12T08:57:06Z</time>
      </trkpt>
      <trkpt lat="43.55386" lon="3.80079">
        <ele>30.9</ele>
        <time>2010-12-12T08:58:04Z</time>
      </trkpt>
      <trkpt lat="43.55385" lon="3.80081">
        <ele>31</ele>
        <time>2010-12-12T08:58:05Z</time>
      </trkpt>
      <trkpt lat="43.55378" lon="3.80096">
        <ele>31.3</ele>
        <time>2010-12-12T08:58:10Z</time>
      </trkpt>
      <trkpt lat="43.55374" lon="3.80105">
        <ele>31.3</ele>
        <time>2010-12-12T08:58:12Z</time>
      </trkpt>
      <trkpt lat="43.55369" lon="3.80115">
        <ele>31.4</ele>
        <time>2010-12-12T08:58:14Z</time>
      </trkpt>
      <trkpt lat="43.55366" lon="3.8012">
        <ele>31.4</ele>
        <time>2010-12-12T08:58:15Z</time>
      </trkpt>
      <trkpt lat="43.55364" lon="3.80126">
        <ele>31.4</ele>
        <time>2010-12-12T08:58:16Z</time>
      </trkpt>
      <trkpt lat="43.55363" lon="3.80133">
        <ele>31.2</ele>
        <time>2010-12-12T08:58:17Z</time>
      </trkpt>
      <trkpt lat="43.55363" lon="3.8014">
        <ele>30.9</ele>
        <time>2010-12-12T08:58:18Z</time>
      </trkpt>
      <trkpt lat="43.55363" lon="3.80148">
        <ele>30.7</ele>
        <time>2010-12-12T08:58:19Z</time>
      </trkpt>
      <trkpt lat="43.55363" lon="3.80155">
        <ele>30.3</ele>
        <time>2010-12-12T08:58:20Z</time>
      </trkpt>
      <trkpt lat="43.55363" lon="3.80164">
        <ele>30</ele>
        <time>2010-12-12T08:58:21Z</time>
      </trkpt>
      <trkpt lat="43.55362" lon="3.80172">
        <ele>29.6</ele>
        <time>2010-12-12T08:58:22Z</time>
      </trkpt>
      <trkpt lat="43.55362" lon="3.8018">
        <ele>29</ele>
        <time>2010-12-12T08:58:23Z</time>
      </trkpt>
      <trkpt lat="43.55362" lon="3.80188">
        <ele>28.4</ele>
        <time>2010-12-12T08:58:24Z</time>
      </trkpt>
      <trkpt lat="43.55362" lon="3.80196">
        <ele>27.8</ele>
        <time>2010-12-12T08:58:25Z</time>
      </trkpt>
      <trkpt lat="43.55362" lon="3.80205">
        <ele>27.2</ele>
        <time>2010-12-12T08:58:26Z</time>
      </trkpt>
      <trkpt lat="43.55361" lon="3.80214">
        <ele>26.6</ele>
        <time>2010-12-12T08:58:27Z</time>
      </trkpt>
      <trkpt lat="43.55361" lon="3.80222">
        <ele>26</ele>
        <time>2010-12-12T08:58:28Z</time>
      </trkpt>
      <trkpt lat="43.55361" lon="3.80231">
        <ele>25.4</ele>
        <time>2010-12-12T08:58:29Z</time>
      </trkpt>
      <trkpt lat="43.55361" lon="3.80239">
        <ele>24.8</ele>
        <time>2010-12-12T08:58:30Z</time>
      </trkpt>
      <trkpt lat="43.55363" lon="3.80247">
        <ele>24.2</ele>
        <time>2010-12-12T08:58:31Z</time>
      </trkpt>
      <trkpt lat="43.55366" lon="3.80255">
        <ele>24.1</ele>
        <time>2010-12-12T08:58:32Z</time>
      </trkpt>
      <trkpt lat="43.5537" lon="3.80263">
        <ele>24.2</ele>
        <time>2010-12-12T08:58:33Z</time>
      </trkpt>
      <trkpt lat="43.55373" lon="3.80271">
        <ele>24.3</ele>
        <time>2010-12-12T08:58:34Z</time>
      </trkpt>
      <trkpt lat="43.55376" lon="3.80279">
        <ele>24.4</ele>
        <time>2010-12-12T08:58:35Z</time>
      </trkpt>
      <trkpt lat="43.55379" lon="3.80286">
        <ele>24.4</ele>
        <time>2010-12-12T08:58:36Z</time>
      </trkpt>
      <trkpt lat="43.55383" lon="3.80292">
        <ele>24.5</ele>
        <time>2010-12-12T08:58:37Z</time>
      </trkpt>
      <trkpt lat="43.55388" lon="3.80297">
        <ele>24.6</ele>
        <time>2010-12-12T08:58:38Z</time>
      </trkpt>
      <trkpt lat="43.55394" lon="3.80299">
        <ele>24.6</ele>
        <time>2010-12-12T08:58:39Z</time>
      </trkpt>
      <trkpt lat="43.55399" lon="3.80301">
        <ele>24.6</ele>
        <time>2010-12-12T08:58:40Z</time>
      </trkpt>
      <trkpt lat="43.55404" lon="3.80302">
        <ele>24.6</ele>
        <time>2010-12-12T08:58:41Z</time>
      </trkpt>
      <trkpt lat="43.55412" lon="3.80303">
        <ele>24.6</ele>
        <time>2010-12-12T08:58:43Z</time>
      </trkpt>
      <trkpt lat="43.55418" lon="3.80305">
        <ele>24.6</ele>
        <time>2010-12-12T08:58:45Z</time>
      </trkpt>
      <trkpt lat="43.55423" lon="3.80314">
        <ele>24.6</ele>
        <time>2010-12-12T08:58:47Z</time>
      </trkpt>
      <trkpt lat="43.55428" lon="3.80323">
        <ele>24.6</ele>
        <time>2010-12-12T08:58:49Z</time>
      </trkpt>
      <trkpt lat="43.55433" lon="3.80331">
        <ele>24.6</ele>
        <time>2010-12-12T08:58:56Z</time>
      </trkpt>
      <trkpt lat="43.55437" lon="3.80341">
        <ele>25.1</ele>
        <time>2010-12-12T08:59:04Z</time>
      </trkpt>
      <trkpt lat="43.55441" lon="3.80352">
        <ele>25.8</ele>
        <time>2010-12-12T08:59:12Z</time>
      </trkpt>
      <trkpt lat="43.55441" lon="3.80354">
        <ele>25.9</ele>
        <time>2010-12-12T08:59:13Z</time>
      </trkpt>
      <trkpt lat="43.55443" lon="3.80374">
        <ele>27.3</ele>
        <time>2010-12-12T08:59:27Z</time>
      </trkpt>
      <trkpt lat="43.55445" lon="3.80386">
        <ele>28.1</ele>
        <time>2010-12-12T08:59:34Z</time>
      </trkpt>
      <trkpt lat="43.5545" lon="3.80397">
        <ele>28.8</ele>
        <time>2010-12-12T08:59:43Z</time>
      </trkpt>
      <trkpt lat="43.55455" lon="3.80403">
        <ele>29.1</ele>
        <time>2010-12-12T08:59:46Z</time>
      </trkpt>
      <trkpt lat="43.55461" lon="3.8041">
        <ele>29.4</ele>
        <time>2010-12-12T08:59:49Z</time>
      </trkpt>
      <trkpt lat="43.55467" lon="3.80417">
        <ele>29.8</ele>
        <time>2010-12-12T08:59:52Z</time>
      </trkpt>
      <trkpt lat="43.55473" lon="3.80423">
        <ele>29.9</ele>
        <time>2010-12-12T08:59:55Z</time>
      </trkpt>
      <trkpt lat="43.55478" lon="3.80428">
        <ele>29.9</ele>
        <time>2010-12-12T08:59:57Z</time>
      </trkpt>
      <trkpt lat="43.55481" lon="3.80436">
        <ele>30.1</ele>
        <time>2010-12-12T08:59:59Z</time>
      </trkpt>
      <trkpt lat="43.55485" lon="3.80444">
        <ele>30.3</ele>
        <time>2010-12-12T09:00:01Z</time>
      </trkpt>
      <trkpt lat="43.55486" lon="3.80454">
        <ele>30.6</ele>
        <time>2010-12-12T09:00:03Z</time>
      </trkpt>
      <trkpt lat="43.55486" lon="3.80464">
        <ele>30.9</ele>
        <time>2010-12-12T09:00:05Z</time>
      </trkpt>
      <trkpt lat="43.55486" lon="3.80474">
        <ele>31.3</ele>
        <time>2010-12-12T09:00:07Z</time>
      </trkpt>
      <trkpt lat="43.55485" lon="3.80484">
        <ele>31.6</ele>
        <time>2010-12-12T09:00:09Z</time>
      </trkpt>
      <trkpt lat="43.55485" lon="3.80492">
        <ele>31.9</ele>
        <time>2010-12-12T09:00:11Z</time>
      </trkpt>
      <trkpt lat="43.55482" lon="3.80504">
        <ele>32.2</ele>
        <time>2010-12-12T09:00:14Z</time>
      </trkpt>
      <trkpt lat="43.55481" lon="3.80507">
        <ele>32.2</ele>
        <time>2010-12-12T09:00:15Z</time>
      </trkpt>
      <trkpt lat="43.55476" lon="3.80522">
        <ele>32.2</ele>
        <time>2010-12-12T09:00:19Z</time>
      </trkpt>
      <trkpt lat="43.55473" lon="3.80532">
        <ele>32.2</ele>
        <time>2010-12-12T09:00:21Z</time>
      </trkpt>
      <trkpt lat="43.5547" lon="3.8054">
        <ele>32.2</ele>
        <time>2010-12-12T09:00:23Z</time>
      </trkpt>
      <trkpt lat="43.55468" lon="3.80548">
        <ele>32.3</ele>
        <time>2010-12-12T09:00:25Z</time>
      </trkpt>
      <trkpt lat="43.55464" lon="3.80555">
        <ele>32.3</ele>
        <time>2010-12-12T09:00:27Z</time>
      </trkpt>
      <trkpt lat="43.5546" lon="3.80565">
        <ele>32.5</ele>
        <time>2010-12-12T09:00:30Z</time>
      </trkpt>
      <trkpt lat="43.55455" lon="3.80575">
        <ele>32.6</ele>
        <time>2010-12-12T09:00:33Z</time>
      </trkpt>
      <trkpt lat="43.55452" lon="3.80585">
        <ele>32.7</ele>
        <time>2010-12-12T09:00:36Z</time>
      </trkpt>
      <trkpt lat="43.55447" lon="3.80595">
        <ele>32.8</ele>
        <time>2010-12-12T09:00:39Z</time>
      </trkpt>
      <trkpt lat="43.55444" lon="3.80602">
        <ele>32.9</ele>
        <time>2010-12-12T09:00:41Z</time>
      </trkpt>
      <trkpt lat="43.5544" lon="3.8061">
        <ele>33.1</ele>
        <time>2010-12-12T09:00:43Z</time>
      </trkpt>
      <trkpt lat="43.55436" lon="3.80618">
        <ele>33.4</ele>
        <time>2010-12-12T09:00:45Z</time>
      </trkpt>
      <trkpt lat="43.55431" lon="3.80627">
        <ele>33.8</ele>
        <time>2010-12-12T09:00:47Z</time>
      </trkpt>
      <trkpt lat="43.55427" lon="3.80635">
        <ele>34.2</ele>
        <time>2010-12-12T09:00:49Z</time>
      </trkpt>
      <trkpt lat="43.55424" lon="3.80644">
        <ele>34.7</ele>
        <time>2010-12-12T09:00:51Z</time>
      </trkpt>
      <trkpt lat="43.55423" lon="3.80653">
        <ele>35</ele>
        <time>2010-12-12T09:00:53Z</time>
      </trkpt>
      <trkpt lat="43.55423" lon="3.80664">
        <ele>35.1</ele>
        <time>2010-12-12T09:00:55Z</time>
      </trkpt>
      <trkpt lat="43.55423" lon="3.80673">
        <ele>35.7</ele>
        <time>2010-12-12T09:00:57Z</time>
      </trkpt>
      <trkpt lat="43.55422" lon="3.80685">
        <ele>37</ele>
        <time>2010-12-12T09:01:00Z</time>
      </trkpt>
      <trkpt lat="43.55421" lon="3.80696">
        <ele>38.1</ele>
        <time>2010-12-12T09:01:03Z</time>
      </trkpt>
      <trkpt lat="43.55422" lon="3.80707">
        <ele>39</ele>
        <time>2010-12-12T09:01:06Z</time>
      </trkpt>
      <trkpt lat="43.55422" lon="3.80718">
        <ele>40.1</ele>
        <time>2010-12-12T09:01:09Z</time>
      </trkpt>
      <trkpt lat="43.55422" lon="3.80729">
        <ele>41.2</ele>
        <time>2010-12-12T09:01:12Z</time>
      </trkpt>
      <trkpt lat="43.55422" lon="3.80739">
        <ele>42.2</ele>
        <time>2010-12-12T09:01:15Z</time>
      </trkpt>
      <trkpt lat="43.55422" lon="3.80743">
        <ele>42.5</ele>
        <time>2010-12-12T09:01:16Z</time>
      </trkpt>
      <trkpt lat="43.55417" lon="3.80761">
        <ele>44.7</ele>
        <time>2010-12-12T09:01:23Z</time>
      </trkpt>
      <trkpt lat="43.55413" lon="3.8077">
        <ele>45.7</ele>
        <time>2010-12-12T09:01:27Z</time>
      </trkpt>
      <trkpt lat="43.55415" lon="3.80781">
        <ele>46.3</ele>
        <time>2010-12-12T09:01:31Z</time>
      </trkpt>
      <trkpt lat="43.55419" lon="3.80791">
        <ele>46.7</ele>
        <time>2010-12-12T09:01:35Z</time>
      </trkpt>
      <trkpt lat="43.55423" lon="3.808">
        <ele>47</ele>
        <time>2010-12-12T09:01:39Z</time>
      </trkpt>
      <trkpt lat="43.55426" lon="3.80811">
        <ele>47.6</ele>
        <time>2010-12-12T09:01:43Z</time>
      </trkpt>
      <trkpt lat="43.5543" lon="3.80821">
        <ele>48.2</ele>
        <time>2010-12-12T09:01:47Z</time>
      </trkpt>
      <trkpt lat="43.55431" lon="3.80832">
        <ele>49.2</ele>
        <time>2010-12-12T09:01:51Z</time>
      </trkpt>
      <trkpt lat="43.55431" lon="3.80844">
        <ele>49.9</ele>
        <time>2010-12-12T09:01:55Z</time>
      </trkpt>
      <trkpt lat="43.55431" lon="3.80854">
        <ele>50.5</ele>
        <time>2010-12-12T09:01:58Z</time>
      </trkpt>
      <trkpt lat="43.55429" lon="3.80864">
        <ele>51.2</ele>
        <time>2010-12-12T09:02:01Z</time>
      </trkpt>
      <trkpt lat="43.55426" lon="3.80874">
        <ele>51.8</ele>
        <time>2010-12-12T09:02:04Z</time>
      </trkpt>
      <trkpt lat="43.55421" lon="3.80883">
        <ele>52.4</ele>
        <time>2010-12-12T09:02:08Z</time>
      </trkpt>
      <trkpt lat="43.55417" lon="3.80891">
        <ele>52.8</ele>
        <time>2010-12-12T09:02:11Z</time>
      </trkpt>
      <trkpt lat="43.55411" lon="3.80899">
        <ele>53.1</ele>
        <time>2010-12-12T09:02:15Z</time>
      </trkpt>
      <trkpt lat="43.55403" lon="3.80901">
        <ele>53</ele>
        <time>2010-12-12T09:02:28Z</time>
      </trkpt>
      <trkpt lat="43.55401" lon="3.80899">
        <ele>52.9</ele>
        <time>2010-12-12T09:02:29Z</time>
      </trkpt>
      <trkpt lat="43.55387" lon="3.80896">
        <ele>52.6</ele>
        <time>2010-12-12T09:02:36Z</time>
      </trkpt>
      <trkpt lat="43.55379" lon="3.80895">
        <ele>52.5</ele>
        <time>2010-12-12T09:02:39Z</time>
      </trkpt>
      <trkpt lat="43.55372" lon="3.80898">
        <ele>52.5</ele>
        <time>2010-12-12T09:02:42Z</time>
      </trkpt>
      <trkpt lat="43.55365" lon="3.809">
        <ele>52.5</ele>
        <time>2010-12-12T09:02:45Z</time>
      </trkpt>
      <trkpt lat="43.55356" lon="3.80904">
        <ele>52.4</ele>
        <time>2010-12-12T09:02:48Z</time>
      </trkpt>
      <trkpt lat="43.5535" lon="3.80907">
        <ele>52.3</ele>
        <time>2010-12-12T09:02:50Z</time>
      </trkpt>
      <trkpt lat="43.55344" lon="3.80911">
        <ele>52.2</ele>
        <time>2010-12-12T09:02:52Z</time>
      </trkpt>
      <trkpt lat="43.55337" lon="3.80913">
        <ele>52.1</ele>
        <time>2010-12-12T09:02:54Z</time>
      </trkpt>
      <trkpt lat="43.55329" lon="3.80916">
        <ele>51.8</ele>
        <time>2010-12-12T09:02:57Z</time>
      </trkpt>
      <trkpt lat="43.55334" lon="3.80925">
        <ele>51.3</ele>
        <time>2010-12-12T09:03:01Z</time>
      </trkpt>
      <trkpt lat="43.55341" lon="3.8093">
        <ele>51.2</ele>
        <time>2010-12-12T09:03:04Z</time>
      </trkpt>
      <trkpt lat="43.55348" lon="3.80934">
        <ele>51</ele>
        <time>2010-12-12T09:03:06Z</time>
      </trkpt>
      <trkpt lat="43.55354" lon="3.8094">
        <ele>50.8</ele>
        <time>2010-12-12T09:03:08Z</time>
      </trkpt>
      <trkpt lat="43.55361" lon="3.80947">
        <ele>50.6</ele>
        <time>2010-12-12T09:03:10Z</time>
      </trkpt>
      <trkpt lat="43.55367" lon="3.80955">
        <ele>50.3</ele>
        <time>2010-12-12T09:03:12Z</time>
      </trkpt>
      <trkpt lat="43.5537" lon="3.80966">
        <ele>49.8</ele>
        <time>2010-12-12T09:03:14Z</time>
      </trkpt>
      <trkpt lat="43.55372" lon="3.80976">
        <ele>49.3</ele>
        <time>2010-12-12T09:03:16Z</time>
      </trkpt>
      <trkpt lat="43.55373" lon="3.80986">
        <ele>48.7</ele>
        <time>2010-12-12T09:03:18Z</time>
      </trkpt>
      <trkpt lat="43.55374" lon="3.80996">
        <ele>48.2</ele>
        <time>2010-12-12T09:03:20Z</time>
      </trkpt>
      <trkpt lat="43.55376" lon="3.81008">
        <ele>47.6</ele>
        <time>2010-12-12T09:03:22Z</time>
      </trkpt>
      <trkpt lat="43.55377" lon="3.81015">
        <ele>47.2</ele>
        <time>2010-12-12T09:03:23Z</time>
      </trkpt>
      <trkpt lat="43.55377" lon="3.81021">
        <ele>46.9</ele>
        <time>2010-12-12T09:03:24Z</time>
      </trkpt>
      <trkpt lat="43.55378" lon="3.81028">
        <ele>46.5</ele>
        <time>2010-12-12T09:03:25Z</time>
      </trkpt>
      <trkpt lat="43.55379" lon="3.81036">
        <ele>46.2</ele>
        <time>2010-12-12T09:03:26Z</time>
      </trkpt>
      <trkpt lat="43.5538" lon="3.81043">
        <ele>45.8</ele>
        <time>2010-12-12T09:03:27Z</time>
      </trkpt>
      <trkpt lat="43.55381" lon="3.8105">
        <ele>45.4</ele>
        <time>2010-12-12T09:03:28Z</time>
      </trkpt>
      <trkpt lat="43.55381" lon="3.81058">
        <ele>44.9</ele>
        <time>2010-12-12T09:03:29Z</time>
      </trkpt>
      <trkpt lat="43.5538" lon="3.81065">
        <ele>44.4</ele>
        <time>2010-12-12T09:03:30Z</time>
      </trkpt>
      <trkpt lat="43.55378" lon="3.81072">
        <ele>43.9</ele>
        <time>2010-12-12T09:03:31Z</time>
      </trkpt>
      <trkpt lat="43.55376" lon="3.81079">
        <ele>43.3</ele>
        <time>2010-12-12T09:03:32Z</time>
      </trkpt>
      <trkpt lat="43.55374" lon="3.81086">
        <ele>42.9</ele>
        <time>2010-12-12T09:03:33Z</time>
      </trkpt>
      <trkpt lat="43.55373" lon="3.81093">
        <ele>42.6</ele>
        <time>2010-12-12T09:03:34Z</time>
      </trkpt>
      <trkpt lat="43.55373" lon="3.81101">
        <ele>42.3</ele>
        <time>2010-12-12T09:03:35Z</time>
      </trkpt>
      <trkpt lat="43.55373" lon="3.81109">
        <ele>42</ele>
        <time>2010-12-12T09:03:36Z</time>
      </trkpt>
      <trkpt lat="43.55373" lon="3.81117">
        <ele>41.9</ele>
        <time>2010-12-12T09:03:37Z</time>
      </trkpt>
      <trkpt lat="43.55375" lon="3.81125">
        <ele>41.7</ele>
        <time>2010-12-12T09:03:38Z</time>
      </trkpt>
      <trkpt lat="43.55376" lon="3.81133">
        <ele>41.6</ele>
        <time>2010-12-12T09:03:39Z</time>
      </trkpt>
      <trkpt lat="43.55376" lon="3.81141">
        <ele>41.4</ele>
        <time>2010-12-12T09:03:40Z</time>
      </trkpt>
      <trkpt lat="43.55376" lon="3.8115">
        <ele>41.1</ele>
        <time>2010-12-12T09:03:41Z</time>
      </trkpt>
      <trkpt lat="43.55376" lon="3.81158">
        <ele>40.8</ele>
        <time>2010-12-12T09:03:42Z</time>
      </trkpt>
      <trkpt lat="43.55375" lon="3.81167">
        <ele>40.5</ele>
        <time>2010-12-12T09:03:43Z</time>
      </trkpt>
      <trkpt lat="43.55374" lon="3.81176">
        <ele>40.2</ele>
        <time>2010-12-12T09:03:44Z</time>
      </trkpt>
      <trkpt lat="43.55373" lon="3.81184">
        <ele>40</ele>
        <time>2010-12-12T09:03:45Z</time>
      </trkpt>
      <trkpt lat="43.55372" lon="3.81192">
        <ele>39.8</ele>
        <time>2010-12-12T09:03:46Z</time>
      </trkpt>
      <trkpt lat="43.5537" lon="3.812">
        <ele>39.6</ele>
        <time>2010-12-12T09:03:47Z</time>
      </trkpt>
      <trkpt lat="43.55369" lon="3.81208">
        <ele>39.3</ele>
        <time>2010-12-12T09:03:48Z</time>
      </trkpt>
      <trkpt lat="43.55367" lon="3.81216">
        <ele>39</ele>
        <time>2010-12-12T09:03:49Z</time>
      </trkpt>
      <trkpt lat="43.55366" lon="3.81224">
        <ele>38.7</ele>
        <time>2010-12-12T09:03:50Z</time>
      </trkpt>
      <trkpt lat="43.55365" lon="3.81231">
        <ele>38.5</ele>
        <time>2010-12-12T09:03:51Z</time>
      </trkpt>
      <trkpt lat="43.55364" lon="3.81238">
        <ele>38.2</ele>
        <time>2010-12-12T09:03:52Z</time>
      </trkpt>
      <trkpt lat="43.55363" lon="3.81245">
        <ele>37.9</ele>
        <time>2010-12-12T09:03:53Z</time>
      </trkpt>
      <trkpt lat="43.55361" lon="3.81253">
        <ele>37.7</ele>
        <time>2010-12-12T09:03:54Z</time>
      </trkpt>
      <trkpt lat="43.5536" lon="3.8126">
        <ele>37.5</ele>
        <time>2010-12-12T09:03:55Z</time>
      </trkpt>
      <trkpt lat="43.55359" lon="3.81267">
        <ele>37.3</ele>
        <time>2010-12-12T09:03:56Z</time>
      </trkpt>
      <trkpt lat="43.55357" lon="3.81275">
        <ele>37</ele>
        <time>2010-12-12T09:03:57Z</time>
      </trkpt>
      <trkpt lat="43.55355" lon="3.81282">
        <ele>36.7</ele>
        <time>2010-12-12T09:03:58Z</time>
      </trkpt>
      <trkpt lat="43.55353" lon="3.8129">
        <ele>36.4</ele>
        <time>2010-12-12T09:03:59Z</time>
      </trkpt>
      <trkpt lat="43.55352" lon="3.81298">
        <ele>36.1</ele>
        <time>2010-12-12T09:04:00Z</time>
      </trkpt>
      <trkpt lat="43.55351" lon="3.81307">
        <ele>35.9</ele>
        <time>2010-12-12T09:04:01Z</time>
      </trkpt>
      <trkpt lat="43.5535" lon="3.81316">
        <ele>35.7</ele>
        <time>2010-12-12T09:04:02Z</time>
      </trkpt>
      <trkpt lat="43.55349" lon="3.81325">
        <ele>35.5</ele>
        <time>2010-12-12T09:04:03Z</time>
      </trkpt>
      <trkpt lat="43.55348" lon="3.81335">
        <ele>35.2</ele>
        <time>2010-12-12T09:04:04Z</time>
      </trkpt>
      <trkpt lat="43.55347" lon="3.81345">
        <ele>34.8</ele>
        <time>2010-12-12T09:04:05Z</time>
      </trkpt>
      <trkpt lat="43.55346" lon="3.81355">
        <ele>34.4</ele>
        <time>2010-12-12T09:04:06Z</time>
      </trkpt>
      <trkpt lat="43.55346" lon="3.81365">
        <ele>34</ele>
        <time>2010-12-12T09:04:07Z</time>
      </trkpt>
      <trkpt lat="43.55346" lon="3.81376">
        <ele>33.7</ele>
        <time>2010-12-12T09:04:08Z</time>
      </trkpt>
      <trkpt lat="43.55346" lon="3.81386">
        <ele>33.5</ele>
        <time>2010-12-12T09:04:09Z</time>
      </trkpt>
      <trkpt lat="43.55347" lon="3.81396">
        <ele>33.3</ele>
        <time>2010-12-12T09:04:10Z</time>
      </trkpt>
      <trkpt lat="43.55348" lon="3.81406">
        <ele>33.1</ele>
        <time>2010-12-12T09:04:11Z</time>
      </trkpt>
      <trkpt lat="43.5535" lon="3.81415">
        <ele>33</ele>
        <time>2010-12-12T09:04:12Z</time>
      </trkpt>
      <trkpt lat="43.55351" lon="3.81425">
        <ele>32.5</ele>
        <time>2010-12-12T09:04:13Z</time>
      </trkpt>
      <trkpt lat="43.55352" lon="3.81436">
        <ele>31.9</ele>
        <time>2010-12-12T09:04:14Z</time>
      </trkpt>
      <trkpt lat="43.55353" lon="3.81446">
        <ele>31.3</ele>
        <time>2010-12-12T09:04:15Z</time>
      </trkpt>
      <trkpt lat="43.55354" lon="3.81457">
        <ele>30.7</ele>
        <time>2010-12-12T09:04:16Z</time>
      </trkpt>
      <trkpt lat="43.55355" lon="3.81468">
        <ele>30</ele>
        <time>2010-12-12T09:04:17Z</time>
      </trkpt>
      <trkpt lat="43.55358" lon="3.81479">
        <ele>29.6</ele>
        <time>2010-12-12T09:04:18Z</time>
      </trkpt>
      <trkpt lat="43.55362" lon="3.81488">
        <ele>29.3</ele>
        <time>2010-12-12T09:04:19Z</time>
      </trkpt>
      <trkpt lat="43.55366" lon="3.81497">
        <ele>29</ele>
        <time>2010-12-12T09:04:20Z</time>
      </trkpt>
      <trkpt lat="43.55369" lon="3.81506">
        <ele>28.6</ele>
        <time>2010-12-12T09:04:21Z</time>
      </trkpt>
      <trkpt lat="43.55372" lon="3.81516">
        <ele>28.2</ele>
        <time>2010-12-12T09:04:22Z</time>
      </trkpt>
      <trkpt lat="43.55375" lon="3.81526">
        <ele>27.8</ele>
        <time>2010-12-12T09:04:23Z</time>
      </trkpt>
      <trkpt lat="43.55377" lon="3.81536">
        <ele>27.3</ele>
        <time>2010-12-12T09:04:24Z</time>
      </trkpt>
      <trkpt lat="43.5538" lon="3.81546">
        <ele>26.8</ele>
        <time>2010-12-12T09:04:25Z</time>
      </trkpt>
      <trkpt lat="43.55382" lon="3.81557">
        <ele>26.2</ele>
        <time>2010-12-12T09:04:26Z</time>
      </trkpt>
      <trkpt lat="43.55384" lon="3.81569">
        <ele>25.5</ele>
        <time>2010-12-12T09:04:27Z</time>
      </trkpt>
      <trkpt lat="43.55386" lon="3.81581">
        <ele>24.7</ele>
        <time>2010-12-12T09:04:28Z</time>
      </trkpt>
      <trkpt lat="43.55387" lon="3.81593">
        <ele>24.2</ele>
        <time>2010-12-12T09:04:29Z</time>
      </trkpt>
      <trkpt lat="43.55388" lon="3.81606">
        <ele>23.7</ele>
        <time>2010-12-12T09:04:30Z</time>
      </trkpt>
      <trkpt lat="43.55389" lon="3.81619">
        <ele>23.3</ele>
        <time>2010-12-12T09:04:31Z</time>
      </trkpt>
      <trkpt lat="43.55391" lon="3.81632">
        <ele>22.8</ele>
        <time>2010-12-12T09:04:32Z</time>
      </trkpt>
      <trkpt lat="43.55394" lon="3.81645">
        <ele>22.4</ele>
        <time>2010-12-12T09:04:33Z</time>
      </trkpt>
      <trkpt lat="43.55396" lon="3.81658">
        <ele>21.9</ele>
        <time>2010-12-12T09:04:34Z</time>
      </trkpt>
      <trkpt lat="43.55398" lon="3.81671">
        <ele>21.4</ele>
        <time>2010-12-12T09:04:35Z</time>
      </trkpt>
      <trkpt lat="43.55399" lon="3.81682">
        <ele>21.2</ele>
        <time>2010-12-12T09:04:36Z</time>
      </trkpt>
      <trkpt lat="43.554" lon="3.81691">
        <ele>21</ele>
        <time>2010-12-12T09:04:37Z</time>
      </trkpt>
      <trkpt lat="43.55398" lon="3.81701">
        <ele>20.7</ele>
        <time>2010-12-12T09:04:39Z</time>
      </trkpt>
      <trkpt lat="43.55393" lon="3.81708">
        <ele>20.4</ele>
        <time>2010-12-12T09:04:42Z</time>
      </trkpt>
      <trkpt lat="43.55386" lon="3.81712">
        <ele>20.2</ele>
        <time>2010-12-12T09:04:45Z</time>
      </trkpt>
      <trkpt lat="43.55379" lon="3.81715">
        <ele>20</ele>
        <time>2010-12-12T09:04:47Z</time>
      </trkpt>
      <trkpt lat="43.55372" lon="3.81719">
        <ele>19.7</ele>
        <time>2010-12-12T09:04:49Z</time>
      </trkpt>
      <trkpt lat="43.55364" lon="3.81724">
        <ele>19.4</ele>
        <time>2010-12-12T09:04:51Z</time>
      </trkpt>
      <trkpt lat="43.5536" lon="3.81726">
        <ele>19.2</ele>
        <time>2010-12-12T09:04:52Z</time>
      </trkpt>
      <trkpt lat="43.55355" lon="3.81727">
        <ele>19.1</ele>
        <time>2010-12-12T09:04:53Z</time>
      </trkpt>
      <trkpt lat="43.55351" lon="3.81729">
        <ele>18.9</ele>
        <time>2010-12-12T09:04:54Z</time>
      </trkpt>
      <trkpt lat="43.55346" lon="3.81731">
        <ele>18.7</ele>
        <time>2010-12-12T09:04:55Z</time>
      </trkpt>
      <trkpt lat="43.55341" lon="3.81735">
        <ele>18.6</ele>
        <time>2010-12-12T09:04:56Z</time>
      </trkpt>
      <trkpt lat="43.55338" lon="3.81738">
        <ele>18.4</ele>
        <time>2010-12-12T09:04:57Z</time>
      </trkpt>
      <trkpt lat="43.55334" lon="3.81744">
        <ele>18.2</ele>
        <time>2010-12-12T09:04:58Z</time>
      </trkpt>
      <trkpt lat="43.55331" lon="3.8175">
        <ele>17.9</ele>
        <time>2010-12-12T09:04:59Z</time>
      </trkpt>
      <trkpt lat="43.55327" lon="3.81757">
        <ele>17.6</ele>
        <time>2010-12-12T09:05:00Z</time>
      </trkpt>
      <trkpt lat="43.55324" lon="3.81764">
        <ele>17.3</ele>
        <time>2010-12-12T09:05:01Z</time>
      </trkpt>
      <trkpt lat="43.55321" lon="3.81772">
        <ele>17</ele>
        <time>2010-12-12T09:05:02Z</time>
      </trkpt>
      <trkpt lat="43.5532" lon="3.81781">
        <ele>16.7</ele>
        <time>2010-12-12T09:05:03Z</time>
      </trkpt>
      <trkpt lat="43.5532" lon="3.8179">
        <ele>16.4</ele>
        <time>2010-12-12T09:05:04Z</time>
      </trkpt>
      <trkpt lat="43.55321" lon="3.81799">
        <ele>16.1</ele>
        <time>2010-12-12T09:05:05Z</time>
      </trkpt>
      <trkpt lat="43.55322" lon="3.81808">
        <ele>15.8</ele>
        <time>2010-12-12T09:05:06Z</time>
      </trkpt>
      <trkpt lat="43.55323" lon="3.81817">
        <ele>15.5</ele>
        <time>2010-12-12T09:05:07Z</time>
      </trkpt>
      <trkpt lat="43.55324" lon="3.81825">
        <ele>15.3</ele>
        <time>2010-12-12T09:05:08Z</time>
      </trkpt>
      <trkpt lat="43.55324" lon="3.81834">
        <ele>15</ele>
        <time>2010-12-12T09:05:09Z</time>
      </trkpt>
      <trkpt lat="43.55325" lon="3.81842">
        <ele>14.9</ele>
        <time>2010-12-12T09:05:10Z</time>
      </trkpt>
      <trkpt lat="43.55325" lon="3.8185">
        <ele>14.8</ele>
        <time>2010-12-12T09:05:11Z</time>
      </trkpt>
      <trkpt lat="43.55327" lon="3.81857">
        <ele>14.7</ele>
        <time>2010-12-12T09:05:12Z</time>
      </trkpt>
      <trkpt lat="43.5533" lon="3.81865">
        <ele>14.6</ele>
        <time>2010-12-12T09:05:13Z</time>
      </trkpt>
      <trkpt lat="43.55333" lon="3.81871">
        <ele>14.5</ele>
        <time>2010-12-12T09:05:14Z</time>
      </trkpt>
      <trkpt lat="43.55338" lon="3.81878">
        <ele>14.4</ele>
        <time>2010-12-12T09:05:15Z</time>
      </trkpt>
      <trkpt lat="43.55343" lon="3.81883">
        <ele>14.3</ele>
        <time>2010-12-12T09:05:16Z</time>
      </trkpt>
      <trkpt lat="43.55349" lon="3.81887">
        <ele>14.1</ele>
        <time>2010-12-12T09:05:17Z</time>
      </trkpt>
      <trkpt lat="43.55354" lon="3.81892">
        <ele>13.9</ele>
        <time>2010-12-12T09:05:18Z</time>
      </trkpt>
      <trkpt lat="43.55359" lon="3.81898">
        <ele>13.7</ele>
        <time>2010-12-12T09:05:19Z</time>
      </trkpt>
      <trkpt lat="43.55363" lon="3.81905">
        <ele>13.5</ele>
        <time>2010-12-12T09:05:20Z</time>
      </trkpt>
      <trkpt lat="43.55365" lon="3.81913">
        <ele>13.3</ele>
        <time>2010-12-12T09:05:21Z</time>
      </trkpt>
      <trkpt lat="43.55365" lon="3.81922">
        <ele>13.2</ele>
        <time>2010-12-12T09:05:22Z</time>
      </trkpt>
      <trkpt lat="43.55364" lon="3.81929">
        <ele>13.1</ele>
        <time>2010-12-12T09:05:23Z</time>
      </trkpt>
      <trkpt lat="43.55361" lon="3.81935">
        <ele>13</ele>
        <time>2010-12-12T09:05:24Z</time>
      </trkpt>
      <trkpt lat="43.55354" lon="3.81942">
        <ele>13</ele>
        <time>2010-12-12T09:05:26Z</time>
      </trkpt>
      <trkpt lat="43.55336" lon="3.81953">
        <ele>12.7</ele>
        <time>2010-12-12T09:05:31Z</time>
      </trkpt>
      <trkpt lat="43.55333" lon="3.81954">
        <ele>12.7</ele>
        <time>2010-12-12T09:05:33Z</time>
      </trkpt>
      <trkpt lat="43.55324" lon="3.81962">
        <ele>12.6</ele>
        <time>2010-12-12T09:05:36Z</time>
      </trkpt>
      <trkpt lat="43.55317" lon="3.81968">
        <ele>12.5</ele>
        <time>2010-12-12T09:05:38Z</time>
      </trkpt>
      <trkpt lat="43.55309" lon="3.81974">
        <ele>12.5</ele>
        <time>2010-12-12T09:05:40Z</time>
      </trkpt>
      <trkpt lat="43.55301" lon="3.81976">
        <ele>12.7</ele>
        <time>2010-12-12T09:05:42Z</time>
      </trkpt>
      <trkpt lat="43.55293" lon="3.81972">
        <ele>13</ele>
        <time>2010-12-12T09:05:44Z</time>
      </trkpt>
      <trkpt lat="43.55287" lon="3.81964">
        <ele>13.2</ele>
        <time>2010-12-12T09:05:46Z</time>
      </trkpt>
      <trkpt lat="43.55282" lon="3.81956">
        <ele>13.5</ele>
        <time>2010-12-12T09:05:48Z</time>
      </trkpt>
      <trkpt lat="43.55277" lon="3.81947">
        <ele>13.6</ele>
        <time>2010-12-12T09:05:50Z</time>
      </trkpt>
      <trkpt lat="43.55272" lon="3.81939">
        <ele>13.8</ele>
        <time>2010-12-12T09:05:52Z</time>
      </trkpt>
      <trkpt lat="43.55267" lon="3.8193">
        <ele>13.9</ele>
        <time>2010-12-12T09:05:54Z</time>
      </trkpt>
      <trkpt lat="43.55262" lon="3.81921">
        <ele>14</ele>
        <time>2010-12-12T09:05:56Z</time>
      </trkpt>
      <trkpt lat="43.55257" lon="3.81913">
        <ele>14</ele>
        <time>2010-12-12T09:05:58Z</time>
      </trkpt>
      <trkpt lat="43.55251" lon="3.81909">
        <ele>14.1</ele>
        <time>2010-12-12T09:06:00Z</time>
      </trkpt>
      <trkpt lat="43.55243" lon="3.81913">
        <ele>14.5</ele>
        <time>2010-12-12T09:06:02Z</time>
      </trkpt>
      <trkpt lat="43.55239" lon="3.81916">
        <ele>14.8</ele>
        <time>2010-12-12T09:06:03Z</time>
      </trkpt>
      <trkpt lat="43.55232" lon="3.81922">
        <ele>15.3</ele>
        <time>2010-12-12T09:06:05Z</time>
      </trkpt>
      <trkpt lat="43.55225" lon="3.81929">
        <ele>15.7</ele>
        <time>2010-12-12T09:06:07Z</time>
      </trkpt>
      <trkpt lat="43.55219" lon="3.81935">
        <ele>16</ele>
        <time>2010-12-12T09:06:09Z</time>
      </trkpt>
      <trkpt lat="43.55213" lon="3.81941">
        <ele>16.3</ele>
        <time>2010-12-12T09:06:11Z</time>
      </trkpt>
      <trkpt lat="43.55208" lon="3.81947">
        <ele>16.5</ele>
        <time>2010-12-12T09:06:13Z</time>
      </trkpt>
      <trkpt lat="43.55203" lon="3.81952">
        <ele>16.7</ele>
        <time>2010-12-12T09:06:15Z</time>
      </trkpt>
      <trkpt lat="43.55197" lon="3.81956">
        <ele>16.9</ele>
        <time>2010-12-12T09:06:17Z</time>
      </trkpt>
      <trkpt lat="43.55189" lon="3.81959">
        <ele>17.3</ele>
        <time>2010-12-12T09:06:20Z</time>
      </trkpt>
      <trkpt lat="43.5518" lon="3.8196">
        <ele>17.7</ele>
        <time>2010-12-12T09:06:37Z</time>
      </trkpt>
      <trkpt lat="43.55179" lon="3.8196">
        <ele>17.8</ele>
        <time>2010-12-12T09:06:38Z</time>
      </trkpt>
      <trkpt lat="43.55165" lon="3.81953">
        <ele>18.9</ele>
        <time>2010-12-12T09:06:56Z</time>
      </trkpt>
      <trkpt lat="43.55157" lon="3.81949">
        <ele>20.2</ele>
        <time>2010-12-12T09:07:01Z</time>
      </trkpt>
      <trkpt lat="43.55149" lon="3.81942">
        <ele>21.6</ele>
        <time>2010-12-12T09:07:06Z</time>
      </trkpt>
      <trkpt lat="43.55141" lon="3.81942">
        <ele>22.8</ele>
        <time>2010-12-12T09:07:11Z</time>
      </trkpt>
      <trkpt lat="43.55133" lon="3.81947">
        <ele>23.7</ele>
        <time>2010-12-12T09:07:50Z</time>
      </trkpt>
      <trkpt lat="43.55133" lon="3.81947">
        <ele>23.8</ele>
        <time>2010-12-12T09:07:51Z</time>
      </trkpt>
      <trkpt lat="43.55123" lon="3.81963">
        <ele>24.2</ele>
        <time>2010-12-12T09:08:02Z</time>
      </trkpt>
      <trkpt lat="43.55117" lon="3.8197">
        <ele>24.7</ele>
        <time>2010-12-12T09:08:06Z</time>
      </trkpt>
      <trkpt lat="43.55111" lon="3.81977">
        <ele>25.1</ele>
        <time>2010-12-12T09:08:10Z</time>
      </trkpt>
      <trkpt lat="43.55106" lon="3.81981">
        <ele>25.5</ele>
        <time>2010-12-12T09:08:13Z</time>
      </trkpt>
      <trkpt lat="43.551" lon="3.81988">
        <ele>25.8</ele>
        <time>2010-12-12T09:08:16Z</time>
      </trkpt>
      <trkpt lat="43.55095" lon="3.81996">
        <ele>25.9</ele>
        <time>2010-12-12T09:08:19Z</time>
      </trkpt>
      <trkpt lat="43.55089" lon="3.82003">
        <ele>26.1</ele>
        <time>2010-12-12T09:08:22Z</time>
      </trkpt>
      <trkpt lat="43.55083" lon="3.82009">
        <ele>26</ele>
        <time>2010-12-12T09:08:25Z</time>
      </trkpt>
      <trkpt lat="43.55077" lon="3.82014">
        <ele>26.4</ele>
        <time>2010-12-12T09:08:28Z</time>
      </trkpt>
      <trkpt lat="43.55071" lon="3.8202">
        <ele>26.6</ele>
        <time>2010-12-12T09:08:31Z</time>
      </trkpt>
      <trkpt lat="43.55066" lon="3.82027">
        <ele>26.5</ele>
        <time>2010-12-12T09:08:34Z</time>
      </trkpt>
      <trkpt lat="43.55062" lon="3.82035">
        <ele>26.5</ele>
        <time>2010-12-12T09:08:37Z</time>
      </trkpt>
      <trkpt lat="43.55057" lon="3.82041">
        <ele>26.7</ele>
        <time>2010-12-12T09:08:40Z</time>
      </trkpt>
      <trkpt lat="43.55052" lon="3.82049">
        <ele>26.7</ele>
        <time>2010-12-12T09:08:43Z</time>
      </trkpt>
      <trkpt lat="43.55046" lon="3.82056">
        <ele>27.1</ele>
        <time>2010-12-12T09:08:46Z</time>
      </trkpt>
      <trkpt lat="43.55041" lon="3.82062">
        <ele>27.6</ele>
        <time>2010-12-12T09:08:49Z</time>
      </trkpt>
      <trkpt lat="43.55035" lon="3.82066">
        <ele>28.4</ele>
        <time>2010-12-12T09:08:52Z</time>
      </trkpt>
      <trkpt lat="43.55033" lon="3.82067">
        <ele>28.7</ele>
        <time>2010-12-12T09:08:53Z</time>
      </trkpt>
      <trkpt lat="43.5502" lon="3.8207">
        <ele>30.9</ele>
        <time>2010-12-12T09:08:59Z</time>
      </trkpt>
      <trkpt lat="43.55011" lon="3.8207">
        <ele>32.6</ele>
        <time>2010-12-12T09:09:03Z</time>
      </trkpt>
      <trkpt lat="43.55004" lon="3.82072">
        <ele>33.9</ele>
        <time>2010-12-12T09:09:06Z</time>
      </trkpt>
      <trkpt lat="43.54997" lon="3.82078">
        <ele>34.7</ele>
        <time>2010-12-12T09:09:10Z</time>
      </trkpt>
      <trkpt lat="43.54989" lon="3.82083">
        <ele>35.2</ele>
        <time>2010-12-12T09:09:14Z</time>
      </trkpt>
      <trkpt lat="43.54981" lon="3.82087">
        <ele>36.1</ele>
        <time>2010-12-12T09:09:19Z</time>
      </trkpt>
      <trkpt lat="43.54975" lon="3.8209">
        <ele>36.9</ele>
        <time>2010-12-12T09:09:22Z</time>
      </trkpt>
      <trkpt lat="43.54968" lon="3.82093">
        <ele>37.7</ele>
        <time>2010-12-12T09:09:25Z</time>
      </trkpt>
      <trkpt lat="43.54962" lon="3.82102">
        <ele>38.6</ele>
        <time>2010-12-12T09:09:29Z</time>
      </trkpt>
      <trkpt lat="43.54955" lon="3.82095">
        <ele>39.1</ele>
        <time>2010-12-12T09:09:44Z</time>
      </trkpt>
      <trkpt lat="43.54953" lon="3.82086">
        <ele>39.2</ele>
        <time>2010-12-12T09:09:47Z</time>
      </trkpt>
      <trkpt lat="43.54948" lon="3.82076">
        <ele>39.7</ele>
        <time>2010-12-12T09:09:51Z</time>
      </trkpt>
      <trkpt lat="43.54945" lon="3.82066">
        <ele>40.2</ele>
        <time>2010-12-12T09:09:55Z</time>
      </trkpt>
      <trkpt lat="43.54944" lon="3.82064">
        <ele>40.3</ele>
        <time>2010-12-12T09:09:56Z</time>
      </trkpt>
      <trkpt lat="43.54938" lon="3.82048">
        <ele>41</ele>
        <time>2010-12-12T09:10:03Z</time>
      </trkpt>
      <trkpt lat="43.54933" lon="3.82039">
        <ele>41.3</ele>
        <time>2010-12-12T09:10:07Z</time>
      </trkpt>
      <trkpt lat="43.54928" lon="3.82029">
        <ele>41.7</ele>
        <time>2010-12-12T09:15:32Z</time>
      </trkpt>
      <trkpt lat="43.54927" lon="3.82028">
        <ele>41.7</ele>
        <time>2010-12-12T09:15:33Z</time>
      </trkpt>
      <trkpt lat="43.54917" lon="3.82013">
        <ele>42.2</ele>
        <time>2010-12-12T09:15:42Z</time>
      </trkpt>
      <trkpt lat="43.54911" lon="3.82005">
        <ele>42.2</ele>
        <time>2010-12-12T09:15:46Z</time>
      </trkpt>
      <trkpt lat="43.54905" lon="3.81998">
        <ele>42.2</ele>
        <time>2010-12-12T09:15:49Z</time>
      </trkpt>
      <trkpt lat="43.54901" lon="3.81992">
        <ele>42.3</ele>
        <time>2010-12-12T09:15:51Z</time>
      </trkpt>
      <trkpt lat="43.54896" lon="3.81987">
        <ele>42.3</ele>
        <time>2010-12-12T09:15:53Z</time>
      </trkpt>
      <trkpt lat="43.5489" lon="3.81982">
        <ele>42.3</ele>
        <time>2010-12-12T09:15:55Z</time>
      </trkpt>
      <trkpt lat="43.54885" lon="3.81977">
        <ele>42.3</ele>
        <time>2010-12-12T09:15:57Z</time>
      </trkpt>
      <trkpt lat="43.5488" lon="3.81972">
        <ele>42.2</ele>
        <time>2010-12-12T09:15:59Z</time>
      </trkpt>
      <trkpt lat="43.54874" lon="3.81967">
        <ele>42.2</ele>
        <time>2010-12-12T09:16:01Z</time>
      </trkpt>
      <trkpt lat="43.54869" lon="3.81961">
        <ele>42.1</ele>
        <time>2010-12-12T09:16:03Z</time>
      </trkpt>
      <trkpt lat="43.54864" lon="3.81956">
        <ele>42.1</ele>
        <time>2010-12-12T09:16:05Z</time>
      </trkpt>
      <trkpt lat="43.54858" lon="3.8195">
        <ele>42</ele>
        <time>2010-12-12T09:16:07Z</time>
      </trkpt>
      <trkpt lat="43.5485" lon="3.81945">
        <ele>41.9</ele>
        <time>2010-12-12T09:16:09Z</time>
      </trkpt>
      <trkpt lat="43.54842" lon="3.81941">
        <ele>41.8</ele>
        <time>2010-12-12T09:16:11Z</time>
      </trkpt>
      <trkpt lat="43.54834" lon="3.81937">
        <ele>41.7</ele>
        <time>2010-12-12T09:16:13Z</time>
      </trkpt>
      <trkpt lat="43.54829" lon="3.81935">
        <ele>41.7</ele>
        <time>2010-12-12T09:16:14Z</time>
      </trkpt>
      <trkpt lat="43.54825" lon="3.81932">
        <ele>41.6</ele>
        <time>2010-12-12T09:16:15Z</time>
      </trkpt>
      <trkpt lat="43.54821" lon="3.81929">
        <ele>41.4</ele>
        <time>2010-12-12T09:16:16Z</time>
      </trkpt>
      <trkpt lat="43.54817" lon="3.81926">
        <ele>41.3</ele>
        <time>2010-12-12T09:16:17Z</time>
      </trkpt>
      <trkpt lat="43.54812" lon="3.81923">
        <ele>41.2</ele>
        <time>2010-12-12T09:16:18Z</time>
      </trkpt>
      <trkpt lat="43.54808" lon="3.8192">
        <ele>41.1</ele>
        <time>2010-12-12T09:16:19Z</time>
      </trkpt>
      <trkpt lat="43.54803" lon="3.81917">
        <ele>41</ele>
        <time>2010-12-12T09:16:20Z</time>
      </trkpt>
      <trkpt lat="43.54799" lon="3.81914">
        <ele>41</ele>
        <time>2010-12-12T09:16:21Z</time>
      </trkpt>
      <trkpt lat="43.54794" lon="3.81912">
        <ele>40.9</ele>
        <time>2010-12-12T09:16:22Z</time>
      </trkpt>
      <trkpt lat="43.5479" lon="3.8191">
        <ele>40.9</ele>
        <time>2010-12-12T09:16:23Z</time>
      </trkpt>
      <trkpt lat="43.54785" lon="3.81909">
        <ele>40.9</ele>
        <time>2010-12-12T09:16:24Z</time>
      </trkpt>
      <trkpt lat="43.54781" lon="3.81908">
        <ele>40.9</ele>
        <time>2010-12-12T09:16:25Z</time>
      </trkpt>
      <trkpt lat="43.54772" lon="3.81906">
        <ele>40.8</ele>
        <time>2010-12-12T09:16:27Z</time>
      </trkpt>
      <trkpt lat="43.54768" lon="3.81904">
        <ele>40.8</ele>
        <time>2010-12-12T09:16:28Z</time>
      </trkpt>
      <trkpt lat="43.54764" lon="3.81901">
        <ele>40.7</ele>
        <time>2010-12-12T09:16:29Z</time>
      </trkpt>
      <trkpt lat="43.54759" lon="3.81898">
        <ele>40.6</ele>
        <time>2010-12-12T09:16:30Z</time>
      </trkpt>
      <trkpt lat="43.54756" lon="3.81894">
        <ele>40.5</ele>
        <time>2010-12-12T09:16:31Z</time>
      </trkpt>
      <trkpt lat="43.54753" lon="3.81889">
        <ele>40.4</ele>
        <time>2010-12-12T09:16:32Z</time>
      </trkpt>
      <trkpt lat="43.54747" lon="3.81879">
        <ele>40.1</ele>
        <time>2010-12-12T09:16:34Z</time>
      </trkpt>
      <trkpt lat="43.54745" lon="3.81874">
        <ele>40</ele>
        <time>2010-12-12T09:16:35Z</time>
      </trkpt>
      <trkpt lat="43.54739" lon="3.81863">
        <ele>39.8</ele>
        <time>2010-12-12T09:16:38Z</time>
      </trkpt>
      <trkpt lat="43.54733" lon="3.81857">
        <ele>39.8</ele>
        <time>2010-12-12T09:16:40Z</time>
      </trkpt>
      <trkpt lat="43.54727" lon="3.81852">
        <ele>39.8</ele>
        <time>2010-12-12T09:16:42Z</time>
      </trkpt>
      <trkpt lat="43.54719" lon="3.81849">
        <ele>39.9</ele>
        <time>2010-12-12T09:16:44Z</time>
      </trkpt>
      <trkpt lat="43.54711" lon="3.81848">
        <ele>40</ele>
        <time>2010-12-12T09:16:46Z</time>
      </trkpt>
      <trkpt lat="43.54703" lon="3.81847">
        <ele>40.2</ele>
        <time>2010-12-12T09:16:48Z</time>
      </trkpt>
      <trkpt lat="43.54695" lon="3.81846">
        <ele>40.3</ele>
        <time>2010-12-12T09:16:50Z</time>
      </trkpt>
      <trkpt lat="43.54688" lon="3.81843">
        <ele>40.5</ele>
        <time>2010-12-12T09:16:52Z</time>
      </trkpt>
      <trkpt lat="43.54681" lon="3.81838">
        <ele>40.6</ele>
        <time>2010-12-12T09:16:54Z</time>
      </trkpt>
      <trkpt lat="43.54674" lon="3.81832">
        <ele>40.9</ele>
        <time>2010-12-12T09:16:56Z</time>
      </trkpt>
      <trkpt lat="43.54668" lon="3.81825">
        <ele>41.2</ele>
        <time>2010-12-12T09:16:58Z</time>
      </trkpt>
      <trkpt lat="43.54663" lon="3.81819">
        <ele>41.4</ele>
        <time>2010-12-12T09:17:00Z</time>
      </trkpt>
      <trkpt lat="43.54658" lon="3.81811">
        <ele>41.7</ele>
        <time>2010-12-12T09:17:02Z</time>
      </trkpt>
      <trkpt lat="43.54652" lon="3.81805">
        <ele>42</ele>
        <time>2010-12-12T09:17:04Z</time>
      </trkpt>
      <trkpt lat="43.54646" lon="3.81799">
        <ele>42.3</ele>
        <time>2010-12-12T09:17:06Z</time>
      </trkpt>
      <trkpt lat="43.54638" lon="3.81795">
        <ele>42.6</ele>
        <time>2010-12-12T09:17:09Z</time>
      </trkpt>
      <trkpt lat="43.54631" lon="3.81793">
        <ele>42.8</ele>
        <time>2010-12-12T09:17:30Z</time>
      </trkpt>
      <trkpt lat="43.54626" lon="3.81801">
        <ele>42.6</ele>
        <time>2010-12-12T09:17:34Z</time>
      </trkpt>
      <trkpt lat="43.54623" lon="3.8181">
        <ele>42.4</ele>
        <time>2010-12-12T09:17:36Z</time>
      </trkpt>
      <trkpt lat="43.54622" lon="3.81814">
        <ele>42.2</ele>
        <time>2010-12-12T09:17:37Z</time>
      </trkpt>
      <trkpt lat="43.54618" lon="3.8183">
        <ele>41.7</ele>
        <time>2010-12-12T09:17:40Z</time>
      </trkpt>
      <trkpt lat="43.54614" lon="3.8184">
        <ele>41.4</ele>
        <time>2010-12-12T09:17:42Z</time>
      </trkpt>
      <trkpt lat="43.54611" lon="3.81851">
        <ele>41.2</ele>
        <time>2010-12-12T09:17:44Z</time>
      </trkpt>
      <trkpt lat="43.54608" lon="3.81863">
        <ele>40.9</ele>
        <time>2010-12-12T09:17:46Z</time>
      </trkpt>
      <trkpt lat="43.54604" lon="3.81874">
        <ele>40.5</ele>
        <time>2010-12-12T09:17:48Z</time>
      </trkpt>
      <trkpt lat="43.54601" lon="3.81885">
        <ele>40.2</ele>
        <time>2010-12-12T09:17:50Z</time>
      </trkpt>
      <trkpt lat="43.54598" lon="3.81896">
        <ele>39.8</ele>
        <time>2010-12-12T09:17:52Z</time>
      </trkpt>
      <trkpt lat="43.54596" lon="3.81902">
        <ele>39.6</ele>
        <time>2010-12-12T09:17:53Z</time>
      </trkpt>
      <trkpt lat="43.54594" lon="3.81908">
        <ele>39.4</ele>
        <time>2010-12-12T09:17:54Z</time>
      </trkpt>
      <trkpt lat="43.54587" lon="3.81915">
        <ele>39.1</ele>
        <time>2010-12-12T09:17:56Z</time>
      </trkpt>
      <trkpt lat="43.5458" lon="3.81912">
        <ele>39.2</ele>
        <time>2010-12-12T09:17:58Z</time>
      </trkpt>
      <trkpt lat="43.54574" lon="3.81908">
        <ele>39.4</ele>
        <time>2010-12-12T09:18:00Z</time>
      </trkpt>
      <trkpt lat="43.54568" lon="3.81906">
        <ele>39.6</ele>
        <time>2010-12-12T09:18:02Z</time>
      </trkpt>
      <trkpt lat="43.54562" lon="3.81906">
        <ele>39.7</ele>
        <time>2010-12-12T09:18:04Z</time>
      </trkpt>
      <trkpt lat="43.54555" lon="3.81906">
        <ele>39.7</ele>
        <time>2010-12-12T09:18:06Z</time>
      </trkpt>
      <trkpt lat="43.54548" lon="3.81906">
        <ele>39.8</ele>
        <time>2010-12-12T09:18:08Z</time>
      </trkpt>
      <trkpt lat="43.54541" lon="3.81904">
        <ele>40</ele>
        <time>2010-12-12T09:18:10Z</time>
      </trkpt>
      <trkpt lat="43.54534" lon="3.81901">
        <ele>40.1</ele>
        <time>2010-12-12T09:18:12Z</time>
      </trkpt>
      <trkpt lat="43.54527" lon="3.81899">
        <ele>40.3</ele>
        <time>2010-12-12T09:18:14Z</time>
      </trkpt>
      <trkpt lat="43.5452" lon="3.81897">
        <ele>40.5</ele>
        <time>2010-12-12T09:18:16Z</time>
      </trkpt>
      <trkpt lat="43.54512" lon="3.81896">
        <ele>40.6</ele>
        <time>2010-12-12T09:18:18Z</time>
      </trkpt>
      <trkpt lat="43.54507" lon="3.81895">
        <ele>40.7</ele>
        <time>2010-12-12T09:18:19Z</time>
      </trkpt>
      <trkpt lat="43.54503" lon="3.81895">
        <ele>40.8</ele>
        <time>2010-12-12T09:18:20Z</time>
      </trkpt>
      <trkpt lat="43.54498" lon="3.81894">
        <ele>40.8</ele>
        <time>2010-12-12T09:18:21Z</time>
      </trkpt>
      <trkpt lat="43.54489" lon="3.81895">
        <ele>40.8</ele>
        <time>2010-12-12T09:18:23Z</time>
      </trkpt>
      <trkpt lat="43.5448" lon="3.81895">
        <ele>40.9</ele>
        <time>2010-12-12T09:18:25Z</time>
      </trkpt>
      <trkpt lat="43.54472" lon="3.81896">
        <ele>40.9</ele>
        <time>2010-12-12T09:18:27Z</time>
      </trkpt>
      <trkpt lat="43.54463" lon="3.81895">
        <ele>41</ele>
        <time>2010-12-12T09:18:29Z</time>
      </trkpt>
      <trkpt lat="43.54454" lon="3.81893">
        <ele>41.1</ele>
        <time>2010-12-12T09:18:31Z</time>
      </trkpt>
      <trkpt lat="43.54447" lon="3.81887">
        <ele>41.2</ele>
        <time>2010-12-12T09:18:33Z</time>
      </trkpt>
      <trkpt lat="43.5444" lon="3.81881">
        <ele>41.4</ele>
        <time>2010-12-12T09:18:35Z</time>
      </trkpt>
      <trkpt lat="43.54433" lon="3.81876">
        <ele>41.5</ele>
        <time>2010-12-12T09:18:37Z</time>
      </trkpt>
      <trkpt lat="43.5443" lon="3.81874">
        <ele>41.5</ele>
        <time>2010-12-12T09:18:38Z</time>
      </trkpt>
      <trkpt lat="43.54419" lon="3.81867">
        <ele>41.6</ele>
        <time>2010-12-12T09:18:41Z</time>
      </trkpt>
      <trkpt lat="43.54413" lon="3.81862">
        <ele>41.7</ele>
        <time>2010-12-12T09:18:43Z</time>
      </trkpt>
      <trkpt lat="43.54407" lon="3.81857">
        <ele>41.9</ele>
        <time>2010-12-12T09:18:45Z</time>
      </trkpt>
      <trkpt lat="43.54401" lon="3.81851">
        <ele>42.1</ele>
        <time>2010-12-12T09:18:47Z</time>
      </trkpt>
      <trkpt lat="43.54395" lon="3.81846">
        <ele>42.3</ele>
        <time>2010-12-12T09:18:49Z</time>
      </trkpt>
      <trkpt lat="43.54388" lon="3.81841">
        <ele>42.5</ele>
        <time>2010-12-12T09:18:51Z</time>
      </trkpt>
      <trkpt lat="43.54382" lon="3.81836">
        <ele>42.8</ele>
        <time>2010-12-12T09:18:53Z</time>
      </trkpt>
      <trkpt lat="43.54376" lon="3.81831">
        <ele>43</ele>
        <time>2010-12-12T09:18:55Z</time>
      </trkpt>
      <trkpt lat="43.5437" lon="3.81826">
        <ele>43.3</ele>
        <time>2010-12-12T09:18:57Z</time>
      </trkpt>
      <trkpt lat="43.54363" lon="3.81822">
        <ele>43.5</ele>
        <time>2010-12-12T09:18:59Z</time>
      </trkpt>
      <trkpt lat="43.54358" lon="3.81816">
        <ele>43.7</ele>
        <time>2010-12-12T09:19:01Z</time>
      </trkpt>
      <trkpt lat="43.54352" lon="3.8181">
        <ele>44</ele>
        <time>2010-12-12T09:19:03Z</time>
      </trkpt>
      <trkpt lat="43.54346" lon="3.81806">
        <ele>44.1</ele>
        <time>2010-12-12T09:19:05Z</time>
      </trkpt>
      <trkpt lat="43.5434" lon="3.81801">
        <ele>44.3</ele>
        <time>2010-12-12T09:19:07Z</time>
      </trkpt>
      <trkpt lat="43.54334" lon="3.81795">
        <ele>44.5</ele>
        <time>2010-12-12T09:19:09Z</time>
      </trkpt>
      <trkpt lat="43.54328" lon="3.81789">
        <ele>44.6</ele>
        <time>2010-12-12T09:19:11Z</time>
      </trkpt>
      <trkpt lat="43.54323" lon="3.81784">
        <ele>44.8</ele>
        <time>2010-12-12T09:19:13Z</time>
      </trkpt>
      <trkpt lat="43.54318" lon="3.81778">
        <ele>45</ele>
        <time>2010-12-12T09:19:15Z</time>
      </trkpt>
      <trkpt lat="43.54312" lon="3.81773">
        <ele>45.3</ele>
        <time>2010-12-12T09:19:17Z</time>
      </trkpt>
      <trkpt lat="43.54307" lon="3.81767">
        <ele>45.5</ele>
        <time>2010-12-12T09:19:19Z</time>
      </trkpt>
      <trkpt lat="43.54304" lon="3.8176">
        <ele>45.8</ele>
        <time>2010-12-12T09:19:21Z</time>
      </trkpt>
      <trkpt lat="43.54303" lon="3.81748">
        <ele>46.2</ele>
        <time>2010-12-12T09:19:24Z</time>
      </trkpt>
      <trkpt lat="43.54306" lon="3.81737">
        <ele>46.4</ele>
        <time>2010-12-12T09:19:27Z</time>
      </trkpt>
      <trkpt lat="43.54308" lon="3.81727">
        <ele>46.5</ele>
        <time>2010-12-12T09:19:30Z</time>
      </trkpt>
      <trkpt lat="43.54311" lon="3.81719">
        <ele>46.7</ele>
        <time>2010-12-12T09:19:33Z</time>
      </trkpt>
      <trkpt lat="43.54313" lon="3.81708">
        <ele>46.9</ele>
        <time>2010-12-12T09:19:36Z</time>
      </trkpt>
      <trkpt lat="43.54318" lon="3.81698">
        <ele>46.9</ele>
        <time>2010-12-12T09:19:39Z</time>
      </trkpt>
      <trkpt lat="43.54319" lon="3.81694">
        <ele>47</ele>
        <time>2010-12-12T09:19:40Z</time>
      </trkpt>
      <trkpt lat="43.54324" lon="3.81683">
        <ele>47</ele>
        <time>2010-12-12T09:19:43Z</time>
      </trkpt>
      <trkpt lat="43.54326" lon="3.81675">
        <ele>47.2</ele>
        <time>2010-12-12T09:19:45Z</time>
      </trkpt>
      <trkpt lat="43.54327" lon="3.81666">
        <ele>47.3</ele>
        <time>2010-12-12T09:19:47Z</time>
      </trkpt>
      <trkpt lat="43.54327" lon="3.81657">
        <ele>48</ele>
        <time>2010-12-12T09:19:49Z</time>
      </trkpt>
      <trkpt lat="43.54326" lon="3.81649">
        <ele>48.6</ele>
        <time>2010-12-12T09:19:51Z</time>
      </trkpt>
      <trkpt lat="43.54324" lon="3.81641">
        <ele>49.3</ele>
        <time>2010-12-12T09:19:53Z</time>
      </trkpt>
      <trkpt lat="43.5432" lon="3.81633">
        <ele>50</ele>
        <time>2010-12-12T09:19:55Z</time>
      </trkpt>
      <trkpt lat="43.54315" lon="3.81626">
        <ele>50.6</ele>
        <time>2010-12-12T09:19:57Z</time>
      </trkpt>
      <trkpt lat="43.54311" lon="3.8162">
        <ele>51.1</ele>
        <time>2010-12-12T09:19:59Z</time>
      </trkpt>
      <trkpt lat="43.54308" lon="3.81612">
        <ele>51.8</ele>
        <time>2010-12-12T09:20:01Z</time>
      </trkpt>
      <trkpt lat="43.54307" lon="3.81604">
        <ele>52.3</ele>
        <time>2010-12-12T09:20:03Z</time>
      </trkpt>
      <trkpt lat="43.54307" lon="3.81595">
        <ele>52.9</ele>
        <time>2010-12-12T09:20:05Z</time>
      </trkpt>
      <trkpt lat="43.54309" lon="3.81586">
        <ele>53.4</ele>
        <time>2010-12-12T09:20:07Z</time>
      </trkpt>
      <trkpt lat="43.54313" lon="3.8158">
        <ele>53.7</ele>
        <time>2010-12-12T09:20:09Z</time>
      </trkpt>
      <trkpt lat="43.54315" lon="3.81572">
        <ele>54.1</ele>
        <time>2010-12-12T09:20:11Z</time>
      </trkpt>
      <trkpt lat="43.54316" lon="3.81563">
        <ele>54.5</ele>
        <time>2010-12-12T09:20:13Z</time>
      </trkpt>
      <trkpt lat="43.54318" lon="3.81555">
        <ele>55</ele>
        <time>2010-12-12T09:20:15Z</time>
      </trkpt>
      <trkpt lat="43.54319" lon="3.81546">
        <ele>55.5</ele>
        <time>2010-12-12T09:20:17Z</time>
      </trkpt>
      <trkpt lat="43.54319" lon="3.81537">
        <ele>56</ele>
        <time>2010-12-12T09:20:19Z</time>
      </trkpt>
      <trkpt lat="43.54319" lon="3.81528">
        <ele>56.4</ele>
        <time>2010-12-12T09:20:21Z</time>
      </trkpt>
      <trkpt lat="43.54318" lon="3.8152">
        <ele>56.9</ele>
        <time>2010-12-12T09:20:23Z</time>
      </trkpt>
      <trkpt lat="43.54316" lon="3.81508">
        <ele>57.6</ele>
        <time>2010-12-12T09:20:26Z</time>
      </trkpt>
      <trkpt lat="43.54312" lon="3.81497">
        <ele>58.1</ele>
        <time>2010-12-12T09:20:29Z</time>
      </trkpt>
      <trkpt lat="43.54309" lon="3.81486">
        <ele>58.7</ele>
        <time>2010-12-12T09:20:32Z</time>
      </trkpt>
      <trkpt lat="43.54305" lon="3.81476">
        <ele>59.2</ele>
        <time>2010-12-12T09:20:35Z</time>
      </trkpt>
      <trkpt lat="43.54303" lon="3.81464">
        <ele>59.7</ele>
        <time>2010-12-12T09:20:38Z</time>
      </trkpt>
      <trkpt lat="43.54298" lon="3.81453">
        <ele>60.2</ele>
        <time>2010-12-12T09:20:41Z</time>
      </trkpt>
      <trkpt lat="43.54297" lon="3.8145">
        <ele>60.4</ele>
        <time>2010-12-12T09:20:42Z</time>
      </trkpt>
      <trkpt lat="43.54292" lon="3.81431">
        <ele>61.3</ele>
        <time>2010-12-12T09:20:47Z</time>
      </trkpt>
      <trkpt lat="43.54289" lon="3.81424">
        <ele>61.7</ele>
        <time>2010-12-12T09:20:49Z</time>
      </trkpt>
      <trkpt lat="43.54285" lon="3.81413">
        <ele>62.2</ele>
        <time>2010-12-12T09:20:52Z</time>
      </trkpt>
      <trkpt lat="43.54282" lon="3.81402">
        <ele>62.9</ele>
        <time>2010-12-12T09:20:55Z</time>
      </trkpt>
      <trkpt lat="43.54284" lon="3.81391">
        <ele>63.5</ele>
        <time>2010-12-12T09:20:58Z</time>
      </trkpt>
      <trkpt lat="43.54284" lon="3.8138">
        <ele>64.2</ele>
        <time>2010-12-12T09:21:01Z</time>
      </trkpt>
      <trkpt lat="43.54287" lon="3.81371">
        <ele>64.7</ele>
        <time>2010-12-12T09:21:04Z</time>
      </trkpt>
      <trkpt lat="43.54286" lon="3.81361">
        <ele>65.3</ele>
        <time>2010-12-12T09:21:07Z</time>
      </trkpt>
      <trkpt lat="43.54287" lon="3.81349">
        <ele>66</ele>
        <time>2010-12-12T09:21:10Z</time>
      </trkpt>
      <trkpt lat="43.54285" lon="3.81339">
        <ele>66.7</ele>
        <time>2010-12-12T09:21:13Z</time>
      </trkpt>
      <trkpt lat="43.54283" lon="3.81328">
        <ele>67.3</ele>
        <time>2010-12-12T09:21:16Z</time>
      </trkpt>
      <trkpt lat="43.54285" lon="3.81317">
        <ele>68</ele>
        <time>2010-12-12T09:21:19Z</time>
      </trkpt>
      <trkpt lat="43.54288" lon="3.81308">
        <ele>68.5</ele>
        <time>2010-12-12T09:21:22Z</time>
      </trkpt>
      <trkpt lat="43.54288" lon="3.81296">
        <ele>69.2</ele>
        <time>2010-12-12T09:21:26Z</time>
      </trkpt>
      <trkpt lat="43.54293" lon="3.81289">
        <ele>69.7</ele>
        <time>2010-12-12T09:21:30Z</time>
      </trkpt>
      <trkpt lat="43.54296" lon="3.81279">
        <ele>70.3</ele>
        <time>2010-12-12T09:21:34Z</time>
      </trkpt>
      <trkpt lat="43.54295" lon="3.81267">
        <ele>71</ele>
        <time>2010-12-12T09:21:38Z</time>
      </trkpt>
      <trkpt lat="43.54295" lon="3.81255">
        <ele>71.7</ele>
        <time>2010-12-12T09:21:42Z</time>
      </trkpt>
      <trkpt lat="43.54294" lon="3.81253">
        <ele>71.8</ele>
        <time>2010-12-12T09:21:43Z</time>
      </trkpt>
      <trkpt lat="43.54288" lon="3.81236">
        <ele>72.5</ele>
        <time>2010-12-12T09:21:49Z</time>
      </trkpt>
      <trkpt lat="43.54288" lon="3.81224">
        <ele>73</ele>
        <time>2010-12-12T09:21:53Z</time>
      </trkpt>
      <trkpt lat="43.54284" lon="3.81217">
        <ele>73.4</ele>
        <time>2010-12-12T09:21:56Z</time>
      </trkpt>
      <trkpt lat="43.54279" lon="3.81206">
        <ele>73.9</ele>
        <time>2010-12-12T09:22:00Z</time>
      </trkpt>
      <trkpt lat="43.54274" lon="3.81196">
        <ele>74.5</ele>
        <time>2010-12-12T09:22:04Z</time>
      </trkpt>
      <trkpt lat="43.54267" lon="3.81189">
        <ele>75.1</ele>
        <time>2010-12-12T09:22:08Z</time>
      </trkpt>
      <trkpt lat="43.54269" lon="3.81179">
        <ele>75.5</ele>
        <time>2010-12-12T09:22:14Z</time>
      </trkpt>
      <trkpt lat="43.54275" lon="3.81174">
        <ele>75.5</ele>
        <time>2010-12-12T09:22:18Z</time>
      </trkpt>
      <trkpt lat="43.54284" lon="3.81173">
        <ele>75.1</ele>
        <time>2010-12-12T09:23:37Z</time>
      </trkpt>
      <trkpt lat="43.54285" lon="3.81172">
        <ele>75.1</ele>
        <time>2010-12-12T09:23:38Z</time>
      </trkpt>
      <trkpt lat="43.54298" lon="3.81167">
        <ele>74.7</ele>
        <time>2010-12-12T09:23:43Z</time>
      </trkpt>
      <trkpt lat="43.54304" lon="3.81165">
        <ele>74.5</ele>
        <time>2010-12-12T09:23:45Z</time>
      </trkpt>
      <trkpt lat="43.54311" lon="3.81161">
        <ele>74.3</ele>
        <time>2010-12-12T09:23:47Z</time>
      </trkpt>
      <trkpt lat="43.54318" lon="3.81157">
        <ele>74</ele>
        <time>2010-12-12T09:23:49Z</time>
      </trkpt>
      <trkpt lat="43.54325" lon="3.81154">
        <ele>73.7</ele>
        <time>2010-12-12T09:23:51Z</time>
      </trkpt>
      <trkpt lat="43.54333" lon="3.81149">
        <ele>73.5</ele>
        <time>2010-12-12T09:23:53Z</time>
      </trkpt>
      <trkpt lat="43.54337" lon="3.81146">
        <ele>73.4</ele>
        <time>2010-12-12T09:23:54Z</time>
      </trkpt>
      <trkpt lat="43.54345" lon="3.81141">
        <ele>73.4</ele>
        <time>2010-12-12T09:23:56Z</time>
      </trkpt>
      <trkpt lat="43.5435" lon="3.81139">
        <ele>73.3</ele>
        <time>2010-12-12T09:23:57Z</time>
      </trkpt>
      <trkpt lat="43.54357" lon="3.81133">
        <ele>73.1</ele>
        <time>2010-12-12T09:23:59Z</time>
      </trkpt>
      <trkpt lat="43.54358" lon="3.81123">
        <ele>73.1</ele>
        <time>2010-12-12T09:24:01Z</time>
      </trkpt>
      <trkpt lat="43.54356" lon="3.81114">
        <ele>73.3</ele>
        <time>2010-12-12T09:24:03Z</time>
      </trkpt>
      <trkpt lat="43.54354" lon="3.81104">
        <ele>73.4</ele>
        <time>2010-12-12T09:24:05Z</time>
      </trkpt>
      <trkpt lat="43.54355" lon="3.81093">
        <ele>73.4</ele>
        <time>2010-12-12T09:24:07Z</time>
      </trkpt>
      <trkpt lat="43.54357" lon="3.81087">
        <ele>73.3</ele>
        <time>2010-12-12T09:24:08Z</time>
      </trkpt>
      <trkpt lat="43.54359" lon="3.81081">
        <ele>73.2</ele>
        <time>2010-12-12T09:24:09Z</time>
      </trkpt>
      <trkpt lat="43.5436" lon="3.81074">
        <ele>73.3</ele>
        <time>2010-12-12T09:24:10Z</time>
      </trkpt>
      <trkpt lat="43.54361" lon="3.81068">
        <ele>73.3</ele>
        <time>2010-12-12T09:24:11Z</time>
      </trkpt>
      <trkpt lat="43.54362" lon="3.81055">
        <ele>73.5</ele>
        <time>2010-12-12T09:24:13Z</time>
      </trkpt>
      <trkpt lat="43.5436" lon="3.81044">
        <ele>73.9</ele>
        <time>2010-12-12T09:24:20Z</time>
      </trkpt>
      <trkpt lat="43.54357" lon="3.81036">
        <ele>74.2</ele>
        <time>2010-12-12T09:24:23Z</time>
      </trkpt>
      <trkpt lat="43.54355" lon="3.81028">
        <ele>74.4</ele>
        <time>2010-12-12T09:24:25Z</time>
      </trkpt>
      <trkpt lat="43.54354" lon="3.81018">
        <ele>74.7</ele>
        <time>2010-12-12T09:24:27Z</time>
      </trkpt>
      <trkpt lat="43.54352" lon="3.81007">
        <ele>75</ele>
        <time>2010-12-12T09:24:29Z</time>
      </trkpt>
      <trkpt lat="43.5435" lon="3.80996">
        <ele>75.4</ele>
        <time>2010-12-12T09:24:31Z</time>
      </trkpt>
      <trkpt lat="43.54347" lon="3.80986">
        <ele>75.9</ele>
        <time>2010-12-12T09:24:33Z</time>
      </trkpt>
      <trkpt lat="43.54344" lon="3.80976">
        <ele>76.4</ele>
        <time>2010-12-12T09:24:35Z</time>
      </trkpt>
      <trkpt lat="43.54341" lon="3.80966">
        <ele>76.9</ele>
        <time>2010-12-12T09:24:37Z</time>
      </trkpt>
      <trkpt lat="43.54338" lon="3.80956">
        <ele>77.4</ele>
        <time>2010-12-12T09:24:39Z</time>
      </trkpt>
      <trkpt lat="43.54337" lon="3.80951">
        <ele>77.6</ele>
        <time>2010-12-12T09:24:40Z</time>
      </trkpt>
      <trkpt lat="43.54333" lon="3.80938">
        <ele>78.2</ele>
        <time>2010-12-12T09:24:43Z</time>
      </trkpt>
      <trkpt lat="43.54335" lon="3.80926">
        <ele>78.6</ele>
        <time>2010-12-12T09:24:46Z</time>
      </trkpt>
      <trkpt lat="43.54341" lon="3.80916">
        <ele>78.6</ele>
        <time>2010-12-12T09:24:49Z</time>
      </trkpt>
      <trkpt lat="43.54346" lon="3.8091">
        <ele>78.3</ele>
        <time>2010-12-12T09:24:51Z</time>
      </trkpt>
      <trkpt lat="43.54352" lon="3.80904">
        <ele>78</ele>
        <time>2010-12-12T09:24:53Z</time>
      </trkpt>
      <trkpt lat="43.54359" lon="3.80898">
        <ele>77.5</ele>
        <time>2010-12-12T09:24:56Z</time>
      </trkpt>
      <trkpt lat="43.54365" lon="3.80895">
        <ele>77.2</ele>
        <time>2010-12-12T09:24:58Z</time>
      </trkpt>
      <trkpt lat="43.54372" lon="3.80894">
        <ele>76.9</ele>
        <time>2010-12-12T09:25:00Z</time>
      </trkpt>
      <trkpt lat="43.5438" lon="3.80893">
        <ele>76.5</ele>
        <time>2010-12-12T09:25:02Z</time>
      </trkpt>
      <trkpt lat="43.54388" lon="3.80893">
        <ele>76.1</ele>
        <time>2010-12-12T09:25:04Z</time>
      </trkpt>
      <trkpt lat="43.54396" lon="3.80892">
        <ele>75.7</ele>
        <time>2010-12-12T09:25:06Z</time>
      </trkpt>
      <trkpt lat="43.54405" lon="3.80892">
        <ele>75.3</ele>
        <time>2010-12-12T09:25:08Z</time>
      </trkpt>
      <trkpt lat="43.54409" lon="3.80892">
        <ele>75.1</ele>
        <time>2010-12-12T09:25:09Z</time>
      </trkpt>
      <trkpt lat="43.54414" lon="3.80892">
        <ele>74.8</ele>
        <time>2010-12-12T09:25:10Z</time>
      </trkpt>
      <trkpt lat="43.54419" lon="3.80892">
        <ele>74.6</ele>
        <time>2010-12-12T09:25:11Z</time>
      </trkpt>
      <trkpt lat="43.54424" lon="3.80893">
        <ele>74.3</ele>
        <time>2010-12-12T09:25:12Z</time>
      </trkpt>
      <trkpt lat="43.5443" lon="3.80892">
        <ele>73.9</ele>
        <time>2010-12-12T09:25:13Z</time>
      </trkpt>
      <trkpt lat="43.54435" lon="3.80889">
        <ele>73.5</ele>
        <time>2010-12-12T09:25:14Z</time>
      </trkpt>
      <trkpt lat="43.5444" lon="3.80886">
        <ele>73.2</ele>
        <time>2010-12-12T09:25:15Z</time>
      </trkpt>
      <trkpt lat="43.54445" lon="3.80881">
        <ele>72.9</ele>
        <time>2010-12-12T09:25:16Z</time>
      </trkpt>
      <trkpt lat="43.54449" lon="3.80877">
        <ele>72.6</ele>
        <time>2010-12-12T09:25:17Z</time>
      </trkpt>
      <trkpt lat="43.54454" lon="3.80871">
        <ele>72.2</ele>
        <time>2010-12-12T09:25:18Z</time>
      </trkpt>
      <trkpt lat="43.54458" lon="3.80866">
        <ele>71.9</ele>
        <time>2010-12-12T09:25:19Z</time>
      </trkpt>
      <trkpt lat="43.54461" lon="3.8086">
        <ele>71.7</ele>
        <time>2010-12-12T09:25:20Z</time>
      </trkpt>
      <trkpt lat="43.54464" lon="3.80853">
        <ele>71.4</ele>
        <time>2010-12-12T09:25:21Z</time>
      </trkpt>
      <trkpt lat="43.54466" lon="3.80846">
        <ele>71.2</ele>
        <time>2010-12-12T09:25:22Z</time>
      </trkpt>
      <trkpt lat="43.54468" lon="3.8084">
        <ele>71</ele>
        <time>2010-12-12T09:25:23Z</time>
      </trkpt>
      <trkpt lat="43.54469" lon="3.80833">
        <ele>70.8</ele>
        <time>2010-12-12T09:25:24Z</time>
      </trkpt>
      <trkpt lat="43.5447" lon="3.80827">
        <ele>70.4</ele>
        <time>2010-12-12T09:25:25Z</time>
      </trkpt>
      <trkpt lat="43.54471" lon="3.8082">
        <ele>70</ele>
        <time>2010-12-12T09:25:26Z</time>
      </trkpt>
      <trkpt lat="43.54471" lon="3.80813">
        <ele>69.6</ele>
        <time>2010-12-12T09:25:27Z</time>
      </trkpt>
      <trkpt lat="43.5447" lon="3.80806">
        <ele>69.3</ele>
        <time>2010-12-12T09:25:28Z</time>
      </trkpt>
      <trkpt lat="43.54469" lon="3.80799">
        <ele>69</ele>
        <time>2010-12-12T09:25:29Z</time>
      </trkpt>
      <trkpt lat="43.54467" lon="3.80791">
        <ele>68.7</ele>
        <time>2010-12-12T09:25:30Z</time>
      </trkpt>
      <trkpt lat="43.54464" lon="3.80784">
        <ele>68.5</ele>
        <time>2010-12-12T09:25:31Z</time>
      </trkpt>
      <trkpt lat="43.54461" lon="3.80778">
        <ele>68.3</ele>
        <time>2010-12-12T09:25:32Z</time>
      </trkpt>
      <trkpt lat="43.54457" lon="3.80771">
        <ele>68.2</ele>
        <time>2010-12-12T09:25:33Z</time>
      </trkpt>
      <trkpt lat="43.54454" lon="3.80763">
        <ele>68.1</ele>
        <time>2010-12-12T09:25:34Z</time>
      </trkpt>
      <trkpt lat="43.54449" lon="3.80757">
        <ele>68</ele>
        <time>2010-12-12T09:25:35Z</time>
      </trkpt>
      <trkpt lat="43.54444" lon="3.80751">
        <ele>68.1</ele>
        <time>2010-12-12T09:25:36Z</time>
      </trkpt>
      <trkpt lat="43.54439" lon="3.80745">
        <ele>68.1</ele>
        <time>2010-12-12T09:25:37Z</time>
      </trkpt>
      <trkpt lat="43.54434" lon="3.80739">
        <ele>68</ele>
        <time>2010-12-12T09:25:38Z</time>
      </trkpt>
      <trkpt lat="43.54429" lon="3.80734">
        <ele>68</ele>
        <time>2010-12-12T09:25:39Z</time>
      </trkpt>
      <trkpt lat="43.54423" lon="3.80726">
        <ele>67.8</ele>
        <time>2010-12-12T09:25:41Z</time>
      </trkpt>
      <trkpt lat="43.54421" lon="3.80723">
        <ele>67.8</ele>
        <time>2010-12-12T09:25:42Z</time>
      </trkpt>
      <trkpt lat="43.54412" lon="3.80712">
        <ele>67.7</ele>
        <time>2010-12-12T09:25:45Z</time>
      </trkpt>
      <trkpt lat="43.54408" lon="3.80702">
        <ele>67.5</ele>
        <time>2010-12-12T09:25:47Z</time>
      </trkpt>
      <trkpt lat="43.54405" lon="3.80696">
        <ele>67.3</ele>
        <time>2010-12-12T09:25:48Z</time>
      </trkpt>
      <trkpt lat="43.54403" lon="3.80685">
        <ele>66.9</ele>
        <time>2010-12-12T09:25:50Z</time>
      </trkpt>
      <trkpt lat="43.54404" lon="3.80676">
        <ele>66.3</ele>
        <time>2010-12-12T09:25:52Z</time>
      </trkpt>
      <trkpt lat="43.54406" lon="3.80668">
        <ele>65.5</ele>
        <time>2010-12-12T09:25:54Z</time>
      </trkpt>
      <trkpt lat="43.54409" lon="3.80659">
        <ele>65</ele>
        <time>2010-12-12T09:25:56Z</time>
      </trkpt>
      <trkpt lat="43.54413" lon="3.80649">
        <ele>64.7</ele>
        <time>2010-12-12T09:25:58Z</time>
      </trkpt>
      <trkpt lat="43.54416" lon="3.80639">
        <ele>64.4</ele>
        <time>2010-12-12T09:26:00Z</time>
      </trkpt>
      <trkpt lat="43.54418" lon="3.80629">
        <ele>64.4</ele>
        <time>2010-12-12T09:26:02Z</time>
      </trkpt>
      <trkpt lat="43.5442" lon="3.80618">
        <ele>64.4</ele>
        <time>2010-12-12T09:26:04Z</time>
      </trkpt>
      <trkpt lat="43.54422" lon="3.80607">
        <ele>64.4</ele>
        <time>2010-12-12T09:26:06Z</time>
      </trkpt>
      <trkpt lat="43.54422" lon="3.80595">
        <ele>64.5</ele>
        <time>2010-12-12T09:26:08Z</time>
      </trkpt>
      <trkpt lat="43.54423" lon="3.80584">
        <ele>64.5</ele>
        <time>2010-12-12T09:26:10Z</time>
      </trkpt>
      <trkpt lat="43.54424" lon="3.80572">
        <ele>63.9</ele>
        <time>2010-12-12T09:26:12Z</time>
      </trkpt>
      <trkpt lat="43.54423" lon="3.8056">
        <ele>63.6</ele>
        <time>2010-12-12T09:26:14Z</time>
      </trkpt>
      <trkpt lat="43.54421" lon="3.80549">
        <ele>63.4</ele>
        <time>2010-12-12T09:26:16Z</time>
      </trkpt>
      <trkpt lat="43.54418" lon="3.80537">
        <ele>63.2</ele>
        <time>2010-12-12T09:26:18Z</time>
      </trkpt>
      <trkpt lat="43.54414" lon="3.80526">
        <ele>63.1</ele>
        <time>2010-12-12T09:26:20Z</time>
      </trkpt>
      <trkpt lat="43.54412" lon="3.80521">
        <ele>63.1</ele>
        <time>2010-12-12T09:26:21Z</time>
      </trkpt>
      <trkpt lat="43.54409" lon="3.80515">
        <ele>63.1</ele>
        <time>2010-12-12T09:26:22Z</time>
      </trkpt>
      <trkpt lat="43.54406" lon="3.8051">
        <ele>63.1</ele>
        <time>2010-12-12T09:26:23Z</time>
      </trkpt>
      <trkpt lat="43.54403" lon="3.80506">
        <ele>63.1</ele>
        <time>2010-12-12T09:26:24Z</time>
      </trkpt>
      <trkpt lat="43.54399" lon="3.80501">
        <ele>63.1</ele>
        <time>2010-12-12T09:26:25Z</time>
      </trkpt>
      <trkpt lat="43.54396" lon="3.80496">
        <ele>63</ele>
        <time>2010-12-12T09:26:26Z</time>
      </trkpt>
      <trkpt lat="43.54392" lon="3.80492">
        <ele>62.9</ele>
        <time>2010-12-12T09:26:27Z</time>
      </trkpt>
      <trkpt lat="43.54388" lon="3.80487">
        <ele>62.8</ele>
        <time>2010-12-12T09:26:28Z</time>
      </trkpt>
      <trkpt lat="43.54384" lon="3.80484">
        <ele>62.8</ele>
        <time>2010-12-12T09:26:29Z</time>
      </trkpt>
      <trkpt lat="43.5438" lon="3.80481">
        <ele>62.8</ele>
        <time>2010-12-12T09:26:30Z</time>
      </trkpt>
      <trkpt lat="43.54375" lon="3.80479">
        <ele>63</ele>
        <time>2010-12-12T09:26:31Z</time>
      </trkpt>
      <trkpt lat="43.54371" lon="3.80477">
        <ele>63.1</ele>
        <time>2010-12-12T09:26:32Z</time>
      </trkpt>
      <trkpt lat="43.54366" lon="3.80476">
        <ele>63.3</ele>
        <time>2010-12-12T09:26:33Z</time>
      </trkpt>
      <trkpt lat="43.54362" lon="3.80475">
        <ele>63.5</ele>
        <time>2010-12-12T09:26:34Z</time>
      </trkpt>
      <trkpt lat="43.54357" lon="3.80473">
        <ele>63.6</ele>
        <time>2010-12-12T09:26:35Z</time>
      </trkpt>
      <trkpt lat="43.54353" lon="3.80471">
        <ele>63.8</ele>
        <time>2010-12-12T09:26:36Z</time>
      </trkpt>
      <trkpt lat="43.54348" lon="3.8047">
        <ele>63.9</ele>
        <time>2010-12-12T09:26:37Z</time>
      </trkpt>
      <trkpt lat="43.54344" lon="3.80468">
        <ele>64.1</ele>
        <time>2010-12-12T09:26:38Z</time>
      </trkpt>
      <trkpt lat="43.54339" lon="3.80467">
        <ele>64.3</ele>
        <time>2010-12-12T09:26:39Z</time>
      </trkpt>
      <trkpt lat="43.54334" lon="3.80466">
        <ele>64.5</ele>
        <time>2010-12-12T09:26:40Z</time>
      </trkpt>
      <trkpt lat="43.54329" lon="3.80466">
        <ele>64.5</ele>
        <time>2010-12-12T09:26:41Z</time>
      </trkpt>
      <trkpt lat="43.54324" lon="3.80466">
        <ele>64.4</ele>
        <time>2010-12-12T09:26:42Z</time>
      </trkpt>
      <trkpt lat="43.5432" lon="3.80466">
        <ele>64.3</ele>
        <time>2010-12-12T09:26:43Z</time>
      </trkpt>
      <trkpt lat="43.54315" lon="3.80467">
        <ele>64.2</ele>
        <time>2010-12-12T09:26:44Z</time>
      </trkpt>
      <trkpt lat="43.5431" lon="3.80467">
        <ele>64.2</ele>
        <time>2010-12-12T09:26:45Z</time>
      </trkpt>
      <trkpt lat="43.54305" lon="3.80467">
        <ele>64.1</ele>
        <time>2010-12-12T09:26:46Z</time>
      </trkpt>
      <trkpt lat="43.54301" lon="3.80469">
        <ele>64.1</ele>
        <time>2010-12-12T09:26:47Z</time>
      </trkpt>
      <trkpt lat="43.54296" lon="3.8047">
        <ele>64.1</ele>
        <time>2010-12-12T09:26:48Z</time>
      </trkpt>
      <trkpt lat="43.54292" lon="3.80472">
        <ele>64.2</ele>
        <time>2010-12-12T09:26:49Z</time>
      </trkpt>
      <trkpt lat="43.54287" lon="3.80475">
        <ele>64.2</ele>
        <time>2010-12-12T09:26:50Z</time>
      </trkpt>
      <trkpt lat="43.54283" lon="3.80477">
        <ele>64.3</ele>
        <time>2010-12-12T09:26:51Z</time>
      </trkpt>
      <trkpt lat="43.54278" lon="3.8048">
        <ele>64.4</ele>
        <time>2010-12-12T09:26:52Z</time>
      </trkpt>
      <trkpt lat="43.54274" lon="3.80482">
        <ele>64.4</ele>
        <time>2010-12-12T09:26:53Z</time>
      </trkpt>
      <trkpt lat="43.5427" lon="3.80485">
        <ele>64.5</ele>
        <time>2010-12-12T09:26:54Z</time>
      </trkpt>
      <trkpt lat="43.54265" lon="3.80488">
        <ele>64.6</ele>
        <time>2010-12-12T09:26:55Z</time>
      </trkpt>
      <trkpt lat="43.54261" lon="3.80491">
        <ele>64.7</ele>
        <time>2010-12-12T09:26:56Z</time>
      </trkpt>
      <trkpt lat="43.54256" lon="3.80495">
        <ele>64.8</ele>
        <time>2010-12-12T09:26:57Z</time>
      </trkpt>
      <trkpt lat="43.54252" lon="3.80498">
        <ele>65</ele>
        <time>2010-12-12T09:26:58Z</time>
      </trkpt>
      <trkpt lat="43.54248" lon="3.80502">
        <ele>65</ele>
        <time>2010-12-12T09:26:59Z</time>
      </trkpt>
      <trkpt lat="43.54244" lon="3.80505">
        <ele>65</ele>
        <time>2010-12-12T09:27:00Z</time>
      </trkpt>
      <trkpt lat="43.5424" lon="3.80508">
        <ele>65.1</ele>
        <time>2010-12-12T09:27:01Z</time>
      </trkpt>
      <trkpt lat="43.54236" lon="3.80513">
        <ele>65.2</ele>
        <time>2010-12-12T09:27:02Z</time>
      </trkpt>
      <trkpt lat="43.54232" lon="3.80517">
        <ele>65.3</ele>
        <time>2010-12-12T09:27:03Z</time>
      </trkpt>
      <trkpt lat="43.54228" lon="3.80521">
        <ele>65.3</ele>
        <time>2010-12-12T09:27:04Z</time>
      </trkpt>
      <trkpt lat="43.54225" lon="3.80526">
        <ele>65.4</ele>
        <time>2010-12-12T09:27:05Z</time>
      </trkpt>
      <trkpt lat="43.54222" lon="3.8053">
        <ele>65.6</ele>
        <time>2010-12-12T09:27:06Z</time>
      </trkpt>
      <trkpt lat="43.54219" lon="3.80535">
        <ele>65.7</ele>
        <time>2010-12-12T09:27:07Z</time>
      </trkpt>
      <trkpt lat="43.54216" lon="3.8054">
        <ele>65.9</ele>
        <time>2010-12-12T09:27:08Z</time>
      </trkpt>
      <trkpt lat="43.54213" lon="3.80546">
        <ele>66</ele>
        <time>2010-12-12T09:27:09Z</time>
      </trkpt>
      <trkpt lat="43.5421" lon="3.80552">
        <ele>66.2</ele>
        <time>2010-12-12T09:27:10Z</time>
      </trkpt>
      <trkpt lat="43.54208" lon="3.80558">
        <ele>66.4</ele>
        <time>2010-12-12T09:27:11Z</time>
      </trkpt>
      <trkpt lat="43.54206" lon="3.80564">
        <ele>66.6</ele>
        <time>2010-12-12T09:27:12Z</time>
      </trkpt>
      <trkpt lat="43.54203" lon="3.8057">
        <ele>66.8</ele>
        <time>2010-12-12T09:27:13Z</time>
      </trkpt>
      <trkpt lat="43.54201" lon="3.80576">
        <ele>67</ele>
        <time>2010-12-12T09:27:14Z</time>
      </trkpt>
      <trkpt lat="43.54199" lon="3.80582">
        <ele>67.3</ele>
        <time>2010-12-12T09:27:15Z</time>
      </trkpt>
      <trkpt lat="43.54197" lon="3.80588">
        <ele>67.3</ele>
        <time>2010-12-12T09:27:16Z</time>
      </trkpt>
      <trkpt lat="43.54195" lon="3.80594">
        <ele>67.3</ele>
        <time>2010-12-12T09:27:17Z</time>
      </trkpt>
      <trkpt lat="43.54194" lon="3.806">
        <ele>67.3</ele>
        <time>2010-12-12T09:27:18Z</time>
      </trkpt>
      <trkpt lat="43.54192" lon="3.80606">
        <ele>67.3</ele>
        <time>2010-12-12T09:27:19Z</time>
      </trkpt>
      <trkpt lat="43.54191" lon="3.80613">
        <ele>67.3</ele>
        <time>2010-12-12T09:27:20Z</time>
      </trkpt>
      <trkpt lat="43.5419" lon="3.80619">
        <ele>67.4</ele>
        <time>2010-12-12T09:27:21Z</time>
      </trkpt>
      <trkpt lat="43.5419" lon="3.80626">
        <ele>67.4</ele>
        <time>2010-12-12T09:27:22Z</time>
      </trkpt>
      <trkpt lat="43.54189" lon="3.80632">
        <ele>67.5</ele>
        <time>2010-12-12T09:27:23Z</time>
      </trkpt>
      <trkpt lat="43.54189" lon="3.80639">
        <ele>67.6</ele>
        <time>2010-12-12T09:27:24Z</time>
      </trkpt>
      <trkpt lat="43.54188" lon="3.80645">
        <ele>67.7</ele>
        <time>2010-12-12T09:27:25Z</time>
      </trkpt>
      <trkpt lat="43.54188" lon="3.80652">
        <ele>67.8</ele>
        <time>2010-12-12T09:27:26Z</time>
      </trkpt>
      <trkpt lat="43.54188" lon="3.80658">
        <ele>67.9</ele>
        <time>2010-12-12T09:27:27Z</time>
      </trkpt>
      <trkpt lat="43.54188" lon="3.80664">
        <ele>68</ele>
        <time>2010-12-12T09:27:28Z</time>
      </trkpt>
      <trkpt lat="43.54188" lon="3.80671">
        <ele>68</ele>
        <time>2010-12-12T09:27:29Z</time>
      </trkpt>
      <trkpt lat="43.54187" lon="3.80678">
        <ele>68.1</ele>
        <time>2010-12-12T09:27:30Z</time>
      </trkpt>
      <trkpt lat="43.54187" lon="3.80685">
        <ele>68.1</ele>
        <time>2010-12-12T09:27:31Z</time>
      </trkpt>
      <trkpt lat="43.54187" lon="3.80691">
        <ele>68.1</ele>
        <time>2010-12-12T09:27:32Z</time>
      </trkpt>
      <trkpt lat="43.54187" lon="3.80698">
        <ele>68.2</ele>
        <time>2010-12-12T09:27:33Z</time>
      </trkpt>
      <trkpt lat="43.54187" lon="3.80705">
        <ele>68.3</ele>
        <time>2010-12-12T09:27:34Z</time>
      </trkpt>
      <trkpt lat="43.54187" lon="3.80712">
        <ele>68.4</ele>
        <time>2010-12-12T09:27:35Z</time>
      </trkpt>
      <trkpt lat="43.54187" lon="3.80718">
        <ele>68.5</ele>
        <time>2010-12-12T09:27:36Z</time>
      </trkpt>
      <trkpt lat="43.54187" lon="3.80725">
        <ele>68.5</ele>
        <time>2010-12-12T09:27:37Z</time>
      </trkpt>
      <trkpt lat="43.54187" lon="3.80732">
        <ele>68.5</ele>
        <time>2010-12-12T09:27:38Z</time>
      </trkpt>
      <trkpt lat="43.54186" lon="3.80739">
        <ele>68.5</ele>
        <time>2010-12-12T09:27:39Z</time>
      </trkpt>
      <trkpt lat="43.54184" lon="3.80746">
        <ele>68.4</ele>
        <time>2010-12-12T09:27:40Z</time>
      </trkpt>
      <trkpt lat="43.54183" lon="3.80753">
        <ele>68.5</ele>
        <time>2010-12-12T09:27:41Z</time>
      </trkpt>
      <trkpt lat="43.5418" lon="3.80759">
        <ele>68.6</ele>
        <time>2010-12-12T09:27:42Z</time>
      </trkpt>
      <trkpt lat="43.54177" lon="3.80766">
        <ele>68.7</ele>
        <time>2010-12-12T09:27:43Z</time>
      </trkpt>
      <trkpt lat="43.54174" lon="3.80771">
        <ele>68.8</ele>
        <time>2010-12-12T09:27:44Z</time>
      </trkpt>
      <trkpt lat="43.5417" lon="3.80776">
        <ele>68.8</ele>
        <time>2010-12-12T09:27:45Z</time>
      </trkpt>
      <trkpt lat="43.54166" lon="3.8078">
        <ele>68.8</ele>
        <time>2010-12-12T09:27:46Z</time>
      </trkpt>
      <trkpt lat="43.54162" lon="3.80783">
        <ele>69</ele>
        <time>2010-12-12T09:27:47Z</time>
      </trkpt>
      <trkpt lat="43.54158" lon="3.80785">
        <ele>69</ele>
        <time>2010-12-12T09:27:48Z</time>
      </trkpt>
      <trkpt lat="43.54153" lon="3.80786">
        <ele>69.1</ele>
        <time>2010-12-12T09:27:49Z</time>
      </trkpt>
      <trkpt lat="43.54147" lon="3.80786">
        <ele>69.1</ele>
        <time>2010-12-12T09:27:50Z</time>
      </trkpt>
      <trkpt lat="43.54142" lon="3.80786">
        <ele>69.1</ele>
        <time>2010-12-12T09:27:51Z</time>
      </trkpt>
      <trkpt lat="43.54136" lon="3.80786">
        <ele>69</ele>
        <time>2010-12-12T09:27:52Z</time>
      </trkpt>
      <trkpt lat="43.54131" lon="3.80784">
        <ele>68.8</ele>
        <time>2010-12-12T09:27:53Z</time>
      </trkpt>
      <trkpt lat="43.54126" lon="3.80782">
        <ele>68.7</ele>
        <time>2010-12-12T09:27:54Z</time>
      </trkpt>
      <trkpt lat="43.54121" lon="3.8078">
        <ele>68.6</ele>
        <time>2010-12-12T09:27:55Z</time>
      </trkpt>
      <trkpt lat="43.54118" lon="3.80776">
        <ele>68.4</ele>
        <time>2010-12-12T09:27:56Z</time>
      </trkpt>
      <trkpt lat="43.54114" lon="3.80772">
        <ele>68.2</ele>
        <time>2010-12-12T09:27:57Z</time>
      </trkpt>
      <trkpt lat="43.54111" lon="3.80768">
        <ele>68</ele>
        <time>2010-12-12T09:27:58Z</time>
      </trkpt>
      <trkpt lat="43.54107" lon="3.80765">
        <ele>67.8</ele>
        <time>2010-12-12T09:27:59Z</time>
      </trkpt>
      <trkpt lat="43.54103" lon="3.80761">
        <ele>67.5</ele>
        <time>2010-12-12T09:28:00Z</time>
      </trkpt>
      <trkpt lat="43.541" lon="3.80757">
        <ele>67.3</ele>
        <time>2010-12-12T09:28:01Z</time>
      </trkpt>
      <trkpt lat="43.54096" lon="3.80752">
        <ele>67.1</ele>
        <time>2010-12-12T09:28:02Z</time>
      </trkpt>
      <trkpt lat="43.54093" lon="3.80748">
        <ele>67</ele>
        <time>2010-12-12T09:28:03Z</time>
      </trkpt>
      <trkpt lat="43.54089" lon="3.80744">
        <ele>67</ele>
        <time>2010-12-12T09:28:04Z</time>
      </trkpt>
      <trkpt lat="43.54086" lon="3.80739">
        <ele>67</ele>
        <time>2010-12-12T09:28:05Z</time>
      </trkpt>
      <trkpt lat="43.54084" lon="3.80734">
        <ele>67</ele>
        <time>2010-12-12T09:28:06Z</time>
      </trkpt>
      <trkpt lat="43.54081" lon="3.80728">
        <ele>67.1</ele>
        <time>2010-12-12T09:28:07Z</time>
      </trkpt>
      <trkpt lat="43.54079" lon="3.80723">
        <ele>67.3</ele>
        <time>2010-12-12T09:28:08Z</time>
      </trkpt>
      <trkpt lat="43.54077" lon="3.80717">
        <ele>67.4</ele>
        <time>2010-12-12T09:28:09Z</time>
      </trkpt>
      <trkpt lat="43.54074" lon="3.80706">
        <ele>67.6</ele>
        <time>2010-12-12T09:28:11Z</time>
      </trkpt>
      <trkpt lat="43.54073" lon="3.807">
        <ele>67.6</ele>
        <time>2010-12-12T09:28:12Z</time>
      </trkpt>
      <trkpt lat="43.54071" lon="3.80688">
        <ele>67.7</ele>
        <time>2010-12-12T09:28:14Z</time>
      </trkpt>
      <trkpt lat="43.54069" lon="3.80676">
        <ele>67.7</ele>
        <time>2010-12-12T09:28:16Z</time>
      </trkpt>
      <trkpt lat="43.54065" lon="3.80665">
        <ele>67.8</ele>
        <time>2010-12-12T09:28:18Z</time>
      </trkpt>
      <trkpt lat="43.54062" lon="3.80656">
        <ele>67.8</ele>
        <time>2010-12-12T09:28:20Z</time>
      </trkpt>
      <trkpt lat="43.54057" lon="3.80648">
        <ele>67.8</ele>
        <time>2010-12-12T09:28:22Z</time>
      </trkpt>
      <trkpt lat="43.54051" lon="3.80642">
        <ele>68</ele>
        <time>2010-12-12T09:28:24Z</time>
      </trkpt>
      <trkpt lat="43.54045" lon="3.80637">
        <ele>68.1</ele>
        <time>2010-12-12T09:28:26Z</time>
      </trkpt>
      <trkpt lat="43.54039" lon="3.80633">
        <ele>68.3</ele>
        <time>2010-12-12T09:28:28Z</time>
      </trkpt>
      <trkpt lat="43.54033" lon="3.80629">
        <ele>68.5</ele>
        <time>2010-12-12T09:28:31Z</time>
      </trkpt>
      <trkpt lat="43.54027" lon="3.80626">
        <ele>68.7</ele>
        <time>2010-12-12T09:28:33Z</time>
      </trkpt>
      <trkpt lat="43.54018" lon="3.80623">
        <ele>69.1</ele>
        <time>2010-12-12T09:28:36Z</time>
      </trkpt>
      <trkpt lat="43.54011" lon="3.80624">
        <ele>69.4</ele>
        <time>2010-12-12T09:28:39Z</time>
      </trkpt>
      <trkpt lat="43.54003" lon="3.80624">
        <ele>69.8</ele>
        <time>2010-12-12T09:28:42Z</time>
      </trkpt>
      <trkpt lat="43.53996" lon="3.80626">
        <ele>70.3</ele>
        <time>2010-12-12T09:28:45Z</time>
      </trkpt>
      <trkpt lat="43.53993" lon="3.80626">
        <ele>70.5</ele>
        <time>2010-12-12T09:28:46Z</time>
      </trkpt>
      <trkpt lat="43.5398" lon="3.80632">
        <ele>71.4</ele>
        <time>2010-12-12T09:28:51Z</time>
      </trkpt>
      <trkpt lat="43.53973" lon="3.80636">
        <ele>72</ele>
        <time>2010-12-12T09:28:54Z</time>
      </trkpt>
      <trkpt lat="43.53966" lon="3.8064">
        <ele>72.6</ele>
        <time>2010-12-12T09:28:57Z</time>
      </trkpt>
      <trkpt lat="43.53959" lon="3.80648">
        <ele>73.1</ele>
        <time>2010-12-12T09:29:00Z</time>
      </trkpt>
      <trkpt lat="43.53953" lon="3.80656">
        <ele>73.6</ele>
        <time>2010-12-12T09:29:03Z</time>
      </trkpt>
      <trkpt lat="43.53947" lon="3.80665">
        <ele>74.1</ele>
        <time>2010-12-12T09:29:06Z</time>
      </trkpt>
      <trkpt lat="43.53943" lon="3.80674">
        <ele>74.8</ele>
        <time>2010-12-12T09:29:09Z</time>
      </trkpt>
      <trkpt lat="43.5394" lon="3.80685">
        <ele>75.5</ele>
        <time>2010-12-12T09:29:12Z</time>
      </trkpt>
      <trkpt lat="43.53936" lon="3.80695">
        <ele>76.3</ele>
        <time>2010-12-12T09:29:15Z</time>
      </trkpt>
      <trkpt lat="43.53933" lon="3.80703">
        <ele>77</ele>
        <time>2010-12-12T09:29:18Z</time>
      </trkpt>
      <trkpt lat="43.53928" lon="3.80712">
        <ele>77.8</ele>
        <time>2010-12-12T09:29:21Z</time>
      </trkpt>
      <trkpt lat="43.53921" lon="3.80719">
        <ele>78.7</ele>
        <time>2010-12-12T09:29:24Z</time>
      </trkpt>
      <trkpt lat="43.53914" lon="3.80723">
        <ele>79.8</ele>
        <time>2010-12-12T09:29:27Z</time>
      </trkpt>
      <trkpt lat="43.53906" lon="3.80725">
        <ele>80.9</ele>
        <time>2010-12-12T09:29:30Z</time>
      </trkpt>
      <trkpt lat="43.53898" lon="3.80726">
        <ele>81.9</ele>
        <time>2010-12-12T09:29:33Z</time>
      </trkpt>
      <trkpt lat="43.5389" lon="3.80724">
        <ele>82.9</ele>
        <time>2010-12-12T09:29:36Z</time>
      </trkpt>
      <trkpt lat="43.53881" lon="3.80721">
        <ele>83.8</ele>
        <time>2010-12-12T09:29:39Z</time>
      </trkpt>
      <trkpt lat="43.53873" lon="3.80716">
        <ele>84.7</ele>
        <time>2010-12-12T09:29:42Z</time>
      </trkpt>
      <trkpt lat="43.53866" lon="3.80712">
        <ele>85.6</ele>
        <time>2010-12-12T09:29:45Z</time>
      </trkpt>
      <trkpt lat="43.53859" lon="3.80708">
        <ele>86.4</ele>
        <time>2010-12-12T09:29:48Z</time>
      </trkpt>
      <trkpt lat="43.53857" lon="3.80706">
        <ele>86.6</ele>
        <time>2010-12-12T09:29:49Z</time>
      </trkpt>
      <trkpt lat="43.53843" lon="3.80698">
        <ele>88.5</ele>
        <time>2010-12-12T09:29:56Z</time>
      </trkpt>
      <trkpt lat="43.53836" lon="3.80692">
        <ele>89.6</ele>
        <time>2010-12-12T09:30:00Z</time>
      </trkpt>
      <trkpt lat="43.53828" lon="3.80687">
        <ele>90.7</ele>
        <time>2010-12-12T09:30:04Z</time>
      </trkpt>
      <trkpt lat="43.53821" lon="3.80681">
        <ele>91.7</ele>
        <time>2010-12-12T09:30:08Z</time>
      </trkpt>
      <trkpt lat="43.53814" lon="3.80674">
        <ele>92.6</ele>
        <time>2010-12-12T09:30:12Z</time>
      </trkpt>
      <trkpt lat="43.53808" lon="3.80665">
        <ele>93.2</ele>
        <time>2010-12-12T09:30:16Z</time>
      </trkpt>
      <trkpt lat="43.53804" lon="3.80656">
        <ele>93.3</ele>
        <time>2010-12-12T09:30:19Z</time>
      </trkpt>
      <trkpt lat="43.538" lon="3.80648">
        <ele>93.5</ele>
        <time>2010-12-12T09:30:22Z</time>
      </trkpt>
      <trkpt lat="43.53795" lon="3.80639">
        <ele>93.7</ele>
        <time>2010-12-12T09:30:25Z</time>
      </trkpt>
      <trkpt lat="43.53791" lon="3.80631">
        <ele>93.8</ele>
        <time>2010-12-12T09:30:28Z</time>
      </trkpt>
      <trkpt lat="43.53787" lon="3.80622">
        <ele>94</ele>
        <time>2010-12-12T09:30:31Z</time>
      </trkpt>
      <trkpt lat="43.53783" lon="3.80614">
        <ele>94.3</ele>
        <time>2010-12-12T09:30:34Z</time>
      </trkpt>
      <trkpt lat="43.53778" lon="3.80606">
        <ele>94.7</ele>
        <time>2010-12-12T09:30:37Z</time>
      </trkpt>
      <trkpt lat="43.53772" lon="3.80599">
        <ele>95.3</ele>
        <time>2010-12-12T09:30:40Z</time>
      </trkpt>
      <trkpt lat="43.53766" lon="3.80593">
        <ele>96</ele>
        <time>2010-12-12T09:30:43Z</time>
      </trkpt>
      <trkpt lat="43.53759" lon="3.80589">
        <ele>96.8</ele>
        <time>2010-12-12T09:30:46Z</time>
      </trkpt>
      <trkpt lat="43.53752" lon="3.80586">
        <ele>97.8</ele>
        <time>2010-12-12T09:30:49Z</time>
      </trkpt>
      <trkpt lat="43.53749" lon="3.80585">
        <ele>98.2</ele>
        <time>2010-12-12T09:30:50Z</time>
      </trkpt>
      <trkpt lat="43.53737" lon="3.80584">
        <ele>99.6</ele>
        <time>2010-12-12T09:30:55Z</time>
      </trkpt>
      <trkpt lat="43.53729" lon="3.80584">
        <ele>100.5</ele>
        <time>2010-12-12T09:30:58Z</time>
      </trkpt>
      <trkpt lat="43.53722" lon="3.80583">
        <ele>101.3</ele>
        <time>2010-12-12T09:31:01Z</time>
      </trkpt>
      <trkpt lat="43.53714" lon="3.80582">
        <ele>102.1</ele>
        <time>2010-12-12T09:31:04Z</time>
      </trkpt>
      <trkpt lat="43.53707" lon="3.80582">
        <ele>103</ele>
        <time>2010-12-12T09:31:07Z</time>
      </trkpt>
      <trkpt lat="43.53699" lon="3.80583">
        <ele>104</ele>
        <time>2010-12-12T09:31:10Z</time>
      </trkpt>
      <trkpt lat="43.53692" lon="3.80586">
        <ele>105.1</ele>
        <time>2010-12-12T09:31:13Z</time>
      </trkpt>
      <trkpt lat="43.53685" lon="3.80589">
        <ele>106.3</ele>
        <time>2010-12-12T09:31:16Z</time>
      </trkpt>
      <trkpt lat="43.53678" lon="3.80592">
        <ele>107.4</ele>
        <time>2010-12-12T09:31:19Z</time>
      </trkpt>
      <trkpt lat="43.5367" lon="3.80596">
        <ele>108.8</ele>
        <time>2010-12-12T09:31:23Z</time>
      </trkpt>
      <trkpt lat="43.53661" lon="3.80599">
        <ele>110</ele>
        <time>2010-12-12T09:31:28Z</time>
      </trkpt>
      <trkpt lat="43.53652" lon="3.80596">
        <ele>110.6</ele>
        <time>2010-12-12T09:34:42Z</time>
      </trkpt>
      <trkpt lat="43.53651" lon="3.80596">
        <ele>110.7</ele>
        <time>2010-12-12T09:34:43Z</time>
      </trkpt>
      <trkpt lat="43.53637" lon="3.80593">
        <ele>111.8</ele>
        <time>2010-12-12T09:34:50Z</time>
      </trkpt>
      <trkpt lat="43.5363" lon="3.8059">
        <ele>112.1</ele>
        <time>2010-12-12T09:34:53Z</time>
      </trkpt>
      <trkpt lat="43.53624" lon="3.80582">
        <ele>112</ele>
        <time>2010-12-12T09:34:56Z</time>
      </trkpt>
      <trkpt lat="43.5362" lon="3.80571">
        <ele>111.6</ele>
        <time>2010-12-12T09:34:59Z</time>
      </trkpt>
      <trkpt lat="43.53617" lon="3.80559">
        <ele>111.1</ele>
        <time>2010-12-12T09:35:02Z</time>
      </trkpt>
      <trkpt lat="43.53615" lon="3.80547">
        <ele>110.5</ele>
        <time>2010-12-12T09:35:05Z</time>
      </trkpt>
      <trkpt lat="43.53614" lon="3.80539">
        <ele>110.2</ele>
        <time>2010-12-12T09:35:07Z</time>
      </trkpt>
      <trkpt lat="43.53612" lon="3.80531">
        <ele>109.9</ele>
        <time>2010-12-12T09:35:09Z</time>
      </trkpt>
      <trkpt lat="43.53611" lon="3.80522">
        <ele>109.5</ele>
        <time>2010-12-12T09:35:11Z</time>
      </trkpt>
      <trkpt lat="43.53609" lon="3.80513">
        <ele>109.1</ele>
        <time>2010-12-12T09:35:13Z</time>
      </trkpt>
      <trkpt lat="43.53608" lon="3.80504">
        <ele>108.8</ele>
        <time>2010-12-12T09:35:15Z</time>
      </trkpt>
      <trkpt lat="43.53607" lon="3.80495">
        <ele>108.7</ele>
        <time>2010-12-12T09:35:17Z</time>
      </trkpt>
      <trkpt lat="43.53606" lon="3.80486">
        <ele>108.7</ele>
        <time>2010-12-12T09:35:19Z</time>
      </trkpt>
      <trkpt lat="43.53605" lon="3.80476">
        <ele>108.8</ele>
        <time>2010-12-12T09:35:21Z</time>
      </trkpt>
      <trkpt lat="43.53605" lon="3.80466">
        <ele>108.9</ele>
        <time>2010-12-12T09:35:23Z</time>
      </trkpt>
      <trkpt lat="43.53604" lon="3.80456">
        <ele>109.1</ele>
        <time>2010-12-12T09:35:25Z</time>
      </trkpt>
      <trkpt lat="43.53603" lon="3.80445">
        <ele>109.2</ele>
        <time>2010-12-12T09:35:27Z</time>
      </trkpt>
      <trkpt lat="43.53602" lon="3.80435">
        <ele>109.3</ele>
        <time>2010-12-12T09:35:29Z</time>
      </trkpt>
      <trkpt lat="43.53602" lon="3.80425">
        <ele>109.4</ele>
        <time>2010-12-12T09:35:31Z</time>
      </trkpt>
      <trkpt lat="43.53602" lon="3.80415">
        <ele>109.5</ele>
        <time>2010-12-12T09:35:33Z</time>
      </trkpt>
      <trkpt lat="43.53601" lon="3.80404">
        <ele>109.5</ele>
        <time>2010-12-12T09:35:35Z</time>
      </trkpt>
      <trkpt lat="43.53601" lon="3.80394">
        <ele>109.5</ele>
        <time>2010-12-12T09:35:37Z</time>
      </trkpt>
      <trkpt lat="43.53601" lon="3.80383">
        <ele>109.6</ele>
        <time>2010-12-12T09:35:39Z</time>
      </trkpt>
      <trkpt lat="43.53602" lon="3.80372">
        <ele>109.3</ele>
        <time>2010-12-12T09:35:41Z</time>
      </trkpt>
      <trkpt lat="43.53604" lon="3.80361">
        <ele>108.9</ele>
        <time>2010-12-12T09:35:43Z</time>
      </trkpt>
      <trkpt lat="43.53605" lon="3.80355">
        <ele>108.6</ele>
        <time>2010-12-12T09:35:44Z</time>
      </trkpt>
      <trkpt lat="43.5361" lon="3.80339">
        <ele>107.6</ele>
        <time>2010-12-12T09:35:47Z</time>
      </trkpt>
      <trkpt lat="43.53613" lon="3.80328">
        <ele>107.4</ele>
        <time>2010-12-12T09:35:49Z</time>
      </trkpt>
      <trkpt lat="43.53616" lon="3.80318">
        <ele>107.8</ele>
        <time>2010-12-12T09:35:51Z</time>
      </trkpt>
      <trkpt lat="43.53618" lon="3.80308">
        <ele>108.3</ele>
        <time>2010-12-12T09:35:53Z</time>
      </trkpt>
      <trkpt lat="43.53619" lon="3.80299">
        <ele>108.8</ele>
        <time>2010-12-12T09:35:55Z</time>
      </trkpt>
      <trkpt lat="43.53616" lon="3.80289">
        <ele>110.4</ele>
        <time>2010-12-12T09:35:58Z</time>
      </trkpt>
      <trkpt lat="43.53609" lon="3.80294">
        <ele>111.5</ele>
        <time>2010-12-12T09:36:02Z</time>
      </trkpt>
      <trkpt lat="43.53606" lon="3.80303">
        <ele>111.3</ele>
        <time>2010-12-12T09:36:05Z</time>
      </trkpt>
      <trkpt lat="43.53601" lon="3.80312">
        <ele>111.4</ele>
        <time>2010-12-12T09:36:08Z</time>
      </trkpt>
      <trkpt lat="43.53596" lon="3.80321">
        <ele>111.5</ele>
        <time>2010-12-12T09:36:11Z</time>
      </trkpt>
      <trkpt lat="43.53592" lon="3.80328">
        <ele>111.7</ele>
        <time>2010-12-12T09:36:13Z</time>
      </trkpt>
      <trkpt lat="43.53588" lon="3.80334">
        <ele>112</ele>
        <time>2010-12-12T09:36:15Z</time>
      </trkpt>
      <trkpt lat="43.53584" lon="3.8034">
        <ele>113</ele>
        <time>2010-12-12T09:36:17Z</time>
      </trkpt>
      <trkpt lat="43.53579" lon="3.80346">
        <ele>113.3</ele>
        <time>2010-12-12T09:36:19Z</time>
      </trkpt>
      <trkpt lat="43.53574" lon="3.80351">
        <ele>113.5</ele>
        <time>2010-12-12T09:36:21Z</time>
      </trkpt>
      <trkpt lat="43.53567" lon="3.80358">
        <ele>113.6</ele>
        <time>2010-12-12T09:36:24Z</time>
      </trkpt>
      <trkpt lat="43.53562" lon="3.80363">
        <ele>113.7</ele>
        <time>2010-12-12T09:36:26Z</time>
      </trkpt>
      <trkpt lat="43.53557" lon="3.80367">
        <ele>113.8</ele>
        <time>2010-12-12T09:36:28Z</time>
      </trkpt>
      <trkpt lat="43.53551" lon="3.8037">
        <ele>113.8</ele>
        <time>2010-12-12T09:36:30Z</time>
      </trkpt>
      <trkpt lat="43.53545" lon="3.80372">
        <ele>113.9</ele>
        <time>2010-12-12T09:36:32Z</time>
      </trkpt>
      <trkpt lat="43.53538" lon="3.80372">
        <ele>114</ele>
        <time>2010-12-12T09:36:34Z</time>
      </trkpt>
      <trkpt lat="43.53532" lon="3.80371">
        <ele>114.2</ele>
        <time>2010-12-12T09:36:36Z</time>
      </trkpt>
      <trkpt lat="43.53524" lon="3.80367">
        <ele>114.7</ele>
        <time>2010-12-12T09:36:39Z</time>
      </trkpt>
      <trkpt lat="43.53519" lon="3.80359">
        <ele>115.5</ele>
        <time>2010-12-12T09:36:42Z</time>
      </trkpt>
      <trkpt lat="43.53516" lon="3.80348">
        <ele>116.6</ele>
        <time>2010-12-12T09:36:45Z</time>
      </trkpt>
      <trkpt lat="43.53514" lon="3.80346">
        <ele>116.9</ele>
        <time>2010-12-12T09:36:46Z</time>
      </trkpt>
      <trkpt lat="43.53507" lon="3.80331">
        <ele>118.6</ele>
        <time>2010-12-12T09:36:51Z</time>
      </trkpt>
      <trkpt lat="43.53503" lon="3.80321">
        <ele>119.4</ele>
        <time>2010-12-12T09:36:54Z</time>
      </trkpt>
      <trkpt lat="43.53498" lon="3.80312">
        <ele>119.7</ele>
        <time>2010-12-12T09:36:57Z</time>
      </trkpt>
      <trkpt lat="43.53493" lon="3.80306">
        <ele>119.5</ele>
        <time>2010-12-12T09:36:59Z</time>
      </trkpt>
      <trkpt lat="43.5349" lon="3.80299">
        <ele>119.4</ele>
        <time>2010-12-12T09:37:01Z</time>
      </trkpt>
      <trkpt lat="43.53486" lon="3.80292">
        <ele>119.3</ele>
        <time>2010-12-12T09:37:03Z</time>
      </trkpt>
      <trkpt lat="43.53482" lon="3.80285">
        <ele>119.2</ele>
        <time>2010-12-12T09:37:05Z</time>
      </trkpt>
      <trkpt lat="43.53478" lon="3.80278">
        <ele>119.2</ele>
        <time>2010-12-12T09:37:07Z</time>
      </trkpt>
      <trkpt lat="43.53476" lon="3.8027">
        <ele>119.3</ele>
        <time>2010-12-12T09:37:09Z</time>
      </trkpt>
      <trkpt lat="43.53472" lon="3.80259">
        <ele>119.5</ele>
        <time>2010-12-12T09:37:12Z</time>
      </trkpt>
      <trkpt lat="43.53471" lon="3.80247">
        <ele>120</ele>
        <time>2010-12-12T09:37:16Z</time>
      </trkpt>
      <trkpt lat="43.53469" lon="3.80237">
        <ele>120.3</ele>
        <time>2010-12-12T09:37:19Z</time>
      </trkpt>
      <trkpt lat="43.53467" lon="3.80225">
        <ele>120.6</ele>
        <time>2010-12-12T09:37:22Z</time>
      </trkpt>
      <trkpt lat="43.53466" lon="3.80213">
        <ele>121.1</ele>
        <time>2010-12-12T09:37:25Z</time>
      </trkpt>
      <trkpt lat="43.53466" lon="3.80202">
        <ele>121.6</ele>
        <time>2010-12-12T09:37:28Z</time>
      </trkpt>
      <trkpt lat="43.53466" lon="3.80191">
        <ele>122.1</ele>
        <time>2010-12-12T09:37:31Z</time>
      </trkpt>
      <trkpt lat="43.53468" lon="3.80181">
        <ele>122.9</ele>
        <time>2010-12-12T09:37:34Z</time>
      </trkpt>
      <trkpt lat="43.53471" lon="3.80172">
        <ele>123.9</ele>
        <time>2010-12-12T09:37:37Z</time>
      </trkpt>
      <trkpt lat="43.53474" lon="3.80163">
        <ele>124.7</ele>
        <time>2010-12-12T09:37:40Z</time>
      </trkpt>
      <trkpt lat="43.53478" lon="3.80155">
        <ele>125.5</ele>
        <time>2010-12-12T09:37:43Z</time>
      </trkpt>
      <trkpt lat="43.53481" lon="3.80147">
        <ele>126.3</ele>
        <time>2010-12-12T09:37:46Z</time>
      </trkpt>
      <trkpt lat="43.53486" lon="3.80138">
        <ele>127.3</ele>
        <time>2010-12-12T09:37:50Z</time>
      </trkpt>
      <trkpt lat="43.53488" lon="3.80135">
        <ele>127.6</ele>
        <time>2010-12-12T09:37:51Z</time>
      </trkpt>
      <trkpt lat="43.53497" lon="3.8012">
        <ele>129.6</ele>
        <time>2010-12-12T09:37:58Z</time>
      </trkpt>
      <trkpt lat="43.53504" lon="3.80113">
        <ele>130.3</ele>
        <time>2010-12-12T09:38:02Z</time>
      </trkpt>
      <trkpt lat="43.53511" lon="3.80107">
        <ele>130.5</ele>
        <time>2010-12-12T09:38:06Z</time>
      </trkpt>
      <trkpt lat="43.53514" lon="3.80096">
        <ele>130.8</ele>
        <time>2010-12-12T09:38:10Z</time>
      </trkpt>
      <trkpt lat="43.53515" lon="3.80086">
        <ele>131.1</ele>
        <time>2010-12-12T09:38:13Z</time>
      </trkpt>
      <trkpt lat="43.53516" lon="3.80075">
        <ele>131.4</ele>
        <time>2010-12-12T09:38:16Z</time>
      </trkpt>
      <trkpt lat="43.53517" lon="3.80063">
        <ele>131.8</ele>
        <time>2010-12-12T09:38:19Z</time>
      </trkpt>
      <trkpt lat="43.53518" lon="3.80052">
        <ele>132.1</ele>
        <time>2010-12-12T09:38:22Z</time>
      </trkpt>
      <trkpt lat="43.53519" lon="3.80041">
        <ele>132.5</ele>
        <time>2010-12-12T09:38:25Z</time>
      </trkpt>
      <trkpt lat="43.53518" lon="3.80029">
        <ele>132.8</ele>
        <time>2010-12-12T09:38:28Z</time>
      </trkpt>
      <trkpt lat="43.53517" lon="3.80021">
        <ele>133</ele>
        <time>2010-12-12T09:38:30Z</time>
      </trkpt>
      <trkpt lat="43.53518" lon="3.8001">
        <ele>133.3</ele>
        <time>2010-12-12T09:38:33Z</time>
      </trkpt>
      <trkpt lat="43.53524" lon="3.80002">
        <ele>133.8</ele>
        <time>2010-12-12T09:38:37Z</time>
      </trkpt>
      <trkpt lat="43.53533" lon="3.79999">
        <ele>134.2</ele>
        <time>2010-12-12T09:38:41Z</time>
      </trkpt>
      <trkpt lat="43.53535" lon="3.7999">
        <ele>134.7</ele>
        <time>2010-12-12T09:38:44Z</time>
      </trkpt>
      <trkpt lat="43.53531" lon="3.7998">
        <ele>135.1</ele>
        <time>2010-12-12T09:38:47Z</time>
      </trkpt>
      <trkpt lat="43.53529" lon="3.7997">
        <ele>135.5</ele>
        <time>2010-12-12T09:38:51Z</time>
      </trkpt>
      <trkpt lat="43.53529" lon="3.79966">
        <ele>135.7</ele>
        <time>2010-12-12T09:38:52Z</time>
      </trkpt>
      <trkpt lat="43.53524" lon="3.79951">
        <ele>136.2</ele>
        <time>2010-12-12T09:38:57Z</time>
      </trkpt>
      <trkpt lat="43.53518" lon="3.79943">
        <ele>136.4</ele>
        <time>2010-12-12T09:39:00Z</time>
      </trkpt>
      <trkpt lat="43.53513" lon="3.79937">
        <ele>136.5</ele>
        <time>2010-12-12T09:39:02Z</time>
      </trkpt>
      <trkpt lat="43.53509" lon="3.7993">
        <ele>136.7</ele>
        <time>2010-12-12T09:39:04Z</time>
      </trkpt>
      <trkpt lat="43.53504" lon="3.79923">
        <ele>136.8</ele>
        <time>2010-12-12T09:39:06Z</time>
      </trkpt>
      <trkpt lat="43.53499" lon="3.79916">
        <ele>136.9</ele>
        <time>2010-12-12T09:39:08Z</time>
      </trkpt>
      <trkpt lat="43.53494" lon="3.79908">
        <ele>136.6</ele>
        <time>2010-12-12T09:39:10Z</time>
      </trkpt>
      <trkpt lat="43.53489" lon="3.79898">
        <ele>136.4</ele>
        <time>2010-12-12T09:39:14Z</time>
      </trkpt>
      <trkpt lat="43.53487" lon="3.79888">
        <ele>136.6</ele>
        <time>2010-12-12T09:40:24Z</time>
      </trkpt>
      <trkpt lat="43.53487" lon="3.79886">
        <ele>136.8</ele>
        <time>2010-12-12T09:40:25Z</time>
      </trkpt>
      <trkpt lat="43.53498" lon="3.79873">
        <ele>139.3</ele>
        <time>2010-12-12T09:40:34Z</time>
      </trkpt>
      <trkpt lat="43.53506" lon="3.79869">
        <ele>140.1</ele>
        <time>2010-12-12T09:40:38Z</time>
      </trkpt>
      <trkpt lat="43.53512" lon="3.79865">
        <ele>140.5</ele>
        <time>2010-12-12T09:40:41Z</time>
      </trkpt>
      <trkpt lat="43.53519" lon="3.79861">
        <ele>141</ele>
        <time>2010-12-12T09:40:44Z</time>
      </trkpt>
      <trkpt lat="43.53526" lon="3.79856">
        <ele>141.6</ele>
        <time>2010-12-12T09:40:47Z</time>
      </trkpt>
      <trkpt lat="43.53533" lon="3.79852">
        <ele>142.1</ele>
        <time>2010-12-12T09:40:50Z</time>
      </trkpt>
      <trkpt lat="43.5354" lon="3.79847">
        <ele>142.6</ele>
        <time>2010-12-12T09:40:53Z</time>
      </trkpt>
      <trkpt lat="43.53547" lon="3.7984">
        <ele>143.3</ele>
        <time>2010-12-12T09:40:56Z</time>
      </trkpt>
      <trkpt lat="43.53554" lon="3.79835">
        <ele>143.9</ele>
        <time>2010-12-12T09:40:59Z</time>
      </trkpt>
      <trkpt lat="43.53562" lon="3.79831">
        <ele>144.4</ele>
        <time>2010-12-12T09:41:02Z</time>
      </trkpt>
      <trkpt lat="43.5357" lon="3.79828">
        <ele>144.8</ele>
        <time>2010-12-12T09:41:05Z</time>
      </trkpt>
      <trkpt lat="43.53578" lon="3.79824">
        <ele>145.4</ele>
        <time>2010-12-12T09:41:08Z</time>
      </trkpt>
      <trkpt lat="43.53585" lon="3.7982">
        <ele>145.4</ele>
        <time>2010-12-12T09:41:11Z</time>
      </trkpt>
      <trkpt lat="43.53593" lon="3.79816">
        <ele>144.1</ele>
        <time>2010-12-12T09:41:14Z</time>
      </trkpt>
      <trkpt lat="43.53598" lon="3.79812">
        <ele>143.3</ele>
        <time>2010-12-12T09:41:16Z</time>
      </trkpt>
      <trkpt lat="43.53603" lon="3.79802">
        <ele>142.7</ele>
        <time>2010-12-12T09:41:19Z</time>
      </trkpt>
      <trkpt lat="43.53605" lon="3.7979">
        <ele>142.9</ele>
        <time>2010-12-12T09:41:22Z</time>
      </trkpt>
      <trkpt lat="43.53607" lon="3.7978">
        <ele>143</ele>
        <time>2010-12-12T09:41:25Z</time>
      </trkpt>
      <trkpt lat="43.53608" lon="3.79776">
        <ele>143</ele>
        <time>2010-12-12T09:41:26Z</time>
      </trkpt>
      <trkpt lat="43.53612" lon="3.79759">
        <ele>142.7</ele>
        <time>2010-12-12T09:41:35Z</time>
      </trkpt>
      <trkpt lat="43.5361" lon="3.79747">
        <ele>143.9</ele>
        <time>2010-12-12T09:41:49Z</time>
      </trkpt>
      <trkpt lat="43.53612" lon="3.79736">
        <ele>145.1</ele>
        <time>2010-12-12T09:42:03Z</time>
      </trkpt>
      <trkpt lat="43.5361" lon="3.79725">
        <ele>147.1</ele>
        <time>2010-12-12T09:42:18Z</time>
      </trkpt>
      <trkpt lat="43.53606" lon="3.79715">
        <ele>149.1</ele>
        <time>2010-12-12T09:42:22Z</time>
      </trkpt>
      <trkpt lat="43.53605" lon="3.79704">
        <ele>150.7</ele>
        <time>2010-12-12T09:42:26Z</time>
      </trkpt>
      <trkpt lat="43.53605" lon="3.79702">
        <ele>151</ele>
        <time>2010-12-12T09:42:27Z</time>
      </trkpt>
      <trkpt lat="43.53605" lon="3.79683">
        <ele>153.3</ele>
        <time>2010-12-12T09:42:34Z</time>
      </trkpt>
      <trkpt lat="43.53606" lon="3.79671">
        <ele>154.8</ele>
        <time>2010-12-12T09:42:39Z</time>
      </trkpt>
      <trkpt lat="43.53606" lon="3.79661">
        <ele>155.5</ele>
        <time>2010-12-12T09:42:43Z</time>
      </trkpt>
      <trkpt lat="43.53607" lon="3.7965">
        <ele>156</ele>
        <time>2010-12-12T09:42:47Z</time>
      </trkpt>
      <trkpt lat="43.53609" lon="3.79638">
        <ele>156.3</ele>
        <time>2010-12-12T09:42:51Z</time>
      </trkpt>
      <trkpt lat="43.5361" lon="3.79629">
        <ele>156.7</ele>
        <time>2010-12-12T09:42:54Z</time>
      </trkpt>
      <trkpt lat="43.53611" lon="3.79619">
        <ele>156.9</ele>
        <time>2010-12-12T09:42:57Z</time>
      </trkpt>
      <trkpt lat="43.53614" lon="3.79611">
        <ele>157</ele>
        <time>2010-12-12T09:43:00Z</time>
      </trkpt>
      <trkpt lat="43.53619" lon="3.79602">
        <ele>156.9</ele>
        <time>2010-12-12T09:43:03Z</time>
      </trkpt>
      <trkpt lat="43.53623" lon="3.79593">
        <ele>156.7</ele>
        <time>2010-12-12T09:43:06Z</time>
      </trkpt>
      <trkpt lat="43.53626" lon="3.79585">
        <ele>156.8</ele>
        <time>2010-12-12T09:43:08Z</time>
      </trkpt>
      <trkpt lat="43.53628" lon="3.79575">
        <ele>156.3</ele>
        <time>2010-12-12T09:43:10Z</time>
      </trkpt>
      <trkpt lat="43.53629" lon="3.79566">
        <ele>155.8</ele>
        <time>2010-12-12T09:43:12Z</time>
      </trkpt>
      <trkpt lat="43.53629" lon="3.79555">
        <ele>155.3</ele>
        <time>2010-12-12T09:43:14Z</time>
      </trkpt>
      <trkpt lat="43.53627" lon="3.79544">
        <ele>155.1</ele>
        <time>2010-12-12T09:43:16Z</time>
      </trkpt>
      <trkpt lat="43.5362" lon="3.79538">
        <ele>155.8</ele>
        <time>2010-12-12T09:43:19Z</time>
      </trkpt>
      <trkpt lat="43.53613" lon="3.79532">
        <ele>156.6</ele>
        <time>2010-12-12T09:43:22Z</time>
      </trkpt>
      <trkpt lat="43.53606" lon="3.79528">
        <ele>157.4</ele>
        <time>2010-12-12T09:43:25Z</time>
      </trkpt>
      <trkpt lat="43.536" lon="3.79523">
        <ele>158.2</ele>
        <time>2010-12-12T09:43:28Z</time>
      </trkpt>
      <trkpt lat="43.53597" lon="3.79521">
        <ele>158.4</ele>
        <time>2010-12-12T09:43:29Z</time>
      </trkpt>
      <trkpt lat="43.53588" lon="3.79513">
        <ele>159.7</ele>
        <time>2010-12-12T09:43:34Z</time>
      </trkpt>
      <trkpt lat="43.53582" lon="3.79507">
        <ele>160.2</ele>
        <time>2010-12-12T09:43:37Z</time>
      </trkpt>
      <trkpt lat="43.53576" lon="3.79502">
        <ele>160.5</ele>
        <time>2010-12-12T09:43:40Z</time>
      </trkpt>
      <trkpt lat="43.53569" lon="3.79499">
        <ele>160.9</ele>
        <time>2010-12-12T09:43:43Z</time>
      </trkpt>
      <trkpt lat="43.53561" lon="3.79497">
        <ele>161.2</ele>
        <time>2010-12-12T09:43:46Z</time>
      </trkpt>
      <trkpt lat="43.53554" lon="3.79495">
        <ele>161.6</ele>
        <time>2010-12-12T09:43:49Z</time>
      </trkpt>
      <trkpt lat="43.53548" lon="3.79491">
        <ele>161.9</ele>
        <time>2010-12-12T09:43:52Z</time>
      </trkpt>
      <trkpt lat="43.53542" lon="3.79484">
        <ele>162.1</ele>
        <time>2010-12-12T09:43:55Z</time>
      </trkpt>
      <trkpt lat="43.53538" lon="3.79476">
        <ele>162.2</ele>
        <time>2010-12-12T09:43:58Z</time>
      </trkpt>
      <trkpt lat="43.53535" lon="3.79469">
        <ele>162.2</ele>
        <time>2010-12-12T09:44:00Z</time>
      </trkpt>
      <trkpt lat="43.5353" lon="3.79459">
        <ele>162.4</ele>
        <time>2010-12-12T09:44:03Z</time>
      </trkpt>
      <trkpt lat="43.53526" lon="3.79452">
        <ele>162.5</ele>
        <time>2010-12-12T09:44:05Z</time>
      </trkpt>
      <trkpt lat="43.5352" lon="3.79447">
        <ele>162.9</ele>
        <time>2010-12-12T09:44:07Z</time>
      </trkpt>
      <trkpt lat="43.53512" lon="3.79443">
        <ele>163.4</ele>
        <time>2010-12-12T09:44:10Z</time>
      </trkpt>
      <trkpt lat="43.53506" lon="3.79437">
        <ele>163.8</ele>
        <time>2010-12-12T09:44:13Z</time>
      </trkpt>
      <trkpt lat="43.53499" lon="3.79431">
        <ele>164.2</ele>
        <time>2010-12-12T09:44:16Z</time>
      </trkpt>
      <trkpt lat="43.53495" lon="3.79425">
        <ele>164</ele>
        <time>2010-12-12T09:44:18Z</time>
      </trkpt>
      <trkpt lat="43.5349" lon="3.79418">
        <ele>163.9</ele>
        <time>2010-12-12T09:44:20Z</time>
      </trkpt>
      <trkpt lat="43.53485" lon="3.79412">
        <ele>163.3</ele>
        <time>2010-12-12T09:44:22Z</time>
      </trkpt>
      <trkpt lat="43.53478" lon="3.79407">
        <ele>162.7</ele>
        <time>2010-12-12T09:44:24Z</time>
      </trkpt>
      <trkpt lat="43.53472" lon="3.79403">
        <ele>162.4</ele>
        <time>2010-12-12T09:44:26Z</time>
      </trkpt>
      <trkpt lat="43.53465" lon="3.79399">
        <ele>162.2</ele>
        <time>2010-12-12T09:44:28Z</time>
      </trkpt>
      <trkpt lat="43.53458" lon="3.79397">
        <ele>162.2</ele>
        <time>2010-12-12T09:44:30Z</time>
      </trkpt>
      <trkpt lat="43.53455" lon="3.79396">
        <ele>162.2</ele>
        <time>2010-12-12T09:44:31Z</time>
      </trkpt>
      <trkpt lat="43.53446" lon="3.79391">
        <ele>162.2</ele>
        <time>2010-12-12T09:44:34Z</time>
      </trkpt>
      <trkpt lat="43.5344" lon="3.79385">
        <ele>162.3</ele>
        <time>2010-12-12T09:44:36Z</time>
      </trkpt>
      <trkpt lat="43.53435" lon="3.7938">
        <ele>162.4</ele>
        <time>2010-12-12T09:44:38Z</time>
      </trkpt>
      <trkpt lat="43.53431" lon="3.79374">
        <ele>162.5</ele>
        <time>2010-12-12T09:44:40Z</time>
      </trkpt>
      <trkpt lat="43.53428" lon="3.79367">
        <ele>162.7</ele>
        <time>2010-12-12T09:44:42Z</time>
      </trkpt>
      <trkpt lat="43.53424" lon="3.7936">
        <ele>163</ele>
        <time>2010-12-12T09:44:44Z</time>
      </trkpt>
      <trkpt lat="43.53419" lon="3.79351">
        <ele>163.5</ele>
        <time>2010-12-12T09:44:47Z</time>
      </trkpt>
      <trkpt lat="43.53412" lon="3.79344">
        <ele>164.2</ele>
        <time>2010-12-12T09:46:34Z</time>
      </trkpt>
      <trkpt lat="43.5341" lon="3.79344">
        <ele>164.3</ele>
        <time>2010-12-12T09:46:35Z</time>
      </trkpt>
      <trkpt lat="43.53397" lon="3.79335">
        <ele>165.4</ele>
        <time>2010-12-12T09:46:41Z</time>
      </trkpt>
      <trkpt lat="43.53392" lon="3.79328">
        <ele>166.1</ele>
        <time>2010-12-12T09:46:44Z</time>
      </trkpt>
      <trkpt lat="43.53388" lon="3.7932">
        <ele>166.9</ele>
        <time>2010-12-12T09:46:47Z</time>
      </trkpt>
      <trkpt lat="43.53385" lon="3.79312">
        <ele>167.7</ele>
        <time>2010-12-12T09:46:50Z</time>
      </trkpt>
      <trkpt lat="43.53383" lon="3.79303">
        <ele>168.5</ele>
        <time>2010-12-12T09:46:53Z</time>
      </trkpt>
      <trkpt lat="43.5338" lon="3.79292">
        <ele>169.4</ele>
        <time>2010-12-12T09:46:57Z</time>
      </trkpt>
      <trkpt lat="43.53377" lon="3.79282">
        <ele>170.2</ele>
        <time>2010-12-12T09:47:00Z</time>
      </trkpt>
      <trkpt lat="43.53375" lon="3.79273">
        <ele>171</ele>
        <time>2010-12-12T09:47:03Z</time>
      </trkpt>
      <trkpt lat="43.53372" lon="3.79264">
        <ele>171.8</ele>
        <time>2010-12-12T09:47:06Z</time>
      </trkpt>
      <trkpt lat="43.53369" lon="3.79255">
        <ele>172.5</ele>
        <time>2010-12-12T09:47:09Z</time>
      </trkpt>
      <trkpt lat="43.53366" lon="3.79246">
        <ele>173.2</ele>
        <time>2010-12-12T09:47:12Z</time>
      </trkpt>
      <trkpt lat="43.53362" lon="3.79237">
        <ele>173.9</ele>
        <time>2010-12-12T09:47:15Z</time>
      </trkpt>
      <trkpt lat="43.53359" lon="3.79227">
        <ele>174.5</ele>
        <time>2010-12-12T09:47:18Z</time>
      </trkpt>
      <trkpt lat="43.53356" lon="3.79217">
        <ele>175</ele>
        <time>2010-12-12T09:47:21Z</time>
      </trkpt>
      <trkpt lat="43.53352" lon="3.79208">
        <ele>175.7</ele>
        <time>2010-12-12T09:47:24Z</time>
      </trkpt>
      <trkpt lat="43.53348" lon="3.79201">
        <ele>176.1</ele>
        <time>2010-12-12T09:47:26Z</time>
      </trkpt>
      <trkpt lat="43.53342" lon="3.79191">
        <ele>176.7</ele>
        <time>2010-12-12T09:47:29Z</time>
      </trkpt>
      <trkpt lat="43.53336" lon="3.79184">
        <ele>177.3</ele>
        <time>2010-12-12T09:47:32Z</time>
      </trkpt>
      <trkpt lat="43.53328" lon="3.79179">
        <ele>177.5</ele>
        <time>2010-12-12T09:47:35Z</time>
      </trkpt>
      <trkpt lat="43.53326" lon="3.79178">
        <ele>177.6</ele>
        <time>2010-12-12T09:47:36Z</time>
      </trkpt>
      <trkpt lat="43.53316" lon="3.79166">
        <ele>178</ele>
        <time>2010-12-12T09:47:41Z</time>
      </trkpt>
      <trkpt lat="43.53311" lon="3.79157">
        <ele>178</ele>
        <time>2010-12-12T09:47:44Z</time>
      </trkpt>
      <trkpt lat="43.53306" lon="3.79149">
        <ele>178</ele>
        <time>2010-12-12T09:47:47Z</time>
      </trkpt>
      <trkpt lat="43.53301" lon="3.7914">
        <ele>178.1</ele>
        <time>2010-12-12T09:47:50Z</time>
      </trkpt>
      <trkpt lat="43.53298" lon="3.79133">
        <ele>178.1</ele>
        <time>2010-12-12T09:47:52Z</time>
      </trkpt>
      <trkpt lat="43.53295" lon="3.79125">
        <ele>178.2</ele>
        <time>2010-12-12T09:47:54Z</time>
      </trkpt>
      <trkpt lat="43.53291" lon="3.79118">
        <ele>178.3</ele>
        <time>2010-12-12T09:47:56Z</time>
      </trkpt>
      <trkpt lat="43.53287" lon="3.79111">
        <ele>178.4</ele>
        <time>2010-12-12T09:47:58Z</time>
      </trkpt>
      <trkpt lat="43.53284" lon="3.79104">
        <ele>178.6</ele>
        <time>2010-12-12T09:48:00Z</time>
      </trkpt>
      <trkpt lat="43.53279" lon="3.79098">
        <ele>178.8</ele>
        <time>2010-12-12T09:48:02Z</time>
      </trkpt>
      <trkpt lat="43.53274" lon="3.79092">
        <ele>179</ele>
        <time>2010-12-12T09:48:04Z</time>
      </trkpt>
      <trkpt lat="43.53269" lon="3.79086">
        <ele>179.3</ele>
        <time>2010-12-12T09:48:06Z</time>
      </trkpt>
      <trkpt lat="43.53264" lon="3.79082">
        <ele>179.4</ele>
        <time>2010-12-12T09:48:08Z</time>
      </trkpt>
      <trkpt lat="43.53259" lon="3.79077">
        <ele>179.5</ele>
        <time>2010-12-12T09:48:10Z</time>
      </trkpt>
      <trkpt lat="43.53254" lon="3.79073">
        <ele>179.7</ele>
        <time>2010-12-12T09:48:12Z</time>
      </trkpt>
      <trkpt lat="43.53248" lon="3.7907">
        <ele>179.9</ele>
        <time>2010-12-12T09:48:14Z</time>
      </trkpt>
      <trkpt lat="43.53242" lon="3.79067">
        <ele>180.1</ele>
        <time>2010-12-12T09:48:16Z</time>
      </trkpt>
      <trkpt lat="43.53236" lon="3.79064">
        <ele>180.3</ele>
        <time>2010-12-12T09:48:18Z</time>
      </trkpt>
      <trkpt lat="43.53231" lon="3.7906">
        <ele>180.5</ele>
        <time>2010-12-12T09:48:20Z</time>
      </trkpt>
      <trkpt lat="43.53225" lon="3.79055">
        <ele>180.8</ele>
        <time>2010-12-12T09:48:22Z</time>
      </trkpt>
      <trkpt lat="43.5322" lon="3.79051">
        <ele>181</ele>
        <time>2010-12-12T09:48:24Z</time>
      </trkpt>
      <trkpt lat="43.53214" lon="3.79046">
        <ele>181.2</ele>
        <time>2010-12-12T09:48:26Z</time>
      </trkpt>
      <trkpt lat="43.53208" lon="3.79042">
        <ele>181.5</ele>
        <time>2010-12-12T09:48:28Z</time>
      </trkpt>
      <trkpt lat="43.53202" lon="3.79039">
        <ele>181.8</ele>
        <time>2010-12-12T09:48:30Z</time>
      </trkpt>
      <trkpt lat="43.53195" lon="3.79035">
        <ele>182.2</ele>
        <time>2010-12-12T09:48:32Z</time>
      </trkpt>
      <trkpt lat="43.53188" lon="3.79032">
        <ele>182.5</ele>
        <time>2010-12-12T09:48:34Z</time>
      </trkpt>
      <trkpt lat="43.53182" lon="3.79028">
        <ele>182.9</ele>
        <time>2010-12-12T09:48:36Z</time>
      </trkpt>
      <trkpt lat="43.53175" lon="3.79024">
        <ele>183.3</ele>
        <time>2010-12-12T09:48:38Z</time>
      </trkpt>
      <trkpt lat="43.53172" lon="3.79021">
        <ele>183.5</ele>
        <time>2010-12-12T09:48:39Z</time>
      </trkpt>
      <trkpt lat="43.53163" lon="3.79014">
        <ele>184</ele>
        <time>2010-12-12T09:48:42Z</time>
      </trkpt>
      <trkpt lat="43.53157" lon="3.79009">
        <ele>184.2</ele>
        <time>2010-12-12T09:48:44Z</time>
      </trkpt>
      <trkpt lat="43.53151" lon="3.79003">
        <ele>184.5</ele>
        <time>2010-12-12T09:48:46Z</time>
      </trkpt>
      <trkpt lat="43.53145" lon="3.78998">
        <ele>184.7</ele>
        <time>2010-12-12T09:48:48Z</time>
      </trkpt>
      <trkpt lat="43.53139" lon="3.78993">
        <ele>184.8</ele>
        <time>2010-12-12T09:48:50Z</time>
      </trkpt>
      <trkpt lat="43.53134" lon="3.78987">
        <ele>185</ele>
        <time>2010-12-12T09:48:52Z</time>
      </trkpt>
      <trkpt lat="43.53129" lon="3.78981">
        <ele>185.1</ele>
        <time>2010-12-12T09:48:54Z</time>
      </trkpt>
      <trkpt lat="43.53124" lon="3.78976">
        <ele>185.4</ele>
        <time>2010-12-12T09:48:56Z</time>
      </trkpt>
      <trkpt lat="43.53119" lon="3.78971">
        <ele>185.8</ele>
        <time>2010-12-12T09:48:58Z</time>
      </trkpt>
      <trkpt lat="43.53112" lon="3.78967">
        <ele>186.3</ele>
        <time>2010-12-12T09:49:00Z</time>
      </trkpt>
      <trkpt lat="43.53106" lon="3.78964">
        <ele>186.9</ele>
        <time>2010-12-12T09:49:02Z</time>
      </trkpt>
      <trkpt lat="43.531" lon="3.78959">
        <ele>187.5</ele>
        <time>2010-12-12T09:49:04Z</time>
      </trkpt>
      <trkpt lat="43.53095" lon="3.78954">
        <ele>188.1</ele>
        <time>2010-12-12T09:49:06Z</time>
      </trkpt>
      <trkpt lat="43.53089" lon="3.78948">
        <ele>188.9</ele>
        <time>2010-12-12T09:49:08Z</time>
      </trkpt>
      <trkpt lat="43.53084" lon="3.78943">
        <ele>189.7</ele>
        <time>2010-12-12T09:49:10Z</time>
      </trkpt>
      <trkpt lat="43.53078" lon="3.78938">
        <ele>190.1</ele>
        <time>2010-12-12T09:49:12Z</time>
      </trkpt>
      <trkpt lat="43.53072" lon="3.78936">
        <ele>190.3</ele>
        <time>2010-12-12T09:49:14Z</time>
      </trkpt>
      <trkpt lat="43.53065" lon="3.78934">
        <ele>190.6</ele>
        <time>2010-12-12T09:49:16Z</time>
      </trkpt>
      <trkpt lat="43.53058" lon="3.78932">
        <ele>190.8</ele>
        <time>2010-12-12T09:49:18Z</time>
      </trkpt>
      <trkpt lat="43.53051" lon="3.7893">
        <ele>191.1</ele>
        <time>2010-12-12T09:49:20Z</time>
      </trkpt>
      <trkpt lat="43.53044" lon="3.78929">
        <ele>191.3</ele>
        <time>2010-12-12T09:49:22Z</time>
      </trkpt>
      <trkpt lat="43.53037" lon="3.78928">
        <ele>191.5</ele>
        <time>2010-12-12T09:49:24Z</time>
      </trkpt>
      <trkpt lat="43.5303" lon="3.78929">
        <ele>191.6</ele>
        <time>2010-12-12T09:49:26Z</time>
      </trkpt>
      <trkpt lat="43.53022" lon="3.78928">
        <ele>191.8</ele>
        <time>2010-12-12T09:49:28Z</time>
      </trkpt>
      <trkpt lat="43.53016" lon="3.78923">
        <ele>192.2</ele>
        <time>2010-12-12T09:49:30Z</time>
      </trkpt>
      <trkpt lat="43.5301" lon="3.78917">
        <ele>192.8</ele>
        <time>2010-12-12T09:49:32Z</time>
      </trkpt>
      <trkpt lat="43.53005" lon="3.78909">
        <ele>192.9</ele>
        <time>2010-12-12T09:49:34Z</time>
      </trkpt>
      <trkpt lat="43.53001" lon="3.78902">
        <ele>193.2</ele>
        <time>2010-12-12T09:49:36Z</time>
      </trkpt>
      <trkpt lat="43.52996" lon="3.78896">
        <ele>193.2</ele>
        <time>2010-12-12T09:49:38Z</time>
      </trkpt>
      <trkpt lat="43.52992" lon="3.7889">
        <ele>193.2</ele>
        <time>2010-12-12T09:49:40Z</time>
      </trkpt>
      <trkpt lat="43.52989" lon="3.78887">
        <ele>193.2</ele>
        <time>2010-12-12T09:49:41Z</time>
      </trkpt>
      <trkpt lat="43.52988" lon="3.78871">
        <ele>193.2</ele>
        <time>2010-12-12T09:49:58Z</time>
      </trkpt>
      <trkpt lat="43.52989" lon="3.78859">
        <ele>193.3</ele>
        <time>2010-12-12T09:51:44Z</time>
      </trkpt>
      <trkpt lat="43.52989" lon="3.78857">
        <ele>193.3</ele>
        <time>2010-12-12T09:51:45Z</time>
      </trkpt>
      <trkpt lat="43.5299" lon="3.7884">
        <ele>193.4</ele>
        <time>2010-12-12T09:51:50Z</time>
      </trkpt>
      <trkpt lat="43.5299" lon="3.78828">
        <ele>193.2</ele>
        <time>2010-12-12T09:51:53Z</time>
      </trkpt>
      <trkpt lat="43.52989" lon="3.7882">
        <ele>192.8</ele>
        <time>2010-12-12T09:51:55Z</time>
      </trkpt>
      <trkpt lat="43.52987" lon="3.78811">
        <ele>192.4</ele>
        <time>2010-12-12T09:51:57Z</time>
      </trkpt>
      <trkpt lat="43.52985" lon="3.788">
        <ele>191.9</ele>
        <time>2010-12-12T09:51:59Z</time>
      </trkpt>
      <trkpt lat="43.52983" lon="3.78789">
        <ele>191.3</ele>
        <time>2010-12-12T09:52:01Z</time>
      </trkpt>
      <trkpt lat="43.52981" lon="3.78777">
        <ele>190.6</ele>
        <time>2010-12-12T09:52:03Z</time>
      </trkpt>
      <trkpt lat="43.5298" lon="3.78771">
        <ele>190.3</ele>
        <time>2010-12-12T09:52:04Z</time>
      </trkpt>
      <trkpt lat="43.52979" lon="3.78765">
        <ele>189.9</ele>
        <time>2010-12-12T09:52:05Z</time>
      </trkpt>
      <trkpt lat="43.52979" lon="3.78759">
        <ele>189.6</ele>
        <time>2010-12-12T09:52:06Z</time>
      </trkpt>
      <trkpt lat="43.52978" lon="3.78752">
        <ele>189.2</ele>
        <time>2010-12-12T09:52:07Z</time>
      </trkpt>
      <trkpt lat="43.52978" lon="3.78746">
        <ele>189</ele>
        <time>2010-12-12T09:52:08Z</time>
      </trkpt>
      <trkpt lat="43.52977" lon="3.78739">
        <ele>188.9</ele>
        <time>2010-12-12T09:52:09Z</time>
      </trkpt>
      <trkpt lat="43.52976" lon="3.78732">
        <ele>188.7</ele>
        <time>2010-12-12T09:52:10Z</time>
      </trkpt>
      <trkpt lat="43.52975" lon="3.78725">
        <ele>188.6</ele>
        <time>2010-12-12T09:52:11Z</time>
      </trkpt>
      <trkpt lat="43.52974" lon="3.78718">
        <ele>188.5</ele>
        <time>2010-12-12T09:52:12Z</time>
      </trkpt>
      <trkpt lat="43.52972" lon="3.78712">
        <ele>188.3</ele>
        <time>2010-12-12T09:52:13Z</time>
      </trkpt>
      <trkpt lat="43.5297" lon="3.787">
        <ele>188.1</ele>
        <time>2010-12-12T09:52:15Z</time>
      </trkpt>
      <trkpt lat="43.52967" lon="3.78689">
        <ele>187.9</ele>
        <time>2010-12-12T09:52:17Z</time>
      </trkpt>
      <trkpt lat="43.52963" lon="3.78679">
        <ele>187.7</ele>
        <time>2010-12-12T09:52:19Z</time>
      </trkpt>
      <trkpt lat="43.52959" lon="3.78669">
        <ele>187.5</ele>
        <time>2010-12-12T09:52:21Z</time>
      </trkpt>
      <trkpt lat="43.52954" lon="3.7866">
        <ele>187.3</ele>
        <time>2010-12-12T09:52:23Z</time>
      </trkpt>
      <trkpt lat="43.52951" lon="3.78655">
        <ele>187.2</ele>
        <time>2010-12-12T09:52:24Z</time>
      </trkpt>
      <trkpt lat="43.52948" lon="3.78649">
        <ele>187.2</ele>
        <time>2010-12-12T09:52:25Z</time>
      </trkpt>
      <trkpt lat="43.52945" lon="3.78644">
        <ele>187.2</ele>
        <time>2010-12-12T09:52:26Z</time>
      </trkpt>
      <trkpt lat="43.52942" lon="3.78639">
        <ele>187.2</ele>
        <time>2010-12-12T09:52:27Z</time>
      </trkpt>
      <trkpt lat="43.5294" lon="3.78633">
        <ele>187.2</ele>
        <time>2010-12-12T09:52:28Z</time>
      </trkpt>
      <trkpt lat="43.52937" lon="3.78628">
        <ele>187.3</ele>
        <time>2010-12-12T09:52:29Z</time>
      </trkpt>
      <trkpt lat="43.52932" lon="3.78618">
        <ele>187.5</ele>
        <time>2010-12-12T09:52:31Z</time>
      </trkpt>
      <trkpt lat="43.52925" lon="3.7861">
        <ele>187.7</ele>
        <time>2010-12-12T09:52:33Z</time>
      </trkpt>
      <trkpt lat="43.52921" lon="3.78606">
        <ele>187.9</ele>
        <time>2010-12-12T09:52:34Z</time>
      </trkpt>
      <trkpt lat="43.52917" lon="3.78602">
        <ele>188.1</ele>
        <time>2010-12-12T09:52:35Z</time>
      </trkpt>
      <trkpt lat="43.52913" lon="3.78598">
        <ele>188.1</ele>
        <time>2010-12-12T09:52:36Z</time>
      </trkpt>
      <trkpt lat="43.52909" lon="3.78595">
        <ele>188</ele>
        <time>2010-12-12T09:52:37Z</time>
      </trkpt>
      <trkpt lat="43.52904" lon="3.78591">
        <ele>187.9</ele>
        <time>2010-12-12T09:52:38Z</time>
      </trkpt>
      <trkpt lat="43.529" lon="3.78587">
        <ele>188</ele>
        <time>2010-12-12T09:52:39Z</time>
      </trkpt>
      <trkpt lat="43.52896" lon="3.78582">
        <ele>188.1</ele>
        <time>2010-12-12T09:52:40Z</time>
      </trkpt>
      <trkpt lat="43.52893" lon="3.78576">
        <ele>188.1</ele>
        <time>2010-12-12T09:52:41Z</time>
      </trkpt>
      <trkpt lat="43.5289" lon="3.7857">
        <ele>188.1</ele>
        <time>2010-12-12T09:52:42Z</time>
      </trkpt>
      <trkpt lat="43.52886" lon="3.78564">
        <ele>188.2</ele>
        <time>2010-12-12T09:52:43Z</time>
      </trkpt>
      <trkpt lat="43.52883" lon="3.78559">
        <ele>188.2</ele>
        <time>2010-12-12T09:52:44Z</time>
      </trkpt>
      <trkpt lat="43.52879" lon="3.78554">
        <ele>188.2</ele>
        <time>2010-12-12T09:52:45Z</time>
      </trkpt>
      <trkpt lat="43.52874" lon="3.78549">
        <ele>188.2</ele>
        <time>2010-12-12T09:52:46Z</time>
      </trkpt>
      <trkpt lat="43.5287" lon="3.78545">
        <ele>188.2</ele>
        <time>2010-12-12T09:52:47Z</time>
      </trkpt>
      <trkpt lat="43.52865" lon="3.78541">
        <ele>188.2</ele>
        <time>2010-12-12T09:52:48Z</time>
      </trkpt>
      <trkpt lat="43.5286" lon="3.78537">
        <ele>188.2</ele>
        <time>2010-12-12T09:52:49Z</time>
      </trkpt>
      <trkpt lat="43.52856" lon="3.78532">
        <ele>188.2</ele>
        <time>2010-12-12T09:52:50Z</time>
      </trkpt>
      <trkpt lat="43.52853" lon="3.78526">
        <ele>188.4</ele>
        <time>2010-12-12T09:52:51Z</time>
      </trkpt>
      <trkpt lat="43.52851" lon="3.7852">
        <ele>188.6</ele>
        <time>2010-12-12T09:52:52Z</time>
      </trkpt>
      <trkpt lat="43.52847" lon="3.78514">
        <ele>188.7</ele>
        <time>2010-12-12T09:52:53Z</time>
      </trkpt>
      <trkpt lat="43.52843" lon="3.78511">
        <ele>188.7</ele>
        <time>2010-12-12T09:52:54Z</time>
      </trkpt>
      <trkpt lat="43.52839" lon="3.78508">
        <ele>188.8</ele>
        <time>2010-12-12T09:52:55Z</time>
      </trkpt>
      <trkpt lat="43.52835" lon="3.78505">
        <ele>188.8</ele>
        <time>2010-12-12T09:52:56Z</time>
      </trkpt>
      <trkpt lat="43.52831" lon="3.78502">
        <ele>188.8</ele>
        <time>2010-12-12T09:52:57Z</time>
      </trkpt>
      <trkpt lat="43.52827" lon="3.78499">
        <ele>188.7</ele>
        <time>2010-12-12T09:52:58Z</time>
      </trkpt>
      <trkpt lat="43.52819" lon="3.78495">
        <ele>188.3</ele>
        <time>2010-12-12T09:53:00Z</time>
      </trkpt>
      <trkpt lat="43.52814" lon="3.78492">
        <ele>188.1</ele>
        <time>2010-12-12T09:53:01Z</time>
      </trkpt>
      <trkpt lat="43.5281" lon="3.78491">
        <ele>187.9</ele>
        <time>2010-12-12T09:53:02Z</time>
      </trkpt>
      <trkpt lat="43.52805" lon="3.78489">
        <ele>187.7</ele>
        <time>2010-12-12T09:53:03Z</time>
      </trkpt>
      <trkpt lat="43.528" lon="3.78488">
        <ele>187.5</ele>
        <time>2010-12-12T09:53:04Z</time>
      </trkpt>
      <trkpt lat="43.52796" lon="3.78486">
        <ele>187.4</ele>
        <time>2010-12-12T09:53:05Z</time>
      </trkpt>
      <trkpt lat="43.52791" lon="3.78484">
        <ele>187.2</ele>
        <time>2010-12-12T09:53:06Z</time>
      </trkpt>
      <trkpt lat="43.52787" lon="3.78481">
        <ele>187</ele>
        <time>2010-12-12T09:53:07Z</time>
      </trkpt>
      <trkpt lat="43.52782" lon="3.78479">
        <ele>186.9</ele>
        <time>2010-12-12T09:53:08Z</time>
      </trkpt>
      <trkpt lat="43.52778" lon="3.78477">
        <ele>186.7</ele>
        <time>2010-12-12T09:53:09Z</time>
      </trkpt>
      <trkpt lat="43.52773" lon="3.78475">
        <ele>186.6</ele>
        <time>2010-12-12T09:53:10Z</time>
      </trkpt>
      <trkpt lat="43.52769" lon="3.78472">
        <ele>186.5</ele>
        <time>2010-12-12T09:53:11Z</time>
      </trkpt>
      <trkpt lat="43.52765" lon="3.78469">
        <ele>186.3</ele>
        <time>2010-12-12T09:53:12Z</time>
      </trkpt>
      <trkpt lat="43.5276" lon="3.78467">
        <ele>186.2</ele>
        <time>2010-12-12T09:53:13Z</time>
      </trkpt>
      <trkpt lat="43.52756" lon="3.78463">
        <ele>186.1</ele>
        <time>2010-12-12T09:53:14Z</time>
      </trkpt>
      <trkpt lat="43.52752" lon="3.7846">
        <ele>186</ele>
        <time>2010-12-12T09:53:15Z</time>
      </trkpt>
      <trkpt lat="43.52748" lon="3.78455">
        <ele>185.9</ele>
        <time>2010-12-12T09:53:16Z</time>
      </trkpt>
      <trkpt lat="43.52744" lon="3.78451">
        <ele>185.8</ele>
        <time>2010-12-12T09:53:17Z</time>
      </trkpt>
      <trkpt lat="43.5274" lon="3.78447">
        <ele>185.7</ele>
        <time>2010-12-12T09:53:18Z</time>
      </trkpt>
      <trkpt lat="43.52736" lon="3.78443">
        <ele>185.6</ele>
        <time>2010-12-12T09:53:19Z</time>
      </trkpt>
      <trkpt lat="43.52732" lon="3.78438">
        <ele>185.5</ele>
        <time>2010-12-12T09:53:20Z</time>
      </trkpt>
      <trkpt lat="43.52728" lon="3.78435">
        <ele>185.4</ele>
        <time>2010-12-12T09:53:21Z</time>
      </trkpt>
      <trkpt lat="43.52724" lon="3.78433">
        <ele>185.4</ele>
        <time>2010-12-12T09:53:22Z</time>
      </trkpt>
      <trkpt lat="43.52715" lon="3.78434">
        <ele>185.2</ele>
        <time>2010-12-12T09:53:24Z</time>
      </trkpt>
      <trkpt lat="43.52707" lon="3.78436">
        <ele>184.9</ele>
        <time>2010-12-12T09:53:26Z</time>
      </trkpt>
      <trkpt lat="43.527" lon="3.78432">
        <ele>184.8</ele>
        <time>2010-12-12T09:53:28Z</time>
      </trkpt>
      <trkpt lat="43.52693" lon="3.78427">
        <ele>184.9</ele>
        <time>2010-12-12T09:53:30Z</time>
      </trkpt>
      <trkpt lat="43.52687" lon="3.78419">
        <ele>185.2</ele>
        <time>2010-12-12T09:53:32Z</time>
      </trkpt>
      <trkpt lat="43.52681" lon="3.7841">
        <ele>185.3</ele>
        <time>2010-12-12T09:53:34Z</time>
      </trkpt>
      <trkpt lat="43.52677" lon="3.78406">
        <ele>185.4</ele>
        <time>2010-12-12T09:53:35Z</time>
      </trkpt>
      <trkpt lat="43.52675" lon="3.78401">
        <ele>185.5</ele>
        <time>2010-12-12T09:53:36Z</time>
      </trkpt>
      <trkpt lat="43.5267" lon="3.7839">
        <ele>185.7</ele>
        <time>2010-12-12T09:53:38Z</time>
      </trkpt>
      <trkpt lat="43.52666" lon="3.78381">
        <ele>185.8</ele>
        <time>2010-12-12T09:53:40Z</time>
      </trkpt>
      <trkpt lat="43.52663" lon="3.78371">
        <ele>185.7</ele>
        <time>2010-12-12T09:53:42Z</time>
      </trkpt>
      <trkpt lat="43.52659" lon="3.78362">
        <ele>185.7</ele>
        <time>2010-12-12T09:53:44Z</time>
      </trkpt>
      <trkpt lat="43.52654" lon="3.78353">
        <ele>185.6</ele>
        <time>2010-12-12T09:53:46Z</time>
      </trkpt>
      <trkpt lat="43.52652" lon="3.78349">
        <ele>185.5</ele>
        <time>2010-12-12T09:53:47Z</time>
      </trkpt>
      <trkpt lat="43.52644" lon="3.78335">
        <ele>185.6</ele>
        <time>2010-12-12T09:53:50Z</time>
      </trkpt>
      <trkpt lat="43.5264" lon="3.78325">
        <ele>185.5</ele>
        <time>2010-12-12T09:53:52Z</time>
      </trkpt>
      <trkpt lat="43.52633" lon="3.78319">
        <ele>185.3</ele>
        <time>2010-12-12T09:53:54Z</time>
      </trkpt>
      <trkpt lat="43.52627" lon="3.78311">
        <ele>185.3</ele>
        <time>2010-12-12T09:53:56Z</time>
      </trkpt>
      <trkpt lat="43.52624" lon="3.783">
        <ele>185.5</ele>
        <time>2010-12-12T09:53:58Z</time>
      </trkpt>
      <trkpt lat="43.52623" lon="3.7829">
        <ele>185.8</ele>
        <time>2010-12-12T09:54:00Z</time>
      </trkpt>
      <trkpt lat="43.52622" lon="3.78281">
        <ele>186</ele>
        <time>2010-12-12T09:54:02Z</time>
      </trkpt>
      <trkpt lat="43.52618" lon="3.78274">
        <ele>186.1</ele>
        <time>2010-12-12T09:54:04Z</time>
      </trkpt>
      <trkpt lat="43.52611" lon="3.78269">
        <ele>186.2</ele>
        <time>2010-12-12T09:54:06Z</time>
      </trkpt>
      <trkpt lat="43.52604" lon="3.78265">
        <ele>186.3</ele>
        <time>2010-12-12T09:54:08Z</time>
      </trkpt>
      <trkpt lat="43.52597" lon="3.78261">
        <ele>186.5</ele>
        <time>2010-12-12T09:54:10Z</time>
      </trkpt>
      <trkpt lat="43.5259" lon="3.78257">
        <ele>186.6</ele>
        <time>2010-12-12T09:54:12Z</time>
      </trkpt>
      <trkpt lat="43.52583" lon="3.78254">
        <ele>186.7</ele>
        <time>2010-12-12T09:54:14Z</time>
      </trkpt>
      <trkpt lat="43.52576" lon="3.7825">
        <ele>186.3</ele>
        <time>2010-12-12T09:54:16Z</time>
      </trkpt>
      <trkpt lat="43.52569" lon="3.78245">
        <ele>185.7</ele>
        <time>2010-12-12T09:54:18Z</time>
      </trkpt>
      <trkpt lat="43.52563" lon="3.7824">
        <ele>185.1</ele>
        <time>2010-12-12T09:54:20Z</time>
      </trkpt>
      <trkpt lat="43.52557" lon="3.78234">
        <ele>184.5</ele>
        <time>2010-12-12T09:54:22Z</time>
      </trkpt>
      <trkpt lat="43.5255" lon="3.78232">
        <ele>184</ele>
        <time>2010-12-12T09:54:24Z</time>
      </trkpt>
      <trkpt lat="43.52542" lon="3.78229">
        <ele>183.5</ele>
        <time>2010-12-12T09:54:26Z</time>
      </trkpt>
      <trkpt lat="43.52535" lon="3.78225">
        <ele>183.1</ele>
        <time>2010-12-12T09:54:28Z</time>
      </trkpt>
      <trkpt lat="43.52528" lon="3.7822">
        <ele>182.7</ele>
        <time>2010-12-12T09:54:30Z</time>
      </trkpt>
      <trkpt lat="43.5252" lon="3.78217">
        <ele>182.3</ele>
        <time>2010-12-12T09:54:32Z</time>
      </trkpt>
      <trkpt lat="43.52513" lon="3.78218">
        <ele>181.9</ele>
        <time>2010-12-12T09:54:34Z</time>
      </trkpt>
      <trkpt lat="43.52505" lon="3.78219">
        <ele>181.4</ele>
        <time>2010-12-12T09:54:37Z</time>
      </trkpt>
      <trkpt lat="43.52498" lon="3.78221">
        <ele>180.9</ele>
        <time>2010-12-12T09:54:40Z</time>
      </trkpt>
      <trkpt lat="43.52491" lon="3.78222">
        <ele>180.4</ele>
        <time>2010-12-12T09:54:43Z</time>
      </trkpt>
      <trkpt lat="43.52483" lon="3.78223">
        <ele>179.8</ele>
        <time>2010-12-12T09:54:46Z</time>
      </trkpt>
      <trkpt lat="43.52474" lon="3.78226">
        <ele>179.1</ele>
        <time>2010-12-12T09:54:49Z</time>
      </trkpt>
      <trkpt lat="43.52471" lon="3.78228">
        <ele>178.8</ele>
        <time>2010-12-12T09:54:50Z</time>
      </trkpt>
      <trkpt lat="43.5246" lon="3.78234">
        <ele>178</ele>
        <time>2010-12-12T09:54:53Z</time>
      </trkpt>
      <trkpt lat="43.52454" lon="3.78231">
        <ele>177.7</ele>
        <time>2010-12-12T09:54:55Z</time>
      </trkpt>
      <trkpt lat="43.52449" lon="3.78225">
        <ele>177.5</ele>
        <time>2010-12-12T09:54:57Z</time>
      </trkpt>
      <trkpt lat="43.52443" lon="3.7822">
        <ele>177.2</ele>
        <time>2010-12-12T09:54:59Z</time>
      </trkpt>
      <trkpt lat="43.52436" lon="3.78216">
        <ele>176.7</ele>
        <time>2010-12-12T09:55:01Z</time>
      </trkpt>
      <trkpt lat="43.52428" lon="3.78211">
        <ele>176.3</ele>
        <time>2010-12-12T09:55:03Z</time>
      </trkpt>
      <trkpt lat="43.52424" lon="3.78207">
        <ele>176.1</ele>
        <time>2010-12-12T09:55:04Z</time>
      </trkpt>
      <trkpt lat="43.5242" lon="3.78203">
        <ele>175.8</ele>
        <time>2010-12-12T09:55:05Z</time>
      </trkpt>
      <trkpt lat="43.52416" lon="3.782">
        <ele>175.3</ele>
        <time>2010-12-12T09:55:06Z</time>
      </trkpt>
      <trkpt lat="43.52411" lon="3.78197">
        <ele>174.3</ele>
        <time>2010-12-12T09:55:07Z</time>
      </trkpt>
      <trkpt lat="43.52407" lon="3.78194">
        <ele>173.5</ele>
        <time>2010-12-12T09:55:08Z</time>
      </trkpt>
      <trkpt lat="43.52402" lon="3.78185">
        <ele>172.6</ele>
        <time>2010-12-12T09:55:10Z</time>
      </trkpt>
      <trkpt lat="43.52402" lon="3.78175">
        <ele>172.8</ele>
        <time>2010-12-12T09:55:12Z</time>
      </trkpt>
      <trkpt lat="43.52403" lon="3.78165">
        <ele>173.1</ele>
        <time>2010-12-12T09:55:14Z</time>
      </trkpt>
      <trkpt lat="43.52404" lon="3.78155">
        <ele>173.3</ele>
        <time>2010-12-12T09:55:16Z</time>
      </trkpt>
      <trkpt lat="43.52405" lon="3.78144">
        <ele>173.5</ele>
        <time>2010-12-12T09:55:18Z</time>
      </trkpt>
      <trkpt lat="43.52407" lon="3.78133">
        <ele>173.9</ele>
        <time>2010-12-12T09:55:20Z</time>
      </trkpt>
      <trkpt lat="43.52409" lon="3.78123">
        <ele>174.3</ele>
        <time>2010-12-12T09:55:22Z</time>
      </trkpt>
      <trkpt lat="43.5241" lon="3.78112">
        <ele>174.6</ele>
        <time>2010-12-12T09:55:24Z</time>
      </trkpt>
      <trkpt lat="43.52412" lon="3.781">
        <ele>174.9</ele>
        <time>2010-12-12T09:55:26Z</time>
      </trkpt>
      <trkpt lat="43.52412" lon="3.78088">
        <ele>175.1</ele>
        <time>2010-12-12T09:55:28Z</time>
      </trkpt>
      <trkpt lat="43.52413" lon="3.78076">
        <ele>175</ele>
        <time>2010-12-12T09:55:30Z</time>
      </trkpt>
      <trkpt lat="43.52412" lon="3.78065">
        <ele>174.4</ele>
        <time>2010-12-12T09:55:32Z</time>
      </trkpt>
      <trkpt lat="43.52408" lon="3.78056">
        <ele>173.5</ele>
        <time>2010-12-12T09:55:34Z</time>
      </trkpt>
      <trkpt lat="43.52404" lon="3.78047">
        <ele>172.7</ele>
        <time>2010-12-12T09:55:36Z</time>
      </trkpt>
      <trkpt lat="43.52402" lon="3.78041">
        <ele>172.3</ele>
        <time>2010-12-12T09:55:37Z</time>
      </trkpt>
      <trkpt lat="43.52401" lon="3.78035">
        <ele>172.1</ele>
        <time>2010-12-12T09:55:38Z</time>
      </trkpt>
      <trkpt lat="43.52399" lon="3.78029">
        <ele>171.7</ele>
        <time>2010-12-12T09:55:39Z</time>
      </trkpt>
      <trkpt lat="43.52396" lon="3.78023">
        <ele>171.4</ele>
        <time>2010-12-12T09:55:40Z</time>
      </trkpt>
      <trkpt lat="43.52391" lon="3.78015">
        <ele>170.8</ele>
        <time>2010-12-12T09:55:42Z</time>
      </trkpt>
      <trkpt lat="43.52386" lon="3.78006">
        <ele>170.3</ele>
        <time>2010-12-12T09:56:15Z</time>
      </trkpt>
      <trkpt lat="43.52385" lon="3.78005">
        <ele>170.2</ele>
        <time>2010-12-12T09:56:16Z</time>
      </trkpt>
      <trkpt lat="43.52374" lon="3.77996">
        <ele>169.4</ele>
        <time>2010-12-12T09:56:31Z</time>
      </trkpt>
      <trkpt lat="43.52369" lon="3.77994">
        <ele>168.8</ele>
        <time>2010-12-12T09:56:33Z</time>
      </trkpt>
      <trkpt lat="43.52361" lon="3.77992">
        <ele>168.3</ele>
        <time>2010-12-12T09:56:35Z</time>
      </trkpt>
      <trkpt lat="43.52354" lon="3.7799">
        <ele>167.7</ele>
        <time>2010-12-12T09:56:37Z</time>
      </trkpt>
      <trkpt lat="43.52348" lon="3.77983">
        <ele>167.4</ele>
        <time>2010-12-12T09:56:39Z</time>
      </trkpt>
      <trkpt lat="43.52343" lon="3.77975">
        <ele>167.2</ele>
        <time>2010-12-12T09:56:41Z</time>
      </trkpt>
      <trkpt lat="43.52338" lon="3.77966">
        <ele>167</ele>
        <time>2010-12-12T09:56:43Z</time>
      </trkpt>
      <trkpt lat="43.52336" lon="3.77961">
        <ele>167</ele>
        <time>2010-12-12T09:56:44Z</time>
      </trkpt>
      <trkpt lat="43.52333" lon="3.77956">
        <ele>167</ele>
        <time>2010-12-12T09:56:45Z</time>
      </trkpt>
      <trkpt lat="43.52329" lon="3.77951">
        <ele>166.5</ele>
        <time>2010-12-12T09:56:46Z</time>
      </trkpt>
      <trkpt lat="43.52326" lon="3.77946">
        <ele>166.1</ele>
        <time>2010-12-12T09:56:47Z</time>
      </trkpt>
      <trkpt lat="43.52321" lon="3.77942">
        <ele>165.6</ele>
        <time>2010-12-12T09:56:48Z</time>
      </trkpt>
      <trkpt lat="43.52317" lon="3.77937">
        <ele>165.1</ele>
        <time>2010-12-12T09:56:49Z</time>
      </trkpt>
      <trkpt lat="43.52313" lon="3.77932">
        <ele>164.8</ele>
        <time>2010-12-12T09:56:50Z</time>
      </trkpt>
      <trkpt lat="43.52309" lon="3.77926">
        <ele>164.5</ele>
        <time>2010-12-12T09:56:51Z</time>
      </trkpt>
      <trkpt lat="43.52305" lon="3.77921">
        <ele>164.3</ele>
        <time>2010-12-12T09:56:52Z</time>
      </trkpt>
      <trkpt lat="43.523" lon="3.77915">
        <ele>163.9</ele>
        <time>2010-12-12T09:56:53Z</time>
      </trkpt>
      <trkpt lat="43.52296" lon="3.7791">
        <ele>163.1</ele>
        <time>2010-12-12T09:56:54Z</time>
      </trkpt>
      <trkpt lat="43.52291" lon="3.77905">
        <ele>162.2</ele>
        <time>2010-12-12T09:56:55Z</time>
      </trkpt>
      <trkpt lat="43.52286" lon="3.77902">
        <ele>161.4</ele>
        <time>2010-12-12T09:56:56Z</time>
      </trkpt>
      <trkpt lat="43.52281" lon="3.77898">
        <ele>160.7</ele>
        <time>2010-12-12T09:56:57Z</time>
      </trkpt>
      <trkpt lat="43.52274" lon="3.77891">
        <ele>159.7</ele>
        <time>2010-12-12T09:56:59Z</time>
      </trkpt>
      <trkpt lat="43.52271" lon="3.7788">
        <ele>159</ele>
        <time>2010-12-12T09:57:01Z</time>
      </trkpt>
      <trkpt lat="43.52267" lon="3.77869">
        <ele>158.2</ele>
        <time>2010-12-12T09:57:03Z</time>
      </trkpt>
      <trkpt lat="43.52266" lon="3.77863">
        <ele>157.9</ele>
        <time>2010-12-12T09:57:04Z</time>
      </trkpt>
      <trkpt lat="43.52264" lon="3.77857">
        <ele>157.5</ele>
        <time>2010-12-12T09:57:05Z</time>
      </trkpt>
      <trkpt lat="43.52262" lon="3.77852">
        <ele>157.2</ele>
        <time>2010-12-12T09:57:06Z</time>
      </trkpt>
      <trkpt lat="43.52258" lon="3.77846">
        <ele>156.8</ele>
        <time>2010-12-12T09:57:07Z</time>
      </trkpt>
      <trkpt lat="43.52254" lon="3.77843">
        <ele>156.5</ele>
        <time>2010-12-12T09:57:08Z</time>
      </trkpt>
      <trkpt lat="43.5225" lon="3.7784">
        <ele>156.1</ele>
        <time>2010-12-12T09:57:09Z</time>
      </trkpt>
      <trkpt lat="43.52245" lon="3.77837">
        <ele>155.5</ele>
        <time>2010-12-12T09:57:10Z</time>
      </trkpt>
      <trkpt lat="43.52239" lon="3.77836">
        <ele>155</ele>
        <time>2010-12-12T09:57:11Z</time>
      </trkpt>
      <trkpt lat="43.52234" lon="3.77836">
        <ele>154.4</ele>
        <time>2010-12-12T09:57:12Z</time>
      </trkpt>
      <trkpt lat="43.52228" lon="3.77836">
        <ele>153.9</ele>
        <time>2010-12-12T09:57:13Z</time>
      </trkpt>
      <trkpt lat="43.52223" lon="3.77836">
        <ele>153.3</ele>
        <time>2010-12-12T09:57:14Z</time>
      </trkpt>
      <trkpt lat="43.52217" lon="3.77835">
        <ele>152.8</ele>
        <time>2010-12-12T09:57:15Z</time>
      </trkpt>
      <trkpt lat="43.52212" lon="3.77832">
        <ele>152.2</ele>
        <time>2010-12-12T09:57:16Z</time>
      </trkpt>
      <trkpt lat="43.52207" lon="3.77828">
        <ele>151.4</ele>
        <time>2010-12-12T09:57:17Z</time>
      </trkpt>
      <trkpt lat="43.52202" lon="3.77824">
        <ele>150.6</ele>
        <time>2010-12-12T09:57:18Z</time>
      </trkpt>
      <trkpt lat="43.52198" lon="3.7782">
        <ele>150</ele>
        <time>2010-12-12T09:57:19Z</time>
      </trkpt>
      <trkpt lat="43.52194" lon="3.77816">
        <ele>149.4</ele>
        <time>2010-12-12T09:57:20Z</time>
      </trkpt>
      <trkpt lat="43.52189" lon="3.77812">
        <ele>148.8</ele>
        <time>2010-12-12T09:57:21Z</time>
      </trkpt>
      <trkpt lat="43.52185" lon="3.77809">
        <ele>148.3</ele>
        <time>2010-12-12T09:57:22Z</time>
      </trkpt>
      <trkpt lat="43.5218" lon="3.77806">
        <ele>147.8</ele>
        <time>2010-12-12T09:57:23Z</time>
      </trkpt>
      <trkpt lat="43.52174" lon="3.77803">
        <ele>147.3</ele>
        <time>2010-12-12T09:57:24Z</time>
      </trkpt>
      <trkpt lat="43.52169" lon="3.77802">
        <ele>147</ele>
        <time>2010-12-12T09:57:25Z</time>
      </trkpt>
      <trkpt lat="43.52164" lon="3.77803">
        <ele>146.6</ele>
        <time>2010-12-12T09:57:26Z</time>
      </trkpt>
      <trkpt lat="43.5216" lon="3.77805">
        <ele>146.1</ele>
        <time>2010-12-12T09:57:27Z</time>
      </trkpt>
      <trkpt lat="43.52155" lon="3.77807">
        <ele>145.7</ele>
        <time>2010-12-12T09:57:28Z</time>
      </trkpt>
      <trkpt lat="43.52147" lon="3.77808">
        <ele>144.7</ele>
        <time>2010-12-12T09:57:30Z</time>
      </trkpt>
      <trkpt lat="43.52139" lon="3.77803">
        <ele>143.7</ele>
        <time>2010-12-12T09:57:32Z</time>
      </trkpt>
      <trkpt lat="43.52136" lon="3.77799">
        <ele>143.3</ele>
        <time>2010-12-12T09:57:33Z</time>
      </trkpt>
      <trkpt lat="43.52134" lon="3.77794">
        <ele>142.9</ele>
        <time>2010-12-12T09:57:34Z</time>
      </trkpt>
      <trkpt lat="43.52131" lon="3.77789">
        <ele>142.6</ele>
        <time>2010-12-12T09:57:35Z</time>
      </trkpt>
      <trkpt lat="43.52128" lon="3.77783">
        <ele>142.3</ele>
        <time>2010-12-12T09:57:36Z</time>
      </trkpt>
      <trkpt lat="43.52125" lon="3.77778">
        <ele>142</ele>
        <time>2010-12-12T09:57:37Z</time>
      </trkpt>
      <trkpt lat="43.52122" lon="3.77772">
        <ele>141.7</ele>
        <time>2010-12-12T09:57:38Z</time>
      </trkpt>
      <trkpt lat="43.52116" lon="3.77762">
        <ele>141.3</ele>
        <time>2010-12-12T09:57:40Z</time>
      </trkpt>
      <trkpt lat="43.52113" lon="3.77758">
        <ele>141</ele>
        <time>2010-12-12T09:57:41Z</time>
      </trkpt>
      <trkpt lat="43.52109" lon="3.77754">
        <ele>140.8</ele>
        <time>2010-12-12T09:57:42Z</time>
      </trkpt>
      <trkpt lat="43.52106" lon="3.7775">
        <ele>140.6</ele>
        <time>2010-12-12T09:57:43Z</time>
      </trkpt>
      <trkpt lat="43.52102" lon="3.77745">
        <ele>140.1</ele>
        <time>2010-12-12T09:57:44Z</time>
      </trkpt>
      <trkpt lat="43.52099" lon="3.77741">
        <ele>139.6</ele>
        <time>2010-12-12T09:57:45Z</time>
      </trkpt>
      <trkpt lat="43.52095" lon="3.77736">
        <ele>139.1</ele>
        <time>2010-12-12T09:57:46Z</time>
      </trkpt>
      <trkpt lat="43.52093" lon="3.7773">
        <ele>138.6</ele>
        <time>2010-12-12T09:57:47Z</time>
      </trkpt>
      <trkpt lat="43.52091" lon="3.77723">
        <ele>138.1</ele>
        <time>2010-12-12T09:57:48Z</time>
      </trkpt>
      <trkpt lat="43.52089" lon="3.77717">
        <ele>137.7</ele>
        <time>2010-12-12T09:57:49Z</time>
      </trkpt>
      <trkpt lat="43.52087" lon="3.77711">
        <ele>137.3</ele>
        <time>2010-12-12T09:57:50Z</time>
      </trkpt>
      <trkpt lat="43.52086" lon="3.77705">
        <ele>136.9</ele>
        <time>2010-12-12T09:57:51Z</time>
      </trkpt>
      <trkpt lat="43.52084" lon="3.77698">
        <ele>136.6</ele>
        <time>2010-12-12T09:57:52Z</time>
      </trkpt>
      <trkpt lat="43.52081" lon="3.77693">
        <ele>136</ele>
        <time>2010-12-12T09:57:53Z</time>
      </trkpt>
      <trkpt lat="43.52078" lon="3.77687">
        <ele>135.4</ele>
        <time>2010-12-12T09:57:54Z</time>
      </trkpt>
      <trkpt lat="43.52074" lon="3.77682">
        <ele>134.8</ele>
        <time>2010-12-12T09:57:55Z</time>
      </trkpt>
      <trkpt lat="43.52072" lon="3.77675">
        <ele>134.2</ele>
        <time>2010-12-12T09:57:56Z</time>
      </trkpt>
      <trkpt lat="43.5207" lon="3.77668">
        <ele>133.7</ele>
        <time>2010-12-12T09:57:57Z</time>
      </trkpt>
      <trkpt lat="43.52067" lon="3.77661">
        <ele>133.2</ele>
        <time>2010-12-12T09:57:58Z</time>
      </trkpt>
      <trkpt lat="43.52065" lon="3.77654">
        <ele>132.6</ele>
        <time>2010-12-12T09:57:59Z</time>
      </trkpt>
      <trkpt lat="43.52063" lon="3.77648">
        <ele>132</ele>
        <time>2010-12-12T09:58:00Z</time>
      </trkpt>
      <trkpt lat="43.52061" lon="3.77641">
        <ele>131.5</ele>
        <time>2010-12-12T09:58:01Z</time>
      </trkpt>
      <trkpt lat="43.5206" lon="3.77634">
        <ele>130.9</ele>
        <time>2010-12-12T09:58:02Z</time>
      </trkpt>
      <trkpt lat="43.52058" lon="3.77627">
        <ele>130.4</ele>
        <time>2010-12-12T09:58:03Z</time>
      </trkpt>
      <trkpt lat="43.52057" lon="3.7762">
        <ele>129.9</ele>
        <time>2010-12-12T09:58:04Z</time>
      </trkpt>
      <trkpt lat="43.52058" lon="3.77613">
        <ele>129.6</ele>
        <time>2010-12-12T09:58:05Z</time>
      </trkpt>
      <trkpt lat="43.5206" lon="3.77606">
        <ele>129.4</ele>
        <time>2010-12-12T09:58:06Z</time>
      </trkpt>
      <trkpt lat="43.52062" lon="3.77599">
        <ele>129.2</ele>
        <time>2010-12-12T09:58:07Z</time>
      </trkpt>
      <trkpt lat="43.52063" lon="3.77592">
        <ele>129</ele>
        <time>2010-12-12T09:58:08Z</time>
      </trkpt>
      <trkpt lat="43.52065" lon="3.77585">
        <ele>128.9</ele>
        <time>2010-12-12T09:58:09Z</time>
      </trkpt>
      <trkpt lat="43.52067" lon="3.77578">
        <ele>128.7</ele>
        <time>2010-12-12T09:58:10Z</time>
      </trkpt>
      <trkpt lat="43.52069" lon="3.77572">
        <ele>128.6</ele>
        <time>2010-12-12T09:58:11Z</time>
      </trkpt>
      <trkpt lat="43.52072" lon="3.77566">
        <ele>128.6</ele>
        <time>2010-12-12T09:58:12Z</time>
      </trkpt>
      <trkpt lat="43.52074" lon="3.7756">
        <ele>128.5</ele>
        <time>2010-12-12T09:58:13Z</time>
      </trkpt>
      <trkpt lat="43.52074" lon="3.77553">
        <ele>128.2</ele>
        <time>2010-12-12T09:58:14Z</time>
      </trkpt>
      <trkpt lat="43.52073" lon="3.77547">
        <ele>127.7</ele>
        <time>2010-12-12T09:58:15Z</time>
      </trkpt>
      <trkpt lat="43.52071" lon="3.7754">
        <ele>127.1</ele>
        <time>2010-12-12T09:58:16Z</time>
      </trkpt>
      <trkpt lat="43.52068" lon="3.77529">
        <ele>126.2</ele>
        <time>2010-12-12T09:58:18Z</time>
      </trkpt>
      <trkpt lat="43.52068" lon="3.77527">
        <ele>126</ele>
        <time>2010-12-12T09:58:19Z</time>
      </trkpt>
      <trkpt lat="43.52062" lon="3.77511">
        <ele>124.6</ele>
        <time>2010-12-12T09:58:28Z</time>
      </trkpt>
      <trkpt lat="43.52056" lon="3.77507">
        <ele>123.7</ele>
        <time>2010-12-12T09:58:30Z</time>
      </trkpt>
      <trkpt lat="43.52048" lon="3.77506">
        <ele>122.9</ele>
        <time>2010-12-12T09:58:32Z</time>
      </trkpt>
      <trkpt lat="43.5204" lon="3.77504">
        <ele>122</ele>
        <time>2010-12-12T09:58:34Z</time>
      </trkpt>
      <trkpt lat="43.52034" lon="3.775">
        <ele>121.2</ele>
        <time>2010-12-12T09:58:36Z</time>
      </trkpt>
      <trkpt lat="43.52029" lon="3.7749">
        <ele>120.9</ele>
        <time>2010-12-12T09:58:39Z</time>
      </trkpt>
      <trkpt lat="43.52025" lon="3.7748">
        <ele>120.6</ele>
        <time>2010-12-12T09:58:41Z</time>
      </trkpt>
      <trkpt lat="43.52022" lon="3.77475">
        <ele>120.5</ele>
        <time>2010-12-12T09:58:42Z</time>
      </trkpt>
      <trkpt lat="43.52019" lon="3.7747">
        <ele>120.3</ele>
        <time>2010-12-12T09:58:43Z</time>
      </trkpt>
      <trkpt lat="43.52016" lon="3.77465">
        <ele>120.1</ele>
        <time>2010-12-12T09:58:44Z</time>
      </trkpt>
      <trkpt lat="43.52012" lon="3.77456">
        <ele>120</ele>
        <time>2010-12-12T09:58:46Z</time>
      </trkpt>
      <trkpt lat="43.5201" lon="3.77446">
        <ele>120</ele>
        <time>2010-12-12T09:58:48Z</time>
      </trkpt>
      <trkpt lat="43.52007" lon="3.77435">
        <ele>120</ele>
        <time>2010-12-12T09:58:50Z</time>
      </trkpt>
      <trkpt lat="43.52001" lon="3.77427">
        <ele>119.8</ele>
        <time>2010-12-12T09:58:52Z</time>
      </trkpt>
      <trkpt lat="43.51993" lon="3.77421">
        <ele>118.8</ele>
        <time>2010-12-12T09:58:54Z</time>
      </trkpt>
      <trkpt lat="43.51989" lon="3.77417">
        <ele>118.3</ele>
        <time>2010-12-12T09:58:55Z</time>
      </trkpt>
      <trkpt lat="43.51985" lon="3.77414">
        <ele>117.7</ele>
        <time>2010-12-12T09:58:56Z</time>
      </trkpt>
      <trkpt lat="43.51981" lon="3.77411">
        <ele>117.1</ele>
        <time>2010-12-12T09:58:57Z</time>
      </trkpt>
      <trkpt lat="43.51977" lon="3.77407">
        <ele>116.5</ele>
        <time>2010-12-12T09:58:58Z</time>
      </trkpt>
      <trkpt lat="43.51972" lon="3.77402">
        <ele>116</ele>
        <time>2010-12-12T09:58:59Z</time>
      </trkpt>
      <trkpt lat="43.51968" lon="3.77398">
        <ele>115.5</ele>
        <time>2010-12-12T09:59:00Z</time>
      </trkpt>
      <trkpt lat="43.51964" lon="3.77393">
        <ele>115.1</ele>
        <time>2010-12-12T09:59:01Z</time>
      </trkpt>
      <trkpt lat="43.5196" lon="3.77387">
        <ele>114.8</ele>
        <time>2010-12-12T09:59:02Z</time>
      </trkpt>
      <trkpt lat="43.51957" lon="3.77381">
        <ele>114.6</ele>
        <time>2010-12-12T09:59:03Z</time>
      </trkpt>
      <trkpt lat="43.51953" lon="3.77375">
        <ele>114.4</ele>
        <time>2010-12-12T09:59:04Z</time>
      </trkpt>
      <trkpt lat="43.51949" lon="3.77369">
        <ele>114.2</ele>
        <time>2010-12-12T09:59:05Z</time>
      </trkpt>
      <trkpt lat="43.51945" lon="3.77363">
        <ele>114</ele>
        <time>2010-12-12T09:59:06Z</time>
      </trkpt>
      <trkpt lat="43.5194" lon="3.77357">
        <ele>113.8</ele>
        <time>2010-12-12T09:59:07Z</time>
      </trkpt>
      <trkpt lat="43.51935" lon="3.77352">
        <ele>113.5</ele>
        <time>2010-12-12T09:59:08Z</time>
      </trkpt>
      <trkpt lat="43.5193" lon="3.77347">
        <ele>113.3</ele>
        <time>2010-12-12T09:59:09Z</time>
      </trkpt>
      <trkpt lat="43.51925" lon="3.77341">
        <ele>113.2</ele>
        <time>2010-12-12T09:59:10Z</time>
      </trkpt>
      <trkpt lat="43.5192" lon="3.77335">
        <ele>113.2</ele>
        <time>2010-12-12T09:59:11Z</time>
      </trkpt>
      <trkpt lat="43.51916" lon="3.77329">
        <ele>113.1</ele>
        <time>2010-12-12T09:59:12Z</time>
      </trkpt>
      <trkpt lat="43.51911" lon="3.77324">
        <ele>112.8</ele>
        <time>2010-12-12T09:59:13Z</time>
      </trkpt>
      <trkpt lat="43.51906" lon="3.77319">
        <ele>112.6</ele>
        <time>2010-12-12T09:59:14Z</time>
      </trkpt>
      <trkpt lat="43.51901" lon="3.77314">
        <ele>112.3</ele>
        <time>2010-12-12T09:59:15Z</time>
      </trkpt>
      <trkpt lat="43.51897" lon="3.77309">
        <ele>112.2</ele>
        <time>2010-12-12T09:59:16Z</time>
      </trkpt>
      <trkpt lat="43.51892" lon="3.77304">
        <ele>112.1</ele>
        <time>2010-12-12T09:59:17Z</time>
      </trkpt>
      <trkpt lat="43.51887" lon="3.77298">
        <ele>112.1</ele>
        <time>2010-12-12T09:59:18Z</time>
      </trkpt>
      <trkpt lat="43.51883" lon="3.77292">
        <ele>112.1</ele>
        <time>2010-12-12T09:59:19Z</time>
      </trkpt>
      <trkpt lat="43.51878" lon="3.77287">
        <ele>112.1</ele>
        <time>2010-12-12T09:59:20Z</time>
      </trkpt>
      <trkpt lat="43.51874" lon="3.77282">
        <ele>112.2</ele>
        <time>2010-12-12T09:59:21Z</time>
      </trkpt>
      <trkpt lat="43.51869" lon="3.77279">
        <ele>112.2</ele>
        <time>2010-12-12T09:59:22Z</time>
      </trkpt>
      <trkpt lat="43.51865" lon="3.77275">
        <ele>112.2</ele>
        <time>2010-12-12T09:59:23Z</time>
      </trkpt>
      <trkpt lat="43.5186" lon="3.77271">
        <ele>112.2</ele>
        <time>2010-12-12T09:59:24Z</time>
      </trkpt>
      <trkpt lat="43.51855" lon="3.77268">
        <ele>112.2</ele>
        <time>2010-12-12T09:59:25Z</time>
      </trkpt>
      <trkpt lat="43.5185" lon="3.77266">
        <ele>112.1</ele>
        <time>2010-12-12T09:59:26Z</time>
      </trkpt>
      <trkpt lat="43.51845" lon="3.77264">
        <ele>112.1</ele>
        <time>2010-12-12T09:59:27Z</time>
      </trkpt>
      <trkpt lat="43.5184" lon="3.77261">
        <ele>112</ele>
        <time>2010-12-12T09:59:28Z</time>
      </trkpt>
      <trkpt lat="43.51835" lon="3.77259">
        <ele>112</ele>
        <time>2010-12-12T09:59:29Z</time>
      </trkpt>
      <trkpt lat="43.51827" lon="3.77255">
        <ele>111.7</ele>
        <time>2010-12-12T09:59:31Z</time>
      </trkpt>
      <trkpt lat="43.51821" lon="3.77251">
        <ele>111.6</ele>
        <time>2010-12-12T10:01:48Z</time>
      </trkpt>
      <trkpt lat="43.51819" lon="3.7725">
        <ele>111.5</ele>
        <time>2010-12-12T10:01:49Z</time>
      </trkpt>
      <trkpt lat="43.51809" lon="3.77233">
        <ele>111.5</ele>
        <time>2010-12-12T10:01:56Z</time>
      </trkpt>
      <trkpt lat="43.51812" lon="3.77222">
        <ele>112.5</ele>
        <time>2010-12-12T10:02:01Z</time>
      </trkpt>
      <trkpt lat="43.51807" lon="3.77214">
        <ele>112.6</ele>
        <time>2010-12-12T10:02:07Z</time>
      </trkpt>
      <trkpt lat="43.51801" lon="3.77206">
        <ele>112.6</ele>
        <time>2010-12-12T10:02:11Z</time>
      </trkpt>
      <trkpt lat="43.51794" lon="3.77198">
        <ele>112.5</ele>
        <time>2010-12-12T10:02:14Z</time>
      </trkpt>
      <trkpt lat="43.51789" lon="3.77191">
        <ele>112.5</ele>
        <time>2010-12-12T10:02:16Z</time>
      </trkpt>
      <trkpt lat="43.51784" lon="3.77184">
        <ele>112.6</ele>
        <time>2010-12-12T10:02:18Z</time>
      </trkpt>
      <trkpt lat="43.51778" lon="3.77177">
        <ele>112.6</ele>
        <time>2010-12-12T10:02:20Z</time>
      </trkpt>
      <trkpt lat="43.51773" lon="3.7717">
        <ele>112.6</ele>
        <time>2010-12-12T10:02:22Z</time>
      </trkpt>
      <trkpt lat="43.51768" lon="3.77164">
        <ele>112.5</ele>
        <time>2010-12-12T10:02:24Z</time>
      </trkpt>
      <trkpt lat="43.51762" lon="3.77155">
        <ele>112</ele>
        <time>2010-12-12T10:02:27Z</time>
      </trkpt>
      <trkpt lat="43.51757" lon="3.77148">
        <ele>111.6</ele>
        <time>2010-12-12T10:02:30Z</time>
      </trkpt>
      <trkpt lat="43.51751" lon="3.77142">
        <ele>111</ele>
        <time>2010-12-12T10:02:33Z</time>
      </trkpt>
      <trkpt lat="43.51744" lon="3.77137">
        <ele>110</ele>
        <time>2010-12-12T10:02:36Z</time>
      </trkpt>
      <trkpt lat="43.51739" lon="3.77133">
        <ele>109.2</ele>
        <time>2010-12-12T10:02:38Z</time>
      </trkpt>
      <trkpt lat="43.51733" lon="3.77127">
        <ele>108.3</ele>
        <time>2010-12-12T10:02:40Z</time>
      </trkpt>
      <trkpt lat="43.51727" lon="3.77121">
        <ele>107.4</ele>
        <time>2010-12-12T10:02:42Z</time>
      </trkpt>
      <trkpt lat="43.51722" lon="3.77116">
        <ele>106.5</ele>
        <time>2010-12-12T10:02:44Z</time>
      </trkpt>
      <trkpt lat="43.51715" lon="3.77109">
        <ele>105.4</ele>
        <time>2010-12-12T10:02:47Z</time>
      </trkpt>
      <trkpt lat="43.5171" lon="3.77104">
        <ele>104.4</ele>
        <time>2010-12-12T10:02:49Z</time>
      </trkpt>
      <trkpt lat="43.51707" lon="3.77101">
        <ele>103.9</ele>
        <time>2010-12-12T10:02:50Z</time>
      </trkpt>
      <trkpt lat="43.51698" lon="3.77095">
        <ele>102.5</ele>
        <time>2010-12-12T10:02:53Z</time>
      </trkpt>
      <trkpt lat="43.51693" lon="3.77089">
        <ele>101.6</ele>
        <time>2010-12-12T10:02:55Z</time>
      </trkpt>
      <trkpt lat="43.51687" lon="3.77081">
        <ele>100.2</ele>
        <time>2010-12-12T10:02:58Z</time>
      </trkpt>
      <trkpt lat="43.51681" lon="3.77075">
        <ele>98.9</ele>
        <time>2010-12-12T10:03:01Z</time>
      </trkpt>
      <trkpt lat="43.51673" lon="3.7707">
        <ele>97.5</ele>
        <time>2010-12-12T10:03:04Z</time>
      </trkpt>
      <trkpt lat="43.51667" lon="3.77064">
        <ele>96.1</ele>
        <time>2010-12-12T10:03:07Z</time>
      </trkpt>
      <trkpt lat="43.51662" lon="3.77059">
        <ele>95.2</ele>
        <time>2010-12-12T10:03:09Z</time>
      </trkpt>
      <trkpt lat="43.51657" lon="3.77054">
        <ele>94.2</ele>
        <time>2010-12-12T10:03:11Z</time>
      </trkpt>
      <trkpt lat="43.51651" lon="3.77049">
        <ele>93.2</ele>
        <time>2010-12-12T10:03:13Z</time>
      </trkpt>
      <trkpt lat="43.51644" lon="3.77043">
        <ele>91.9</ele>
        <time>2010-12-12T10:03:15Z</time>
      </trkpt>
      <trkpt lat="43.5164" lon="3.77039">
        <ele>91.2</ele>
        <time>2010-12-12T10:03:16Z</time>
      </trkpt>
      <trkpt lat="43.51635" lon="3.77034">
        <ele>90.3</ele>
        <time>2010-12-12T10:03:17Z</time>
      </trkpt>
      <trkpt lat="43.5163" lon="3.77029">
        <ele>89.4</ele>
        <time>2010-12-12T10:03:18Z</time>
      </trkpt>
      <trkpt lat="43.51625" lon="3.77024">
        <ele>88.4</ele>
        <time>2010-12-12T10:03:19Z</time>
      </trkpt>
      <trkpt lat="43.51619" lon="3.77019">
        <ele>87.4</ele>
        <time>2010-12-12T10:03:20Z</time>
      </trkpt>
      <trkpt lat="43.51613" lon="3.77013">
        <ele>86.5</ele>
        <time>2010-12-12T10:03:21Z</time>
      </trkpt>
      <trkpt lat="43.51607" lon="3.77008">
        <ele>85.5</ele>
        <time>2010-12-12T10:03:22Z</time>
      </trkpt>
      <trkpt lat="43.51602" lon="3.77004">
        <ele>84.6</ele>
        <time>2010-12-12T10:03:23Z</time>
      </trkpt>
      <trkpt lat="43.51597" lon="3.76999">
        <ele>83.8</ele>
        <time>2010-12-12T10:03:24Z</time>
      </trkpt>
      <trkpt lat="43.51589" lon="3.76995">
        <ele>82.8</ele>
        <time>2010-12-12T10:04:57Z</time>
      </trkpt>
      <trkpt lat="43.51589" lon="3.76995">
        <ele>82.7</ele>
        <time>2010-12-12T10:04:58Z</time>
      </trkpt>
      <trkpt lat="43.51582" lon="3.76987">
        <ele>82.2</ele>
        <time>2010-12-12T10:06:34Z</time>
      </trkpt>
      <trkpt lat="43.51575" lon="3.76972">
        <ele>82.4</ele>
        <time>2010-12-12T10:06:38Z</time>
      </trkpt>
      <trkpt lat="43.51571" lon="3.76963">
        <ele>82.6</ele>
        <time>2010-12-12T10:06:40Z</time>
      </trkpt>
      <trkpt lat="43.51568" lon="3.76954">
        <ele>82.8</ele>
        <time>2010-12-12T10:06:42Z</time>
      </trkpt>
      <trkpt lat="43.51565" lon="3.76944">
        <ele>83</ele>
        <time>2010-12-12T10:06:44Z</time>
      </trkpt>
      <trkpt lat="43.5156" lon="3.76933">
        <ele>83.2</ele>
        <time>2010-12-12T10:06:46Z</time>
      </trkpt>
      <trkpt lat="43.51558" lon="3.76928">
        <ele>83.4</ele>
        <time>2010-12-12T10:06:47Z</time>
      </trkpt>
      <trkpt lat="43.51555" lon="3.76922">
        <ele>83.6</ele>
        <time>2010-12-12T10:06:48Z</time>
      </trkpt>
      <trkpt lat="43.51552" lon="3.76916">
        <ele>83.7</ele>
        <time>2010-12-12T10:06:49Z</time>
      </trkpt>
      <trkpt lat="43.51549" lon="3.76911">
        <ele>83.8</ele>
        <time>2010-12-12T10:06:50Z</time>
      </trkpt>
      <trkpt lat="43.51546" lon="3.76905">
        <ele>83.8</ele>
        <time>2010-12-12T10:06:51Z</time>
      </trkpt>
      <trkpt lat="43.51543" lon="3.76899">
        <ele>83.9</ele>
        <time>2010-12-12T10:06:52Z</time>
      </trkpt>
      <trkpt lat="43.5154" lon="3.76893">
        <ele>83.9</ele>
        <time>2010-12-12T10:06:53Z</time>
      </trkpt>
      <trkpt lat="43.51537" lon="3.76887">
        <ele>84</ele>
        <time>2010-12-12T10:06:54Z</time>
      </trkpt>
      <trkpt lat="43.51534" lon="3.76881">
        <ele>84</ele>
        <time>2010-12-12T10:06:55Z</time>
      </trkpt>
      <trkpt lat="43.51532" lon="3.76875">
        <ele>84.1</ele>
        <time>2010-12-12T10:06:56Z</time>
      </trkpt>
      <trkpt lat="43.51529" lon="3.76869">
        <ele>84.1</ele>
        <time>2010-12-12T10:06:57Z</time>
      </trkpt>
      <trkpt lat="43.51527" lon="3.76862">
        <ele>84.1</ele>
        <time>2010-12-12T10:06:58Z</time>
      </trkpt>
      <trkpt lat="43.51525" lon="3.76855">
        <ele>84.2</ele>
        <time>2010-12-12T10:06:59Z</time>
      </trkpt>
      <trkpt lat="43.51523" lon="3.76849">
        <ele>84.2</ele>
        <time>2010-12-12T10:07:00Z</time>
      </trkpt>
      <trkpt lat="43.51521" lon="3.76842">
        <ele>84.3</ele>
        <time>2010-12-12T10:07:01Z</time>
      </trkpt>
      <trkpt lat="43.5152" lon="3.76836">
        <ele>84.3</ele>
        <time>2010-12-12T10:07:02Z</time>
      </trkpt>
      <trkpt lat="43.51519" lon="3.76829">
        <ele>84.2</ele>
        <time>2010-12-12T10:07:03Z</time>
      </trkpt>
      <trkpt lat="43.51518" lon="3.76822">
        <ele>84.1</ele>
        <time>2010-12-12T10:07:04Z</time>
      </trkpt>
      <trkpt lat="43.51517" lon="3.76815">
        <ele>84</ele>
        <time>2010-12-12T10:07:05Z</time>
      </trkpt>
      <trkpt lat="43.51517" lon="3.76808">
        <ele>83.9</ele>
        <time>2010-12-12T10:07:06Z</time>
      </trkpt>
      <trkpt lat="43.51516" lon="3.76801">
        <ele>83.8</ele>
        <time>2010-12-12T10:07:07Z</time>
      </trkpt>
      <trkpt lat="43.51515" lon="3.76794">
        <ele>83.7</ele>
        <time>2010-12-12T10:07:08Z</time>
      </trkpt>
      <trkpt lat="43.51514" lon="3.76787">
        <ele>83.7</ele>
        <time>2010-12-12T10:07:09Z</time>
      </trkpt>
      <trkpt lat="43.51513" lon="3.7678">
        <ele>83.6</ele>
        <time>2010-12-12T10:07:10Z</time>
      </trkpt>
      <trkpt lat="43.51511" lon="3.76773">
        <ele>83.6</ele>
        <time>2010-12-12T10:07:11Z</time>
      </trkpt>
      <trkpt lat="43.5151" lon="3.76766">
        <ele>83.6</ele>
        <time>2010-12-12T10:07:12Z</time>
      </trkpt>
      <trkpt lat="43.51508" lon="3.7676">
        <ele>83.6</ele>
        <time>2010-12-12T10:07:13Z</time>
      </trkpt>
      <trkpt lat="43.51506" lon="3.76753">
        <ele>83.6</ele>
        <time>2010-12-12T10:07:14Z</time>
      </trkpt>
      <trkpt lat="43.51504" lon="3.76747">
        <ele>83.7</ele>
        <time>2010-12-12T10:07:15Z</time>
      </trkpt>
      <trkpt lat="43.51502" lon="3.76741">
        <ele>83.7</ele>
        <time>2010-12-12T10:07:16Z</time>
      </trkpt>
      <trkpt lat="43.515" lon="3.76734">
        <ele>83.8</ele>
        <time>2010-12-12T10:07:17Z</time>
      </trkpt>
      <trkpt lat="43.51498" lon="3.76728">
        <ele>83.9</ele>
        <time>2010-12-12T10:07:18Z</time>
      </trkpt>
      <trkpt lat="43.51496" lon="3.76722">
        <ele>84</ele>
        <time>2010-12-12T10:07:19Z</time>
      </trkpt>
      <trkpt lat="43.51494" lon="3.76716">
        <ele>84.1</ele>
        <time>2010-12-12T10:07:20Z</time>
      </trkpt>
      <trkpt lat="43.51493" lon="3.7671">
        <ele>84.2</ele>
        <time>2010-12-12T10:07:21Z</time>
      </trkpt>
      <trkpt lat="43.51491" lon="3.76704">
        <ele>84.4</ele>
        <time>2010-12-12T10:07:22Z</time>
      </trkpt>
      <trkpt lat="43.51488" lon="3.76698">
        <ele>84.5</ele>
        <time>2010-12-12T10:07:23Z</time>
      </trkpt>
      <trkpt lat="43.51485" lon="3.76693">
        <ele>84.8</ele>
        <time>2010-12-12T10:07:24Z</time>
      </trkpt>
      <trkpt lat="43.51483" lon="3.76687">
        <ele>84.9</ele>
        <time>2010-12-12T10:07:25Z</time>
      </trkpt>
      <trkpt lat="43.51481" lon="3.76681">
        <ele>85</ele>
        <time>2010-12-12T10:07:26Z</time>
      </trkpt>
      <trkpt lat="43.51479" lon="3.76675">
        <ele>85.1</ele>
        <time>2010-12-12T10:07:27Z</time>
      </trkpt>
      <trkpt lat="43.51477" lon="3.76669">
        <ele>85.2</ele>
        <time>2010-12-12T10:07:28Z</time>
      </trkpt>
      <trkpt lat="43.51475" lon="3.76663">
        <ele>85.3</ele>
        <time>2010-12-12T10:07:29Z</time>
      </trkpt>
      <trkpt lat="43.51473" lon="3.76657">
        <ele>85.2</ele>
        <time>2010-12-12T10:07:30Z</time>
      </trkpt>
      <trkpt lat="43.5147" lon="3.76651">
        <ele>85.2</ele>
        <time>2010-12-12T10:07:31Z</time>
      </trkpt>
      <trkpt lat="43.51468" lon="3.76645">
        <ele>85.2</ele>
        <time>2010-12-12T10:07:32Z</time>
      </trkpt>
      <trkpt lat="43.51466" lon="3.7664">
        <ele>85.2</ele>
        <time>2010-12-12T10:07:33Z</time>
      </trkpt>
      <trkpt lat="43.51463" lon="3.76634">
        <ele>85.2</ele>
        <time>2010-12-12T10:07:34Z</time>
      </trkpt>
      <trkpt lat="43.5146" lon="3.76628">
        <ele>85.2</ele>
        <time>2010-12-12T10:07:35Z</time>
      </trkpt>
      <trkpt lat="43.51457" lon="3.76623">
        <ele>85.3</ele>
        <time>2010-12-12T10:07:36Z</time>
      </trkpt>
      <trkpt lat="43.51454" lon="3.76618">
        <ele>85.4</ele>
        <time>2010-12-12T10:07:37Z</time>
      </trkpt>
      <trkpt lat="43.5145" lon="3.76613">
        <ele>85.5</ele>
        <time>2010-12-12T10:07:38Z</time>
      </trkpt>
      <trkpt lat="43.51447" lon="3.76608">
        <ele>85.5</ele>
        <time>2010-12-12T10:07:39Z</time>
      </trkpt>
      <trkpt lat="43.51444" lon="3.76603">
        <ele>85.6</ele>
        <time>2010-12-12T10:07:40Z</time>
      </trkpt>
      <trkpt lat="43.51441" lon="3.76598">
        <ele>85.6</ele>
        <time>2010-12-12T10:07:41Z</time>
      </trkpt>
      <trkpt lat="43.51437" lon="3.76594">
        <ele>85.7</ele>
        <time>2010-12-12T10:07:42Z</time>
      </trkpt>
      <trkpt lat="43.51434" lon="3.76589">
        <ele>85.8</ele>
        <time>2010-12-12T10:07:43Z</time>
      </trkpt>
      <trkpt lat="43.5143" lon="3.76585">
        <ele>85.9</ele>
        <time>2010-12-12T10:07:44Z</time>
      </trkpt>
      <trkpt lat="43.51426" lon="3.7658">
        <ele>86</ele>
        <time>2010-12-12T10:07:45Z</time>
      </trkpt>
      <trkpt lat="43.51423" lon="3.76576">
        <ele>86.2</ele>
        <time>2010-12-12T10:07:46Z</time>
      </trkpt>
      <trkpt lat="43.51419" lon="3.76572">
        <ele>86.3</ele>
        <time>2010-12-12T10:07:47Z</time>
      </trkpt>
      <trkpt lat="43.51415" lon="3.76567">
        <ele>86.3</ele>
        <time>2010-12-12T10:07:48Z</time>
      </trkpt>
      <trkpt lat="43.51411" lon="3.76563">
        <ele>86.4</ele>
        <time>2010-12-12T10:07:49Z</time>
      </trkpt>
      <trkpt lat="43.51407" lon="3.76559">
        <ele>86.4</ele>
        <time>2010-12-12T10:07:50Z</time>
      </trkpt>
      <trkpt lat="43.51403" lon="3.76555">
        <ele>86.4</ele>
        <time>2010-12-12T10:07:51Z</time>
      </trkpt>
      <trkpt lat="43.51399" lon="3.7655">
        <ele>86.5</ele>
        <time>2010-12-12T10:07:52Z</time>
      </trkpt>
      <trkpt lat="43.51395" lon="3.76546">
        <ele>86.6</ele>
        <time>2010-12-12T10:07:53Z</time>
      </trkpt>
      <trkpt lat="43.51391" lon="3.76542">
        <ele>86.7</ele>
        <time>2010-12-12T10:07:54Z</time>
      </trkpt>
      <trkpt lat="43.51387" lon="3.76538">
        <ele>86.8</ele>
        <time>2010-12-12T10:07:55Z</time>
      </trkpt>
      <trkpt lat="43.51383" lon="3.76534">
        <ele>86.9</ele>
        <time>2010-12-12T10:07:56Z</time>
      </trkpt>
      <trkpt lat="43.5138" lon="3.7653">
        <ele>87.1</ele>
        <time>2010-12-12T10:07:57Z</time>
      </trkpt>
      <trkpt lat="43.51376" lon="3.76526">
        <ele>87.2</ele>
        <time>2010-12-12T10:07:58Z</time>
      </trkpt>
      <trkpt lat="43.51372" lon="3.76522">
        <ele>87.4</ele>
        <time>2010-12-12T10:07:59Z</time>
      </trkpt>
      <trkpt lat="43.51368" lon="3.76519">
        <ele>87.6</ele>
        <time>2010-12-12T10:08:00Z</time>
      </trkpt>
      <trkpt lat="43.51364" lon="3.76515">
        <ele>87.8</ele>
        <time>2010-12-12T10:08:01Z</time>
      </trkpt>
      <trkpt lat="43.5136" lon="3.76512">
        <ele>88.1</ele>
        <time>2010-12-12T10:08:02Z</time>
      </trkpt>
      <trkpt lat="43.51356" lon="3.76509">
        <ele>88.3</ele>
        <time>2010-12-12T10:08:03Z</time>
      </trkpt>
      <trkpt lat="43.51352" lon="3.76505">
        <ele>88.5</ele>
        <time>2010-12-12T10:08:04Z</time>
      </trkpt>
      <trkpt lat="43.51348" lon="3.76502">
        <ele>88.8</ele>
        <time>2010-12-12T10:08:05Z</time>
      </trkpt>
      <trkpt lat="43.51344" lon="3.76498">
        <ele>89</ele>
        <time>2010-12-12T10:08:06Z</time>
      </trkpt>
      <trkpt lat="43.5134" lon="3.76495">
        <ele>89.2</ele>
        <time>2010-12-12T10:08:07Z</time>
      </trkpt>
      <trkpt lat="43.51336" lon="3.76492">
        <ele>89.4</ele>
        <time>2010-12-12T10:08:08Z</time>
      </trkpt>
      <trkpt lat="43.51332" lon="3.76488">
        <ele>89.5</ele>
        <time>2010-12-12T10:08:09Z</time>
      </trkpt>
      <trkpt lat="43.51328" lon="3.76485">
        <ele>89.6</ele>
        <time>2010-12-12T10:08:10Z</time>
      </trkpt>
      <trkpt lat="43.51323" lon="3.76482">
        <ele>89.7</ele>
        <time>2010-12-12T10:08:11Z</time>
      </trkpt>
      <trkpt lat="43.51319" lon="3.76479">
        <ele>89.8</ele>
        <time>2010-12-12T10:08:12Z</time>
      </trkpt>
      <trkpt lat="43.51315" lon="3.76476">
        <ele>90</ele>
        <time>2010-12-12T10:08:13Z</time>
      </trkpt>
      <trkpt lat="43.5131" lon="3.76473">
        <ele>90.2</ele>
        <time>2010-12-12T10:08:14Z</time>
      </trkpt>
      <trkpt lat="43.51306" lon="3.76471">
        <ele>90.4</ele>
        <time>2010-12-12T10:08:15Z</time>
      </trkpt>
      <trkpt lat="43.51302" lon="3.76468">
        <ele>90.6</ele>
        <time>2010-12-12T10:08:16Z</time>
      </trkpt>
      <trkpt lat="43.51297" lon="3.76466">
        <ele>90.8</ele>
        <time>2010-12-12T10:08:17Z</time>
      </trkpt>
      <trkpt lat="43.51293" lon="3.76463">
        <ele>91.1</ele>
        <time>2010-12-12T10:08:18Z</time>
      </trkpt>
      <trkpt lat="43.51288" lon="3.76461">
        <ele>91.3</ele>
        <time>2010-12-12T10:08:19Z</time>
      </trkpt>
      <trkpt lat="43.51284" lon="3.76458">
        <ele>91.6</ele>
        <time>2010-12-12T10:08:20Z</time>
      </trkpt>
      <trkpt lat="43.51279" lon="3.76455">
        <ele>91.8</ele>
        <time>2010-12-12T10:08:21Z</time>
      </trkpt>
      <trkpt lat="43.51271" lon="3.7645">
        <ele>92.4</ele>
        <time>2010-12-12T10:08:23Z</time>
      </trkpt>
      <trkpt lat="43.51263" lon="3.76445">
        <ele>93</ele>
        <time>2010-12-12T10:08:25Z</time>
      </trkpt>
      <trkpt lat="43.51255" lon="3.76441">
        <ele>93.6</ele>
        <time>2010-12-12T10:08:27Z</time>
      </trkpt>
      <trkpt lat="43.51247" lon="3.76436">
        <ele>94.1</ele>
        <time>2010-12-12T10:08:29Z</time>
      </trkpt>
      <trkpt lat="43.51239" lon="3.76432">
        <ele>94.5</ele>
        <time>2010-12-12T10:08:31Z</time>
      </trkpt>
      <trkpt lat="43.51231" lon="3.76427">
        <ele>94.9</ele>
        <time>2010-12-12T10:08:33Z</time>
      </trkpt>
      <trkpt lat="43.51223" lon="3.76422">
        <ele>95.3</ele>
        <time>2010-12-12T10:08:35Z</time>
      </trkpt>
      <trkpt lat="43.51215" lon="3.76417">
        <ele>95.7</ele>
        <time>2010-12-12T10:08:37Z</time>
      </trkpt>
      <trkpt lat="43.51212" lon="3.76414">
        <ele>95.8</ele>
        <time>2010-12-12T10:08:38Z</time>
      </trkpt>
      <trkpt lat="43.51202" lon="3.76407">
        <ele>96.2</ele>
        <time>2010-12-12T10:08:41Z</time>
      </trkpt>
      <trkpt lat="43.51195" lon="3.76403">
        <ele>96.4</ele>
        <time>2010-12-12T10:08:43Z</time>
      </trkpt>
      <trkpt lat="43.51188" lon="3.76398">
        <ele>96.7</ele>
        <time>2010-12-12T10:08:45Z</time>
      </trkpt>
      <trkpt lat="43.51181" lon="3.76394">
        <ele>97</ele>
        <time>2010-12-12T10:08:47Z</time>
      </trkpt>
      <trkpt lat="43.51174" lon="3.7639">
        <ele>97.3</ele>
        <time>2010-12-12T10:08:49Z</time>
      </trkpt>
      <trkpt lat="43.51168" lon="3.76386">
        <ele>97.6</ele>
        <time>2010-12-12T10:08:51Z</time>
      </trkpt>
      <trkpt lat="43.51161" lon="3.76383">
        <ele>97.8</ele>
        <time>2010-12-12T10:08:53Z</time>
      </trkpt>
      <trkpt lat="43.51155" lon="3.76378">
        <ele>97.9</ele>
        <time>2010-12-12T10:08:55Z</time>
      </trkpt>
      <trkpt lat="43.51149" lon="3.76373">
        <ele>98.1</ele>
        <time>2010-12-12T10:08:57Z</time>
      </trkpt>
      <trkpt lat="43.51142" lon="3.7637">
        <ele>98.4</ele>
        <time>2010-12-12T10:08:59Z</time>
      </trkpt>
      <trkpt lat="43.51135" lon="3.76367">
        <ele>98.6</ele>
        <time>2010-12-12T10:09:01Z</time>
      </trkpt>
      <trkpt lat="43.51128" lon="3.76364">
        <ele>98.9</ele>
        <time>2010-12-12T10:09:03Z</time>
      </trkpt>
      <trkpt lat="43.51122" lon="3.76362">
        <ele>99.1</ele>
        <time>2010-12-12T10:09:05Z</time>
      </trkpt>
      <trkpt lat="43.51115" lon="3.7636">
        <ele>99.4</ele>
        <time>2010-12-12T10:09:07Z</time>
      </trkpt>
      <trkpt lat="43.51108" lon="3.76358">
        <ele>99.7</ele>
        <time>2010-12-12T10:09:09Z</time>
      </trkpt>
      <trkpt lat="43.51101" lon="3.76357">
        <ele>100</ele>
        <time>2010-12-12T10:09:11Z</time>
      </trkpt>
      <trkpt lat="43.51094" lon="3.76355">
        <ele>100.3</ele>
        <time>2010-12-12T10:09:13Z</time>
      </trkpt>
      <trkpt lat="43.51088" lon="3.76353">
        <ele>100.6</ele>
        <time>2010-12-12T10:09:15Z</time>
      </trkpt>
      <trkpt lat="43.51081" lon="3.76349">
        <ele>100.9</ele>
        <time>2010-12-12T10:09:17Z</time>
      </trkpt>
      <trkpt lat="43.51074" lon="3.76346">
        <ele>101.3</ele>
        <time>2010-12-12T10:09:19Z</time>
      </trkpt>
      <trkpt lat="43.51068" lon="3.76343">
        <ele>101.7</ele>
        <time>2010-12-12T10:09:21Z</time>
      </trkpt>
      <trkpt lat="43.51061" lon="3.76339">
        <ele>102</ele>
        <time>2010-12-12T10:09:23Z</time>
      </trkpt>
      <trkpt lat="43.51055" lon="3.76335">
        <ele>102.3</ele>
        <time>2010-12-12T10:09:25Z</time>
      </trkpt>
      <trkpt lat="43.51049" lon="3.76331">
        <ele>102.7</ele>
        <time>2010-12-12T10:09:27Z</time>
      </trkpt>
      <trkpt lat="43.51043" lon="3.76326">
        <ele>103.2</ele>
        <time>2010-12-12T10:09:29Z</time>
      </trkpt>
      <trkpt lat="43.51038" lon="3.7632">
        <ele>103.7</ele>
        <time>2010-12-12T10:09:31Z</time>
      </trkpt>
      <trkpt lat="43.51033" lon="3.76314">
        <ele>104.2</ele>
        <time>2010-12-12T10:09:33Z</time>
      </trkpt>
      <trkpt lat="43.51027" lon="3.76309">
        <ele>104.6</ele>
        <time>2010-12-12T10:09:35Z</time>
      </trkpt>
      <trkpt lat="43.51022" lon="3.76303">
        <ele>105</ele>
        <time>2010-12-12T10:09:37Z</time>
      </trkpt>
      <trkpt lat="43.51017" lon="3.76296">
        <ele>105.3</ele>
        <time>2010-12-12T10:09:39Z</time>
      </trkpt>
      <trkpt lat="43.51015" lon="3.76293">
        <ele>105.5</ele>
        <time>2010-12-12T10:09:40Z</time>
      </trkpt>
      <trkpt lat="43.5101" lon="3.76282">
        <ele>106</ele>
        <time>2010-12-12T10:09:43Z</time>
      </trkpt>
      <trkpt lat="43.51006" lon="3.76274">
        <ele>106.3</ele>
        <time>2010-12-12T10:09:45Z</time>
      </trkpt>
      <trkpt lat="43.51003" lon="3.76267">
        <ele>106.5</ele>
        <time>2010-12-12T10:09:47Z</time>
      </trkpt>
      <trkpt lat="43.50999" lon="3.76256">
        <ele>106.8</ele>
        <time>2010-12-12T10:09:50Z</time>
      </trkpt>
      <trkpt lat="43.50997" lon="3.76246">
        <ele>107.1</ele>
        <time>2010-12-12T10:09:53Z</time>
      </trkpt>
      <trkpt lat="43.50995" lon="3.76236">
        <ele>107.4</ele>
        <time>2010-12-12T10:09:56Z</time>
      </trkpt>
      <trkpt lat="43.50993" lon="3.76226">
        <ele>107.7</ele>
        <time>2010-12-12T10:09:59Z</time>
      </trkpt>
      <trkpt lat="43.50991" lon="3.76216">
        <ele>108</ele>
        <time>2010-12-12T10:10:02Z</time>
      </trkpt>
      <trkpt lat="43.5099" lon="3.76205">
        <ele>108.4</ele>
        <time>2010-12-12T10:10:05Z</time>
      </trkpt>
      <trkpt lat="43.5099" lon="3.76197">
        <ele>108.7</ele>
        <time>2010-12-12T10:10:07Z</time>
      </trkpt>
      <trkpt lat="43.50987" lon="3.76185">
        <ele>109</ele>
        <time>2010-12-12T10:10:10Z</time>
      </trkpt>
      <trkpt lat="43.50986" lon="3.76173">
        <ele>109.4</ele>
        <time>2010-12-12T10:10:13Z</time>
      </trkpt>
      <trkpt lat="43.50985" lon="3.76161">
        <ele>109.8</ele>
        <time>2010-12-12T10:10:16Z</time>
      </trkpt>
      <trkpt lat="43.50984" lon="3.76149">
        <ele>110.3</ele>
        <time>2010-12-12T10:10:19Z</time>
      </trkpt>
      <trkpt lat="43.50984" lon="3.76137">
        <ele>110.8</ele>
        <time>2010-12-12T10:10:22Z</time>
      </trkpt>
      <trkpt lat="43.50984" lon="3.76126">
        <ele>111.3</ele>
        <time>2010-12-12T10:10:25Z</time>
      </trkpt>
      <trkpt lat="43.50983" lon="3.76117">
        <ele>111.6</ele>
        <time>2010-12-12T10:10:27Z</time>
      </trkpt>
      <trkpt lat="43.50983" lon="3.76105">
        <ele>112.1</ele>
        <time>2010-12-12T10:10:30Z</time>
      </trkpt>
      <trkpt lat="43.50983" lon="3.76096">
        <ele>112.5</ele>
        <time>2010-12-12T10:10:32Z</time>
      </trkpt>
      <trkpt lat="43.50981" lon="3.76085">
        <ele>113</ele>
        <time>2010-12-12T10:10:35Z</time>
      </trkpt>
      <trkpt lat="43.5098" lon="3.76074">
        <ele>113</ele>
        <time>2010-12-12T10:10:38Z</time>
      </trkpt>
      <trkpt lat="43.50979" lon="3.76064">
        <ele>113</ele>
        <time>2010-12-12T10:10:41Z</time>
      </trkpt>
      <trkpt lat="43.50979" lon="3.76061">
        <ele>113</ele>
        <time>2010-12-12T10:10:42Z</time>
      </trkpt>
      <trkpt lat="43.50976" lon="3.76042">
        <ele>113.1</ele>
        <time>2010-12-12T10:10:49Z</time>
      </trkpt>
      <trkpt lat="43.50973" lon="3.76032">
        <ele>113.2</ele>
        <time>2010-12-12T10:10:53Z</time>
      </trkpt>
      <trkpt lat="43.5097" lon="3.76021">
        <ele>113.3</ele>
        <time>2010-12-12T10:10:58Z</time>
      </trkpt>
      <trkpt lat="43.50968" lon="3.76011">
        <ele>113.5</ele>
        <time>2010-12-12T10:11:02Z</time>
      </trkpt>
      <trkpt lat="43.50968" lon="3.76001">
        <ele>113.5</ele>
        <time>2010-12-12T10:11:04Z</time>
      </trkpt>
      <trkpt lat="43.50967" lon="3.75995">
        <ele>113.6</ele>
        <time>2010-12-12T10:11:05Z</time>
      </trkpt>
      <trkpt lat="43.50966" lon="3.75989">
        <ele>113.8</ele>
        <time>2010-12-12T10:11:06Z</time>
      </trkpt>
      <trkpt lat="43.50965" lon="3.75983">
        <ele>114</ele>
        <time>2010-12-12T10:11:07Z</time>
      </trkpt>
      <trkpt lat="43.50962" lon="3.75972">
        <ele>114.4</ele>
        <time>2010-12-12T10:11:09Z</time>
      </trkpt>
      <trkpt lat="43.5096" lon="3.75961">
        <ele>114.8</ele>
        <time>2010-12-12T10:11:11Z</time>
      </trkpt>
      <trkpt lat="43.50958" lon="3.7595">
        <ele>115.2</ele>
        <time>2010-12-12T10:12:26Z</time>
      </trkpt>
      <trkpt lat="43.50958" lon="3.75947">
        <ele>115.3</ele>
        <time>2010-12-12T10:12:27Z</time>
      </trkpt>
      <trkpt lat="43.50957" lon="3.75931">
        <ele>115.8</ele>
        <time>2010-12-12T10:12:31Z</time>
      </trkpt>
      <trkpt lat="43.50957" lon="3.75922">
        <ele>116.1</ele>
        <time>2010-12-12T10:12:33Z</time>
      </trkpt>
      <trkpt lat="43.50956" lon="3.75913">
        <ele>116.3</ele>
        <time>2010-12-12T10:12:35Z</time>
      </trkpt>
      <trkpt lat="43.50956" lon="3.75904">
        <ele>116.4</ele>
        <time>2010-12-12T10:12:37Z</time>
      </trkpt>
      <trkpt lat="43.50956" lon="3.75895">
        <ele>116.4</ele>
        <time>2010-12-12T10:12:39Z</time>
      </trkpt>
      <trkpt lat="43.50956" lon="3.75886">
        <ele>116.5</ele>
        <time>2010-12-12T10:12:41Z</time>
      </trkpt>
      <trkpt lat="43.50956" lon="3.75877">
        <ele>116.4</ele>
        <time>2010-12-12T10:12:43Z</time>
      </trkpt>
      <trkpt lat="43.50956" lon="3.75867">
        <ele>116.4</ele>
        <time>2010-12-12T10:12:45Z</time>
      </trkpt>
      <trkpt lat="43.50956" lon="3.75857">
        <ele>116.4</ele>
        <time>2010-12-12T10:12:47Z</time>
      </trkpt>
      <trkpt lat="43.50956" lon="3.75847">
        <ele>116.5</ele>
        <time>2010-12-12T10:12:49Z</time>
      </trkpt>
      <trkpt lat="43.50955" lon="3.75836">
        <ele>116.6</ele>
        <time>2010-12-12T10:12:51Z</time>
      </trkpt>
      <trkpt lat="43.50954" lon="3.75826">
        <ele>116.9</ele>
        <time>2010-12-12T10:12:53Z</time>
      </trkpt>
      <trkpt lat="43.50953" lon="3.75815">
        <ele>116.9</ele>
        <time>2010-12-12T10:12:55Z</time>
      </trkpt>
      <trkpt lat="43.5095" lon="3.75804">
        <ele>117.2</ele>
        <time>2010-12-12T10:12:57Z</time>
      </trkpt>
      <trkpt lat="43.50948" lon="3.75794">
        <ele>117.4</ele>
        <time>2010-12-12T10:12:59Z</time>
      </trkpt>
      <trkpt lat="43.50946" lon="3.75784">
        <ele>117.6</ele>
        <time>2010-12-12T10:13:01Z</time>
      </trkpt>
      <trkpt lat="43.50943" lon="3.75775">
        <ele>117.9</ele>
        <time>2010-12-12T10:13:03Z</time>
      </trkpt>
      <trkpt lat="43.50939" lon="3.75767">
        <ele>118.2</ele>
        <time>2010-12-12T10:13:05Z</time>
      </trkpt>
      <trkpt lat="43.50935" lon="3.75759">
        <ele>118.6</ele>
        <time>2010-12-12T10:13:07Z</time>
      </trkpt>
      <trkpt lat="43.50932" lon="3.75752">
        <ele>118.9</ele>
        <time>2010-12-12T10:13:09Z</time>
      </trkpt>
      <trkpt lat="43.50927" lon="3.75746">
        <ele>119.3</ele>
        <time>2010-12-12T10:13:11Z</time>
      </trkpt>
      <trkpt lat="43.50922" lon="3.7574">
        <ele>119.8</ele>
        <time>2010-12-12T10:13:13Z</time>
      </trkpt>
      <trkpt lat="43.50917" lon="3.75734">
        <ele>120.3</ele>
        <time>2010-12-12T10:13:15Z</time>
      </trkpt>
      <trkpt lat="43.5091" lon="3.75729">
        <ele>121</ele>
        <time>2010-12-12T10:13:17Z</time>
      </trkpt>
      <trkpt lat="43.50904" lon="3.75725">
        <ele>121.7</ele>
        <time>2010-12-12T10:13:19Z</time>
      </trkpt>
      <trkpt lat="43.50897" lon="3.75721">
        <ele>122.4</ele>
        <time>2010-12-12T10:13:21Z</time>
      </trkpt>
      <trkpt lat="43.50891" lon="3.75717">
        <ele>123.1</ele>
        <time>2010-12-12T10:13:23Z</time>
      </trkpt>
      <trkpt lat="43.50884" lon="3.75713">
        <ele>123.7</ele>
        <time>2010-12-12T10:13:25Z</time>
      </trkpt>
      <trkpt lat="43.50878" lon="3.75709">
        <ele>124.2</ele>
        <time>2010-12-12T10:13:27Z</time>
      </trkpt>
      <trkpt lat="43.50875" lon="3.75707">
        <ele>124.4</ele>
        <time>2010-12-12T10:13:28Z</time>
      </trkpt>
      <trkpt lat="43.50864" lon="3.757">
        <ele>125</ele>
        <time>2010-12-12T10:13:32Z</time>
      </trkpt>
      <trkpt lat="43.50856" lon="3.75695">
        <ele>125.3</ele>
        <time>2010-12-12T10:13:35Z</time>
      </trkpt>
      <trkpt lat="43.50849" lon="3.7569">
        <ele>125.6</ele>
        <time>2010-12-12T10:13:38Z</time>
      </trkpt>
      <trkpt lat="43.50842" lon="3.75686">
        <ele>125.8</ele>
        <time>2010-12-12T10:13:41Z</time>
      </trkpt>
      <trkpt lat="43.50835" lon="3.7568">
        <ele>125.8</ele>
        <time>2010-12-12T10:13:44Z</time>
      </trkpt>
      <trkpt lat="43.50828" lon="3.75676">
        <ele>125.7</ele>
        <time>2010-12-12T10:13:47Z</time>
      </trkpt>
      <trkpt lat="43.50822" lon="3.75672">
        <ele>125.8</ele>
        <time>2010-12-12T10:13:49Z</time>
      </trkpt>
      <trkpt lat="43.50814" lon="3.75668">
        <ele>126</ele>
        <time>2010-12-12T10:13:52Z</time>
      </trkpt>
      <trkpt lat="43.50806" lon="3.75665">
        <ele>126.7</ele>
        <time>2010-12-12T10:13:55Z</time>
      </trkpt>
      <trkpt lat="43.508" lon="3.75665">
        <ele>127.3</ele>
        <time>2010-12-12T10:13:57Z</time>
      </trkpt>
      <trkpt lat="43.50793" lon="3.75665">
        <ele>127.9</ele>
        <time>2010-12-12T10:13:59Z</time>
      </trkpt>
      <trkpt lat="43.50786" lon="3.75665">
        <ele>128.5</ele>
        <time>2010-12-12T10:14:01Z</time>
      </trkpt>
      <trkpt lat="43.50779" lon="3.75666">
        <ele>129.2</ele>
        <time>2010-12-12T10:14:03Z</time>
      </trkpt>
      <trkpt lat="43.50773" lon="3.75667">
        <ele>129.8</ele>
        <time>2010-12-12T10:14:05Z</time>
      </trkpt>
      <trkpt lat="43.50766" lon="3.75667">
        <ele>130.5</ele>
        <time>2010-12-12T10:14:07Z</time>
      </trkpt>
      <trkpt lat="43.50758" lon="3.75669">
        <ele>131.3</ele>
        <time>2010-12-12T10:14:10Z</time>
      </trkpt>
      <trkpt lat="43.50751" lon="3.75668">
        <ele>132</ele>
        <time>2010-12-12T10:14:13Z</time>
      </trkpt>
      <trkpt lat="43.50743" lon="3.75667">
        <ele>132.8</ele>
        <time>2010-12-12T10:14:16Z</time>
      </trkpt>
      <trkpt lat="43.50735" lon="3.75667">
        <ele>133.6</ele>
        <time>2010-12-12T10:14:19Z</time>
      </trkpt>
      <trkpt lat="43.50728" lon="3.75666">
        <ele>134.4</ele>
        <time>2010-12-12T10:14:22Z</time>
      </trkpt>
      <trkpt lat="43.50721" lon="3.75665">
        <ele>135.3</ele>
        <time>2010-12-12T10:14:25Z</time>
      </trkpt>
      <trkpt lat="43.50712" lon="3.75665">
        <ele>136.2</ele>
        <time>2010-12-12T10:14:29Z</time>
      </trkpt>
      <trkpt lat="43.5071" lon="3.75664">
        <ele>136.4</ele>
        <time>2010-12-12T10:14:30Z</time>
      </trkpt>
      <trkpt lat="43.50695" lon="3.75663">
        <ele>138.1</ele>
        <time>2010-12-12T10:14:37Z</time>
      </trkpt>
      <trkpt lat="43.50687" lon="3.75664">
        <ele>139</ele>
        <time>2010-12-12T10:14:41Z</time>
      </trkpt>
      <trkpt lat="43.50678" lon="3.75666">
        <ele>139.8</ele>
        <time>2010-12-12T10:14:46Z</time>
      </trkpt>
      <trkpt lat="43.5067" lon="3.75667">
        <ele>140.7</ele>
        <time>2010-12-12T10:14:50Z</time>
      </trkpt>
      <trkpt lat="43.50661" lon="3.75669">
        <ele>141.1</ele>
        <time>2010-12-12T10:14:54Z</time>
      </trkpt>
      <trkpt lat="43.50652" lon="3.75673">
        <ele>141.1</ele>
        <time>2010-12-12T10:14:58Z</time>
      </trkpt>
      <trkpt lat="43.50645" lon="3.75675">
        <ele>141.2</ele>
        <time>2010-12-12T10:15:01Z</time>
      </trkpt>
      <trkpt lat="43.50639" lon="3.75678">
        <ele>141.3</ele>
        <time>2010-12-12T10:15:04Z</time>
      </trkpt>
      <trkpt lat="43.50632" lon="3.75682">
        <ele>141.4</ele>
        <time>2010-12-12T10:15:07Z</time>
      </trkpt>
      <trkpt lat="43.50625" lon="3.75685">
        <ele>141.5</ele>
        <time>2010-12-12T10:15:10Z</time>
      </trkpt>
      <trkpt lat="43.50619" lon="3.75688">
        <ele>141.6</ele>
        <time>2010-12-12T10:15:13Z</time>
      </trkpt>
      <trkpt lat="43.5061" lon="3.7569">
        <ele>141.9</ele>
        <time>2010-12-12T10:15:17Z</time>
      </trkpt>
      <trkpt lat="43.50602" lon="3.75691">
        <ele>142.4</ele>
        <time>2010-12-12T10:15:21Z</time>
      </trkpt>
      <trkpt lat="43.50593" lon="3.75687">
        <ele>143.2</ele>
        <time>2010-12-12T10:15:25Z</time>
      </trkpt>
      <trkpt lat="43.50587" lon="3.75682">
        <ele>143.9</ele>
        <time>2010-12-12T10:15:28Z</time>
      </trkpt>
      <trkpt lat="43.50583" lon="3.75675">
        <ele>144.6</ele>
        <time>2010-12-12T10:15:31Z</time>
      </trkpt>
      <trkpt lat="43.50581" lon="3.75672">
        <ele>144.8</ele>
        <time>2010-12-12T10:15:32Z</time>
      </trkpt>
      <trkpt lat="43.50574" lon="3.75656">
        <ele>146.6</ele>
        <time>2010-12-12T10:15:37Z</time>
      </trkpt>
      <trkpt lat="43.5057" lon="3.75647">
        <ele>147.8</ele>
        <time>2010-12-12T10:15:40Z</time>
      </trkpt>
      <trkpt lat="43.50564" lon="3.75638">
        <ele>148.8</ele>
        <time>2010-12-12T10:15:43Z</time>
      </trkpt>
      <trkpt lat="43.50557" lon="3.75632">
        <ele>149.7</ele>
        <time>2010-12-12T10:15:46Z</time>
      </trkpt>
      <trkpt lat="43.50551" lon="3.75628">
        <ele>150.4</ele>
        <time>2010-12-12T10:15:49Z</time>
      </trkpt>
      <trkpt lat="43.50542" lon="3.75623">
        <ele>151.1</ele>
        <time>2010-12-12T10:15:53Z</time>
      </trkpt>
      <trkpt lat="43.50536" lon="3.75618">
        <ele>151.8</ele>
        <time>2010-12-12T10:15:56Z</time>
      </trkpt>
      <trkpt lat="43.5053" lon="3.75613">
        <ele>152.4</ele>
        <time>2010-12-12T10:15:59Z</time>
      </trkpt>
      <trkpt lat="43.50525" lon="3.75607">
        <ele>152.9</ele>
        <time>2010-12-12T10:16:02Z</time>
      </trkpt>
      <trkpt lat="43.50518" lon="3.75599">
        <ele>153.7</ele>
        <time>2010-12-12T10:16:06Z</time>
      </trkpt>
      <trkpt lat="43.50514" lon="3.75592">
        <ele>154.2</ele>
        <time>2010-12-12T10:16:09Z</time>
      </trkpt>
      <trkpt lat="43.50508" lon="3.75585">
        <ele>154.7</ele>
        <time>2010-12-12T10:16:12Z</time>
      </trkpt>
      <trkpt lat="43.50504" lon="3.75578">
        <ele>154.7</ele>
        <time>2010-12-12T10:16:15Z</time>
      </trkpt>
      <trkpt lat="43.50499" lon="3.7557">
        <ele>154.5</ele>
        <time>2010-12-12T10:16:18Z</time>
      </trkpt>
      <trkpt lat="43.50497" lon="3.75558">
        <ele>154.1</ele>
        <time>2010-12-12T10:16:22Z</time>
      </trkpt>
      <trkpt lat="43.50496" lon="3.75547">
        <ele>153.6</ele>
        <time>2010-12-12T10:16:26Z</time>
      </trkpt>
      <trkpt lat="43.50497" lon="3.75535">
        <ele>153.2</ele>
        <time>2010-12-12T10:16:30Z</time>
      </trkpt>
      <trkpt lat="43.50498" lon="3.75524">
        <ele>152.8</ele>
        <time>2010-12-12T10:16:34Z</time>
      </trkpt>
      <trkpt lat="43.50498" lon="3.75523">
        <ele>152.7</ele>
        <time>2010-12-12T10:16:35Z</time>
      </trkpt>
      <trkpt lat="43.50497" lon="3.75503">
        <ele>151.9</ele>
        <time>2010-12-12T10:16:40Z</time>
      </trkpt>
      <trkpt lat="43.50496" lon="3.75493">
        <ele>151.4</ele>
        <time>2010-12-12T10:16:42Z</time>
      </trkpt>
      <trkpt lat="43.50502" lon="3.75484">
        <ele>151.2</ele>
        <time>2010-12-12T10:16:58Z</time>
      </trkpt>
      <trkpt lat="43.5051" lon="3.75479">
        <ele>150.9</ele>
        <time>2010-12-12T10:17:19Z</time>
      </trkpt>
      <trkpt lat="43.50519" lon="3.75481">
        <ele>150.9</ele>
        <time>2010-12-12T10:18:51Z</time>
      </trkpt>
      <trkpt lat="43.5052" lon="3.75482">
        <ele>150.9</ele>
        <time>2010-12-12T10:18:52Z</time>
      </trkpt>
      <trkpt lat="43.50532" lon="3.75484">
        <ele>150.9</ele>
        <time>2010-12-12T10:18:56Z</time>
      </trkpt>
      <trkpt lat="43.50536" lon="3.75484">
        <ele>150.9</ele>
        <time>2010-12-12T10:18:57Z</time>
      </trkpt>
      <trkpt lat="43.50541" lon="3.75483">
        <ele>150.8</ele>
        <time>2010-12-12T10:18:58Z</time>
      </trkpt>
      <trkpt lat="43.50547" lon="3.75482">
        <ele>150.6</ele>
        <time>2010-12-12T10:18:59Z</time>
      </trkpt>
      <trkpt lat="43.50553" lon="3.75482">
        <ele>150.6</ele>
        <time>2010-12-12T10:19:00Z</time>
      </trkpt>
      <trkpt lat="43.5056" lon="3.75481">
        <ele>150.4</ele>
        <time>2010-12-12T10:19:01Z</time>
      </trkpt>
      <trkpt lat="43.50566" lon="3.75481">
        <ele>150.3</ele>
        <time>2010-12-12T10:19:02Z</time>
      </trkpt>
      <trkpt lat="43.50572" lon="3.7548">
        <ele>150.2</ele>
        <time>2010-12-12T10:19:03Z</time>
      </trkpt>
      <trkpt lat="43.50578" lon="3.7548">
        <ele>150.1</ele>
        <time>2010-12-12T10:19:04Z</time>
      </trkpt>
      <trkpt lat="43.50584" lon="3.75481">
        <ele>150.1</ele>
        <time>2010-12-12T10:19:05Z</time>
      </trkpt>
      <trkpt lat="43.50589" lon="3.75481">
        <ele>150.1</ele>
        <time>2010-12-12T10:19:06Z</time>
      </trkpt>
      <trkpt lat="43.50594" lon="3.75481">
        <ele>150</ele>
        <time>2010-12-12T10:19:07Z</time>
      </trkpt>
      <trkpt lat="43.50599" lon="3.75482">
        <ele>150.1</ele>
        <time>2010-12-12T10:19:08Z</time>
      </trkpt>
      <trkpt lat="43.50605" lon="3.75483">
        <ele>150.1</ele>
        <time>2010-12-12T10:19:09Z</time>
      </trkpt>
      <trkpt lat="43.5061" lon="3.75483">
        <ele>150.1</ele>
        <time>2010-12-12T10:19:10Z</time>
      </trkpt>
      <trkpt lat="43.50615" lon="3.75483">
        <ele>150</ele>
        <time>2010-12-12T10:19:11Z</time>
      </trkpt>
      <trkpt lat="43.5062" lon="3.75482">
        <ele>149.8</ele>
        <time>2010-12-12T10:19:12Z</time>
      </trkpt>
      <trkpt lat="43.50626" lon="3.7548">
        <ele>149.7</ele>
        <time>2010-12-12T10:19:13Z</time>
      </trkpt>
      <trkpt lat="43.50631" lon="3.75479">
        <ele>149.5</ele>
        <time>2010-12-12T10:19:14Z</time>
      </trkpt>
      <trkpt lat="43.50638" lon="3.75478">
        <ele>149.5</ele>
        <time>2010-12-12T10:19:15Z</time>
      </trkpt>
      <trkpt lat="43.50644" lon="3.75479">
        <ele>149.5</ele>
        <time>2010-12-12T10:19:16Z</time>
      </trkpt>
      <trkpt lat="43.50649" lon="3.75481">
        <ele>149.5</ele>
        <time>2010-12-12T10:19:17Z</time>
      </trkpt>
      <trkpt lat="43.50657" lon="3.75483">
        <ele>149.5</ele>
        <time>2010-12-12T10:19:19Z</time>
      </trkpt>
      <trkpt lat="43.50664" lon="3.75481">
        <ele>149.3</ele>
        <time>2010-12-12T10:19:21Z</time>
      </trkpt>
      <trkpt lat="43.5067" lon="3.75477">
        <ele>149</ele>
        <time>2010-12-12T10:19:23Z</time>
      </trkpt>
      <trkpt lat="43.50677" lon="3.75474">
        <ele>148.7</ele>
        <time>2010-12-12T10:19:25Z</time>
      </trkpt>
      <trkpt lat="43.50685" lon="3.7548">
        <ele>148.6</ele>
        <time>2010-12-12T10:19:29Z</time>
      </trkpt>
      <trkpt lat="43.5069" lon="3.75489">
        <ele>148.6</ele>
        <time>2010-12-12T10:19:34Z</time>
      </trkpt>
      <trkpt lat="43.50696" lon="3.75498">
        <ele>148.6</ele>
        <time>2010-12-12T10:19:37Z</time>
      </trkpt>
      <trkpt lat="43.50698" lon="3.75509">
        <ele>147.9</ele>
        <time>2010-12-12T10:19:39Z</time>
      </trkpt>
      <trkpt lat="43.50698" lon="3.75516">
        <ele>147.4</ele>
        <time>2010-12-12T10:19:40Z</time>
      </trkpt>
      <trkpt lat="43.50699" lon="3.75522">
        <ele>146.8</ele>
        <time>2010-12-12T10:19:41Z</time>
      </trkpt>
      <trkpt lat="43.50705" lon="3.75529">
        <ele>145.8</ele>
        <time>2010-12-12T10:19:43Z</time>
      </trkpt>
      <trkpt lat="43.50714" lon="3.75526">
        <ele>145.4</ele>
        <time>2010-12-12T10:19:45Z</time>
      </trkpt>
      <trkpt lat="43.50721" lon="3.7553">
        <ele>144.5</ele>
        <time>2010-12-12T10:19:47Z</time>
      </trkpt>
      <trkpt lat="43.50726" lon="3.75532">
        <ele>143.9</ele>
        <time>2010-12-12T10:19:48Z</time>
      </trkpt>
      <trkpt lat="43.5073" lon="3.75534">
        <ele>143.3</ele>
        <time>2010-12-12T10:19:49Z</time>
      </trkpt>
      <trkpt lat="43.50735" lon="3.75534">
        <ele>142.8</ele>
        <time>2010-12-12T10:19:50Z</time>
      </trkpt>
      <trkpt lat="43.5074" lon="3.75534">
        <ele>142.3</ele>
        <time>2010-12-12T10:19:51Z</time>
      </trkpt>
      <trkpt lat="43.50746" lon="3.75533">
        <ele>142</ele>
        <time>2010-12-12T10:19:52Z</time>
      </trkpt>
      <trkpt lat="43.50751" lon="3.75532">
        <ele>141.7</ele>
        <time>2010-12-12T10:19:53Z</time>
      </trkpt>
      <trkpt lat="43.50758" lon="3.75537">
        <ele>140</ele>
        <time>2010-12-12T10:19:55Z</time>
      </trkpt>
      <trkpt lat="43.50763" lon="3.75542">
        <ele>138.8</ele>
        <time>2010-12-12T10:19:56Z</time>
      </trkpt>
      <trkpt lat="43.50768" lon="3.75545">
        <ele>137.7</ele>
        <time>2010-12-12T10:19:57Z</time>
      </trkpt>
      <trkpt lat="43.50774" lon="3.75546">
        <ele>136.6</ele>
        <time>2010-12-12T10:19:58Z</time>
      </trkpt>
      <trkpt lat="43.5078" lon="3.75545">
        <ele>136</ele>
        <time>2010-12-12T10:19:59Z</time>
      </trkpt>
      <trkpt lat="43.50785" lon="3.75542">
        <ele>135.7</ele>
        <time>2010-12-12T10:20:00Z</time>
      </trkpt>
      <trkpt lat="43.5079" lon="3.75538">
        <ele>135.4</ele>
        <time>2010-12-12T10:20:01Z</time>
      </trkpt>
      <trkpt lat="43.50796" lon="3.75535">
        <ele>135</ele>
        <time>2010-12-12T10:20:02Z</time>
      </trkpt>
      <trkpt lat="43.50801" lon="3.75534">
        <ele>134.4</ele>
        <time>2010-12-12T10:20:03Z</time>
      </trkpt>
      <trkpt lat="43.50806" lon="3.75536">
        <ele>133.6</ele>
        <time>2010-12-12T10:20:04Z</time>
      </trkpt>
      <trkpt lat="43.5081" lon="3.7554">
        <ele>132.5</ele>
        <time>2010-12-12T10:20:05Z</time>
      </trkpt>
      <trkpt lat="43.50814" lon="3.75544">
        <ele>131.4</ele>
        <time>2010-12-12T10:20:06Z</time>
      </trkpt>
      <trkpt lat="43.50818" lon="3.75549">
        <ele>130.3</ele>
        <time>2010-12-12T10:20:07Z</time>
      </trkpt>
      <trkpt lat="43.5082" lon="3.75554">
        <ele>129.4</ele>
        <time>2010-12-12T10:20:08Z</time>
      </trkpt>
      <trkpt lat="43.50822" lon="3.75561">
        <ele>128.2</ele>
        <time>2010-12-12T10:20:09Z</time>
      </trkpt>
      <trkpt lat="43.50825" lon="3.75567">
        <ele>127.1</ele>
        <time>2010-12-12T10:20:10Z</time>
      </trkpt>
      <trkpt lat="43.50828" lon="3.75572">
        <ele>126</ele>
        <time>2010-12-12T10:20:11Z</time>
      </trkpt>
      <trkpt lat="43.50832" lon="3.75577">
        <ele>124.9</ele>
        <time>2010-12-12T10:20:12Z</time>
      </trkpt>
      <trkpt lat="43.5084" lon="3.75579">
        <ele>124</ele>
        <time>2010-12-12T10:20:14Z</time>
      </trkpt>
      <trkpt lat="43.50844" lon="3.75579">
        <ele>123.8</ele>
        <time>2010-12-12T10:20:15Z</time>
      </trkpt>
      <trkpt lat="43.50849" lon="3.75582">
        <ele>123.1</ele>
        <time>2010-12-12T10:20:16Z</time>
      </trkpt>
      <trkpt lat="43.50854" lon="3.75586">
        <ele>122.5</ele>
        <time>2010-12-12T10:20:17Z</time>
      </trkpt>
      <trkpt lat="43.5086" lon="3.75587">
        <ele>122</ele>
        <time>2010-12-12T10:20:18Z</time>
      </trkpt>
      <trkpt lat="43.50867" lon="3.75587">
        <ele>121.6</ele>
        <time>2010-12-12T10:20:19Z</time>
      </trkpt>
      <trkpt lat="43.50874" lon="3.75587">
        <ele>121.1</ele>
        <time>2010-12-12T10:20:20Z</time>
      </trkpt>
      <trkpt lat="43.5088" lon="3.75589">
        <ele>120.6</ele>
        <time>2010-12-12T10:20:21Z</time>
      </trkpt>
      <trkpt lat="43.50887" lon="3.75591">
        <ele>120.1</ele>
        <time>2010-12-12T10:20:22Z</time>
      </trkpt>
      <trkpt lat="43.50893" lon="3.75591">
        <ele>119.7</ele>
        <time>2010-12-12T10:20:23Z</time>
      </trkpt>
      <trkpt lat="43.50898" lon="3.75591">
        <ele>119.3</ele>
        <time>2010-12-12T10:20:24Z</time>
      </trkpt>
      <trkpt lat="43.50902" lon="3.75594">
        <ele>118.9</ele>
        <time>2010-12-12T10:20:25Z</time>
      </trkpt>
      <trkpt lat="43.50907" lon="3.75597">
        <ele>118.5</ele>
        <time>2010-12-12T10:20:26Z</time>
      </trkpt>
      <trkpt lat="43.50913" lon="3.75599">
        <ele>118.1</ele>
        <time>2010-12-12T10:20:27Z</time>
      </trkpt>
      <trkpt lat="43.50921" lon="3.75602">
        <ele>117.6</ele>
        <time>2010-12-12T10:20:29Z</time>
      </trkpt>
      <trkpt lat="43.50926" lon="3.7561">
        <ele>117.2</ele>
        <time>2010-12-12T10:20:31Z</time>
      </trkpt>
      <trkpt lat="43.50934" lon="3.75612">
        <ele>116.8</ele>
        <time>2010-12-12T10:20:33Z</time>
      </trkpt>
      <trkpt lat="43.50942" lon="3.7561">
        <ele>116.4</ele>
        <time>2010-12-12T10:20:35Z</time>
      </trkpt>
      <trkpt lat="43.50948" lon="3.75618">
        <ele>115.9</ele>
        <time>2010-12-12T10:20:42Z</time>
      </trkpt>
      <trkpt lat="43.50957" lon="3.75622">
        <ele>115.4</ele>
        <time>2010-12-12T10:21:11Z</time>
      </trkpt>
      <trkpt lat="43.50957" lon="3.75622">
        <ele>115.4</ele>
        <time>2010-12-12T10:21:12Z</time>
      </trkpt>
      <trkpt lat="43.5097" lon="3.75632">
        <ele>114.5</ele>
        <time>2010-12-12T10:21:21Z</time>
      </trkpt>
      <trkpt lat="43.50974" lon="3.75642">
        <ele>114.1</ele>
        <time>2010-12-12T10:21:24Z</time>
      </trkpt>
      <trkpt lat="43.50972" lon="3.75654">
        <ele>113.9</ele>
        <time>2010-12-12T10:21:27Z</time>
      </trkpt>
      <trkpt lat="43.50971" lon="3.75663">
        <ele>113.8</ele>
        <time>2010-12-12T10:21:29Z</time>
      </trkpt>
      <trkpt lat="43.50973" lon="3.75675">
        <ele>113.6</ele>
        <time>2010-12-12T10:21:32Z</time>
      </trkpt>
      <trkpt lat="43.50974" lon="3.75683">
        <ele>113.4</ele>
        <time>2010-12-12T10:21:34Z</time>
      </trkpt>
      <trkpt lat="43.50976" lon="3.75692">
        <ele>113.1</ele>
        <time>2010-12-12T10:21:36Z</time>
      </trkpt>
      <trkpt lat="43.50979" lon="3.75701">
        <ele>112.8</ele>
        <time>2010-12-12T10:21:38Z</time>
      </trkpt>
      <trkpt lat="43.50981" lon="3.75707">
        <ele>112.5</ele>
        <time>2010-12-12T10:21:39Z</time>
      </trkpt>
      <trkpt lat="43.50982" lon="3.75713">
        <ele>112.2</ele>
        <time>2010-12-12T10:21:40Z</time>
      </trkpt>
      <trkpt lat="43.50984" lon="3.7572">
        <ele>111.9</ele>
        <time>2010-12-12T10:21:41Z</time>
      </trkpt>
      <trkpt lat="43.50985" lon="3.75727">
        <ele>111.6</ele>
        <time>2010-12-12T10:21:42Z</time>
      </trkpt>
      <trkpt lat="43.50987" lon="3.75734">
        <ele>111.3</ele>
        <time>2010-12-12T10:21:43Z</time>
      </trkpt>
      <trkpt lat="43.50988" lon="3.75742">
        <ele>110.9</ele>
        <time>2010-12-12T10:21:44Z</time>
      </trkpt>
      <trkpt lat="43.50989" lon="3.75749">
        <ele>110.6</ele>
        <time>2010-12-12T10:21:45Z</time>
      </trkpt>
      <trkpt lat="43.50991" lon="3.75757">
        <ele>110.2</ele>
        <time>2010-12-12T10:21:46Z</time>
      </trkpt>
      <trkpt lat="43.50992" lon="3.75765">
        <ele>109.9</ele>
        <time>2010-12-12T10:21:47Z</time>
      </trkpt>
      <trkpt lat="43.50993" lon="3.75772">
        <ele>109.6</ele>
        <time>2010-12-12T10:21:48Z</time>
      </trkpt>
      <trkpt lat="43.50994" lon="3.7578">
        <ele>109.2</ele>
        <time>2010-12-12T10:21:49Z</time>
      </trkpt>
      <trkpt lat="43.50995" lon="3.75787">
        <ele>108.9</ele>
        <time>2010-12-12T10:21:50Z</time>
      </trkpt>
      <trkpt lat="43.50996" lon="3.75795">
        <ele>108.6</ele>
        <time>2010-12-12T10:21:51Z</time>
      </trkpt>
      <trkpt lat="43.50997" lon="3.75802">
        <ele>108.3</ele>
        <time>2010-12-12T10:21:52Z</time>
      </trkpt>
      <trkpt lat="43.50999" lon="3.7581">
        <ele>107.9</ele>
        <time>2010-12-12T10:21:53Z</time>
      </trkpt>
      <trkpt lat="43.51" lon="3.75817">
        <ele>107.5</ele>
        <time>2010-12-12T10:21:54Z</time>
      </trkpt>
      <trkpt lat="43.51001" lon="3.75825">
        <ele>107.2</ele>
        <time>2010-12-12T10:21:55Z</time>
      </trkpt>
      <trkpt lat="43.51002" lon="3.75832">
        <ele>107</ele>
        <time>2010-12-12T10:21:56Z</time>
      </trkpt>
      <trkpt lat="43.51002" lon="3.7584">
        <ele>107.2</ele>
        <time>2010-12-12T10:21:57Z</time>
      </trkpt>
      <trkpt lat="43.51003" lon="3.75848">
        <ele>107.5</ele>
        <time>2010-12-12T10:21:58Z</time>
      </trkpt>
      <trkpt lat="43.51004" lon="3.75855">
        <ele>107.7</ele>
        <time>2010-12-12T10:21:59Z</time>
      </trkpt>
      <trkpt lat="43.51005" lon="3.75863">
        <ele>108</ele>
        <time>2010-12-12T10:22:00Z</time>
      </trkpt>
      <trkpt lat="43.51005" lon="3.7587">
        <ele>108.3</ele>
        <time>2010-12-12T10:22:01Z</time>
      </trkpt>
      <trkpt lat="43.51006" lon="3.75878">
        <ele>108.5</ele>
        <time>2010-12-12T10:22:02Z</time>
      </trkpt>
      <trkpt lat="43.51007" lon="3.75885">
        <ele>108.8</ele>
        <time>2010-12-12T10:22:03Z</time>
      </trkpt>
      <trkpt lat="43.5101" lon="3.75892">
        <ele>109</ele>
        <time>2010-12-12T10:22:04Z</time>
      </trkpt>
      <trkpt lat="43.51012" lon="3.75898">
        <ele>109.3</ele>
        <time>2010-12-12T10:22:05Z</time>
      </trkpt>
      <trkpt lat="43.51015" lon="3.75905">
        <ele>109.5</ele>
        <time>2010-12-12T10:22:06Z</time>
      </trkpt>
      <trkpt lat="43.51018" lon="3.75911">
        <ele>109.8</ele>
        <time>2010-12-12T10:22:07Z</time>
      </trkpt>
      <trkpt lat="43.51019" lon="3.75918">
        <ele>110</ele>
        <time>2010-12-12T10:22:08Z</time>
      </trkpt>
      <trkpt lat="43.5102" lon="3.75925">
        <ele>110.2</ele>
        <time>2010-12-12T10:22:09Z</time>
      </trkpt>
      <trkpt lat="43.51021" lon="3.75932">
        <ele>110.4</ele>
        <time>2010-12-12T10:22:10Z</time>
      </trkpt>
      <trkpt lat="43.51021" lon="3.75939">
        <ele>110.6</ele>
        <time>2010-12-12T10:22:11Z</time>
      </trkpt>
      <trkpt lat="43.51022" lon="3.75946">
        <ele>110.8</ele>
        <time>2010-12-12T10:22:12Z</time>
      </trkpt>
      <trkpt lat="43.51022" lon="3.75952">
        <ele>111</ele>
        <time>2010-12-12T10:22:13Z</time>
      </trkpt>
      <trkpt lat="43.51023" lon="3.75958">
        <ele>111.1</ele>
        <time>2010-12-12T10:22:14Z</time>
      </trkpt>
      <trkpt lat="43.51024" lon="3.75965">
        <ele>111.3</ele>
        <time>2010-12-12T10:22:15Z</time>
      </trkpt>
      <trkpt lat="43.51026" lon="3.75971">
        <ele>111.5</ele>
        <time>2010-12-12T10:22:16Z</time>
      </trkpt>
      <trkpt lat="43.51028" lon="3.75976">
        <ele>111.7</ele>
        <time>2010-12-12T10:22:17Z</time>
      </trkpt>
      <trkpt lat="43.51031" lon="3.75982">
        <ele>111.9</ele>
        <time>2010-12-12T10:22:18Z</time>
      </trkpt>
      <trkpt lat="43.51034" lon="3.75987">
        <ele>112</ele>
        <time>2010-12-12T10:22:19Z</time>
      </trkpt>
      <trkpt lat="43.51037" lon="3.75993">
        <ele>112.2</ele>
        <time>2010-12-12T10:22:20Z</time>
      </trkpt>
      <trkpt lat="43.5104" lon="3.75998">
        <ele>112.4</ele>
        <time>2010-12-12T10:22:21Z</time>
      </trkpt>
      <trkpt lat="43.51042" lon="3.76003">
        <ele>112.5</ele>
        <time>2010-12-12T10:22:22Z</time>
      </trkpt>
      <trkpt lat="43.51046" lon="3.76013">
        <ele>112.5</ele>
        <time>2010-12-12T10:22:24Z</time>
      </trkpt>
      <trkpt lat="43.5105" lon="3.76024">
        <ele>112.5</ele>
        <time>2010-12-12T10:22:26Z</time>
      </trkpt>
      <trkpt lat="43.51053" lon="3.76034">
        <ele>112.5</ele>
        <time>2010-12-12T10:22:28Z</time>
      </trkpt>
      <trkpt lat="43.51057" lon="3.76044">
        <ele>112.5</ele>
        <time>2010-12-12T10:22:30Z</time>
      </trkpt>
      <trkpt lat="43.51061" lon="3.76054">
        <ele>112.4</ele>
        <time>2010-12-12T10:22:32Z</time>
      </trkpt>
      <trkpt lat="43.51066" lon="3.76063">
        <ele>112.4</ele>
        <time>2010-12-12T10:22:34Z</time>
      </trkpt>
      <trkpt lat="43.51068" lon="3.76068">
        <ele>112.3</ele>
        <time>2010-12-12T10:22:35Z</time>
      </trkpt>
      <trkpt lat="43.51071" lon="3.76073">
        <ele>112.2</ele>
        <time>2010-12-12T10:22:36Z</time>
      </trkpt>
      <trkpt lat="43.51074" lon="3.76078">
        <ele>112.2</ele>
        <time>2010-12-12T10:22:37Z</time>
      </trkpt>
      <trkpt lat="43.51076" lon="3.76083">
        <ele>112.1</ele>
        <time>2010-12-12T10:22:38Z</time>
      </trkpt>
      <trkpt lat="43.51079" lon="3.76089">
        <ele>112</ele>
        <time>2010-12-12T10:22:39Z</time>
      </trkpt>
      <trkpt lat="43.51082" lon="3.76095">
        <ele>111.9</ele>
        <time>2010-12-12T10:22:40Z</time>
      </trkpt>
      <trkpt lat="43.51085" lon="3.76101">
        <ele>111.7</ele>
        <time>2010-12-12T10:22:41Z</time>
      </trkpt>
      <trkpt lat="43.51088" lon="3.76107">
        <ele>111.5</ele>
        <time>2010-12-12T10:22:42Z</time>
      </trkpt>
      <trkpt lat="43.51091" lon="3.76114">
        <ele>111.2</ele>
        <time>2010-12-12T10:22:43Z</time>
      </trkpt>
      <trkpt lat="43.51094" lon="3.7612">
        <ele>110.9</ele>
        <time>2010-12-12T10:22:44Z</time>
      </trkpt>
      <trkpt lat="43.51097" lon="3.76127">
        <ele>110.7</ele>
        <time>2010-12-12T10:22:45Z</time>
      </trkpt>
      <trkpt lat="43.511" lon="3.76134">
        <ele>110.4</ele>
        <time>2010-12-12T10:22:46Z</time>
      </trkpt>
      <trkpt lat="43.51103" lon="3.7614">
        <ele>110.1</ele>
        <time>2010-12-12T10:22:47Z</time>
      </trkpt>
      <trkpt lat="43.51105" lon="3.76146">
        <ele>109.8</ele>
        <time>2010-12-12T10:22:48Z</time>
      </trkpt>
      <trkpt lat="43.51107" lon="3.76152">
        <ele>109.6</ele>
        <time>2010-12-12T10:22:49Z</time>
      </trkpt>
      <trkpt lat="43.51109" lon="3.76158">
        <ele>109.3</ele>
        <time>2010-12-12T10:22:50Z</time>
      </trkpt>
      <trkpt lat="43.51111" lon="3.76163">
        <ele>109.1</ele>
        <time>2010-12-12T10:22:51Z</time>
      </trkpt>
      <trkpt lat="43.51114" lon="3.76168">
        <ele>108.7</ele>
        <time>2010-12-12T10:22:52Z</time>
      </trkpt>
      <trkpt lat="43.51117" lon="3.76173">
        <ele>108.2</ele>
        <time>2010-12-12T10:22:53Z</time>
      </trkpt>
      <trkpt lat="43.51121" lon="3.76177">
        <ele>107.6</ele>
        <time>2010-12-12T10:22:54Z</time>
      </trkpt>
      <trkpt lat="43.51125" lon="3.76181">
        <ele>107.1</ele>
        <time>2010-12-12T10:22:55Z</time>
      </trkpt>
      <trkpt lat="43.5113" lon="3.76184">
        <ele>106.5</ele>
        <time>2010-12-12T10:22:56Z</time>
      </trkpt>
      <trkpt lat="43.51135" lon="3.76188">
        <ele>105.8</ele>
        <time>2010-12-12T10:22:57Z</time>
      </trkpt>
      <trkpt lat="43.51141" lon="3.76192">
        <ele>105.2</ele>
        <time>2010-12-12T10:22:58Z</time>
      </trkpt>
      <trkpt lat="43.51146" lon="3.76198">
        <ele>104.4</ele>
        <time>2010-12-12T10:22:59Z</time>
      </trkpt>
      <trkpt lat="43.51151" lon="3.76205">
        <ele>103.5</ele>
        <time>2010-12-12T10:23:00Z</time>
      </trkpt>
      <trkpt lat="43.51156" lon="3.76212">
        <ele>102.5</ele>
        <time>2010-12-12T10:23:01Z</time>
      </trkpt>
      <trkpt lat="43.51161" lon="3.7622">
        <ele>101.6</ele>
        <time>2010-12-12T10:23:02Z</time>
      </trkpt>
      <trkpt lat="43.51167" lon="3.76229">
        <ele>100.5</ele>
        <time>2010-12-12T10:23:03Z</time>
      </trkpt>
      <trkpt lat="43.51174" lon="3.76237">
        <ele>99.5</ele>
        <time>2010-12-12T10:23:04Z</time>
      </trkpt>
      <trkpt lat="43.51181" lon="3.76244">
        <ele>98.5</ele>
        <time>2010-12-12T10:23:05Z</time>
      </trkpt>
      <trkpt lat="43.51189" lon="3.7625">
        <ele>97.7</ele>
        <time>2010-12-12T10:23:06Z</time>
      </trkpt>
      <trkpt lat="43.51197" lon="3.76254">
        <ele>97.1</ele>
        <time>2010-12-12T10:23:07Z</time>
      </trkpt>
      <trkpt lat="43.51206" lon="3.76258">
        <ele>96.5</ele>
        <time>2010-12-12T10:23:08Z</time>
      </trkpt>
      <trkpt lat="43.51215" lon="3.76261">
        <ele>95.8</ele>
        <time>2010-12-12T10:23:09Z</time>
      </trkpt>
      <trkpt lat="43.51225" lon="3.76263">
        <ele>95.2</ele>
        <time>2010-12-12T10:23:10Z</time>
      </trkpt>
      <trkpt lat="43.51234" lon="3.76265">
        <ele>94.6</ele>
        <time>2010-12-12T10:23:11Z</time>
      </trkpt>
      <trkpt lat="43.51243" lon="3.76267">
        <ele>94</ele>
        <time>2010-12-12T10:23:12Z</time>
      </trkpt>
      <trkpt lat="43.51252" lon="3.7627">
        <ele>93.4</ele>
        <time>2010-12-12T10:23:13Z</time>
      </trkpt>
      <trkpt lat="43.51262" lon="3.76272">
        <ele>92.8</ele>
        <time>2010-12-12T10:23:14Z</time>
      </trkpt>
      <trkpt lat="43.51271" lon="3.76276">
        <ele>92.2</ele>
        <time>2010-12-12T10:23:15Z</time>
      </trkpt>
      <trkpt lat="43.51281" lon="3.76279">
        <ele>91.6</ele>
        <time>2010-12-12T10:23:16Z</time>
      </trkpt>
      <trkpt lat="43.51291" lon="3.76282">
        <ele>91</ele>
        <time>2010-12-12T10:23:17Z</time>
      </trkpt>
      <trkpt lat="43.513" lon="3.76284">
        <ele>90.4</ele>
        <time>2010-12-12T10:23:18Z</time>
      </trkpt>
      <trkpt lat="43.5131" lon="3.76286">
        <ele>89.9</ele>
        <time>2010-12-12T10:23:19Z</time>
      </trkpt>
      <trkpt lat="43.51319" lon="3.76287">
        <ele>89.3</ele>
        <time>2010-12-12T10:23:20Z</time>
      </trkpt>
      <trkpt lat="43.51328" lon="3.76287">
        <ele>88.8</ele>
        <time>2010-12-12T10:23:21Z</time>
      </trkpt>
      <trkpt lat="43.51337" lon="3.76287">
        <ele>88.4</ele>
        <time>2010-12-12T10:23:22Z</time>
      </trkpt>
      <trkpt lat="43.51346" lon="3.76288">
        <ele>88</ele>
        <time>2010-12-12T10:23:23Z</time>
      </trkpt>
      <trkpt lat="43.51354" lon="3.76289">
        <ele>87.6</ele>
        <time>2010-12-12T10:23:24Z</time>
      </trkpt>
      <trkpt lat="43.51362" lon="3.76293">
        <ele>87.3</ele>
        <time>2010-12-12T10:23:25Z</time>
      </trkpt>
      <trkpt lat="43.51369" lon="3.76297">
        <ele>87</ele>
        <time>2010-12-12T10:23:26Z</time>
      </trkpt>
      <trkpt lat="43.51376" lon="3.76303">
        <ele>86.7</ele>
        <time>2010-12-12T10:23:27Z</time>
      </trkpt>
      <trkpt lat="43.51382" lon="3.76307">
        <ele>86.4</ele>
        <time>2010-12-12T10:23:28Z</time>
      </trkpt>
      <trkpt lat="43.5139" lon="3.76309">
        <ele>86.1</ele>
        <time>2010-12-12T10:23:29Z</time>
      </trkpt>
      <trkpt lat="43.51397" lon="3.76309">
        <ele>85.8</ele>
        <time>2010-12-12T10:23:30Z</time>
      </trkpt>
      <trkpt lat="43.51404" lon="3.76309">
        <ele>85.5</ele>
        <time>2010-12-12T10:23:31Z</time>
      </trkpt>
      <trkpt lat="43.51411" lon="3.76308">
        <ele>85.2</ele>
        <time>2010-12-12T10:23:32Z</time>
      </trkpt>
      <trkpt lat="43.51417" lon="3.76307">
        <ele>85</ele>
        <time>2010-12-12T10:23:33Z</time>
      </trkpt>
      <trkpt lat="43.51424" lon="3.76305">
        <ele>85.1</ele>
        <time>2010-12-12T10:23:34Z</time>
      </trkpt>
      <trkpt lat="43.5143" lon="3.76304">
        <ele>85.2</ele>
        <time>2010-12-12T10:23:35Z</time>
      </trkpt>
      <trkpt lat="43.51436" lon="3.76303">
        <ele>85.3</ele>
        <time>2010-12-12T10:23:36Z</time>
      </trkpt>
      <trkpt lat="43.51441" lon="3.76304">
        <ele>85.4</ele>
        <time>2010-12-12T10:23:37Z</time>
      </trkpt>
      <trkpt lat="43.51446" lon="3.76305">
        <ele>85.5</ele>
        <time>2010-12-12T10:23:38Z</time>
      </trkpt>
      <trkpt lat="43.51451" lon="3.76305">
        <ele>85.5</ele>
        <time>2010-12-12T10:23:39Z</time>
      </trkpt>
      <trkpt lat="43.5146" lon="3.76307">
        <ele>85.7</ele>
        <time>2010-12-12T10:23:41Z</time>
      </trkpt>
      <trkpt lat="43.51464" lon="3.76307">
        <ele>85.7</ele>
        <time>2010-12-12T10:23:42Z</time>
      </trkpt>
      <trkpt lat="43.51469" lon="3.76308">
        <ele>85.8</ele>
        <time>2010-12-12T10:23:43Z</time>
      </trkpt>
      <trkpt lat="43.51473" lon="3.76309">
        <ele>85.8</ele>
        <time>2010-12-12T10:23:44Z</time>
      </trkpt>
      <trkpt lat="43.51478" lon="3.76311">
        <ele>85.8</ele>
        <time>2010-12-12T10:23:45Z</time>
      </trkpt>
      <trkpt lat="43.51484" lon="3.76319">
        <ele>85.5</ele>
        <time>2010-12-12T10:23:47Z</time>
      </trkpt>
      <trkpt lat="43.51487" lon="3.7633">
        <ele>85.2</ele>
        <time>2010-12-12T10:23:49Z</time>
      </trkpt>
      <trkpt lat="43.51489" lon="3.7634">
        <ele>84.6</ele>
        <time>2010-12-12T10:23:51Z</time>
      </trkpt>
      <trkpt lat="43.51489" lon="3.76352">
        <ele>84</ele>
        <time>2010-12-12T10:23:54Z</time>
      </trkpt>
      <trkpt lat="43.5149" lon="3.76363">
        <ele>83.4</ele>
        <time>2010-12-12T10:23:59Z</time>
      </trkpt>
      <trkpt lat="43.51495" lon="3.76371">
        <ele>82.8</ele>
        <time>2010-12-12T10:24:03Z</time>
      </trkpt>
      <trkpt lat="43.515" lon="3.76378">
        <ele>82.3</ele>
        <time>2010-12-12T10:24:06Z</time>
      </trkpt>
      <trkpt lat="43.51505" lon="3.76383">
        <ele>82</ele>
        <time>2010-12-12T10:24:08Z</time>
      </trkpt>
      <trkpt lat="43.5151" lon="3.76389">
        <ele>81.5</ele>
        <time>2010-12-12T10:24:10Z</time>
      </trkpt>
      <trkpt lat="43.51515" lon="3.76396">
        <ele>81</ele>
        <time>2010-12-12T10:24:12Z</time>
      </trkpt>
      <trkpt lat="43.51521" lon="3.76404">
        <ele>80.3</ele>
        <time>2010-12-12T10:24:14Z</time>
      </trkpt>
      <trkpt lat="43.51524" lon="3.76409">
        <ele>79.9</ele>
        <time>2010-12-12T10:24:15Z</time>
      </trkpt>
      <trkpt lat="43.51527" lon="3.76414">
        <ele>79.5</ele>
        <time>2010-12-12T10:24:16Z</time>
      </trkpt>
      <trkpt lat="43.51532" lon="3.76419">
        <ele>79.2</ele>
        <time>2010-12-12T10:24:17Z</time>
      </trkpt>
      <trkpt lat="43.51536" lon="3.76425">
        <ele>79</ele>
        <time>2010-12-12T10:24:18Z</time>
      </trkpt>
      <trkpt lat="43.5154" lon="3.76431">
        <ele>78.7</ele>
        <time>2010-12-12T10:24:19Z</time>
      </trkpt>
      <trkpt lat="43.51545" lon="3.76438">
        <ele>78.4</ele>
        <time>2010-12-12T10:24:20Z</time>
      </trkpt>
      <trkpt lat="43.5155" lon="3.76445">
        <ele>78.1</ele>
        <time>2010-12-12T10:24:21Z</time>
      </trkpt>
      <trkpt lat="43.51556" lon="3.76453">
        <ele>77.7</ele>
        <time>2010-12-12T10:24:22Z</time>
      </trkpt>
      <trkpt lat="43.51561" lon="3.76461">
        <ele>77.2</ele>
        <time>2010-12-12T10:24:23Z</time>
      </trkpt>
      <trkpt lat="43.51566" lon="3.7647">
        <ele>76.8</ele>
        <time>2010-12-12T10:24:24Z</time>
      </trkpt>
      <trkpt lat="43.51571" lon="3.76479">
        <ele>76.3</ele>
        <time>2010-12-12T10:24:25Z</time>
      </trkpt>
      <trkpt lat="43.51575" lon="3.76489">
        <ele>75.8</ele>
        <time>2010-12-12T10:24:26Z</time>
      </trkpt>
      <trkpt lat="43.51578" lon="3.76499">
        <ele>75.3</ele>
        <time>2010-12-12T10:24:27Z</time>
      </trkpt>
      <trkpt lat="43.51581" lon="3.76509">
        <ele>75</ele>
        <time>2010-12-12T10:24:28Z</time>
      </trkpt>
      <trkpt lat="43.51583" lon="3.7652">
        <ele>74.8</ele>
        <time>2010-12-12T10:24:29Z</time>
      </trkpt>
      <trkpt lat="43.51585" lon="3.7653">
        <ele>74.5</ele>
        <time>2010-12-12T10:24:30Z</time>
      </trkpt>
      <trkpt lat="43.51587" lon="3.76541">
        <ele>74.4</ele>
        <time>2010-12-12T10:24:31Z</time>
      </trkpt>
      <trkpt lat="43.51587" lon="3.76551">
        <ele>74.2</ele>
        <time>2010-12-12T10:24:32Z</time>
      </trkpt>
      <trkpt lat="43.51588" lon="3.76561">
        <ele>74.1</ele>
        <time>2010-12-12T10:24:33Z</time>
      </trkpt>
      <trkpt lat="43.51589" lon="3.7657">
        <ele>73.9</ele>
        <time>2010-12-12T10:24:34Z</time>
      </trkpt>
      <trkpt lat="43.51591" lon="3.76578">
        <ele>73.8</ele>
        <time>2010-12-12T10:24:35Z</time>
      </trkpt>
      <trkpt lat="43.51594" lon="3.76587">
        <ele>73.6</ele>
        <time>2010-12-12T10:24:36Z</time>
      </trkpt>
      <trkpt lat="43.51596" lon="3.76594">
        <ele>73.5</ele>
        <time>2010-12-12T10:24:37Z</time>
      </trkpt>
      <trkpt lat="43.51599" lon="3.76602">
        <ele>73.4</ele>
        <time>2010-12-12T10:24:38Z</time>
      </trkpt>
      <trkpt lat="43.51602" lon="3.7661">
        <ele>73.3</ele>
        <time>2010-12-12T10:24:39Z</time>
      </trkpt>
      <trkpt lat="43.51605" lon="3.76617">
        <ele>73.2</ele>
        <time>2010-12-12T10:24:40Z</time>
      </trkpt>
      <trkpt lat="43.51608" lon="3.76625">
        <ele>73.2</ele>
        <time>2010-12-12T10:24:41Z</time>
      </trkpt>
      <trkpt lat="43.5161" lon="3.76633">
        <ele>73.2</ele>
        <time>2010-12-12T10:24:42Z</time>
      </trkpt>
      <trkpt lat="43.51612" lon="3.76641">
        <ele>73.2</ele>
        <time>2010-12-12T10:24:43Z</time>
      </trkpt>
      <trkpt lat="43.51613" lon="3.76648">
        <ele>73.3</ele>
        <time>2010-12-12T10:24:44Z</time>
      </trkpt>
      <trkpt lat="43.51614" lon="3.76656">
        <ele>73.3</ele>
        <time>2010-12-12T10:24:45Z</time>
      </trkpt>
      <trkpt lat="43.51616" lon="3.76663">
        <ele>73.4</ele>
        <time>2010-12-12T10:24:46Z</time>
      </trkpt>
      <trkpt lat="43.51617" lon="3.76671">
        <ele>73.6</ele>
        <time>2010-12-12T10:24:47Z</time>
      </trkpt>
      <trkpt lat="43.51618" lon="3.76677">
        <ele>74</ele>
        <time>2010-12-12T10:24:48Z</time>
      </trkpt>
      <trkpt lat="43.5162" lon="3.76683">
        <ele>74.4</ele>
        <time>2010-12-12T10:24:49Z</time>
      </trkpt>
      <trkpt lat="43.51625" lon="3.76693">
        <ele>75.1</ele>
        <time>2010-12-12T10:24:51Z</time>
      </trkpt>
      <trkpt lat="43.51625" lon="3.76703">
        <ele>75.7</ele>
        <time>2010-12-12T10:24:53Z</time>
      </trkpt>
      <trkpt lat="43.51624" lon="3.76715">
        <ele>76.4</ele>
        <time>2010-12-12T10:24:56Z</time>
      </trkpt>
      <trkpt lat="43.51631" lon="3.76723">
        <ele>76.9</ele>
        <time>2010-12-12T10:25:04Z</time>
      </trkpt>
      <trkpt lat="43.51635" lon="3.76713">
        <ele>76.4</ele>
        <time>2010-12-12T10:25:09Z</time>
      </trkpt>
      <trkpt lat="43.51637" lon="3.76704">
        <ele>75.9</ele>
        <time>2010-12-12T10:25:11Z</time>
      </trkpt>
      <trkpt lat="43.51639" lon="3.76693">
        <ele>75.2</ele>
        <time>2010-12-12T10:25:13Z</time>
      </trkpt>
      <trkpt lat="43.51641" lon="3.76686">
        <ele>74.9</ele>
        <time>2010-12-12T10:25:14Z</time>
      </trkpt>
      <trkpt lat="43.51643" lon="3.7668">
        <ele>74.5</ele>
        <time>2010-12-12T10:25:15Z</time>
      </trkpt>
      <trkpt lat="43.51645" lon="3.76673">
        <ele>74.1</ele>
        <time>2010-12-12T10:25:16Z</time>
      </trkpt>
      <trkpt lat="43.51648" lon="3.76667">
        <ele>73.8</ele>
        <time>2010-12-12T10:25:17Z</time>
      </trkpt>
      <trkpt lat="43.51651" lon="3.76662">
        <ele>73.7</ele>
        <time>2010-12-12T10:25:18Z</time>
      </trkpt>
      <trkpt lat="43.51653" lon="3.76656">
        <ele>73.5</ele>
        <time>2010-12-12T10:25:19Z</time>
      </trkpt>
      <trkpt lat="43.51657" lon="3.7665">
        <ele>73.4</ele>
        <time>2010-12-12T10:25:20Z</time>
      </trkpt>
      <trkpt lat="43.51659" lon="3.76644">
        <ele>73.2</ele>
        <time>2010-12-12T10:25:21Z</time>
      </trkpt>
      <trkpt lat="43.51663" lon="3.76639">
        <ele>73</ele>
        <time>2010-12-12T10:25:22Z</time>
      </trkpt>
      <trkpt lat="43.51667" lon="3.76634">
        <ele>72.8</ele>
        <time>2010-12-12T10:25:23Z</time>
      </trkpt>
      <trkpt lat="43.51671" lon="3.76628">
        <ele>73</ele>
        <time>2010-12-12T10:25:24Z</time>
      </trkpt>
      <trkpt lat="43.51674" lon="3.76622">
        <ele>73.2</ele>
        <time>2010-12-12T10:25:25Z</time>
      </trkpt>
      <trkpt lat="43.51677" lon="3.76617">
        <ele>73.3</ele>
        <time>2010-12-12T10:25:26Z</time>
      </trkpt>
      <trkpt lat="43.51681" lon="3.76611">
        <ele>73.4</ele>
        <time>2010-12-12T10:25:27Z</time>
      </trkpt>
      <trkpt lat="43.51685" lon="3.76606">
        <ele>73.5</ele>
        <time>2010-12-12T10:25:28Z</time>
      </trkpt>
      <trkpt lat="43.51689" lon="3.76601">
        <ele>73.6</ele>
        <time>2010-12-12T10:25:29Z</time>
      </trkpt>
      <trkpt lat="43.51693" lon="3.76595">
        <ele>73.6</ele>
        <time>2010-12-12T10:25:30Z</time>
      </trkpt>
      <trkpt lat="43.51696" lon="3.76589">
        <ele>73.5</ele>
        <time>2010-12-12T10:25:31Z</time>
      </trkpt>
      <trkpt lat="43.517" lon="3.76583">
        <ele>73.4</ele>
        <time>2010-12-12T10:25:32Z</time>
      </trkpt>
      <trkpt lat="43.51704" lon="3.76577">
        <ele>73.5</ele>
        <time>2010-12-12T10:25:33Z</time>
      </trkpt>
      <trkpt lat="43.51708" lon="3.7657">
        <ele>73.5</ele>
        <time>2010-12-12T10:25:34Z</time>
      </trkpt>
      <trkpt lat="43.51712" lon="3.76564">
        <ele>73.5</ele>
        <time>2010-12-12T10:25:35Z</time>
      </trkpt>
      <trkpt lat="43.51715" lon="3.76557">
        <ele>73.5</ele>
        <time>2010-12-12T10:25:36Z</time>
      </trkpt>
      <trkpt lat="43.51719" lon="3.76551">
        <ele>73.4</ele>
        <time>2010-12-12T10:25:37Z</time>
      </trkpt>
      <trkpt lat="43.51723" lon="3.76545">
        <ele>73.3</ele>
        <time>2010-12-12T10:25:38Z</time>
      </trkpt>
      <trkpt lat="43.51727" lon="3.76539">
        <ele>73.3</ele>
        <time>2010-12-12T10:25:39Z</time>
      </trkpt>
      <trkpt lat="43.51731" lon="3.76533">
        <ele>73.2</ele>
        <time>2010-12-12T10:25:40Z</time>
      </trkpt>
      <trkpt lat="43.51734" lon="3.76527">
        <ele>73</ele>
        <time>2010-12-12T10:25:41Z</time>
      </trkpt>
      <trkpt lat="43.51738" lon="3.76521">
        <ele>72.9</ele>
        <time>2010-12-12T10:25:42Z</time>
      </trkpt>
      <trkpt lat="43.51742" lon="3.76516">
        <ele>72.7</ele>
        <time>2010-12-12T10:25:43Z</time>
      </trkpt>
      <trkpt lat="43.51746" lon="3.7651">
        <ele>72.5</ele>
        <time>2010-12-12T10:25:44Z</time>
      </trkpt>
      <trkpt lat="43.51751" lon="3.76504">
        <ele>72.2</ele>
        <time>2010-12-12T10:25:45Z</time>
      </trkpt>
      <trkpt lat="43.51755" lon="3.76498">
        <ele>72</ele>
        <time>2010-12-12T10:25:46Z</time>
      </trkpt>
      <trkpt lat="43.51759" lon="3.76493">
        <ele>72</ele>
        <time>2010-12-12T10:25:47Z</time>
      </trkpt>
      <trkpt lat="43.51764" lon="3.76488">
        <ele>71.9</ele>
        <time>2010-12-12T10:25:48Z</time>
      </trkpt>
      <trkpt lat="43.51769" lon="3.76483">
        <ele>71.9</ele>
        <time>2010-12-12T10:25:49Z</time>
      </trkpt>
      <trkpt lat="43.51774" lon="3.76479">
        <ele>71.8</ele>
        <time>2010-12-12T10:25:50Z</time>
      </trkpt>
      <trkpt lat="43.5178" lon="3.76477">
        <ele>71.7</ele>
        <time>2010-12-12T10:25:51Z</time>
      </trkpt>
      <trkpt lat="43.51785" lon="3.76475">
        <ele>71.6</ele>
        <time>2010-12-12T10:25:52Z</time>
      </trkpt>
      <trkpt lat="43.51791" lon="3.76474">
        <ele>71.5</ele>
        <time>2010-12-12T10:25:53Z</time>
      </trkpt>
      <trkpt lat="43.51796" lon="3.76473">
        <ele>71.5</ele>
        <time>2010-12-12T10:25:54Z</time>
      </trkpt>
      <trkpt lat="43.51801" lon="3.76472">
        <ele>71.4</ele>
        <time>2010-12-12T10:25:55Z</time>
      </trkpt>
      <trkpt lat="43.51807" lon="3.76472">
        <ele>71.3</ele>
        <time>2010-12-12T10:25:56Z</time>
      </trkpt>
      <trkpt lat="43.51812" lon="3.76471">
        <ele>71.2</ele>
        <time>2010-12-12T10:25:57Z</time>
      </trkpt>
      <trkpt lat="43.51817" lon="3.76471">
        <ele>71.1</ele>
        <time>2010-12-12T10:25:58Z</time>
      </trkpt>
      <trkpt lat="43.51822" lon="3.7647">
        <ele>71.1</ele>
        <time>2010-12-12T10:25:59Z</time>
      </trkpt>
      <trkpt lat="43.51826" lon="3.7647">
        <ele>71</ele>
        <time>2010-12-12T10:26:00Z</time>
      </trkpt>
      <trkpt lat="43.51831" lon="3.7647">
        <ele>70.9</ele>
        <time>2010-12-12T10:26:01Z</time>
      </trkpt>
      <trkpt lat="43.51836" lon="3.7647">
        <ele>70.8</ele>
        <time>2010-12-12T10:26:02Z</time>
      </trkpt>
      <trkpt lat="43.51841" lon="3.7647">
        <ele>70.6</ele>
        <time>2010-12-12T10:26:03Z</time>
      </trkpt>
      <trkpt lat="43.51846" lon="3.7647">
        <ele>70.4</ele>
        <time>2010-12-12T10:26:04Z</time>
      </trkpt>
      <trkpt lat="43.51851" lon="3.7647">
        <ele>70.2</ele>
        <time>2010-12-12T10:26:05Z</time>
      </trkpt>
      <trkpt lat="43.51856" lon="3.76471">
        <ele>70</ele>
        <time>2010-12-12T10:26:06Z</time>
      </trkpt>
      <trkpt lat="43.51861" lon="3.76471">
        <ele>69.7</ele>
        <time>2010-12-12T10:26:07Z</time>
      </trkpt>
      <trkpt lat="43.51867" lon="3.76471">
        <ele>69.5</ele>
        <time>2010-12-12T10:26:08Z</time>
      </trkpt>
      <trkpt lat="43.51873" lon="3.76472">
        <ele>69.3</ele>
        <time>2010-12-12T10:26:09Z</time>
      </trkpt>
      <trkpt lat="43.51879" lon="3.76473">
        <ele>69</ele>
        <time>2010-12-12T10:26:10Z</time>
      </trkpt>
      <trkpt lat="43.51885" lon="3.76474">
        <ele>68.7</ele>
        <time>2010-12-12T10:26:11Z</time>
      </trkpt>
      <trkpt lat="43.51892" lon="3.76475">
        <ele>68.4</ele>
        <time>2010-12-12T10:26:12Z</time>
      </trkpt>
      <trkpt lat="43.51899" lon="3.76477">
        <ele>68.1</ele>
        <time>2010-12-12T10:26:13Z</time>
      </trkpt>
      <trkpt lat="43.51907" lon="3.7648">
        <ele>67.7</ele>
        <time>2010-12-12T10:26:14Z</time>
      </trkpt>
      <trkpt lat="43.51914" lon="3.76482">
        <ele>67.3</ele>
        <time>2010-12-12T10:26:15Z</time>
      </trkpt>
      <trkpt lat="43.51922" lon="3.76484">
        <ele>66.9</ele>
        <time>2010-12-12T10:26:16Z</time>
      </trkpt>
      <trkpt lat="43.5193" lon="3.76485">
        <ele>66.5</ele>
        <time>2010-12-12T10:26:17Z</time>
      </trkpt>
      <trkpt lat="43.51938" lon="3.76485">
        <ele>66.2</ele>
        <time>2010-12-12T10:26:18Z</time>
      </trkpt>
      <trkpt lat="43.51946" lon="3.76484">
        <ele>65.8</ele>
        <time>2010-12-12T10:26:19Z</time>
      </trkpt>
      <trkpt lat="43.51953" lon="3.76484">
        <ele>65.4</ele>
        <time>2010-12-12T10:26:20Z</time>
      </trkpt>
      <trkpt lat="43.51961" lon="3.76484">
        <ele>65.1</ele>
        <time>2010-12-12T10:26:21Z</time>
      </trkpt>
      <trkpt lat="43.51967" lon="3.76484">
        <ele>64.8</ele>
        <time>2010-12-12T10:26:22Z</time>
      </trkpt>
      <trkpt lat="43.51973" lon="3.76484">
        <ele>64.5</ele>
        <time>2010-12-12T10:26:23Z</time>
      </trkpt>
      <trkpt lat="43.51978" lon="3.76484">
        <ele>64.2</ele>
        <time>2010-12-12T10:26:24Z</time>
      </trkpt>
      <trkpt lat="43.51983" lon="3.76485">
        <ele>64</ele>
        <time>2010-12-12T10:26:25Z</time>
      </trkpt>
      <trkpt lat="43.51992" lon="3.76487">
        <ele>63.6</ele>
        <time>2010-12-12T10:26:27Z</time>
      </trkpt>
      <trkpt lat="43.51999" lon="3.76494">
        <ele>63.1</ele>
        <time>2010-12-12T10:26:30Z</time>
      </trkpt>
      <trkpt lat="43.51996" lon="3.76504">
        <ele>63.5</ele>
        <time>2010-12-12T10:26:33Z</time>
      </trkpt>
      <trkpt lat="43.52" lon="3.76515">
        <ele>64.1</ele>
        <time>2010-12-12T10:26:47Z</time>
      </trkpt>
      <trkpt lat="43.52006" lon="3.76521">
        <ele>64.5</ele>
        <time>2010-12-12T10:26:52Z</time>
      </trkpt>
      <trkpt lat="43.52013" lon="3.76527">
        <ele>64.8</ele>
        <time>2010-12-12T10:26:55Z</time>
      </trkpt>
      <trkpt lat="43.5202" lon="3.76535">
        <ele>65.2</ele>
        <time>2010-12-12T10:26:59Z</time>
      </trkpt>
      <trkpt lat="43.52027" lon="3.7654">
        <ele>65.4</ele>
        <time>2010-12-12T10:27:03Z</time>
      </trkpt>
      <trkpt lat="43.52035" lon="3.76545">
        <ele>65.5</ele>
        <time>2010-12-12T10:27:07Z</time>
      </trkpt>
      <trkpt lat="43.52042" lon="3.7655">
        <ele>65.7</ele>
        <time>2010-12-12T10:27:10Z</time>
      </trkpt>
      <trkpt lat="43.52047" lon="3.76553">
        <ele>65.8</ele>
        <time>2010-12-12T10:27:12Z</time>
      </trkpt>
      <trkpt lat="43.52053" lon="3.76558">
        <ele>65.9</ele>
        <time>2010-12-12T10:27:14Z</time>
      </trkpt>
      <trkpt lat="43.52058" lon="3.76563">
        <ele>65.9</ele>
        <time>2010-12-12T10:27:16Z</time>
      </trkpt>
      <trkpt lat="43.52064" lon="3.76568">
        <ele>66</ele>
        <time>2010-12-12T10:27:18Z</time>
      </trkpt>
      <trkpt lat="43.52067" lon="3.76572">
        <ele>66.1</ele>
        <time>2010-12-12T10:27:19Z</time>
      </trkpt>
      <trkpt lat="43.52078" lon="3.7658">
        <ele>66.1</ele>
        <time>2010-12-12T10:27:22Z</time>
      </trkpt>
      <trkpt lat="43.52085" lon="3.76585">
        <ele>66</ele>
        <time>2010-12-12T10:27:24Z</time>
      </trkpt>
      <trkpt lat="43.52093" lon="3.76592">
        <ele>66.1</ele>
        <time>2010-12-12T10:27:26Z</time>
      </trkpt>
      <trkpt lat="43.52097" lon="3.76595">
        <ele>66.1</ele>
        <time>2010-12-12T10:27:27Z</time>
      </trkpt>
      <trkpt lat="43.52101" lon="3.76598">
        <ele>66.1</ele>
        <time>2010-12-12T10:27:28Z</time>
      </trkpt>
      <trkpt lat="43.52105" lon="3.76602">
        <ele>66.1</ele>
        <time>2010-12-12T10:27:29Z</time>
      </trkpt>
      <trkpt lat="43.52109" lon="3.76605">
        <ele>66.1</ele>
        <time>2010-12-12T10:27:30Z</time>
      </trkpt>
      <trkpt lat="43.52113" lon="3.76609">
        <ele>66.1</ele>
        <time>2010-12-12T10:27:31Z</time>
      </trkpt>
      <trkpt lat="43.52117" lon="3.76612">
        <ele>66.1</ele>
        <time>2010-12-12T10:27:32Z</time>
      </trkpt>
      <trkpt lat="43.52125" lon="3.76618">
        <ele>66.1</ele>
        <time>2010-12-12T10:27:34Z</time>
      </trkpt>
      <trkpt lat="43.52132" lon="3.76624">
        <ele>66.1</ele>
        <time>2010-12-12T10:27:36Z</time>
      </trkpt>
      <trkpt lat="43.52139" lon="3.76629">
        <ele>66.1</ele>
        <time>2010-12-12T10:27:38Z</time>
      </trkpt>
      <trkpt lat="43.52146" lon="3.76635">
        <ele>66</ele>
        <time>2010-12-12T10:27:40Z</time>
      </trkpt>
      <trkpt lat="43.52153" lon="3.76641">
        <ele>66</ele>
        <time>2010-12-12T10:27:42Z</time>
      </trkpt>
      <trkpt lat="43.5216" lon="3.76647">
        <ele>65.9</ele>
        <time>2010-12-12T10:27:44Z</time>
      </trkpt>
      <trkpt lat="43.52166" lon="3.76653">
        <ele>65.8</ele>
        <time>2010-12-12T10:27:46Z</time>
      </trkpt>
      <trkpt lat="43.52173" lon="3.76659">
        <ele>65.9</ele>
        <time>2010-12-12T10:27:48Z</time>
      </trkpt>
      <trkpt lat="43.5218" lon="3.76665">
        <ele>66</ele>
        <time>2010-12-12T10:27:50Z</time>
      </trkpt>
      <trkpt lat="43.52186" lon="3.76671">
        <ele>66.1</ele>
        <time>2010-12-12T10:27:52Z</time>
      </trkpt>
      <trkpt lat="43.52193" lon="3.76677">
        <ele>66.2</ele>
        <time>2010-12-12T10:27:54Z</time>
      </trkpt>
      <trkpt lat="43.522" lon="3.76682">
        <ele>66.3</ele>
        <time>2010-12-12T10:27:56Z</time>
      </trkpt>
      <trkpt lat="43.52208" lon="3.76686">
        <ele>66.4</ele>
        <time>2010-12-12T10:27:58Z</time>
      </trkpt>
      <trkpt lat="43.52216" lon="3.76691">
        <ele>66.4</ele>
        <time>2010-12-12T10:28:00Z</time>
      </trkpt>
      <trkpt lat="43.52223" lon="3.76695">
        <ele>66.5</ele>
        <time>2010-12-12T10:28:02Z</time>
      </trkpt>
      <trkpt lat="43.5223" lon="3.767">
        <ele>66.5</ele>
        <time>2010-12-12T10:28:04Z</time>
      </trkpt>
      <trkpt lat="43.52238" lon="3.76704">
        <ele>66.5</ele>
        <time>2010-12-12T10:28:06Z</time>
      </trkpt>
      <trkpt lat="43.52245" lon="3.7671">
        <ele>66.5</ele>
        <time>2010-12-12T10:28:08Z</time>
      </trkpt>
      <trkpt lat="43.52251" lon="3.76716">
        <ele>66.6</ele>
        <time>2010-12-12T10:28:10Z</time>
      </trkpt>
      <trkpt lat="43.52258" lon="3.76724">
        <ele>66.4</ele>
        <time>2010-12-12T10:28:12Z</time>
      </trkpt>
      <trkpt lat="43.52265" lon="3.76731">
        <ele>66.3</ele>
        <time>2010-12-12T10:28:14Z</time>
      </trkpt>
      <trkpt lat="43.52272" lon="3.76736">
        <ele>66.1</ele>
        <time>2010-12-12T10:28:16Z</time>
      </trkpt>
      <trkpt lat="43.5228" lon="3.76741">
        <ele>65.9</ele>
        <time>2010-12-12T10:28:18Z</time>
      </trkpt>
      <trkpt lat="43.52288" lon="3.76747">
        <ele>65.6</ele>
        <time>2010-12-12T10:28:20Z</time>
      </trkpt>
      <trkpt lat="43.52292" lon="3.7675">
        <ele>65.5</ele>
        <time>2010-12-12T10:28:21Z</time>
      </trkpt>
      <trkpt lat="43.52304" lon="3.76757">
        <ele>65.3</ele>
        <time>2010-12-12T10:28:24Z</time>
      </trkpt>
      <trkpt lat="43.52312" lon="3.76762">
        <ele>65.3</ele>
        <time>2010-12-12T10:28:26Z</time>
      </trkpt>
      <trkpt lat="43.52316" lon="3.76765">
        <ele>65.2</ele>
        <time>2010-12-12T10:28:27Z</time>
      </trkpt>
      <trkpt lat="43.52321" lon="3.76767">
        <ele>65.2</ele>
        <time>2010-12-12T10:28:28Z</time>
      </trkpt>
      <trkpt lat="43.52325" lon="3.7677">
        <ele>65.2</ele>
        <time>2010-12-12T10:28:29Z</time>
      </trkpt>
      <trkpt lat="43.52329" lon="3.76773">
        <ele>65.2</ele>
        <time>2010-12-12T10:28:30Z</time>
      </trkpt>
      <trkpt lat="43.52334" lon="3.76775">
        <ele>65.2</ele>
        <time>2010-12-12T10:28:31Z</time>
      </trkpt>
      <trkpt lat="43.52338" lon="3.76778">
        <ele>65.2</ele>
        <time>2010-12-12T10:28:32Z</time>
      </trkpt>
      <trkpt lat="43.52342" lon="3.7678">
        <ele>65.2</ele>
        <time>2010-12-12T10:28:33Z</time>
      </trkpt>
      <trkpt lat="43.52347" lon="3.76783">
        <ele>65.2</ele>
        <time>2010-12-12T10:28:34Z</time>
      </trkpt>
      <trkpt lat="43.52351" lon="3.76785">
        <ele>65.2</ele>
        <time>2010-12-12T10:28:35Z</time>
      </trkpt>
      <trkpt lat="43.52359" lon="3.76789">
        <ele>65.1</ele>
        <time>2010-12-12T10:28:37Z</time>
      </trkpt>
      <trkpt lat="43.52364" lon="3.76791">
        <ele>65.1</ele>
        <time>2010-12-12T10:28:38Z</time>
      </trkpt>
      <trkpt lat="43.52368" lon="3.76793">
        <ele>65</ele>
        <time>2010-12-12T10:28:39Z</time>
      </trkpt>
      <trkpt lat="43.52372" lon="3.76794">
        <ele>64.9</ele>
        <time>2010-12-12T10:28:40Z</time>
      </trkpt>
      <trkpt lat="43.52377" lon="3.76796">
        <ele>64.8</ele>
        <time>2010-12-12T10:28:41Z</time>
      </trkpt>
      <trkpt lat="43.52382" lon="3.76797">
        <ele>64.7</ele>
        <time>2010-12-12T10:28:42Z</time>
      </trkpt>
      <trkpt lat="43.52386" lon="3.76799">
        <ele>64.6</ele>
        <time>2010-12-12T10:28:43Z</time>
      </trkpt>
      <trkpt lat="43.5239" lon="3.76802">
        <ele>64.5</ele>
        <time>2010-12-12T10:28:44Z</time>
      </trkpt>
      <trkpt lat="43.52394" lon="3.76805">
        <ele>64.5</ele>
        <time>2010-12-12T10:28:45Z</time>
      </trkpt>
      <trkpt lat="43.52398" lon="3.76808">
        <ele>64.4</ele>
        <time>2010-12-12T10:28:46Z</time>
      </trkpt>
      <trkpt lat="43.52402" lon="3.76812">
        <ele>64.3</ele>
        <time>2010-12-12T10:28:47Z</time>
      </trkpt>
      <trkpt lat="43.52406" lon="3.76815">
        <ele>64.2</ele>
        <time>2010-12-12T10:28:48Z</time>
      </trkpt>
      <trkpt lat="43.5241" lon="3.76818">
        <ele>64.1</ele>
        <time>2010-12-12T10:28:49Z</time>
      </trkpt>
      <trkpt lat="43.52418" lon="3.76823">
        <ele>63.8</ele>
        <time>2010-12-12T10:28:51Z</time>
      </trkpt>
      <trkpt lat="43.52422" lon="3.76826">
        <ele>63.6</ele>
        <time>2010-12-12T10:28:52Z</time>
      </trkpt>
      <trkpt lat="43.52427" lon="3.76829">
        <ele>63.5</ele>
        <time>2010-12-12T10:28:53Z</time>
      </trkpt>
      <trkpt lat="43.52435" lon="3.76833">
        <ele>63.1</ele>
        <time>2010-12-12T10:28:55Z</time>
      </trkpt>
      <trkpt lat="43.52442" lon="3.76837">
        <ele>63</ele>
        <time>2010-12-12T10:28:57Z</time>
      </trkpt>
      <trkpt lat="43.5245" lon="3.76842">
        <ele>62.9</ele>
        <time>2010-12-12T10:28:59Z</time>
      </trkpt>
      <trkpt lat="43.52454" lon="3.76845">
        <ele>62.9</ele>
        <time>2010-12-12T10:29:00Z</time>
      </trkpt>
      <trkpt lat="43.52458" lon="3.76849">
        <ele>62.9</ele>
        <time>2010-12-12T10:29:01Z</time>
      </trkpt>
      <trkpt lat="43.52462" lon="3.76852">
        <ele>62.9</ele>
        <time>2010-12-12T10:29:02Z</time>
      </trkpt>
      <trkpt lat="43.52466" lon="3.76856">
        <ele>63</ele>
        <time>2010-12-12T10:29:03Z</time>
      </trkpt>
      <trkpt lat="43.5247" lon="3.76861">
        <ele>63.1</ele>
        <time>2010-12-12T10:29:04Z</time>
      </trkpt>
      <trkpt lat="43.52473" lon="3.76865">
        <ele>63.2</ele>
        <time>2010-12-12T10:29:05Z</time>
      </trkpt>
      <trkpt lat="43.52477" lon="3.7687">
        <ele>63.3</ele>
        <time>2010-12-12T10:29:06Z</time>
      </trkpt>
      <trkpt lat="43.5248" lon="3.76874">
        <ele>63.4</ele>
        <time>2010-12-12T10:29:07Z</time>
      </trkpt>
      <trkpt lat="43.52483" lon="3.76878">
        <ele>63.5</ele>
        <time>2010-12-12T10:29:08Z</time>
      </trkpt>
      <trkpt lat="43.52487" lon="3.76882">
        <ele>63.5</ele>
        <time>2010-12-12T10:29:09Z</time>
      </trkpt>
      <trkpt lat="43.52491" lon="3.76886">
        <ele>63.6</ele>
        <time>2010-12-12T10:29:10Z</time>
      </trkpt>
      <trkpt lat="43.52495" lon="3.7689">
        <ele>63.6</ele>
        <time>2010-12-12T10:29:11Z</time>
      </trkpt>
      <trkpt lat="43.52502" lon="3.76897">
        <ele>63.7</ele>
        <time>2010-12-12T10:29:13Z</time>
      </trkpt>
      <trkpt lat="43.52509" lon="3.76904">
        <ele>63.7</ele>
        <time>2010-12-12T10:29:15Z</time>
      </trkpt>
      <trkpt lat="43.52516" lon="3.76911">
        <ele>63.8</ele>
        <time>2010-12-12T10:29:17Z</time>
      </trkpt>
      <trkpt lat="43.52522" lon="3.7692">
        <ele>63.8</ele>
        <time>2010-12-12T10:29:19Z</time>
      </trkpt>
      <trkpt lat="43.52528" lon="3.76929">
        <ele>63.6</ele>
        <time>2010-12-12T10:29:21Z</time>
      </trkpt>
      <trkpt lat="43.52531" lon="3.76934">
        <ele>63.6</ele>
        <time>2010-12-12T10:29:22Z</time>
      </trkpt>
      <trkpt lat="43.52534" lon="3.76939">
        <ele>63.5</ele>
        <time>2010-12-12T10:29:23Z</time>
      </trkpt>
      <trkpt lat="43.5254" lon="3.76948">
        <ele>63.3</ele>
        <time>2010-12-12T10:29:25Z</time>
      </trkpt>
      <trkpt lat="43.52546" lon="3.76957">
        <ele>63.2</ele>
        <time>2010-12-12T10:29:27Z</time>
      </trkpt>
      <trkpt lat="43.52549" lon="3.76962">
        <ele>63.1</ele>
        <time>2010-12-12T10:29:28Z</time>
      </trkpt>
      <trkpt lat="43.52554" lon="3.76972">
        <ele>63.1</ele>
        <time>2010-12-12T10:29:30Z</time>
      </trkpt>
      <trkpt lat="43.5256" lon="3.76981">
        <ele>63</ele>
        <time>2010-12-12T10:29:32Z</time>
      </trkpt>
      <trkpt lat="43.52563" lon="3.76985">
        <ele>62.9</ele>
        <time>2010-12-12T10:29:33Z</time>
      </trkpt>
      <trkpt lat="43.52566" lon="3.7699">
        <ele>62.8</ele>
        <time>2010-12-12T10:29:34Z</time>
      </trkpt>
      <trkpt lat="43.52569" lon="3.76995">
        <ele>62.7</ele>
        <time>2010-12-12T10:29:35Z</time>
      </trkpt>
      <trkpt lat="43.52574" lon="3.77005">
        <ele>62.8</ele>
        <time>2010-12-12T10:29:37Z</time>
      </trkpt>
      <trkpt lat="43.52578" lon="3.77015">
        <ele>62.8</ele>
        <time>2010-12-12T10:29:39Z</time>
      </trkpt>
      <trkpt lat="43.52583" lon="3.77025">
        <ele>62.9</ele>
        <time>2010-12-12T10:29:41Z</time>
      </trkpt>
      <trkpt lat="43.52586" lon="3.7703">
        <ele>63.1</ele>
        <time>2010-12-12T10:29:42Z</time>
      </trkpt>
      <trkpt lat="43.52589" lon="3.77036">
        <ele>63.4</ele>
        <time>2010-12-12T10:29:43Z</time>
      </trkpt>
      <trkpt lat="43.5259" lon="3.77042">
        <ele>63.6</ele>
        <time>2010-12-12T10:29:44Z</time>
      </trkpt>
      <trkpt lat="43.52591" lon="3.77048">
        <ele>63.8</ele>
        <time>2010-12-12T10:29:45Z</time>
      </trkpt>
      <trkpt lat="43.52592" lon="3.77054">
        <ele>64</ele>
        <time>2010-12-12T10:29:46Z</time>
      </trkpt>
      <trkpt lat="43.52597" lon="3.77065">
        <ele>64.4</ele>
        <time>2010-12-12T10:29:48Z</time>
      </trkpt>
      <trkpt lat="43.52602" lon="3.77074">
        <ele>64.7</ele>
        <time>2010-12-12T10:29:50Z</time>
      </trkpt>
      <trkpt lat="43.52608" lon="3.77082">
        <ele>65</ele>
        <time>2010-12-12T10:29:52Z</time>
      </trkpt>
      <trkpt lat="43.52613" lon="3.77092">
        <ele>65</ele>
        <time>2010-12-12T10:29:54Z</time>
      </trkpt>
      <trkpt lat="43.52618" lon="3.77101">
        <ele>65.1</ele>
        <time>2010-12-12T10:29:56Z</time>
      </trkpt>
      <trkpt lat="43.52623" lon="3.77111">
        <ele>65.2</ele>
        <time>2010-12-12T10:29:58Z</time>
      </trkpt>
      <trkpt lat="43.52629" lon="3.77119">
        <ele>65.2</ele>
        <time>2010-12-12T10:30:00Z</time>
      </trkpt>
      <trkpt lat="43.52636" lon="3.77128">
        <ele>65.3</ele>
        <time>2010-12-12T10:30:02Z</time>
      </trkpt>
      <trkpt lat="43.52642" lon="3.77137">
        <ele>65.4</ele>
        <time>2010-12-12T10:30:04Z</time>
      </trkpt>
      <trkpt lat="43.52648" lon="3.77145">
        <ele>65.6</ele>
        <time>2010-12-12T10:30:06Z</time>
      </trkpt>
      <trkpt lat="43.52652" lon="3.77149">
        <ele>65.6</ele>
        <time>2010-12-12T10:30:07Z</time>
      </trkpt>
      <trkpt lat="43.52658" lon="3.77157">
        <ele>65.8</ele>
        <time>2010-12-12T10:30:09Z</time>
      </trkpt>
      <trkpt lat="43.52663" lon="3.77167">
        <ele>66</ele>
        <time>2010-12-12T10:30:13Z</time>
      </trkpt>
      <trkpt lat="43.52666" lon="3.77175">
        <ele>66</ele>
        <time>2010-12-12T10:30:16Z</time>
      </trkpt>
      <trkpt lat="43.52672" lon="3.77179">
        <ele>65.8</ele>
        <time>2010-12-12T10:30:18Z</time>
      </trkpt>
      <trkpt lat="43.52678" lon="3.77185">
        <ele>65.6</ele>
        <time>2010-12-12T10:30:20Z</time>
      </trkpt>
      <trkpt lat="43.52684" lon="3.77192">
        <ele>65.4</ele>
        <time>2010-12-12T10:30:22Z</time>
      </trkpt>
      <trkpt lat="43.52686" lon="3.77196">
        <ele>65.4</ele>
        <time>2010-12-12T10:30:23Z</time>
      </trkpt>
      <trkpt lat="43.52691" lon="3.77209">
        <ele>65.3</ele>
        <time>2010-12-12T10:30:26Z</time>
      </trkpt>
      <trkpt lat="43.52695" lon="3.77216">
        <ele>65.2</ele>
        <time>2010-12-12T10:30:28Z</time>
      </trkpt>
      <trkpt lat="43.527" lon="3.77222">
        <ele>65.1</ele>
        <time>2010-12-12T10:30:30Z</time>
      </trkpt>
      <trkpt lat="43.52706" lon="3.77228">
        <ele>64.9</ele>
        <time>2010-12-12T10:30:33Z</time>
      </trkpt>
      <trkpt lat="43.52715" lon="3.77229">
        <ele>64.7</ele>
        <time>2010-12-12T10:30:36Z</time>
      </trkpt>
      <trkpt lat="43.52722" lon="3.77234">
        <ele>64.5</ele>
        <time>2010-12-12T10:30:39Z</time>
      </trkpt>
      <trkpt lat="43.52725" lon="3.77246">
        <ele>64.6</ele>
        <time>2010-12-12T10:30:42Z</time>
      </trkpt>
      <trkpt lat="43.52728" lon="3.77254">
        <ele>64.6</ele>
        <time>2010-12-12T10:30:44Z</time>
      </trkpt>
      <trkpt lat="43.52732" lon="3.7726">
        <ele>64.7</ele>
        <time>2010-12-12T10:30:46Z</time>
      </trkpt>
      <trkpt lat="43.52737" lon="3.7727">
        <ele>64.9</ele>
        <time>2010-12-12T10:30:49Z</time>
      </trkpt>
      <trkpt lat="43.52742" lon="3.77278">
        <ele>64.9</ele>
        <time>2010-12-12T10:30:52Z</time>
      </trkpt>
      <trkpt lat="43.52749" lon="3.77285">
        <ele>64.9</ele>
        <time>2010-12-12T10:30:55Z</time>
      </trkpt>
      <trkpt lat="43.52754" lon="3.77295">
        <ele>65</ele>
        <time>2010-12-12T10:30:58Z</time>
      </trkpt>
      <trkpt lat="43.52759" lon="3.77304">
        <ele>65.1</ele>
        <time>2010-12-12T10:31:01Z</time>
      </trkpt>
      <trkpt lat="43.52763" lon="3.77314">
        <ele>65.2</ele>
        <time>2010-12-12T10:31:04Z</time>
      </trkpt>
      <trkpt lat="43.52767" lon="3.77324">
        <ele>65.4</ele>
        <time>2010-12-12T10:31:07Z</time>
      </trkpt>
      <trkpt lat="43.52773" lon="3.77332">
        <ele>65.4</ele>
        <time>2010-12-12T10:31:10Z</time>
      </trkpt>
      <trkpt lat="43.52779" lon="3.77339">
        <ele>65.6</ele>
        <time>2010-12-12T10:31:13Z</time>
      </trkpt>
      <trkpt lat="43.52785" lon="3.77345">
        <ele>65.7</ele>
        <time>2010-12-12T10:31:16Z</time>
      </trkpt>
      <trkpt lat="43.5279" lon="3.7735">
        <ele>65.8</ele>
        <time>2010-12-12T10:31:19Z</time>
      </trkpt>
      <trkpt lat="43.52796" lon="3.77357">
        <ele>66</ele>
        <time>2010-12-12T10:31:22Z</time>
      </trkpt>
      <trkpt lat="43.52803" lon="3.77365">
        <ele>66.2</ele>
        <time>2010-12-12T10:31:25Z</time>
      </trkpt>
      <trkpt lat="43.52805" lon="3.77367">
        <ele>66.2</ele>
        <time>2010-12-12T10:31:26Z</time>
      </trkpt>
      <trkpt lat="43.52814" lon="3.77382">
        <ele>66.5</ele>
        <time>2010-12-12T10:31:31Z</time>
      </trkpt>
      <trkpt lat="43.5282" lon="3.77391">
        <ele>66.6</ele>
        <time>2010-12-12T10:31:34Z</time>
      </trkpt>
      <trkpt lat="43.52824" lon="3.77397">
        <ele>66.7</ele>
        <time>2010-12-12T10:31:36Z</time>
      </trkpt>
      <trkpt lat="43.52829" lon="3.77402">
        <ele>66.7</ele>
        <time>2010-12-12T10:31:38Z</time>
      </trkpt>
      <trkpt lat="43.52836" lon="3.77407">
        <ele>66.6</ele>
        <time>2010-12-12T10:31:40Z</time>
      </trkpt>
      <trkpt lat="43.52844" lon="3.77412">
        <ele>66.8</ele>
        <time>2010-12-12T10:31:42Z</time>
      </trkpt>
      <trkpt lat="43.52851" lon="3.77418">
        <ele>67.1</ele>
        <time>2010-12-12T10:31:44Z</time>
      </trkpt>
      <trkpt lat="43.52858" lon="3.77425">
        <ele>67.4</ele>
        <time>2010-12-12T10:31:48Z</time>
      </trkpt>
      <trkpt lat="43.52858" lon="3.77436">
        <ele>68</ele>
        <time>2010-12-12T10:32:01Z</time>
      </trkpt>
      <trkpt lat="43.52856" lon="3.77446">
        <ele>68.6</ele>
        <time>2010-12-12T10:32:04Z</time>
      </trkpt>
      <trkpt lat="43.52858" lon="3.77457">
        <ele>69.2</ele>
        <time>2010-12-12T10:32:07Z</time>
      </trkpt>
      <trkpt lat="43.52864" lon="3.77466">
        <ele>69.5</ele>
        <time>2010-12-12T10:32:10Z</time>
      </trkpt>
      <trkpt lat="43.5287" lon="3.77473">
        <ele>69.8</ele>
        <time>2010-12-12T10:32:12Z</time>
      </trkpt>
      <trkpt lat="43.52877" lon="3.7748">
        <ele>70</ele>
        <time>2010-12-12T10:32:14Z</time>
      </trkpt>
      <trkpt lat="43.52883" lon="3.77487">
        <ele>70.2</ele>
        <time>2010-12-12T10:32:16Z</time>
      </trkpt>
      <trkpt lat="43.52888" lon="3.77495">
        <ele>70.5</ele>
        <time>2010-12-12T10:32:18Z</time>
      </trkpt>
      <trkpt lat="43.52892" lon="3.77503">
        <ele>70.8</ele>
        <time>2010-12-12T10:32:20Z</time>
      </trkpt>
      <trkpt lat="43.52897" lon="3.77511">
        <ele>71.1</ele>
        <time>2010-12-12T10:32:22Z</time>
      </trkpt>
      <trkpt lat="43.529" lon="3.77518">
        <ele>71.5</ele>
        <time>2010-12-12T10:32:24Z</time>
      </trkpt>
      <trkpt lat="43.52905" lon="3.77524">
        <ele>71.7</ele>
        <time>2010-12-12T10:32:26Z</time>
      </trkpt>
      <trkpt lat="43.52908" lon="3.77527">
        <ele>71.8</ele>
        <time>2010-12-12T10:32:27Z</time>
      </trkpt>
      <trkpt lat="43.52915" lon="3.77536">
        <ele>72.2</ele>
        <time>2010-12-12T10:32:30Z</time>
      </trkpt>
      <trkpt lat="43.5292" lon="3.77542">
        <ele>72.3</ele>
        <time>2010-12-12T10:32:32Z</time>
      </trkpt>
      <trkpt lat="43.52925" lon="3.77548">
        <ele>72.4</ele>
        <time>2010-12-12T10:32:34Z</time>
      </trkpt>
      <trkpt lat="43.52929" lon="3.77555">
        <ele>72.5</ele>
        <time>2010-12-12T10:32:36Z</time>
      </trkpt>
      <trkpt lat="43.52934" lon="3.77561">
        <ele>72.5</ele>
        <time>2010-12-12T10:32:38Z</time>
      </trkpt>
      <trkpt lat="43.52939" lon="3.77567">
        <ele>72.5</ele>
        <time>2010-12-12T10:32:40Z</time>
      </trkpt>
      <trkpt lat="43.52944" lon="3.77573">
        <ele>72.5</ele>
        <time>2010-12-12T10:32:42Z</time>
      </trkpt>
      <trkpt lat="43.52948" lon="3.7758">
        <ele>72.5</ele>
        <time>2010-12-12T10:32:44Z</time>
      </trkpt>
      <trkpt lat="43.52952" lon="3.77586">
        <ele>72.6</ele>
        <time>2010-12-12T10:32:46Z</time>
      </trkpt>
      <trkpt lat="43.52957" lon="3.77592">
        <ele>72.5</ele>
        <time>2010-12-12T10:32:48Z</time>
      </trkpt>
      <trkpt lat="43.52961" lon="3.77598">
        <ele>72.5</ele>
        <time>2010-12-12T10:32:50Z</time>
      </trkpt>
      <trkpt lat="43.52966" lon="3.77604">
        <ele>72.5</ele>
        <time>2010-12-12T10:32:52Z</time>
      </trkpt>
      <trkpt lat="43.52971" lon="3.7761">
        <ele>72.5</ele>
        <time>2010-12-12T10:32:54Z</time>
      </trkpt>
      <trkpt lat="43.52977" lon="3.77617">
        <ele>72.5</ele>
        <time>2010-12-12T10:32:56Z</time>
      </trkpt>
      <trkpt lat="43.52981" lon="3.77626">
        <ele>72.7</ele>
        <time>2010-12-12T10:32:58Z</time>
      </trkpt>
      <trkpt lat="43.52984" lon="3.77631">
        <ele>72.8</ele>
        <time>2010-12-12T10:32:59Z</time>
      </trkpt>
      <trkpt lat="43.52988" lon="3.77642">
        <ele>73.1</ele>
        <time>2010-12-12T10:33:01Z</time>
      </trkpt>
      <trkpt lat="43.52993" lon="3.77651">
        <ele>73.4</ele>
        <time>2010-12-12T10:33:13Z</time>
      </trkpt>
      <trkpt lat="43.53" lon="3.77655">
        <ele>73.3</ele>
        <time>2010-12-12T10:33:19Z</time>
      </trkpt>
      <trkpt lat="43.53006" lon="3.77664">
        <ele>73.3</ele>
        <time>2010-12-12T10:33:27Z</time>
      </trkpt>
      <trkpt lat="43.53007" lon="3.77666">
        <ele>73.3</ele>
        <time>2010-12-12T10:33:28Z</time>
      </trkpt>
      <trkpt lat="43.53016" lon="3.77677">
        <ele>73</ele>
        <time>2010-12-12T10:33:32Z</time>
      </trkpt>
      <trkpt lat="43.53022" lon="3.77685">
        <ele>72.8</ele>
        <time>2010-12-12T10:33:35Z</time>
      </trkpt>
      <trkpt lat="43.53028" lon="3.77693">
        <ele>72.7</ele>
        <time>2010-12-12T10:33:38Z</time>
      </trkpt>
      <trkpt lat="43.53031" lon="3.77699">
        <ele>72.7</ele>
        <time>2010-12-12T10:33:40Z</time>
      </trkpt>
      <trkpt lat="43.53036" lon="3.77706">
        <ele>72.5</ele>
        <time>2010-12-12T10:33:42Z</time>
      </trkpt>
      <trkpt lat="43.53041" lon="3.77715">
        <ele>72.3</ele>
        <time>2010-12-12T10:33:44Z</time>
      </trkpt>
      <trkpt lat="43.53045" lon="3.7772">
        <ele>72.2</ele>
        <time>2010-12-12T10:33:45Z</time>
      </trkpt>
      <trkpt lat="43.53048" lon="3.77724">
        <ele>72.1</ele>
        <time>2010-12-12T10:33:46Z</time>
      </trkpt>
      <trkpt lat="43.53051" lon="3.77729">
        <ele>71.9</ele>
        <time>2010-12-12T10:33:47Z</time>
      </trkpt>
      <trkpt lat="43.53054" lon="3.77734">
        <ele>71.8</ele>
        <time>2010-12-12T10:33:48Z</time>
      </trkpt>
      <trkpt lat="43.53058" lon="3.7774">
        <ele>71.6</ele>
        <time>2010-12-12T10:33:49Z</time>
      </trkpt>
      <trkpt lat="43.53062" lon="3.77745">
        <ele>71.4</ele>
        <time>2010-12-12T10:33:50Z</time>
      </trkpt>
      <trkpt lat="43.53065" lon="3.7775">
        <ele>71.2</ele>
        <time>2010-12-12T10:33:51Z</time>
      </trkpt>
      <trkpt lat="43.53069" lon="3.77755">
        <ele>71.1</ele>
        <time>2010-12-12T10:33:52Z</time>
      </trkpt>
      <trkpt lat="43.53073" lon="3.7776">
        <ele>71.1</ele>
        <time>2010-12-12T10:33:53Z</time>
      </trkpt>
      <trkpt lat="43.53076" lon="3.77765">
        <ele>71.1</ele>
        <time>2010-12-12T10:33:54Z</time>
      </trkpt>
      <trkpt lat="43.5308" lon="3.7777">
        <ele>71.1</ele>
        <time>2010-12-12T10:33:55Z</time>
      </trkpt>
      <trkpt lat="43.53084" lon="3.77775">
        <ele>71.1</ele>
        <time>2010-12-12T10:33:56Z</time>
      </trkpt>
      <trkpt lat="43.53087" lon="3.7778">
        <ele>71.1</ele>
        <time>2010-12-12T10:33:57Z</time>
      </trkpt>
      <trkpt lat="43.53091" lon="3.77785">
        <ele>71.1</ele>
        <time>2010-12-12T10:33:58Z</time>
      </trkpt>
      <trkpt lat="43.53094" lon="3.7779">
        <ele>71.2</ele>
        <time>2010-12-12T10:33:59Z</time>
      </trkpt>
      <trkpt lat="43.53097" lon="3.77795">
        <ele>71.2</ele>
        <time>2010-12-12T10:34:00Z</time>
      </trkpt>
      <trkpt lat="43.53101" lon="3.778">
        <ele>71.3</ele>
        <time>2010-12-12T10:34:01Z</time>
      </trkpt>
      <trkpt lat="43.53104" lon="3.77805">
        <ele>71.3</ele>
        <time>2010-12-12T10:34:02Z</time>
      </trkpt>
      <trkpt lat="43.53108" lon="3.77811">
        <ele>71.3</ele>
        <time>2010-12-12T10:34:03Z</time>
      </trkpt>
      <trkpt lat="43.53112" lon="3.77817">
        <ele>71.3</ele>
        <time>2010-12-12T10:34:04Z</time>
      </trkpt>
      <trkpt lat="43.53116" lon="3.77824">
        <ele>71.3</ele>
        <time>2010-12-12T10:34:05Z</time>
      </trkpt>
      <trkpt lat="43.53121" lon="3.77831">
        <ele>71.3</ele>
        <time>2010-12-12T10:34:06Z</time>
      </trkpt>
      <trkpt lat="43.53126" lon="3.77838">
        <ele>71.2</ele>
        <time>2010-12-12T10:34:07Z</time>
      </trkpt>
      <trkpt lat="43.5313" lon="3.77845">
        <ele>71</ele>
        <time>2010-12-12T10:34:08Z</time>
      </trkpt>
      <trkpt lat="43.53135" lon="3.77853">
        <ele>70.8</ele>
        <time>2010-12-12T10:34:09Z</time>
      </trkpt>
      <trkpt lat="43.5314" lon="3.7786">
        <ele>70.6</ele>
        <time>2010-12-12T10:34:10Z</time>
      </trkpt>
      <trkpt lat="43.53145" lon="3.77866">
        <ele>70.3</ele>
        <time>2010-12-12T10:34:11Z</time>
      </trkpt>
      <trkpt lat="43.5315" lon="3.77872">
        <ele>70</ele>
        <time>2010-12-12T10:34:12Z</time>
      </trkpt>
      <trkpt lat="43.53155" lon="3.77879">
        <ele>69.7</ele>
        <time>2010-12-12T10:34:13Z</time>
      </trkpt>
      <trkpt lat="43.53159" lon="3.77885">
        <ele>69.4</ele>
        <time>2010-12-12T10:34:14Z</time>
      </trkpt>
      <trkpt lat="43.53164" lon="3.77892">
        <ele>69.2</ele>
        <time>2010-12-12T10:34:15Z</time>
      </trkpt>
      <trkpt lat="43.53168" lon="3.77899">
        <ele>69.1</ele>
        <time>2010-12-12T10:34:16Z</time>
      </trkpt>
      <trkpt lat="43.53173" lon="3.77906">
        <ele>69</ele>
        <time>2010-12-12T10:34:17Z</time>
      </trkpt>
      <trkpt lat="43.53178" lon="3.77912">
        <ele>69</ele>
        <time>2010-12-12T10:34:18Z</time>
      </trkpt>
      <trkpt lat="43.53183" lon="3.77918">
        <ele>68.9</ele>
        <time>2010-12-12T10:34:19Z</time>
      </trkpt>
      <trkpt lat="43.53187" lon="3.77925">
        <ele>69</ele>
        <time>2010-12-12T10:34:20Z</time>
      </trkpt>
      <trkpt lat="43.53191" lon="3.77931">
        <ele>69</ele>
        <time>2010-12-12T10:34:21Z</time>
      </trkpt>
      <trkpt lat="43.53195" lon="3.77937">
        <ele>69</ele>
        <time>2010-12-12T10:34:22Z</time>
      </trkpt>
      <trkpt lat="43.53199" lon="3.77943">
        <ele>69.1</ele>
        <time>2010-12-12T10:34:23Z</time>
      </trkpt>
      <trkpt lat="43.53203" lon="3.77948">
        <ele>69</ele>
        <time>2010-12-12T10:34:24Z</time>
      </trkpt>
      <trkpt lat="43.53208" lon="3.77953">
        <ele>69</ele>
        <time>2010-12-12T10:34:25Z</time>
      </trkpt>
      <trkpt lat="43.53213" lon="3.77957">
        <ele>68.9</ele>
        <time>2010-12-12T10:34:26Z</time>
      </trkpt>
      <trkpt lat="43.53218" lon="3.77962">
        <ele>68.8</ele>
        <time>2010-12-12T10:34:27Z</time>
      </trkpt>
      <trkpt lat="43.53222" lon="3.77967">
        <ele>68.9</ele>
        <time>2010-12-12T10:34:28Z</time>
      </trkpt>
      <trkpt lat="43.53226" lon="3.77973">
        <ele>68.9</ele>
        <time>2010-12-12T10:34:29Z</time>
      </trkpt>
      <trkpt lat="43.53229" lon="3.77979">
        <ele>69</ele>
        <time>2010-12-12T10:34:30Z</time>
      </trkpt>
      <trkpt lat="43.53233" lon="3.77985">
        <ele>69.2</ele>
        <time>2010-12-12T10:34:31Z</time>
      </trkpt>
      <trkpt lat="43.53236" lon="3.77991">
        <ele>69.3</ele>
        <time>2010-12-12T10:34:32Z</time>
      </trkpt>
      <trkpt lat="43.5324" lon="3.77997">
        <ele>69.4</ele>
        <time>2010-12-12T10:34:33Z</time>
      </trkpt>
      <trkpt lat="43.53244" lon="3.78003">
        <ele>69.5</ele>
        <time>2010-12-12T10:34:34Z</time>
      </trkpt>
      <trkpt lat="43.53248" lon="3.78008">
        <ele>69.7</ele>
        <time>2010-12-12T10:34:35Z</time>
      </trkpt>
      <trkpt lat="43.53252" lon="3.78014">
        <ele>69.8</ele>
        <time>2010-12-12T10:34:36Z</time>
      </trkpt>
      <trkpt lat="43.53256" lon="3.7802">
        <ele>69.8</ele>
        <time>2010-12-12T10:34:37Z</time>
      </trkpt>
      <trkpt lat="43.53261" lon="3.78026">
        <ele>69.7</ele>
        <time>2010-12-12T10:34:38Z</time>
      </trkpt>
      <trkpt lat="43.53265" lon="3.78032">
        <ele>69.7</ele>
        <time>2010-12-12T10:34:39Z</time>
      </trkpt>
      <trkpt lat="43.5327" lon="3.78039">
        <ele>69.8</ele>
        <time>2010-12-12T10:34:40Z</time>
      </trkpt>
      <trkpt lat="43.53274" lon="3.78046">
        <ele>69.8</ele>
        <time>2010-12-12T10:34:41Z</time>
      </trkpt>
      <trkpt lat="43.53279" lon="3.78054">
        <ele>70</ele>
        <time>2010-12-12T10:34:42Z</time>
      </trkpt>
      <trkpt lat="43.53283" lon="3.78061">
        <ele>70.1</ele>
        <time>2010-12-12T10:34:43Z</time>
      </trkpt>
      <trkpt lat="43.53288" lon="3.78067">
        <ele>70.1</ele>
        <time>2010-12-12T10:34:44Z</time>
      </trkpt>
      <trkpt lat="43.53292" lon="3.78073">
        <ele>70.2</ele>
        <time>2010-12-12T10:34:45Z</time>
      </trkpt>
      <trkpt lat="43.53297" lon="3.78079">
        <ele>70.2</ele>
        <time>2010-12-12T10:34:46Z</time>
      </trkpt>
      <trkpt lat="43.53301" lon="3.78085">
        <ele>70.3</ele>
        <time>2010-12-12T10:34:47Z</time>
      </trkpt>
      <trkpt lat="43.53304" lon="3.78091">
        <ele>70.5</ele>
        <time>2010-12-12T10:34:48Z</time>
      </trkpt>
      <trkpt lat="43.53308" lon="3.78097">
        <ele>70.6</ele>
        <time>2010-12-12T10:34:49Z</time>
      </trkpt>
      <trkpt lat="43.53312" lon="3.78103">
        <ele>70.7</ele>
        <time>2010-12-12T10:34:50Z</time>
      </trkpt>
      <trkpt lat="43.53315" lon="3.78108">
        <ele>70.9</ele>
        <time>2010-12-12T10:34:51Z</time>
      </trkpt>
      <trkpt lat="43.53319" lon="3.78114">
        <ele>71</ele>
        <time>2010-12-12T10:34:52Z</time>
      </trkpt>
      <trkpt lat="43.53322" lon="3.78119">
        <ele>71.1</ele>
        <time>2010-12-12T10:34:53Z</time>
      </trkpt>
      <trkpt lat="43.53325" lon="3.78125">
        <ele>71.2</ele>
        <time>2010-12-12T10:34:54Z</time>
      </trkpt>
      <trkpt lat="43.53329" lon="3.7813">
        <ele>71.3</ele>
        <time>2010-12-12T10:34:55Z</time>
      </trkpt>
      <trkpt lat="43.53333" lon="3.78135">
        <ele>71.4</ele>
        <time>2010-12-12T10:34:56Z</time>
      </trkpt>
      <trkpt lat="43.53336" lon="3.7814">
        <ele>71.6</ele>
        <time>2010-12-12T10:34:57Z</time>
      </trkpt>
      <trkpt lat="43.5334" lon="3.78145">
        <ele>71.8</ele>
        <time>2010-12-12T10:34:58Z</time>
      </trkpt>
      <trkpt lat="43.53343" lon="3.7815">
        <ele>72</ele>
        <time>2010-12-12T10:34:59Z</time>
      </trkpt>
      <trkpt lat="43.53346" lon="3.78156">
        <ele>72.3</ele>
        <time>2010-12-12T10:35:00Z</time>
      </trkpt>
      <trkpt lat="43.5335" lon="3.78161">
        <ele>72.5</ele>
        <time>2010-12-12T10:35:01Z</time>
      </trkpt>
      <trkpt lat="43.53353" lon="3.78166">
        <ele>72.7</ele>
        <time>2010-12-12T10:35:02Z</time>
      </trkpt>
      <trkpt lat="43.53357" lon="3.7817">
        <ele>72.8</ele>
        <time>2010-12-12T10:35:03Z</time>
      </trkpt>
      <trkpt lat="43.5336" lon="3.78174">
        <ele>72.8</ele>
        <time>2010-12-12T10:35:04Z</time>
      </trkpt>
      <trkpt lat="43.53366" lon="3.78183">
        <ele>72.7</ele>
        <time>2010-12-12T10:35:06Z</time>
      </trkpt>
      <trkpt lat="43.53371" lon="3.78192">
        <ele>72.7</ele>
        <time>2010-12-12T10:35:08Z</time>
      </trkpt>
      <trkpt lat="43.53377" lon="3.782">
        <ele>72.5</ele>
        <time>2010-12-12T10:35:10Z</time>
      </trkpt>
      <trkpt lat="43.53383" lon="3.78208">
        <ele>72.3</ele>
        <time>2010-12-12T10:35:12Z</time>
      </trkpt>
      <trkpt lat="43.53389" lon="3.78217">
        <ele>72.1</ele>
        <time>2010-12-12T10:35:14Z</time>
      </trkpt>
      <trkpt lat="43.53395" lon="3.78226">
        <ele>71.8</ele>
        <time>2010-12-12T10:35:16Z</time>
      </trkpt>
      <trkpt lat="43.53398" lon="3.78231">
        <ele>71.6</ele>
        <time>2010-12-12T10:35:17Z</time>
      </trkpt>
      <trkpt lat="43.53401" lon="3.78236">
        <ele>71.4</ele>
        <time>2010-12-12T10:35:18Z</time>
      </trkpt>
      <trkpt lat="43.53405" lon="3.78241">
        <ele>71.1</ele>
        <time>2010-12-12T10:35:19Z</time>
      </trkpt>
      <trkpt lat="43.53408" lon="3.78246">
        <ele>70.9</ele>
        <time>2010-12-12T10:35:20Z</time>
      </trkpt>
      <trkpt lat="43.53411" lon="3.78251">
        <ele>70.6</ele>
        <time>2010-12-12T10:35:21Z</time>
      </trkpt>
      <trkpt lat="43.53414" lon="3.78255">
        <ele>70.4</ele>
        <time>2010-12-12T10:35:22Z</time>
      </trkpt>
      <trkpt lat="43.53418" lon="3.7826">
        <ele>70.2</ele>
        <time>2010-12-12T10:35:23Z</time>
      </trkpt>
      <trkpt lat="43.53421" lon="3.78265">
        <ele>70</ele>
        <time>2010-12-12T10:35:24Z</time>
      </trkpt>
      <trkpt lat="43.53425" lon="3.7827">
        <ele>69.8</ele>
        <time>2010-12-12T10:35:25Z</time>
      </trkpt>
      <trkpt lat="43.53431" lon="3.78279">
        <ele>69.4</ele>
        <time>2010-12-12T10:35:27Z</time>
      </trkpt>
      <trkpt lat="43.53436" lon="3.78285">
        <ele>69</ele>
        <time>2010-12-12T10:35:29Z</time>
      </trkpt>
      <trkpt lat="43.53439" lon="3.78288">
        <ele>68.8</ele>
        <time>2010-12-12T10:35:30Z</time>
      </trkpt>
      <trkpt lat="43.53446" lon="3.78301">
        <ele>68.3</ele>
        <time>2010-12-12T10:35:33Z</time>
      </trkpt>
      <trkpt lat="43.53451" lon="3.78308">
        <ele>67.9</ele>
        <time>2010-12-12T10:35:35Z</time>
      </trkpt>
      <trkpt lat="43.53445" lon="3.78302">
        <ele>68.5</ele>
        <time>2010-12-12T10:35:47Z</time>
      </trkpt>
      <trkpt lat="43.53443" lon="3.7829">
        <ele>68.5</ele>
        <time>2010-12-12T10:35:51Z</time>
      </trkpt>
      <trkpt lat="43.5345" lon="3.78283">
        <ele>67.6</ele>
        <time>2010-12-12T10:36:01Z</time>
      </trkpt>
      <trkpt lat="43.53458" lon="3.78279">
        <ele>66.9</ele>
        <time>2010-12-12T10:36:21Z</time>
      </trkpt>
      <trkpt lat="43.53464" lon="3.78272">
        <ele>66.2</ele>
        <time>2010-12-12T10:36:25Z</time>
      </trkpt>
      <trkpt lat="43.5347" lon="3.78263">
        <ele>65.7</ele>
        <time>2010-12-12T10:36:28Z</time>
      </trkpt>
      <trkpt lat="43.53474" lon="3.78257">
        <ele>65.3</ele>
        <time>2010-12-12T10:36:30Z</time>
      </trkpt>
      <trkpt lat="43.53476" lon="3.78254">
        <ele>65.1</ele>
        <time>2010-12-12T10:36:31Z</time>
      </trkpt>
      <trkpt lat="43.53489" lon="3.7825">
        <ele>63.9</ele>
        <time>2010-12-12T10:36:35Z</time>
      </trkpt>
      <trkpt lat="43.53493" lon="3.78248">
        <ele>63.5</ele>
        <time>2010-12-12T10:36:36Z</time>
      </trkpt>
      <trkpt lat="43.53498" lon="3.78246">
        <ele>63.1</ele>
        <time>2010-12-12T10:36:37Z</time>
      </trkpt>
      <trkpt lat="43.53502" lon="3.78242">
        <ele>62.7</ele>
        <time>2010-12-12T10:36:38Z</time>
      </trkpt>
      <trkpt lat="43.53507" lon="3.78239">
        <ele>62.4</ele>
        <time>2010-12-12T10:36:39Z</time>
      </trkpt>
      <trkpt lat="43.53512" lon="3.78236">
        <ele>62</ele>
        <time>2010-12-12T10:36:40Z</time>
      </trkpt>
      <trkpt lat="43.53517" lon="3.78233">
        <ele>61.6</ele>
        <time>2010-12-12T10:36:41Z</time>
      </trkpt>
      <trkpt lat="43.53523" lon="3.78233">
        <ele>61.2</ele>
        <time>2010-12-12T10:36:42Z</time>
      </trkpt>
      <trkpt lat="43.53528" lon="3.78234">
        <ele>60.8</ele>
        <time>2010-12-12T10:36:43Z</time>
      </trkpt>
      <trkpt lat="43.53536" lon="3.78237">
        <ele>60.3</ele>
        <time>2010-12-12T10:36:45Z</time>
      </trkpt>
      <trkpt lat="43.53539" lon="3.78246">
        <ele>60.2</ele>
        <time>2010-12-12T10:36:47Z</time>
      </trkpt>
      <trkpt lat="43.5354" lon="3.78256">
        <ele>60.2</ele>
        <time>2010-12-12T10:36:49Z</time>
      </trkpt>
      <trkpt lat="43.53541" lon="3.78266">
        <ele>60.2</ele>
        <time>2010-12-12T10:36:51Z</time>
      </trkpt>
      <trkpt lat="43.53541" lon="3.78278">
        <ele>60.4</ele>
        <time>2010-12-12T10:36:53Z</time>
      </trkpt>
      <trkpt lat="43.53541" lon="3.78284">
        <ele>60.4</ele>
        <time>2010-12-12T10:36:54Z</time>
      </trkpt>
      <trkpt lat="43.53541" lon="3.78291">
        <ele>60.5</ele>
        <time>2010-12-12T10:36:55Z</time>
      </trkpt>
      <trkpt lat="43.53541" lon="3.78298">
        <ele>60.6</ele>
        <time>2010-12-12T10:36:56Z</time>
      </trkpt>
      <trkpt lat="43.53542" lon="3.78306">
        <ele>60.7</ele>
        <time>2010-12-12T10:36:57Z</time>
      </trkpt>
      <trkpt lat="43.53542" lon="3.78314">
        <ele>60.7</ele>
        <time>2010-12-12T10:36:58Z</time>
      </trkpt>
      <trkpt lat="43.53544" lon="3.78321">
        <ele>60.7</ele>
        <time>2010-12-12T10:36:59Z</time>
      </trkpt>
      <trkpt lat="43.53545" lon="3.78328">
        <ele>60.8</ele>
        <time>2010-12-12T10:37:00Z</time>
      </trkpt>
      <trkpt lat="43.53548" lon="3.78334">
        <ele>60.7</ele>
        <time>2010-12-12T10:37:01Z</time>
      </trkpt>
      <trkpt lat="43.53554" lon="3.78343">
        <ele>60.7</ele>
        <time>2010-12-12T10:37:03Z</time>
      </trkpt>
      <trkpt lat="43.5356" lon="3.78352">
        <ele>60.7</ele>
        <time>2010-12-12T10:37:05Z</time>
      </trkpt>
      <trkpt lat="43.53564" lon="3.78361">
        <ele>60.8</ele>
        <time>2010-12-12T10:37:07Z</time>
      </trkpt>
      <trkpt lat="43.53568" lon="3.78372">
        <ele>61</ele>
        <time>2010-12-12T10:37:09Z</time>
      </trkpt>
      <trkpt lat="43.53573" lon="3.78381">
        <ele>61.2</ele>
        <time>2010-12-12T10:37:12Z</time>
      </trkpt>
      <trkpt lat="43.53572" lon="3.78372">
        <ele>60.9</ele>
        <time>2010-12-12T10:37:23Z</time>
      </trkpt>
      <trkpt lat="43.53576" lon="3.78363">
        <ele>60.4</ele>
        <time>2010-12-12T10:37:25Z</time>
      </trkpt>
      <trkpt lat="43.53581" lon="3.78354">
        <ele>59.9</ele>
        <time>2010-12-12T10:37:27Z</time>
      </trkpt>
      <trkpt lat="43.53586" lon="3.78344">
        <ele>59.4</ele>
        <time>2010-12-12T10:37:29Z</time>
      </trkpt>
      <trkpt lat="43.53588" lon="3.78339">
        <ele>59.2</ele>
        <time>2010-12-12T10:37:30Z</time>
      </trkpt>
      <trkpt lat="43.53591" lon="3.78334">
        <ele>58.9</ele>
        <time>2010-12-12T10:37:31Z</time>
      </trkpt>
      <trkpt lat="43.53595" lon="3.78329">
        <ele>58.7</ele>
        <time>2010-12-12T10:37:32Z</time>
      </trkpt>
      <trkpt lat="43.53598" lon="3.78324">
        <ele>58.5</ele>
        <time>2010-12-12T10:37:33Z</time>
      </trkpt>
      <trkpt lat="43.53601" lon="3.78318">
        <ele>58.3</ele>
        <time>2010-12-12T10:37:34Z</time>
      </trkpt>
      <trkpt lat="43.53604" lon="3.78313">
        <ele>58.1</ele>
        <time>2010-12-12T10:37:35Z</time>
      </trkpt>
      <trkpt lat="43.53608" lon="3.78307">
        <ele>57.8</ele>
        <time>2010-12-12T10:37:36Z</time>
      </trkpt>
      <trkpt lat="43.53611" lon="3.78302">
        <ele>57.5</ele>
        <time>2010-12-12T10:37:37Z</time>
      </trkpt>
      <trkpt lat="43.53615" lon="3.78296">
        <ele>57.2</ele>
        <time>2010-12-12T10:37:38Z</time>
      </trkpt>
      <trkpt lat="43.53618" lon="3.78291">
        <ele>56.9</ele>
        <time>2010-12-12T10:37:39Z</time>
      </trkpt>
      <trkpt lat="43.53622" lon="3.78283">
        <ele>56.5</ele>
        <time>2010-12-12T10:37:41Z</time>
      </trkpt>
      <trkpt lat="43.53616" lon="3.78291">
        <ele>57</ele>
        <time>2010-12-12T10:38:04Z</time>
      </trkpt>
      <trkpt lat="43.53611" lon="3.78298">
        <ele>57.4</ele>
        <time>2010-12-12T10:38:07Z</time>
      </trkpt>
      <trkpt lat="43.53612" lon="3.78309">
        <ele>57.8</ele>
        <time>2010-12-12T10:38:11Z</time>
      </trkpt>
      <trkpt lat="43.53617" lon="3.78319">
        <ele>58</ele>
        <time>2010-12-12T10:38:14Z</time>
      </trkpt>
      <trkpt lat="43.53621" lon="3.78326">
        <ele>58.2</ele>
        <time>2010-12-12T10:38:16Z</time>
      </trkpt>
      <trkpt lat="43.53626" lon="3.78333">
        <ele>58.5</ele>
        <time>2010-12-12T10:38:18Z</time>
      </trkpt>
      <trkpt lat="43.5363" lon="3.78341">
        <ele>58.8</ele>
        <time>2010-12-12T10:38:21Z</time>
      </trkpt>
      <trkpt lat="43.53634" lon="3.78351">
        <ele>59.2</ele>
        <time>2010-12-12T10:38:26Z</time>
      </trkpt>
      <trkpt lat="43.53639" lon="3.78361">
        <ele>59.6</ele>
        <time>2010-12-12T10:38:29Z</time>
      </trkpt>
      <trkpt lat="43.53642" lon="3.78368">
        <ele>59.8</ele>
        <time>2010-12-12T10:38:31Z</time>
      </trkpt>
      <trkpt lat="43.53646" lon="3.78375">
        <ele>60.1</ele>
        <time>2010-12-12T10:38:33Z</time>
      </trkpt>
      <trkpt lat="43.53648" lon="3.78378">
        <ele>60.3</ele>
        <time>2010-12-12T10:38:34Z</time>
      </trkpt>
      <trkpt lat="43.53653" lon="3.78388">
        <ele>60.7</ele>
        <time>2010-12-12T10:38:37Z</time>
      </trkpt>
      <trkpt lat="43.53659" lon="3.78398">
        <ele>61.1</ele>
        <time>2010-12-12T10:38:40Z</time>
      </trkpt>
      <trkpt lat="43.53662" lon="3.78405">
        <ele>61.4</ele>
        <time>2010-12-12T10:38:42Z</time>
      </trkpt>
      <trkpt lat="43.53667" lon="3.78416">
        <ele>61.9</ele>
        <time>2010-12-12T10:38:45Z</time>
      </trkpt>
      <trkpt lat="43.53671" lon="3.78424">
        <ele>62.4</ele>
        <time>2010-12-12T10:38:48Z</time>
      </trkpt>
      <trkpt lat="43.53676" lon="3.78432">
        <ele>62.7</ele>
        <time>2010-12-12T10:38:51Z</time>
      </trkpt>
      <trkpt lat="43.53682" lon="3.7844">
        <ele>63</ele>
        <time>2010-12-12T10:38:54Z</time>
      </trkpt>
      <trkpt lat="43.53687" lon="3.78445">
        <ele>63.1</ele>
        <time>2010-12-12T10:38:56Z</time>
      </trkpt>
      <trkpt lat="43.53693" lon="3.78454">
        <ele>63.3</ele>
        <time>2010-12-12T10:38:59Z</time>
      </trkpt>
      <trkpt lat="43.53699" lon="3.78462">
        <ele>63.5</ele>
        <time>2010-12-12T10:39:02Z</time>
      </trkpt>
      <trkpt lat="43.53703" lon="3.78469">
        <ele>63.7</ele>
        <time>2010-12-12T10:39:04Z</time>
      </trkpt>
      <trkpt lat="43.53708" lon="3.78476">
        <ele>63.8</ele>
        <time>2010-12-12T10:39:06Z</time>
      </trkpt>
      <trkpt lat="43.53714" lon="3.78483">
        <ele>63.8</ele>
        <time>2010-12-12T10:39:08Z</time>
      </trkpt>
      <trkpt lat="43.5372" lon="3.7849">
        <ele>63.8</ele>
        <time>2010-12-12T10:39:10Z</time>
      </trkpt>
      <trkpt lat="43.53726" lon="3.78498">
        <ele>63.8</ele>
        <time>2010-12-12T10:39:12Z</time>
      </trkpt>
      <trkpt lat="43.53732" lon="3.78505">
        <ele>63.7</ele>
        <time>2010-12-12T10:39:14Z</time>
      </trkpt>
      <trkpt lat="43.53739" lon="3.78513">
        <ele>63.4</ele>
        <time>2010-12-12T10:39:16Z</time>
      </trkpt>
      <trkpt lat="43.53746" lon="3.78521">
        <ele>63.2</ele>
        <time>2010-12-12T10:39:18Z</time>
      </trkpt>
      <trkpt lat="43.53753" lon="3.78528">
        <ele>62.8</ele>
        <time>2010-12-12T10:39:20Z</time>
      </trkpt>
      <trkpt lat="43.53756" lon="3.78532">
        <ele>62.6</ele>
        <time>2010-12-12T10:39:21Z</time>
      </trkpt>
      <trkpt lat="43.53761" lon="3.78536">
        <ele>62.3</ele>
        <time>2010-12-12T10:39:22Z</time>
      </trkpt>
      <trkpt lat="43.53765" lon="3.7854">
        <ele>62</ele>
        <time>2010-12-12T10:39:23Z</time>
      </trkpt>
      <trkpt lat="43.53769" lon="3.78546">
        <ele>61.8</ele>
        <time>2010-12-12T10:39:24Z</time>
      </trkpt>
      <trkpt lat="43.53773" lon="3.78551">
        <ele>61.5</ele>
        <time>2010-12-12T10:39:25Z</time>
      </trkpt>
      <trkpt lat="43.53777" lon="3.78558">
        <ele>61.3</ele>
        <time>2010-12-12T10:39:26Z</time>
      </trkpt>
      <trkpt lat="43.53781" lon="3.78564">
        <ele>61</ele>
        <time>2010-12-12T10:39:27Z</time>
      </trkpt>
      <trkpt lat="43.53786" lon="3.78571">
        <ele>60.8</ele>
        <time>2010-12-12T10:39:28Z</time>
      </trkpt>
      <trkpt lat="43.5379" lon="3.78577">
        <ele>60.5</ele>
        <time>2010-12-12T10:39:29Z</time>
      </trkpt>
      <trkpt lat="43.53794" lon="3.78582">
        <ele>60.4</ele>
        <time>2010-12-12T10:39:30Z</time>
      </trkpt>
      <trkpt lat="43.53799" lon="3.78591">
        <ele>60.3</ele>
        <time>2010-12-12T10:39:32Z</time>
      </trkpt>
      <trkpt lat="43.53805" lon="3.78599">
        <ele>60.3</ele>
        <time>2010-12-12T10:39:34Z</time>
      </trkpt>
      <trkpt lat="43.53808" lon="3.78603">
        <ele>60.2</ele>
        <time>2010-12-12T10:39:35Z</time>
      </trkpt>
      <trkpt lat="43.53816" lon="3.78616">
        <ele>60.3</ele>
        <time>2010-12-12T10:39:38Z</time>
      </trkpt>
      <trkpt lat="43.53822" lon="3.78625">
        <ele>60.5</ele>
        <time>2010-12-12T10:39:40Z</time>
      </trkpt>
      <trkpt lat="43.53825" lon="3.7863">
        <ele>60.6</ele>
        <time>2010-12-12T10:39:41Z</time>
      </trkpt>
      <trkpt lat="43.53828" lon="3.78635">
        <ele>60.7</ele>
        <time>2010-12-12T10:39:42Z</time>
      </trkpt>
      <trkpt lat="43.53832" lon="3.78639">
        <ele>60.7</ele>
        <time>2010-12-12T10:39:43Z</time>
      </trkpt>
      <trkpt lat="43.53835" lon="3.78644">
        <ele>60.9</ele>
        <time>2010-12-12T10:39:44Z</time>
      </trkpt>
      <trkpt lat="43.53838" lon="3.78649">
        <ele>61.2</ele>
        <time>2010-12-12T10:39:45Z</time>
      </trkpt>
      <trkpt lat="43.53842" lon="3.78653">
        <ele>61.4</ele>
        <time>2010-12-12T10:39:46Z</time>
      </trkpt>
      <trkpt lat="43.53847" lon="3.78662">
        <ele>61.9</ele>
        <time>2010-12-12T10:39:48Z</time>
      </trkpt>
      <trkpt lat="43.53852" lon="3.78668">
        <ele>62.3</ele>
        <time>2010-12-12T10:39:50Z</time>
      </trkpt>
      <trkpt lat="43.53858" lon="3.78678">
        <ele>62.9</ele>
        <time>2010-12-12T10:39:53Z</time>
      </trkpt>
      <trkpt lat="43.53862" lon="3.78687">
        <ele>63.6</ele>
        <time>2010-12-12T10:39:56Z</time>
      </trkpt>
      <trkpt lat="43.53867" lon="3.78697">
        <ele>64.3</ele>
        <time>2010-12-12T10:39:59Z</time>
      </trkpt>
      <trkpt lat="43.53873" lon="3.78705">
        <ele>65</ele>
        <time>2010-12-12T10:40:02Z</time>
      </trkpt>
      <trkpt lat="43.53879" lon="3.78714">
        <ele>65.7</ele>
        <time>2010-12-12T10:40:05Z</time>
      </trkpt>
      <trkpt lat="43.53885" lon="3.78723">
        <ele>66.6</ele>
        <time>2010-12-12T10:40:08Z</time>
      </trkpt>
      <trkpt lat="43.53892" lon="3.7873">
        <ele>67.4</ele>
        <time>2010-12-12T10:40:11Z</time>
      </trkpt>
      <trkpt lat="43.53899" lon="3.78728">
        <ele>67.4</ele>
        <time>2010-12-12T10:40:14Z</time>
      </trkpt>
      <trkpt lat="43.53904" lon="3.78723">
        <ele>67.3</ele>
        <time>2010-12-12T10:40:16Z</time>
      </trkpt>
      <trkpt lat="43.5391" lon="3.7872">
        <ele>67.2</ele>
        <time>2010-12-12T10:40:18Z</time>
      </trkpt>
      <trkpt lat="43.53915" lon="3.78714">
        <ele>66.9</ele>
        <time>2010-12-12T10:40:20Z</time>
      </trkpt>
      <trkpt lat="43.5392" lon="3.78708">
        <ele>66.3</ele>
        <time>2010-12-12T10:40:22Z</time>
      </trkpt>
      <trkpt lat="43.53927" lon="3.78705">
        <ele>65.7</ele>
        <time>2010-12-12T10:40:24Z</time>
      </trkpt>
      <trkpt lat="43.53934" lon="3.78703">
        <ele>65.1</ele>
        <time>2010-12-12T10:40:26Z</time>
      </trkpt>
      <trkpt lat="43.53941" lon="3.78703">
        <ele>64.8</ele>
        <time>2010-12-12T10:40:28Z</time>
      </trkpt>
      <trkpt lat="43.53948" lon="3.78704">
        <ele>64.4</ele>
        <time>2010-12-12T10:40:30Z</time>
      </trkpt>
      <trkpt lat="43.53954" lon="3.78704">
        <ele>64.1</ele>
        <time>2010-12-12T10:40:32Z</time>
      </trkpt>
      <trkpt lat="43.53961" lon="3.78702">
        <ele>63.6</ele>
        <time>2010-12-12T10:40:34Z</time>
      </trkpt>
      <trkpt lat="43.53968" lon="3.78697">
        <ele>62.9</ele>
        <time>2010-12-12T10:40:36Z</time>
      </trkpt>
      <trkpt lat="43.53972" lon="3.78695">
        <ele>62.5</ele>
        <time>2010-12-12T10:40:37Z</time>
      </trkpt>
      <trkpt lat="43.53983" lon="3.78688">
        <ele>61.4</ele>
        <time>2010-12-12T10:40:41Z</time>
      </trkpt>
      <trkpt lat="43.53989" lon="3.78682">
        <ele>60.6</ele>
        <time>2010-12-12T10:40:43Z</time>
      </trkpt>
      <trkpt lat="43.53993" lon="3.78679">
        <ele>60.2</ele>
        <time>2010-12-12T10:40:44Z</time>
      </trkpt>
      <trkpt lat="43.54" lon="3.78672">
        <ele>59.4</ele>
        <time>2010-12-12T10:40:46Z</time>
      </trkpt>
      <trkpt lat="43.54007" lon="3.78666">
        <ele>58.3</ele>
        <time>2010-12-12T10:40:48Z</time>
      </trkpt>
      <trkpt lat="43.54007" lon="3.78655">
        <ele>57.5</ele>
        <time>2010-12-12T10:40:51Z</time>
      </trkpt>
      <trkpt lat="43.54015" lon="3.78662">
        <ele>57.3</ele>
        <time>2010-12-12T10:41:00Z</time>
      </trkpt>
      <trkpt lat="43.5402" lon="3.78668">
        <ele>57.2</ele>
        <time>2010-12-12T10:41:03Z</time>
      </trkpt>
      <trkpt lat="43.54026" lon="3.78677">
        <ele>57.1</ele>
        <time>2010-12-12T10:41:06Z</time>
      </trkpt>
      <trkpt lat="43.54031" lon="3.78683">
        <ele>56.9</ele>
        <time>2010-12-12T10:41:08Z</time>
      </trkpt>
      <trkpt lat="43.54037" lon="3.7869">
        <ele>56.8</ele>
        <time>2010-12-12T10:41:10Z</time>
      </trkpt>
      <trkpt lat="43.54042" lon="3.78697">
        <ele>56.6</ele>
        <time>2010-12-12T10:41:12Z</time>
      </trkpt>
      <trkpt lat="43.54048" lon="3.78704">
        <ele>56.4</ele>
        <time>2010-12-12T10:41:14Z</time>
      </trkpt>
      <trkpt lat="43.54053" lon="3.78712">
        <ele>56.1</ele>
        <time>2010-12-12T10:41:16Z</time>
      </trkpt>
      <trkpt lat="43.54059" lon="3.7872">
        <ele>55.8</ele>
        <time>2010-12-12T10:41:18Z</time>
      </trkpt>
      <trkpt lat="43.54065" lon="3.78729">
        <ele>55.5</ele>
        <time>2010-12-12T10:41:20Z</time>
      </trkpt>
      <trkpt lat="43.54071" lon="3.78738">
        <ele>55.2</ele>
        <time>2010-12-12T10:41:22Z</time>
      </trkpt>
      <trkpt lat="43.54074" lon="3.78742">
        <ele>55</ele>
        <time>2010-12-12T10:41:23Z</time>
      </trkpt>
      <trkpt lat="43.54077" lon="3.78747">
        <ele>54.8</ele>
        <time>2010-12-12T10:41:24Z</time>
      </trkpt>
      <trkpt lat="43.5408" lon="3.78752">
        <ele>54.6</ele>
        <time>2010-12-12T10:41:25Z</time>
      </trkpt>
      <trkpt lat="43.54083" lon="3.78757">
        <ele>54.6</ele>
        <time>2010-12-12T10:41:26Z</time>
      </trkpt>
      <trkpt lat="43.54086" lon="3.78762">
        <ele>54.6</ele>
        <time>2010-12-12T10:41:27Z</time>
      </trkpt>
      <trkpt lat="43.54089" lon="3.78767">
        <ele>54.6</ele>
        <time>2010-12-12T10:41:28Z</time>
      </trkpt>
      <trkpt lat="43.54092" lon="3.78771">
        <ele>54.6</ele>
        <time>2010-12-12T10:41:29Z</time>
      </trkpt>
      <trkpt lat="43.54096" lon="3.78776">
        <ele>54.6</ele>
        <time>2010-12-12T10:41:30Z</time>
      </trkpt>
      <trkpt lat="43.54099" lon="3.78781">
        <ele>54.6</ele>
        <time>2010-12-12T10:41:31Z</time>
      </trkpt>
      <trkpt lat="43.54102" lon="3.78786">
        <ele>54.6</ele>
        <time>2010-12-12T10:41:32Z</time>
      </trkpt>
      <trkpt lat="43.54106" lon="3.78791">
        <ele>54.6</ele>
        <time>2010-12-12T10:41:33Z</time>
      </trkpt>
      <trkpt lat="43.54109" lon="3.78797">
        <ele>54.5</ele>
        <time>2010-12-12T10:41:34Z</time>
      </trkpt>
      <trkpt lat="43.54113" lon="3.78802">
        <ele>54.5</ele>
        <time>2010-12-12T10:41:35Z</time>
      </trkpt>
      <trkpt lat="43.54117" lon="3.78808">
        <ele>54.4</ele>
        <time>2010-12-12T10:41:36Z</time>
      </trkpt>
      <trkpt lat="43.54121" lon="3.78814">
        <ele>54.3</ele>
        <time>2010-12-12T10:41:37Z</time>
      </trkpt>
      <trkpt lat="43.54125" lon="3.7882">
        <ele>54.2</ele>
        <time>2010-12-12T10:41:38Z</time>
      </trkpt>
      <trkpt lat="43.5413" lon="3.78826">
        <ele>54</ele>
        <time>2010-12-12T10:41:39Z</time>
      </trkpt>
      <trkpt lat="43.54134" lon="3.78833">
        <ele>53.9</ele>
        <time>2010-12-12T10:41:40Z</time>
      </trkpt>
      <trkpt lat="43.54139" lon="3.7884">
        <ele>53.5</ele>
        <time>2010-12-12T10:41:41Z</time>
      </trkpt>
      <trkpt lat="43.54144" lon="3.78847">
        <ele>53</ele>
        <time>2010-12-12T10:41:42Z</time>
      </trkpt>
      <trkpt lat="43.5415" lon="3.78855">
        <ele>52.4</ele>
        <time>2010-12-12T10:41:43Z</time>
      </trkpt>
      <trkpt lat="43.54155" lon="3.78862">
        <ele>51.8</ele>
        <time>2010-12-12T10:41:44Z</time>
      </trkpt>
      <trkpt lat="43.54161" lon="3.7887">
        <ele>51.2</ele>
        <time>2010-12-12T10:41:45Z</time>
      </trkpt>
      <trkpt lat="43.54167" lon="3.78877">
        <ele>50.5</ele>
        <time>2010-12-12T10:41:46Z</time>
      </trkpt>
      <trkpt lat="43.54172" lon="3.78881">
        <ele>50.3</ele>
        <time>2010-12-12T10:41:47Z</time>
      </trkpt>
      <trkpt lat="43.54177" lon="3.78883">
        <ele>50.1</ele>
        <time>2010-12-12T10:41:48Z</time>
      </trkpt>
      <trkpt lat="43.54183" lon="3.78881">
        <ele>49.8</ele>
        <time>2010-12-12T10:41:50Z</time>
      </trkpt>
      <trkpt lat="43.54187" lon="3.78872">
        <ele>49.5</ele>
        <time>2010-12-12T10:41:53Z</time>
      </trkpt>
      <trkpt lat="43.54191" lon="3.78863">
        <ele>49.2</ele>
        <time>2010-12-12T10:41:57Z</time>
      </trkpt>
      <trkpt lat="43.54197" lon="3.78855">
        <ele>48.8</ele>
        <time>2010-12-12T10:42:01Z</time>
      </trkpt>
      <trkpt lat="43.54198" lon="3.78846">
        <ele>48.7</ele>
        <time>2010-12-12T10:42:03Z</time>
      </trkpt>
      <trkpt lat="43.542" lon="3.78837">
        <ele>48.4</ele>
        <time>2010-12-12T10:42:05Z</time>
      </trkpt>
      <trkpt lat="43.54203" lon="3.78828">
        <ele>48.1</ele>
        <time>2010-12-12T10:42:07Z</time>
      </trkpt>
      <trkpt lat="43.54206" lon="3.78817">
        <ele>47.5</ele>
        <time>2010-12-12T10:42:10Z</time>
      </trkpt>
      <trkpt lat="43.54205" lon="3.78808">
        <ele>47.2</ele>
        <time>2010-12-12T10:42:12Z</time>
      </trkpt>
      <trkpt lat="43.54203" lon="3.78799">
        <ele>47</ele>
        <time>2010-12-12T10:42:14Z</time>
      </trkpt>
      <trkpt lat="43.54199" lon="3.7879">
        <ele>46.8</ele>
        <time>2010-12-12T10:42:16Z</time>
      </trkpt>
      <trkpt lat="43.54198" lon="3.78784">
        <ele>46.6</ele>
        <time>2010-12-12T10:42:17Z</time>
      </trkpt>
      <trkpt lat="43.54197" lon="3.78778">
        <ele>46.4</ele>
        <time>2010-12-12T10:42:18Z</time>
      </trkpt>
      <trkpt lat="43.54197" lon="3.78771">
        <ele>46.1</ele>
        <time>2010-12-12T10:42:19Z</time>
      </trkpt>
      <trkpt lat="43.54197" lon="3.78765">
        <ele>45.8</ele>
        <time>2010-12-12T10:42:20Z</time>
      </trkpt>
      <trkpt lat="43.54199" lon="3.78753">
        <ele>45.3</ele>
        <time>2010-12-12T10:42:22Z</time>
      </trkpt>
      <trkpt lat="43.54201" lon="3.78741">
        <ele>44.9</ele>
        <time>2010-12-12T10:42:24Z</time>
      </trkpt>
      <trkpt lat="43.54204" lon="3.78729">
        <ele>44.4</ele>
        <time>2010-12-12T10:42:38Z</time>
      </trkpt>
      <trkpt lat="43.54205" lon="3.78729">
        <ele>44.4</ele>
        <time>2010-12-12T10:42:39Z</time>
      </trkpt>
      <trkpt lat="43.54216" lon="3.78715">
        <ele>43.4</ele>
        <time>2010-12-12T10:43:27Z</time>
      </trkpt>
      <trkpt lat="43.54217" lon="3.78705">
        <ele>43</ele>
        <time>2010-12-12T10:43:30Z</time>
      </trkpt>
      <trkpt lat="43.54217" lon="3.78696">
        <ele>42.6</ele>
        <time>2010-12-12T10:43:32Z</time>
      </trkpt>
      <trkpt lat="43.54219" lon="3.78686">
        <ele>42.1</ele>
        <time>2010-12-12T10:43:34Z</time>
      </trkpt>
      <trkpt lat="43.54221" lon="3.78675">
        <ele>41.5</ele>
        <time>2010-12-12T10:43:36Z</time>
      </trkpt>
      <trkpt lat="43.54222" lon="3.78669">
        <ele>41.1</ele>
        <time>2010-12-12T10:43:37Z</time>
      </trkpt>
      <trkpt lat="43.54224" lon="3.78663">
        <ele>40.8</ele>
        <time>2010-12-12T10:43:38Z</time>
      </trkpt>
      <trkpt lat="43.54227" lon="3.78657">
        <ele>40.5</ele>
        <time>2010-12-12T10:43:39Z</time>
      </trkpt>
      <trkpt lat="43.54229" lon="3.78651">
        <ele>40.2</ele>
        <time>2010-12-12T10:43:40Z</time>
      </trkpt>
      <trkpt lat="43.54232" lon="3.78639">
        <ele>39.8</ele>
        <time>2010-12-12T10:43:42Z</time>
      </trkpt>
      <trkpt lat="43.54234" lon="3.78627">
        <ele>39.4</ele>
        <time>2010-12-12T10:43:45Z</time>
      </trkpt>
      <trkpt lat="43.54238" lon="3.7862">
        <ele>38.9</ele>
        <time>2010-12-12T10:43:47Z</time>
      </trkpt>
      <trkpt lat="43.54243" lon="3.78612">
        <ele>38.3</ele>
        <time>2010-12-12T10:43:49Z</time>
      </trkpt>
      <trkpt lat="43.54247" lon="3.78604">
        <ele>37.8</ele>
        <time>2010-12-12T10:43:51Z</time>
      </trkpt>
      <trkpt lat="43.54249" lon="3.78594">
        <ele>37.4</ele>
        <time>2010-12-12T10:43:53Z</time>
      </trkpt>
      <trkpt lat="43.54248" lon="3.78582">
        <ele>37.2</ele>
        <time>2010-12-12T10:43:55Z</time>
      </trkpt>
      <trkpt lat="43.54246" lon="3.78571">
        <ele>37.4</ele>
        <time>2010-12-12T10:43:57Z</time>
      </trkpt>
      <trkpt lat="43.54245" lon="3.78559">
        <ele>37.5</ele>
        <time>2010-12-12T10:43:59Z</time>
      </trkpt>
      <trkpt lat="43.54244" lon="3.78548">
        <ele>37.5</ele>
        <time>2010-12-12T10:44:01Z</time>
      </trkpt>
      <trkpt lat="43.54242" lon="3.78536">
        <ele>37.7</ele>
        <time>2010-12-12T10:44:03Z</time>
      </trkpt>
      <trkpt lat="43.54242" lon="3.78526">
        <ele>37.6</ele>
        <time>2010-12-12T10:44:05Z</time>
      </trkpt>
      <trkpt lat="43.54246" lon="3.78516">
        <ele>37.3</ele>
        <time>2010-12-12T10:44:07Z</time>
      </trkpt>
      <trkpt lat="43.54249" lon="3.78512">
        <ele>37.1</ele>
        <time>2010-12-12T10:44:08Z</time>
      </trkpt>
      <trkpt lat="43.54252" lon="3.78507">
        <ele>36.9</ele>
        <time>2010-12-12T10:44:09Z</time>
      </trkpt>
      <trkpt lat="43.54256" lon="3.78502">
        <ele>36.7</ele>
        <time>2010-12-12T10:44:10Z</time>
      </trkpt>
      <trkpt lat="43.5426" lon="3.78498">
        <ele>36.5</ele>
        <time>2010-12-12T10:44:11Z</time>
      </trkpt>
      <trkpt lat="43.54264" lon="3.78494">
        <ele>36.3</ele>
        <time>2010-12-12T10:44:12Z</time>
      </trkpt>
      <trkpt lat="43.54268" lon="3.78489">
        <ele>36.1</ele>
        <time>2010-12-12T10:44:13Z</time>
      </trkpt>
      <trkpt lat="43.54272" lon="3.78485">
        <ele>35.9</ele>
        <time>2010-12-12T10:44:14Z</time>
      </trkpt>
      <trkpt lat="43.54276" lon="3.7848">
        <ele>35.7</ele>
        <time>2010-12-12T10:44:15Z</time>
      </trkpt>
      <trkpt lat="43.54278" lon="3.78473">
        <ele>35.5</ele>
        <time>2010-12-12T10:44:16Z</time>
      </trkpt>
      <trkpt lat="43.54281" lon="3.78468">
        <ele>35.4</ele>
        <time>2010-12-12T10:44:17Z</time>
      </trkpt>
      <trkpt lat="43.54285" lon="3.78463">
        <ele>35.2</ele>
        <time>2010-12-12T10:44:18Z</time>
      </trkpt>
      <trkpt lat="43.54291" lon="3.78456">
        <ele>34.8</ele>
        <time>2010-12-12T10:44:20Z</time>
      </trkpt>
      <trkpt lat="43.54298" lon="3.7846">
        <ele>34.4</ele>
        <time>2010-12-12T10:44:22Z</time>
      </trkpt>
      <trkpt lat="43.54303" lon="3.78461">
        <ele>34.2</ele>
        <time>2010-12-12T10:44:23Z</time>
      </trkpt>
      <trkpt lat="43.54308" lon="3.7846">
        <ele>33.9</ele>
        <time>2010-12-12T10:44:24Z</time>
      </trkpt>
      <trkpt lat="43.54312" lon="3.78458">
        <ele>33.6</ele>
        <time>2010-12-12T10:44:25Z</time>
      </trkpt>
      <trkpt lat="43.54317" lon="3.78455">
        <ele>33.3</ele>
        <time>2010-12-12T10:44:26Z</time>
      </trkpt>
      <trkpt lat="43.54322" lon="3.78452">
        <ele>33.1</ele>
        <time>2010-12-12T10:44:27Z</time>
      </trkpt>
      <trkpt lat="43.54326" lon="3.7845">
        <ele>32.8</ele>
        <time>2010-12-12T10:44:28Z</time>
      </trkpt>
      <trkpt lat="43.54334" lon="3.78445">
        <ele>32.3</ele>
        <time>2010-12-12T10:44:30Z</time>
      </trkpt>
      <trkpt lat="43.54342" lon="3.78439">
        <ele>31.8</ele>
        <time>2010-12-12T10:44:32Z</time>
      </trkpt>
      <trkpt lat="43.54349" lon="3.78432">
        <ele>31.3</ele>
        <time>2010-12-12T10:44:34Z</time>
      </trkpt>
      <trkpt lat="43.54355" lon="3.78424">
        <ele>30.8</ele>
        <time>2010-12-12T10:44:36Z</time>
      </trkpt>
      <trkpt lat="43.54362" lon="3.78418">
        <ele>30.3</ele>
        <time>2010-12-12T10:44:38Z</time>
      </trkpt>
      <trkpt lat="43.54366" lon="3.78414">
        <ele>30</ele>
        <time>2010-12-12T10:44:39Z</time>
      </trkpt>
      <trkpt lat="43.5437" lon="3.78409">
        <ele>29.7</ele>
        <time>2010-12-12T10:44:40Z</time>
      </trkpt>
      <trkpt lat="43.54374" lon="3.78405">
        <ele>29.5</ele>
        <time>2010-12-12T10:44:41Z</time>
      </trkpt>
      <trkpt lat="43.54379" lon="3.78401">
        <ele>29.2</ele>
        <time>2010-12-12T10:44:42Z</time>
      </trkpt>
      <trkpt lat="43.54383" lon="3.78396">
        <ele>28.9</ele>
        <time>2010-12-12T10:44:43Z</time>
      </trkpt>
      <trkpt lat="43.54388" lon="3.78391">
        <ele>28.6</ele>
        <time>2010-12-12T10:44:44Z</time>
      </trkpt>
      <trkpt lat="43.54393" lon="3.78386">
        <ele>28.3</ele>
        <time>2010-12-12T10:44:45Z</time>
      </trkpt>
      <trkpt lat="43.54398" lon="3.7838">
        <ele>28</ele>
        <time>2010-12-12T10:44:46Z</time>
      </trkpt>
      <trkpt lat="43.54403" lon="3.78374">
        <ele>27.7</ele>
        <time>2010-12-12T10:44:47Z</time>
      </trkpt>
      <trkpt lat="43.54409" lon="3.7837">
        <ele>27.4</ele>
        <time>2010-12-12T10:44:48Z</time>
      </trkpt>
      <trkpt lat="43.54414" lon="3.78364">
        <ele>27.1</ele>
        <time>2010-12-12T10:44:49Z</time>
      </trkpt>
      <trkpt lat="43.5442" lon="3.78359">
        <ele>27</ele>
        <time>2010-12-12T10:44:50Z</time>
      </trkpt>
      <trkpt lat="43.54426" lon="3.78353">
        <ele>27.1</ele>
        <time>2010-12-12T10:44:51Z</time>
      </trkpt>
      <trkpt lat="43.54431" lon="3.78348">
        <ele>27.3</ele>
        <time>2010-12-12T10:44:52Z</time>
      </trkpt>
      <trkpt lat="43.54437" lon="3.78345">
        <ele>27.4</ele>
        <time>2010-12-12T10:44:53Z</time>
      </trkpt>
      <trkpt lat="43.54442" lon="3.78344">
        <ele>27.5</ele>
        <time>2010-12-12T10:44:54Z</time>
      </trkpt>
      <trkpt lat="43.54447" lon="3.78344">
        <ele>27.6</ele>
        <time>2010-12-12T10:44:55Z</time>
      </trkpt>
      <trkpt lat="43.54452" lon="3.78345">
        <ele>27.7</ele>
        <time>2010-12-12T10:44:56Z</time>
      </trkpt>
      <trkpt lat="43.54457" lon="3.78347">
        <ele>27.7</ele>
        <time>2010-12-12T10:44:57Z</time>
      </trkpt>
      <trkpt lat="43.54462" lon="3.78349">
        <ele>27.8</ele>
        <time>2010-12-12T10:44:58Z</time>
      </trkpt>
      <trkpt lat="43.54466" lon="3.78352">
        <ele>27.8</ele>
        <time>2010-12-12T10:44:59Z</time>
      </trkpt>
      <trkpt lat="43.54471" lon="3.78355">
        <ele>27.8</ele>
        <time>2010-12-12T10:45:00Z</time>
      </trkpt>
      <trkpt lat="43.54475" lon="3.78359">
        <ele>27.8</ele>
        <time>2010-12-12T10:45:01Z</time>
      </trkpt>
      <trkpt lat="43.54479" lon="3.78363">
        <ele>27.7</ele>
        <time>2010-12-12T10:45:02Z</time>
      </trkpt>
      <trkpt lat="43.54483" lon="3.78367">
        <ele>27.6</ele>
        <time>2010-12-12T10:45:03Z</time>
      </trkpt>
      <trkpt lat="43.54487" lon="3.7837">
        <ele>27.6</ele>
        <time>2010-12-12T10:45:04Z</time>
      </trkpt>
      <trkpt lat="43.54491" lon="3.78374">
        <ele>27.5</ele>
        <time>2010-12-12T10:45:05Z</time>
      </trkpt>
      <trkpt lat="43.54495" lon="3.78378">
        <ele>27.4</ele>
        <time>2010-12-12T10:45:06Z</time>
      </trkpt>
      <trkpt lat="43.54499" lon="3.78382">
        <ele>27.3</ele>
        <time>2010-12-12T10:45:07Z</time>
      </trkpt>
      <trkpt lat="43.54503" lon="3.78385">
        <ele>27.3</ele>
        <time>2010-12-12T10:45:08Z</time>
      </trkpt>
      <trkpt lat="43.54507" lon="3.78389">
        <ele>27.5</ele>
        <time>2010-12-12T10:45:09Z</time>
      </trkpt>
      <trkpt lat="43.54512" lon="3.78393">
        <ele>27.6</ele>
        <time>2010-12-12T10:45:10Z</time>
      </trkpt>
      <trkpt lat="43.54516" lon="3.78396">
        <ele>27.8</ele>
        <time>2010-12-12T10:45:11Z</time>
      </trkpt>
      <trkpt lat="43.54521" lon="3.78398">
        <ele>28</ele>
        <time>2010-12-12T10:45:12Z</time>
      </trkpt>
      <trkpt lat="43.54526" lon="3.78401">
        <ele>28.2</ele>
        <time>2010-12-12T10:45:13Z</time>
      </trkpt>
      <trkpt lat="43.54531" lon="3.78402">
        <ele>28.5</ele>
        <time>2010-12-12T10:45:14Z</time>
      </trkpt>
      <trkpt lat="43.54536" lon="3.78403">
        <ele>28.7</ele>
        <time>2010-12-12T10:45:15Z</time>
      </trkpt>
      <trkpt lat="43.54541" lon="3.78403">
        <ele>29</ele>
        <time>2010-12-12T10:45:16Z</time>
      </trkpt>
      <trkpt lat="43.54546" lon="3.78403">
        <ele>29.4</ele>
        <time>2010-12-12T10:45:17Z</time>
      </trkpt>
      <trkpt lat="43.54551" lon="3.78401">
        <ele>29.7</ele>
        <time>2010-12-12T10:45:18Z</time>
      </trkpt>
      <trkpt lat="43.54555" lon="3.78397">
        <ele>30.2</ele>
        <time>2010-12-12T10:45:19Z</time>
      </trkpt>
      <trkpt lat="43.54559" lon="3.78392">
        <ele>30.6</ele>
        <time>2010-12-12T10:45:20Z</time>
      </trkpt>
      <trkpt lat="43.54563" lon="3.78387">
        <ele>31.1</ele>
        <time>2010-12-12T10:45:21Z</time>
      </trkpt>
      <trkpt lat="43.54567" lon="3.78382">
        <ele>31.6</ele>
        <time>2010-12-12T10:45:22Z</time>
      </trkpt>
      <trkpt lat="43.5457" lon="3.78376">
        <ele>32.1</ele>
        <time>2010-12-12T10:45:23Z</time>
      </trkpt>
      <trkpt lat="43.54574" lon="3.7837">
        <ele>32.6</ele>
        <time>2010-12-12T10:45:24Z</time>
      </trkpt>
      <trkpt lat="43.54578" lon="3.78364">
        <ele>33.2</ele>
        <time>2010-12-12T10:45:25Z</time>
      </trkpt>
      <trkpt lat="43.54582" lon="3.78358">
        <ele>33.7</ele>
        <time>2010-12-12T10:45:26Z</time>
      </trkpt>
      <trkpt lat="43.54586" lon="3.78352">
        <ele>34.1</ele>
        <time>2010-12-12T10:45:27Z</time>
      </trkpt>
      <trkpt lat="43.5459" lon="3.78346">
        <ele>34.3</ele>
        <time>2010-12-12T10:45:28Z</time>
      </trkpt>
      <trkpt lat="43.54594" lon="3.7834">
        <ele>34.5</ele>
        <time>2010-12-12T10:45:29Z</time>
      </trkpt>
      <trkpt lat="43.54598" lon="3.78334">
        <ele>34.6</ele>
        <time>2010-12-12T10:45:30Z</time>
      </trkpt>
      <trkpt lat="43.54603" lon="3.78328">
        <ele>34.8</ele>
        <time>2010-12-12T10:45:31Z</time>
      </trkpt>
      <trkpt lat="43.54607" lon="3.78322">
        <ele>34.9</ele>
        <time>2010-12-12T10:45:32Z</time>
      </trkpt>
      <trkpt lat="43.54611" lon="3.78317">
        <ele>35</ele>
        <time>2010-12-12T10:45:33Z</time>
      </trkpt>
      <trkpt lat="43.54615" lon="3.78311">
        <ele>35.1</ele>
        <time>2010-12-12T10:45:34Z</time>
      </trkpt>
      <trkpt lat="43.54619" lon="3.78305">
        <ele>35.2</ele>
        <time>2010-12-12T10:45:35Z</time>
      </trkpt>
      <trkpt lat="43.54623" lon="3.78299">
        <ele>35.3</ele>
        <time>2010-12-12T10:45:36Z</time>
      </trkpt>
      <trkpt lat="43.54627" lon="3.78294">
        <ele>35.4</ele>
        <time>2010-12-12T10:45:37Z</time>
      </trkpt>
      <trkpt lat="43.54632" lon="3.78289">
        <ele>35.4</ele>
        <time>2010-12-12T10:45:38Z</time>
      </trkpt>
      <trkpt lat="43.54636" lon="3.78283">
        <ele>35.4</ele>
        <time>2010-12-12T10:45:39Z</time>
      </trkpt>
      <trkpt lat="43.54641" lon="3.78278">
        <ele>35.4</ele>
        <time>2010-12-12T10:45:40Z</time>
      </trkpt>
      <trkpt lat="43.54645" lon="3.78273">
        <ele>35.3</ele>
        <time>2010-12-12T10:45:41Z</time>
      </trkpt>
      <trkpt lat="43.54649" lon="3.78268">
        <ele>35.3</ele>
        <time>2010-12-12T10:45:42Z</time>
      </trkpt>
      <trkpt lat="43.54654" lon="3.78263">
        <ele>35.3</ele>
        <time>2010-12-12T10:45:43Z</time>
      </trkpt>
      <trkpt lat="43.54658" lon="3.78258">
        <ele>35.2</ele>
        <time>2010-12-12T10:45:44Z</time>
      </trkpt>
      <trkpt lat="43.54662" lon="3.78253">
        <ele>35.2</ele>
        <time>2010-12-12T10:45:45Z</time>
      </trkpt>
      <trkpt lat="43.54666" lon="3.78248">
        <ele>35</ele>
        <time>2010-12-12T10:45:46Z</time>
      </trkpt>
      <trkpt lat="43.54671" lon="3.78244">
        <ele>35.1</ele>
        <time>2010-12-12T10:45:47Z</time>
      </trkpt>
      <trkpt lat="43.54675" lon="3.78239">
        <ele>35.3</ele>
        <time>2010-12-12T10:45:48Z</time>
      </trkpt>
      <trkpt lat="43.54679" lon="3.78235">
        <ele>35.4</ele>
        <time>2010-12-12T10:45:49Z</time>
      </trkpt>
      <trkpt lat="43.54683" lon="3.78231">
        <ele>35.5</ele>
        <time>2010-12-12T10:45:50Z</time>
      </trkpt>
      <trkpt lat="43.54688" lon="3.78227">
        <ele>35.7</ele>
        <time>2010-12-12T10:45:51Z</time>
      </trkpt>
      <trkpt lat="43.54692" lon="3.78222">
        <ele>35.8</ele>
        <time>2010-12-12T10:45:52Z</time>
      </trkpt>
      <trkpt lat="43.54696" lon="3.78218">
        <ele>36</ele>
        <time>2010-12-12T10:45:53Z</time>
      </trkpt>
      <trkpt lat="43.547" lon="3.78214">
        <ele>36.2</ele>
        <time>2010-12-12T10:45:54Z</time>
      </trkpt>
      <trkpt lat="43.54704" lon="3.78209">
        <ele>36.4</ele>
        <time>2010-12-12T10:45:55Z</time>
      </trkpt>
      <trkpt lat="43.54708" lon="3.78205">
        <ele>36.6</ele>
        <time>2010-12-12T10:45:56Z</time>
      </trkpt>
      <trkpt lat="43.54712" lon="3.78201">
        <ele>36.8</ele>
        <time>2010-12-12T10:45:57Z</time>
      </trkpt>
      <trkpt lat="43.54717" lon="3.78197">
        <ele>37</ele>
        <time>2010-12-12T10:45:58Z</time>
      </trkpt>
      <trkpt lat="43.54722" lon="3.78194">
        <ele>37.2</ele>
        <time>2010-12-12T10:45:59Z</time>
      </trkpt>
      <trkpt lat="43.54726" lon="3.7819">
        <ele>37.5</ele>
        <time>2010-12-12T10:46:00Z</time>
      </trkpt>
      <trkpt lat="43.54731" lon="3.78187">
        <ele>37.7</ele>
        <time>2010-12-12T10:46:01Z</time>
      </trkpt>
      <trkpt lat="43.54736" lon="3.78183">
        <ele>38</ele>
        <time>2010-12-12T10:46:02Z</time>
      </trkpt>
      <trkpt lat="43.5474" lon="3.7818">
        <ele>38.2</ele>
        <time>2010-12-12T10:46:03Z</time>
      </trkpt>
      <trkpt lat="43.54745" lon="3.78176">
        <ele>38.5</ele>
        <time>2010-12-12T10:46:04Z</time>
      </trkpt>
      <trkpt lat="43.5475" lon="3.78173">
        <ele>38.8</ele>
        <time>2010-12-12T10:46:05Z</time>
      </trkpt>
      <trkpt lat="43.54754" lon="3.78169">
        <ele>38.9</ele>
        <time>2010-12-12T10:46:06Z</time>
      </trkpt>
      <trkpt lat="43.54759" lon="3.78165">
        <ele>38.9</ele>
        <time>2010-12-12T10:46:07Z</time>
      </trkpt>
      <trkpt lat="43.54764" lon="3.78162">
        <ele>38.8</ele>
        <time>2010-12-12T10:46:08Z</time>
      </trkpt>
      <trkpt lat="43.54768" lon="3.78158">
        <ele>38.7</ele>
        <time>2010-12-12T10:46:09Z</time>
      </trkpt>
      <trkpt lat="43.54773" lon="3.78154">
        <ele>38.7</ele>
        <time>2010-12-12T10:46:10Z</time>
      </trkpt>
      <trkpt lat="43.54777" lon="3.7815">
        <ele>38.7</ele>
        <time>2010-12-12T10:46:11Z</time>
      </trkpt>
      <trkpt lat="43.54782" lon="3.78146">
        <ele>38.7</ele>
        <time>2010-12-12T10:46:12Z</time>
      </trkpt>
      <trkpt lat="43.54787" lon="3.78142">
        <ele>38.7</ele>
        <time>2010-12-12T10:46:13Z</time>
      </trkpt>
      <trkpt lat="43.54792" lon="3.78138">
        <ele>38.7</ele>
        <time>2010-12-12T10:46:14Z</time>
      </trkpt>
      <trkpt lat="43.54796" lon="3.78134">
        <ele>38.7</ele>
        <time>2010-12-12T10:46:15Z</time>
      </trkpt>
      <trkpt lat="43.54801" lon="3.7813">
        <ele>38.8</ele>
        <time>2010-12-12T10:46:16Z</time>
      </trkpt>
      <trkpt lat="43.54806" lon="3.78125">
        <ele>38.8</ele>
        <time>2010-12-12T10:46:17Z</time>
      </trkpt>
      <trkpt lat="43.5481" lon="3.78121">
        <ele>38.9</ele>
        <time>2010-12-12T10:46:18Z</time>
      </trkpt>
      <trkpt lat="43.54814" lon="3.78117">
        <ele>39</ele>
        <time>2010-12-12T10:46:19Z</time>
      </trkpt>
      <trkpt lat="43.54819" lon="3.78113">
        <ele>39.1</ele>
        <time>2010-12-12T10:46:20Z</time>
      </trkpt>
      <trkpt lat="43.54823" lon="3.78109">
        <ele>39.3</ele>
        <time>2010-12-12T10:46:21Z</time>
      </trkpt>
      <trkpt lat="43.54828" lon="3.78105">
        <ele>39.4</ele>
        <time>2010-12-12T10:46:22Z</time>
      </trkpt>
      <trkpt lat="43.54832" lon="3.78101">
        <ele>39.6</ele>
        <time>2010-12-12T10:46:23Z</time>
      </trkpt>
      <trkpt lat="43.54836" lon="3.78097">
        <ele>39.7</ele>
        <time>2010-12-12T10:46:24Z</time>
      </trkpt>
      <trkpt lat="43.54841" lon="3.78092">
        <ele>39.8</ele>
        <time>2010-12-12T10:46:25Z</time>
      </trkpt>
      <trkpt lat="43.54845" lon="3.78088">
        <ele>39.9</ele>
        <time>2010-12-12T10:46:26Z</time>
      </trkpt>
      <trkpt lat="43.54849" lon="3.78083">
        <ele>40</ele>
        <time>2010-12-12T10:46:27Z</time>
      </trkpt>
      <trkpt lat="43.54854" lon="3.78078">
        <ele>40</ele>
        <time>2010-12-12T10:46:28Z</time>
      </trkpt>
      <trkpt lat="43.54857" lon="3.78074">
        <ele>40.1</ele>
        <time>2010-12-12T10:46:29Z</time>
      </trkpt>
      <trkpt lat="43.54861" lon="3.78069">
        <ele>40.1</ele>
        <time>2010-12-12T10:46:30Z</time>
      </trkpt>
      <trkpt lat="43.54865" lon="3.78065">
        <ele>40.2</ele>
        <time>2010-12-12T10:46:31Z</time>
      </trkpt>
      <trkpt lat="43.54868" lon="3.78061">
        <ele>40.2</ele>
        <time>2010-12-12T10:46:32Z</time>
      </trkpt>
      <trkpt lat="43.54875" lon="3.78052">
        <ele>40.4</ele>
        <time>2010-12-12T10:46:34Z</time>
      </trkpt>
      <trkpt lat="43.5488" lon="3.78044">
        <ele>40.5</ele>
        <time>2010-12-12T10:46:36Z</time>
      </trkpt>
      <trkpt lat="43.54886" lon="3.78037">
        <ele>40.7</ele>
        <time>2010-12-12T10:46:38Z</time>
      </trkpt>
      <trkpt lat="43.5489" lon="3.7803">
        <ele>40.9</ele>
        <time>2010-12-12T10:46:40Z</time>
      </trkpt>
      <trkpt lat="43.54895" lon="3.78021">
        <ele>41.1</ele>
        <time>2010-12-12T10:46:43Z</time>
      </trkpt>
      <trkpt lat="43.54897" lon="3.78019">
        <ele>41.2</ele>
        <time>2010-12-12T10:46:44Z</time>
      </trkpt>
      <trkpt lat="43.54894" lon="3.78009">
        <ele>41.3</ele>
        <time>2010-12-12T10:47:53Z</time>
      </trkpt>
      <trkpt lat="43.54898" lon="3.77988">
        <ele>41.4</ele>
        <time>2010-12-12T10:47:59Z</time>
      </trkpt>
      <trkpt lat="43.54903" lon="3.7798">
        <ele>41.4</ele>
        <time>2010-12-12T10:48:01Z</time>
      </trkpt>
      <trkpt lat="43.54908" lon="3.77971">
        <ele>41.4</ele>
        <time>2010-12-12T10:48:03Z</time>
      </trkpt>
      <trkpt lat="43.54913" lon="3.77962">
        <ele>41.5</ele>
        <time>2010-12-12T10:48:05Z</time>
      </trkpt>
      <trkpt lat="43.54918" lon="3.77952">
        <ele>41.4</ele>
        <time>2010-12-12T10:48:07Z</time>
      </trkpt>
      <trkpt lat="43.54921" lon="3.77947">
        <ele>41.3</ele>
        <time>2010-12-12T10:48:08Z</time>
      </trkpt>
      <trkpt lat="43.54924" lon="3.77942">
        <ele>41.2</ele>
        <time>2010-12-12T10:48:09Z</time>
      </trkpt>
      <trkpt lat="43.54927" lon="3.77937">
        <ele>41.2</ele>
        <time>2010-12-12T10:48:10Z</time>
      </trkpt>
      <trkpt lat="43.5493" lon="3.77931">
        <ele>41.1</ele>
        <time>2010-12-12T10:48:11Z</time>
      </trkpt>
      <trkpt lat="43.54933" lon="3.77926">
        <ele>41.1</ele>
        <time>2010-12-12T10:48:12Z</time>
      </trkpt>
      <trkpt lat="43.54936" lon="3.7792">
        <ele>41</ele>
        <time>2010-12-12T10:48:13Z</time>
      </trkpt>
      <trkpt lat="43.54944" lon="3.77918">
        <ele>41</ele>
        <time>2010-12-12T10:48:15Z</time>
      </trkpt>
      <trkpt lat="43.54951" lon="3.77923">
        <ele>41</ele>
        <time>2010-12-12T10:48:17Z</time>
      </trkpt>
      <trkpt lat="43.54958" lon="3.77929">
        <ele>41</ele>
        <time>2010-12-12T10:48:19Z</time>
      </trkpt>
      <trkpt lat="43.54966" lon="3.77934">
        <ele>41</ele>
        <time>2010-12-12T10:48:21Z</time>
      </trkpt>
      <trkpt lat="43.54971" lon="3.77938">
        <ele>40.9</ele>
        <time>2010-12-12T10:48:22Z</time>
      </trkpt>
      <trkpt lat="43.54975" lon="3.77941">
        <ele>40.9</ele>
        <time>2010-12-12T10:48:23Z</time>
      </trkpt>
      <trkpt lat="43.5498" lon="3.77945">
        <ele>40.8</ele>
        <time>2010-12-12T10:48:24Z</time>
      </trkpt>
      <trkpt lat="43.54985" lon="3.77948">
        <ele>40.8</ele>
        <time>2010-12-12T10:48:25Z</time>
      </trkpt>
      <trkpt lat="43.5499" lon="3.77952">
        <ele>40.7</ele>
        <time>2010-12-12T10:48:26Z</time>
      </trkpt>
      <trkpt lat="43.54995" lon="3.77956">
        <ele>40.6</ele>
        <time>2010-12-12T10:48:27Z</time>
      </trkpt>
      <trkpt lat="43.55" lon="3.7796">
        <ele>40.5</ele>
        <time>2010-12-12T10:48:28Z</time>
      </trkpt>
      <trkpt lat="43.55006" lon="3.77963">
        <ele>40.2</ele>
        <time>2010-12-12T10:48:29Z</time>
      </trkpt>
      <trkpt lat="43.55011" lon="3.77966">
        <ele>39.9</ele>
        <time>2010-12-12T10:48:30Z</time>
      </trkpt>
      <trkpt lat="43.55017" lon="3.77968">
        <ele>39.6</ele>
        <time>2010-12-12T10:48:32Z</time>
      </trkpt>
      <trkpt lat="43.55025" lon="3.77965">
        <ele>39.4</ele>
        <time>2010-12-12T10:48:35Z</time>
      </trkpt>
      <trkpt lat="43.55029" lon="3.77955">
        <ele>39.3</ele>
        <time>2010-12-12T10:48:38Z</time>
      </trkpt>
      <trkpt lat="43.55033" lon="3.77948">
        <ele>39.3</ele>
        <time>2010-12-12T10:48:40Z</time>
      </trkpt>
      <trkpt lat="43.55038" lon="3.7794">
        <ele>39.2</ele>
        <time>2010-12-12T10:48:42Z</time>
      </trkpt>
      <trkpt lat="43.55044" lon="3.77933">
        <ele>39.1</ele>
        <time>2010-12-12T10:48:44Z</time>
      </trkpt>
      <trkpt lat="43.55048" lon="3.77929">
        <ele>39</ele>
        <time>2010-12-12T10:48:45Z</time>
      </trkpt>
      <trkpt lat="43.55051" lon="3.77924">
        <ele>39</ele>
        <time>2010-12-12T10:48:46Z</time>
      </trkpt>
      <trkpt lat="43.55055" lon="3.77919">
        <ele>39</ele>
        <time>2010-12-12T10:48:47Z</time>
      </trkpt>
      <trkpt lat="43.55058" lon="3.77914">
        <ele>39</ele>
        <time>2010-12-12T10:48:48Z</time>
      </trkpt>
      <trkpt lat="43.55061" lon="3.77908">
        <ele>39</ele>
        <time>2010-12-12T10:48:49Z</time>
      </trkpt>
      <trkpt lat="43.55064" lon="3.77902">
        <ele>39</ele>
        <time>2010-12-12T10:48:50Z</time>
      </trkpt>
      <trkpt lat="43.55067" lon="3.77896">
        <ele>39</ele>
        <time>2010-12-12T10:48:51Z</time>
      </trkpt>
      <trkpt lat="43.5507" lon="3.7789">
        <ele>39.1</ele>
        <time>2010-12-12T10:48:52Z</time>
      </trkpt>
      <trkpt lat="43.55073" lon="3.77883">
        <ele>39.1</ele>
        <time>2010-12-12T10:48:53Z</time>
      </trkpt>
      <trkpt lat="43.55076" lon="3.77876">
        <ele>39.2</ele>
        <time>2010-12-12T10:48:54Z</time>
      </trkpt>
      <trkpt lat="43.55079" lon="3.7787">
        <ele>39.2</ele>
        <time>2010-12-12T10:48:55Z</time>
      </trkpt>
      <trkpt lat="43.55083" lon="3.77863">
        <ele>39.3</ele>
        <time>2010-12-12T10:48:56Z</time>
      </trkpt>
      <trkpt lat="43.55086" lon="3.77857">
        <ele>39.3</ele>
        <time>2010-12-12T10:48:57Z</time>
      </trkpt>
      <trkpt lat="43.5509" lon="3.7785">
        <ele>39.3</ele>
        <time>2010-12-12T10:48:58Z</time>
      </trkpt>
      <trkpt lat="43.55093" lon="3.77844">
        <ele>39.3</ele>
        <time>2010-12-12T10:48:59Z</time>
      </trkpt>
      <trkpt lat="43.55097" lon="3.77837">
        <ele>39.3</ele>
        <time>2010-12-12T10:49:00Z</time>
      </trkpt>
      <trkpt lat="43.55101" lon="3.7783">
        <ele>39.3</ele>
        <time>2010-12-12T10:49:01Z</time>
      </trkpt>
      <trkpt lat="43.55104" lon="3.77824">
        <ele>39.2</ele>
        <time>2010-12-12T10:49:02Z</time>
      </trkpt>
      <trkpt lat="43.55108" lon="3.77817">
        <ele>39.3</ele>
        <time>2010-12-12T10:49:03Z</time>
      </trkpt>
      <trkpt lat="43.55112" lon="3.7781">
        <ele>39.3</ele>
        <time>2010-12-12T10:49:04Z</time>
      </trkpt>
      <trkpt lat="43.55115" lon="3.77803">
        <ele>39.3</ele>
        <time>2010-12-12T10:49:05Z</time>
      </trkpt>
      <trkpt lat="43.55119" lon="3.77796">
        <ele>39.4</ele>
        <time>2010-12-12T10:49:06Z</time>
      </trkpt>
      <trkpt lat="43.55123" lon="3.77789">
        <ele>39.4</ele>
        <time>2010-12-12T10:49:07Z</time>
      </trkpt>
      <trkpt lat="43.55126" lon="3.77782">
        <ele>39.5</ele>
        <time>2010-12-12T10:49:08Z</time>
      </trkpt>
      <trkpt lat="43.5513" lon="3.77775">
        <ele>39.6</ele>
        <time>2010-12-12T10:49:09Z</time>
      </trkpt>
      <trkpt lat="43.55134" lon="3.77769">
        <ele>39.6</ele>
        <time>2010-12-12T10:49:10Z</time>
      </trkpt>
      <trkpt lat="43.55138" lon="3.77763">
        <ele>39.6</ele>
        <time>2010-12-12T10:49:11Z</time>
      </trkpt>
      <trkpt lat="43.55143" lon="3.77758">
        <ele>39.6</ele>
        <time>2010-12-12T10:49:12Z</time>
      </trkpt>
      <trkpt lat="43.55147" lon="3.77753">
        <ele>39.6</ele>
        <time>2010-12-12T10:49:13Z</time>
      </trkpt>
      <trkpt lat="43.55152" lon="3.77749">
        <ele>39.6</ele>
        <time>2010-12-12T10:49:14Z</time>
      </trkpt>
      <trkpt lat="43.55156" lon="3.77744">
        <ele>39.5</ele>
        <time>2010-12-12T10:49:15Z</time>
      </trkpt>
      <trkpt lat="43.5516" lon="3.7774">
        <ele>39.5</ele>
        <time>2010-12-12T10:49:16Z</time>
      </trkpt>
      <trkpt lat="43.55165" lon="3.77735">
        <ele>39.4</ele>
        <time>2010-12-12T10:49:17Z</time>
      </trkpt>
      <trkpt lat="43.55169" lon="3.77731">
        <ele>39.2</ele>
        <time>2010-12-12T10:49:18Z</time>
      </trkpt>
      <trkpt lat="43.55173" lon="3.77727">
        <ele>38.8</ele>
        <time>2010-12-12T10:49:19Z</time>
      </trkpt>
      <trkpt lat="43.55177" lon="3.77722">
        <ele>38.4</ele>
        <time>2010-12-12T10:49:20Z</time>
      </trkpt>
      <trkpt lat="43.5518" lon="3.77718">
        <ele>38.1</ele>
        <time>2010-12-12T10:49:21Z</time>
      </trkpt>
      <trkpt lat="43.55187" lon="3.77711">
        <ele>37.5</ele>
        <time>2010-12-12T10:49:23Z</time>
      </trkpt>
      <trkpt lat="43.55191" lon="3.77703">
        <ele>37.3</ele>
        <time>2010-12-12T10:49:25Z</time>
      </trkpt>
      <trkpt lat="43.55193" lon="3.77695">
        <ele>37.3</ele>
        <time>2010-12-12T10:49:27Z</time>
      </trkpt>
      <trkpt lat="43.55194" lon="3.77685">
        <ele>37.5</ele>
        <time>2010-12-12T10:49:29Z</time>
      </trkpt>
      <trkpt lat="43.55195" lon="3.77674">
        <ele>37.7</ele>
        <time>2010-12-12T10:49:31Z</time>
      </trkpt>
      <trkpt lat="43.55197" lon="3.77668">
        <ele>37.6</ele>
        <time>2010-12-12T10:49:32Z</time>
      </trkpt>
      <trkpt lat="43.552" lon="3.77663">
        <ele>37.4</ele>
        <time>2010-12-12T10:49:33Z</time>
      </trkpt>
      <trkpt lat="43.55203" lon="3.77658">
        <ele>37.1</ele>
        <time>2010-12-12T10:49:34Z</time>
      </trkpt>
      <trkpt lat="43.55207" lon="3.77654">
        <ele>36.7</ele>
        <time>2010-12-12T10:49:35Z</time>
      </trkpt>
      <trkpt lat="43.55212" lon="3.77653">
        <ele>36.2</ele>
        <time>2010-12-12T10:49:36Z</time>
      </trkpt>
      <trkpt lat="43.55217" lon="3.77653">
        <ele>35.7</ele>
        <time>2010-12-12T10:49:37Z</time>
      </trkpt>
      <trkpt lat="43.55223" lon="3.77654">
        <ele>35.2</ele>
        <time>2010-12-12T10:49:38Z</time>
      </trkpt>
      <trkpt lat="43.55229" lon="3.77654">
        <ele>34.6</ele>
        <time>2010-12-12T10:49:39Z</time>
      </trkpt>
      <trkpt lat="43.55235" lon="3.77656">
        <ele>33.9</ele>
        <time>2010-12-12T10:49:40Z</time>
      </trkpt>
      <trkpt lat="43.55242" lon="3.77657">
        <ele>33.2</ele>
        <time>2010-12-12T10:49:41Z</time>
      </trkpt>
      <trkpt lat="43.5525" lon="3.77658">
        <ele>32.4</ele>
        <time>2010-12-12T10:49:42Z</time>
      </trkpt>
      <trkpt lat="43.55257" lon="3.77658">
        <ele>31.7</ele>
        <time>2010-12-12T10:49:43Z</time>
      </trkpt>
      <trkpt lat="43.55265" lon="3.77659">
        <ele>31</ele>
        <time>2010-12-12T10:49:44Z</time>
      </trkpt>
      <trkpt lat="43.55274" lon="3.7766">
        <ele>30.2</ele>
        <time>2010-12-12T10:49:45Z</time>
      </trkpt>
      <trkpt lat="43.55282" lon="3.77661">
        <ele>29.5</ele>
        <time>2010-12-12T10:49:46Z</time>
      </trkpt>
      <trkpt lat="43.5529" lon="3.77663">
        <ele>28.7</ele>
        <time>2010-12-12T10:49:47Z</time>
      </trkpt>
      <trkpt lat="43.55299" lon="3.77664">
        <ele>28</ele>
        <time>2010-12-12T10:49:48Z</time>
      </trkpt>
      <trkpt lat="43.55308" lon="3.77665">
        <ele>27.2</ele>
        <time>2010-12-12T10:49:49Z</time>
      </trkpt>
      <trkpt lat="43.55317" lon="3.77667">
        <ele>26.4</ele>
        <time>2010-12-12T10:49:50Z</time>
      </trkpt>
      <trkpt lat="43.55325" lon="3.77668">
        <ele>25.6</ele>
        <time>2010-12-12T10:49:51Z</time>
      </trkpt>
      <trkpt lat="43.55334" lon="3.77669">
        <ele>24.9</ele>
        <time>2010-12-12T10:49:52Z</time>
      </trkpt>
      <trkpt lat="43.55342" lon="3.7767">
        <ele>24.9</ele>
        <time>2010-12-12T10:49:53Z</time>
      </trkpt>
      <trkpt lat="43.55351" lon="3.77671">
        <ele>24.9</ele>
        <time>2010-12-12T10:49:54Z</time>
      </trkpt>
      <trkpt lat="43.55359" lon="3.77673">
        <ele>24.9</ele>
        <time>2010-12-12T10:49:55Z</time>
      </trkpt>
      <trkpt lat="43.55367" lon="3.77674">
        <ele>24.9</ele>
        <time>2010-12-12T10:49:56Z</time>
      </trkpt>
      <trkpt lat="43.55375" lon="3.77675">
        <ele>24.8</ele>
        <time>2010-12-12T10:49:57Z</time>
      </trkpt>
      <trkpt lat="43.55383" lon="3.77676">
        <ele>24.8</ele>
        <time>2010-12-12T10:49:58Z</time>
      </trkpt>
      <trkpt lat="43.55392" lon="3.77678">
        <ele>24.8</ele>
        <time>2010-12-12T10:49:59Z</time>
      </trkpt>
      <trkpt lat="43.554" lon="3.77679">
        <ele>24.8</ele>
        <time>2010-12-12T10:50:00Z</time>
      </trkpt>
      <trkpt lat="43.55409" lon="3.7768">
        <ele>24.8</ele>
        <time>2010-12-12T10:50:01Z</time>
      </trkpt>
      <trkpt lat="43.55418" lon="3.77681">
        <ele>24.8</ele>
        <time>2010-12-12T10:50:02Z</time>
      </trkpt>
      <trkpt lat="43.55427" lon="3.77682">
        <ele>24.8</ele>
        <time>2010-12-12T10:50:03Z</time>
      </trkpt>
      <trkpt lat="43.55435" lon="3.77683">
        <ele>24.8</ele>
        <time>2010-12-12T10:50:04Z</time>
      </trkpt>
      <trkpt lat="43.55444" lon="3.77684">
        <ele>24.9</ele>
        <time>2010-12-12T10:50:05Z</time>
      </trkpt>
      <trkpt lat="43.55453" lon="3.77685">
        <ele>24.9</ele>
        <time>2010-12-12T10:50:06Z</time>
      </trkpt>
      <trkpt lat="43.55462" lon="3.77684">
        <ele>24.9</ele>
        <time>2010-12-12T10:50:07Z</time>
      </trkpt>
      <trkpt lat="43.55471" lon="3.77682">
        <ele>24.9</ele>
        <time>2010-12-12T10:50:08Z</time>
      </trkpt>
      <trkpt lat="43.55479" lon="3.77681">
        <ele>25</ele>
        <time>2010-12-12T10:50:09Z</time>
      </trkpt>
      <trkpt lat="43.55485" lon="3.7768">
        <ele>25</ele>
        <time>2010-12-12T10:50:10Z</time>
      </trkpt>
      <trkpt lat="43.55491" lon="3.77681">
        <ele>25</ele>
        <time>2010-12-12T10:50:11Z</time>
      </trkpt>
      <trkpt lat="43.55497" lon="3.77679">
        <ele>25</ele>
        <time>2010-12-12T10:50:12Z</time>
      </trkpt>
      <trkpt lat="43.55503" lon="3.77678">
        <ele>25</ele>
        <time>2010-12-12T10:50:13Z</time>
      </trkpt>
      <trkpt lat="43.55509" lon="3.77676">
        <ele>25.1</ele>
        <time>2010-12-12T10:50:14Z</time>
      </trkpt>
      <trkpt lat="43.55515" lon="3.77674">
        <ele>25.2</ele>
        <time>2010-12-12T10:50:15Z</time>
      </trkpt>
      <trkpt lat="43.55519" lon="3.77672">
        <ele>25.2</ele>
        <time>2010-12-12T10:50:16Z</time>
      </trkpt>
      <trkpt lat="43.55525" lon="3.7767">
        <ele>25.3</ele>
        <time>2010-12-12T10:50:17Z</time>
      </trkpt>
      <trkpt lat="43.5553" lon="3.77666">
        <ele>25.4</ele>
        <time>2010-12-12T10:50:18Z</time>
      </trkpt>
      <trkpt lat="43.55535" lon="3.77663">
        <ele>25.5</ele>
        <time>2010-12-12T10:50:19Z</time>
      </trkpt>
      <trkpt lat="43.55541" lon="3.77661">
        <ele>25.6</ele>
        <time>2010-12-12T10:50:20Z</time>
      </trkpt>
      <trkpt lat="43.55546" lon="3.77657">
        <ele>25.7</ele>
        <time>2010-12-12T10:50:21Z</time>
      </trkpt>
      <trkpt lat="43.55551" lon="3.77652">
        <ele>25.8</ele>
        <time>2010-12-12T10:50:22Z</time>
      </trkpt>
      <trkpt lat="43.55556" lon="3.77649">
        <ele>25.9</ele>
        <time>2010-12-12T10:50:23Z</time>
      </trkpt>
      <trkpt lat="43.55562" lon="3.77647">
        <ele>26</ele>
        <time>2010-12-12T10:50:24Z</time>
      </trkpt>
      <trkpt lat="43.55567" lon="3.77645">
        <ele>26.1</ele>
        <time>2010-12-12T10:50:25Z</time>
      </trkpt>
      <trkpt lat="43.55573" lon="3.77643">
        <ele>26.2</ele>
        <time>2010-12-12T10:50:26Z</time>
      </trkpt>
      <trkpt lat="43.55578" lon="3.7764">
        <ele>26.3</ele>
        <time>2010-12-12T10:50:27Z</time>
      </trkpt>
      <trkpt lat="43.55584" lon="3.77638">
        <ele>26.3</ele>
        <time>2010-12-12T10:50:28Z</time>
      </trkpt>
      <trkpt lat="43.5559" lon="3.77635">
        <ele>26.3</ele>
        <time>2010-12-12T10:50:29Z</time>
      </trkpt>
      <trkpt lat="43.55595" lon="3.77633">
        <ele>26.2</ele>
        <time>2010-12-12T10:50:30Z</time>
      </trkpt>
      <trkpt lat="43.55601" lon="3.7763">
        <ele>26.1</ele>
        <time>2010-12-12T10:50:31Z</time>
      </trkpt>
      <trkpt lat="43.55607" lon="3.77627">
        <ele>26</ele>
        <time>2010-12-12T10:50:32Z</time>
      </trkpt>
      <trkpt lat="43.55613" lon="3.77625">
        <ele>26</ele>
        <time>2010-12-12T10:50:33Z</time>
      </trkpt>
      <trkpt lat="43.55618" lon="3.77622">
        <ele>25.9</ele>
        <time>2010-12-12T10:50:34Z</time>
      </trkpt>
      <trkpt lat="43.55624" lon="3.77619">
        <ele>25.9</ele>
        <time>2010-12-12T10:50:35Z</time>
      </trkpt>
      <trkpt lat="43.5563" lon="3.77616">
        <ele>25.8</ele>
        <time>2010-12-12T10:50:36Z</time>
      </trkpt>
      <trkpt lat="43.55636" lon="3.77613">
        <ele>25.8</ele>
        <time>2010-12-12T10:50:37Z</time>
      </trkpt>
      <trkpt lat="43.55642" lon="3.7761">
        <ele>25.8</ele>
        <time>2010-12-12T10:50:38Z</time>
      </trkpt>
      <trkpt lat="43.55648" lon="3.77607">
        <ele>25.7</ele>
        <time>2010-12-12T10:50:39Z</time>
      </trkpt>
      <trkpt lat="43.55654" lon="3.77604">
        <ele>25.7</ele>
        <time>2010-12-12T10:50:40Z</time>
      </trkpt>
      <trkpt lat="43.55659" lon="3.77602">
        <ele>25.7</ele>
        <time>2010-12-12T10:50:41Z</time>
      </trkpt>
      <trkpt lat="43.55665" lon="3.77599">
        <ele>25.6</ele>
        <time>2010-12-12T10:50:42Z</time>
      </trkpt>
      <trkpt lat="43.55671" lon="3.77596">
        <ele>25.7</ele>
        <time>2010-12-12T10:50:43Z</time>
      </trkpt>
      <trkpt lat="43.55677" lon="3.77595">
        <ele>25.7</ele>
        <time>2010-12-12T10:50:44Z</time>
      </trkpt>
      <trkpt lat="43.55683" lon="3.77594">
        <ele>25.7</ele>
        <time>2010-12-12T10:50:45Z</time>
      </trkpt>
      <trkpt lat="43.55689" lon="3.77594">
        <ele>25.8</ele>
        <time>2010-12-12T10:50:46Z</time>
      </trkpt>
      <trkpt lat="43.55694" lon="3.77591">
        <ele>25.8</ele>
        <time>2010-12-12T10:50:47Z</time>
      </trkpt>
      <trkpt lat="43.55699" lon="3.77587">
        <ele>25.9</ele>
        <time>2010-12-12T10:50:48Z</time>
      </trkpt>
      <trkpt lat="43.55704" lon="3.77583">
        <ele>26</ele>
        <time>2010-12-12T10:50:49Z</time>
      </trkpt>
      <trkpt lat="43.5571" lon="3.7758">
        <ele>26</ele>
        <time>2010-12-12T10:50:50Z</time>
      </trkpt>
      <trkpt lat="43.55715" lon="3.77577">
        <ele>26</ele>
        <time>2010-12-12T10:50:51Z</time>
      </trkpt>
      <trkpt lat="43.55721" lon="3.77574">
        <ele>25.9</ele>
        <time>2010-12-12T10:50:52Z</time>
      </trkpt>
      <trkpt lat="43.55725" lon="3.77568">
        <ele>25.9</ele>
        <time>2010-12-12T10:50:53Z</time>
      </trkpt>
      <trkpt lat="43.55726" lon="3.77561">
        <ele>25.8</ele>
        <time>2010-12-12T10:50:54Z</time>
      </trkpt>
      <trkpt lat="43.55725" lon="3.77553">
        <ele>25.7</ele>
        <time>2010-12-12T10:50:55Z</time>
      </trkpt>
      <trkpt lat="43.55725" lon="3.77545">
        <ele>25.7</ele>
        <time>2010-12-12T10:50:56Z</time>
      </trkpt>
      <trkpt lat="43.55723" lon="3.77537">
        <ele>25.6</ele>
        <time>2010-12-12T10:50:57Z</time>
      </trkpt>
      <trkpt lat="43.55721" lon="3.7753">
        <ele>25.6</ele>
        <time>2010-12-12T10:50:58Z</time>
      </trkpt>
      <trkpt lat="43.5572" lon="3.77522">
        <ele>25.5</ele>
        <time>2010-12-12T10:50:59Z</time>
      </trkpt>
      <trkpt lat="43.55718" lon="3.77514">
        <ele>25.5</ele>
        <time>2010-12-12T10:51:00Z</time>
      </trkpt>
      <trkpt lat="43.55716" lon="3.77506">
        <ele>25.4</ele>
        <time>2010-12-12T10:51:01Z</time>
      </trkpt>
      <trkpt lat="43.55714" lon="3.77498">
        <ele>25.4</ele>
        <time>2010-12-12T10:51:02Z</time>
      </trkpt>
      <trkpt lat="43.55713" lon="3.7749">
        <ele>25.4</ele>
        <time>2010-12-12T10:51:03Z</time>
      </trkpt>
      <trkpt lat="43.55711" lon="3.77481">
        <ele>25.4</ele>
        <time>2010-12-12T10:51:04Z</time>
      </trkpt>
      <trkpt lat="43.55709" lon="3.77473">
        <ele>25.3</ele>
        <time>2010-12-12T10:51:05Z</time>
      </trkpt>
      <trkpt lat="43.55708" lon="3.77465">
        <ele>25.3</ele>
        <time>2010-12-12T10:51:06Z</time>
      </trkpt>
      <trkpt lat="43.55707" lon="3.77456">
        <ele>25.2</ele>
        <time>2010-12-12T10:51:07Z</time>
      </trkpt>
      <trkpt lat="43.55708" lon="3.77448">
        <ele>25.2</ele>
        <time>2010-12-12T10:51:08Z</time>
      </trkpt>
      <trkpt lat="43.5571" lon="3.77439">
        <ele>25.1</ele>
        <time>2010-12-12T10:51:09Z</time>
      </trkpt>
      <trkpt lat="43.55712" lon="3.77432">
        <ele>25.1</ele>
        <time>2010-12-12T10:51:10Z</time>
      </trkpt>
      <trkpt lat="43.55715" lon="3.77424">
        <ele>25</ele>
        <time>2010-12-12T10:51:11Z</time>
      </trkpt>
      <trkpt lat="43.55718" lon="3.77417">
        <ele>25</ele>
        <time>2010-12-12T10:51:12Z</time>
      </trkpt>
      <trkpt lat="43.55721" lon="3.77409">
        <ele>25</ele>
        <time>2010-12-12T10:51:13Z</time>
      </trkpt>
      <trkpt lat="43.55724" lon="3.77402">
        <ele>25</ele>
        <time>2010-12-12T10:51:14Z</time>
      </trkpt>
      <trkpt lat="43.55727" lon="3.77394">
        <ele>25</ele>
        <time>2010-12-12T10:51:15Z</time>
      </trkpt>
      <trkpt lat="43.55729" lon="3.77386">
        <ele>25</ele>
        <time>2010-12-12T10:51:16Z</time>
      </trkpt>
      <trkpt lat="43.55731" lon="3.77378">
        <ele>25</ele>
        <time>2010-12-12T10:51:17Z</time>
      </trkpt>
      <trkpt lat="43.55732" lon="3.7737">
        <ele>25</ele>
        <time>2010-12-12T10:51:18Z</time>
      </trkpt>
      <trkpt lat="43.55732" lon="3.77362">
        <ele>25</ele>
        <time>2010-12-12T10:51:19Z</time>
      </trkpt>
      <trkpt lat="43.55732" lon="3.77354">
        <ele>25</ele>
        <time>2010-12-12T10:51:20Z</time>
      </trkpt>
      <trkpt lat="43.55732" lon="3.77346">
        <ele>25</ele>
        <time>2010-12-12T10:51:21Z</time>
      </trkpt>
      <trkpt lat="43.55731" lon="3.77337">
        <ele>25</ele>
        <time>2010-12-12T10:51:22Z</time>
      </trkpt>
      <trkpt lat="43.55731" lon="3.77329">
        <ele>24.9</ele>
        <time>2010-12-12T10:51:23Z</time>
      </trkpt>
      <trkpt lat="43.5573" lon="3.77321">
        <ele>24.8</ele>
        <time>2010-12-12T10:51:24Z</time>
      </trkpt>
      <trkpt lat="43.5573" lon="3.77312">
        <ele>24.7</ele>
        <time>2010-12-12T10:51:25Z</time>
      </trkpt>
      <trkpt lat="43.55729" lon="3.77304">
        <ele>24.6</ele>
        <time>2010-12-12T10:51:26Z</time>
      </trkpt>
      <trkpt lat="43.55728" lon="3.77295">
        <ele>24.5</ele>
        <time>2010-12-12T10:51:27Z</time>
      </trkpt>
      <trkpt lat="43.55727" lon="3.77286">
        <ele>24.4</ele>
        <time>2010-12-12T10:51:28Z</time>
      </trkpt>
      <trkpt lat="43.55726" lon="3.77278">
        <ele>24.3</ele>
        <time>2010-12-12T10:51:29Z</time>
      </trkpt>
      <trkpt lat="43.55725" lon="3.77269">
        <ele>24.2</ele>
        <time>2010-12-12T10:51:30Z</time>
      </trkpt>
      <trkpt lat="43.55724" lon="3.77261">
        <ele>24.1</ele>
        <time>2010-12-12T10:51:31Z</time>
      </trkpt>
      <trkpt lat="43.55724" lon="3.77252">
        <ele>24</ele>
        <time>2010-12-12T10:51:32Z</time>
      </trkpt>
      <trkpt lat="43.55723" lon="3.77244">
        <ele>24</ele>
        <time>2010-12-12T10:51:33Z</time>
      </trkpt>
      <trkpt lat="43.55721" lon="3.77235">
        <ele>24</ele>
        <time>2010-12-12T10:51:34Z</time>
      </trkpt>
      <trkpt lat="43.5572" lon="3.77226">
        <ele>24</ele>
        <time>2010-12-12T10:51:35Z</time>
      </trkpt>
      <trkpt lat="43.55718" lon="3.77218">
        <ele>24</ele>
        <time>2010-12-12T10:51:36Z</time>
      </trkpt>
      <trkpt lat="43.55717" lon="3.77209">
        <ele>24</ele>
        <time>2010-12-12T10:51:37Z</time>
      </trkpt>
      <trkpt lat="43.55715" lon="3.77201">
        <ele>24</ele>
        <time>2010-12-12T10:51:38Z</time>
      </trkpt>
      <trkpt lat="43.55714" lon="3.77192">
        <ele>24</ele>
        <time>2010-12-12T10:51:39Z</time>
      </trkpt>
      <trkpt lat="43.55713" lon="3.77183">
        <ele>24</ele>
        <time>2010-12-12T10:51:40Z</time>
      </trkpt>
      <trkpt lat="43.55711" lon="3.77174">
        <ele>24</ele>
        <time>2010-12-12T10:51:41Z</time>
      </trkpt>
      <trkpt lat="43.5571" lon="3.77165">
        <ele>24</ele>
        <time>2010-12-12T10:51:42Z</time>
      </trkpt>
      <trkpt lat="43.55709" lon="3.77157">
        <ele>24.2</ele>
        <time>2010-12-12T10:51:43Z</time>
      </trkpt>
      <trkpt lat="43.55708" lon="3.77148">
        <ele>24.5</ele>
        <time>2010-12-12T10:51:44Z</time>
      </trkpt>
      <trkpt lat="43.55707" lon="3.77139">
        <ele>24.7</ele>
        <time>2010-12-12T10:51:45Z</time>
      </trkpt>
      <trkpt lat="43.55706" lon="3.7713">
        <ele>24.9</ele>
        <time>2010-12-12T10:51:46Z</time>
      </trkpt>
      <trkpt lat="43.55705" lon="3.77121">
        <ele>25.1</ele>
        <time>2010-12-12T10:51:47Z</time>
      </trkpt>
      <trkpt lat="43.55705" lon="3.77113">
        <ele>25.3</ele>
        <time>2010-12-12T10:51:48Z</time>
      </trkpt>
      <trkpt lat="43.55704" lon="3.77104">
        <ele>25.5</ele>
        <time>2010-12-12T10:51:49Z</time>
      </trkpt>
      <trkpt lat="43.55704" lon="3.77095">
        <ele>25.7</ele>
        <time>2010-12-12T10:51:50Z</time>
      </trkpt>
      <trkpt lat="43.55703" lon="3.77086">
        <ele>25.9</ele>
        <time>2010-12-12T10:51:51Z</time>
      </trkpt>
      <trkpt lat="43.55703" lon="3.77077">
        <ele>26</ele>
        <time>2010-12-12T10:51:52Z</time>
      </trkpt>
      <trkpt lat="43.55702" lon="3.77068">
        <ele>26.1</ele>
        <time>2010-12-12T10:51:53Z</time>
      </trkpt>
      <trkpt lat="43.55702" lon="3.77059">
        <ele>26.2</ele>
        <time>2010-12-12T10:51:54Z</time>
      </trkpt>
      <trkpt lat="43.55701" lon="3.7705">
        <ele>26.2</ele>
        <time>2010-12-12T10:51:55Z</time>
      </trkpt>
      <trkpt lat="43.55701" lon="3.77041">
        <ele>26.3</ele>
        <time>2010-12-12T10:51:56Z</time>
      </trkpt>
      <trkpt lat="43.557" lon="3.77032">
        <ele>26.4</ele>
        <time>2010-12-12T10:51:57Z</time>
      </trkpt>
      <trkpt lat="43.55699" lon="3.77023">
        <ele>26.4</ele>
        <time>2010-12-12T10:51:58Z</time>
      </trkpt>
      <trkpt lat="43.55698" lon="3.77014">
        <ele>26.5</ele>
        <time>2010-12-12T10:51:59Z</time>
      </trkpt>
      <trkpt lat="43.55697" lon="3.77005">
        <ele>26.6</ele>
        <time>2010-12-12T10:52:00Z</time>
      </trkpt>
      <trkpt lat="43.55696" lon="3.76995">
        <ele>26.6</ele>
        <time>2010-12-12T10:52:01Z</time>
      </trkpt>
      <trkpt lat="43.55696" lon="3.76986">
        <ele>26.5</ele>
        <time>2010-12-12T10:52:02Z</time>
      </trkpt>
      <trkpt lat="43.55695" lon="3.76976">
        <ele>26.4</ele>
        <time>2010-12-12T10:52:03Z</time>
      </trkpt>
      <trkpt lat="43.55695" lon="3.76967">
        <ele>26.3</ele>
        <time>2010-12-12T10:52:04Z</time>
      </trkpt>
      <trkpt lat="43.55694" lon="3.76958">
        <ele>26.2</ele>
        <time>2010-12-12T10:52:05Z</time>
      </trkpt>
      <trkpt lat="43.55693" lon="3.76949">
        <ele>26.1</ele>
        <time>2010-12-12T10:52:06Z</time>
      </trkpt>
      <trkpt lat="43.55692" lon="3.76939">
        <ele>26</ele>
        <time>2010-12-12T10:52:07Z</time>
      </trkpt>
      <trkpt lat="43.55692" lon="3.7693">
        <ele>25.9</ele>
        <time>2010-12-12T10:52:08Z</time>
      </trkpt>
      <trkpt lat="43.55691" lon="3.7692">
        <ele>25.8</ele>
        <time>2010-12-12T10:52:09Z</time>
      </trkpt>
      <trkpt lat="43.5569" lon="3.76911">
        <ele>25.7</ele>
        <time>2010-12-12T10:52:10Z</time>
      </trkpt>
      <trkpt lat="43.5569" lon="3.76901">
        <ele>25.7</ele>
        <time>2010-12-12T10:52:11Z</time>
      </trkpt>
      <trkpt lat="43.55689" lon="3.76892">
        <ele>25.7</ele>
        <time>2010-12-12T10:52:12Z</time>
      </trkpt>
      <trkpt lat="43.55688" lon="3.76882">
        <ele>25.7</ele>
        <time>2010-12-12T10:52:13Z</time>
      </trkpt>
      <trkpt lat="43.55687" lon="3.76872">
        <ele>25.8</ele>
        <time>2010-12-12T10:52:14Z</time>
      </trkpt>
      <trkpt lat="43.55686" lon="3.76863">
        <ele>25.8</ele>
        <time>2010-12-12T10:52:15Z</time>
      </trkpt>
      <trkpt lat="43.55685" lon="3.76853">
        <ele>25.8</ele>
        <time>2010-12-12T10:52:16Z</time>
      </trkpt>
      <trkpt lat="43.55684" lon="3.76844">
        <ele>25.8</ele>
        <time>2010-12-12T10:52:17Z</time>
      </trkpt>
      <trkpt lat="43.55684" lon="3.76834">
        <ele>25.8</ele>
        <time>2010-12-12T10:52:18Z</time>
      </trkpt>
      <trkpt lat="43.55683" lon="3.76824">
        <ele>25.8</ele>
        <time>2010-12-12T10:52:19Z</time>
      </trkpt>
      <trkpt lat="43.55683" lon="3.76815">
        <ele>25.7</ele>
        <time>2010-12-12T10:52:20Z</time>
      </trkpt>
      <trkpt lat="43.55682" lon="3.76805">
        <ele>25.7</ele>
        <time>2010-12-12T10:52:21Z</time>
      </trkpt>
      <trkpt lat="43.55682" lon="3.76795">
        <ele>25.6</ele>
        <time>2010-12-12T10:52:22Z</time>
      </trkpt>
      <trkpt lat="43.55682" lon="3.76786">
        <ele>25.6</ele>
        <time>2010-12-12T10:52:23Z</time>
      </trkpt>
      <trkpt lat="43.55682" lon="3.76776">
        <ele>25.5</ele>
        <time>2010-12-12T10:52:24Z</time>
      </trkpt>
      <trkpt lat="43.55681" lon="3.76767">
        <ele>25.4</ele>
        <time>2010-12-12T10:52:25Z</time>
      </trkpt>
      <trkpt lat="43.55681" lon="3.76757">
        <ele>25.4</ele>
        <time>2010-12-12T10:52:26Z</time>
      </trkpt>
      <trkpt lat="43.5568" lon="3.76748">
        <ele>25.3</ele>
        <time>2010-12-12T10:52:27Z</time>
      </trkpt>
      <trkpt lat="43.55678" lon="3.76738">
        <ele>25.3</ele>
        <time>2010-12-12T10:52:28Z</time>
      </trkpt>
      <trkpt lat="43.55677" lon="3.76729">
        <ele>25.2</ele>
        <time>2010-12-12T10:52:29Z</time>
      </trkpt>
      <trkpt lat="43.55675" lon="3.7672">
        <ele>25.2</ele>
        <time>2010-12-12T10:52:30Z</time>
      </trkpt>
      <trkpt lat="43.55673" lon="3.7671">
        <ele>25.1</ele>
        <time>2010-12-12T10:52:31Z</time>
      </trkpt>
      <trkpt lat="43.55671" lon="3.76701">
        <ele>25.1</ele>
        <time>2010-12-12T10:52:32Z</time>
      </trkpt>
      <trkpt lat="43.55671" lon="3.7669">
        <ele>25.1</ele>
        <time>2010-12-12T10:52:33Z</time>
      </trkpt>
      <trkpt lat="43.55673" lon="3.76681">
        <ele>25.2</ele>
        <time>2010-12-12T10:52:34Z</time>
      </trkpt>
      <trkpt lat="43.55678" lon="3.76673">
        <ele>25.3</ele>
        <time>2010-12-12T10:52:35Z</time>
      </trkpt>
      <trkpt lat="43.55684" lon="3.76666">
        <ele>25.4</ele>
        <time>2010-12-12T10:52:36Z</time>
      </trkpt>
      <trkpt lat="43.5569" lon="3.7666">
        <ele>25.6</ele>
        <time>2010-12-12T10:52:37Z</time>
      </trkpt>
      <trkpt lat="43.55696" lon="3.76655">
        <ele>25.7</ele>
        <time>2010-12-12T10:52:38Z</time>
      </trkpt>
      <trkpt lat="43.55702" lon="3.76649">
        <ele>25.9</ele>
        <time>2010-12-12T10:52:39Z</time>
      </trkpt>
      <trkpt lat="43.55708" lon="3.76644">
        <ele>26</ele>
        <time>2010-12-12T10:52:40Z</time>
      </trkpt>
      <trkpt lat="43.55714" lon="3.76638">
        <ele>26.1</ele>
        <time>2010-12-12T10:52:41Z</time>
      </trkpt>
      <trkpt lat="43.5572" lon="3.76632">
        <ele>26.2</ele>
        <time>2010-12-12T10:52:42Z</time>
      </trkpt>
      <trkpt lat="43.55724" lon="3.76625">
        <ele>26.2</ele>
        <time>2010-12-12T10:52:43Z</time>
      </trkpt>
      <trkpt lat="43.55729" lon="3.76618">
        <ele>26.2</ele>
        <time>2010-12-12T10:52:44Z</time>
      </trkpt>
      <trkpt lat="43.55733" lon="3.76611">
        <ele>26.2</ele>
        <time>2010-12-12T10:52:45Z</time>
      </trkpt>
      <trkpt lat="43.55737" lon="3.76604">
        <ele>26.2</ele>
        <time>2010-12-12T10:52:46Z</time>
      </trkpt>
      <trkpt lat="43.55741" lon="3.76596">
        <ele>26.1</ele>
        <time>2010-12-12T10:52:47Z</time>
      </trkpt>
      <trkpt lat="43.55745" lon="3.76589">
        <ele>26.1</ele>
        <time>2010-12-12T10:52:48Z</time>
      </trkpt>
      <trkpt lat="43.55748" lon="3.76582">
        <ele>26</ele>
        <time>2010-12-12T10:52:49Z</time>
      </trkpt>
      <trkpt lat="43.55752" lon="3.76576">
        <ele>26.2</ele>
        <time>2010-12-12T10:52:50Z</time>
      </trkpt>
      <trkpt lat="43.55755" lon="3.7657">
        <ele>26.4</ele>
        <time>2010-12-12T10:52:51Z</time>
      </trkpt>
      <trkpt lat="43.55759" lon="3.76563">
        <ele>26.7</ele>
        <time>2010-12-12T10:52:52Z</time>
      </trkpt>
      <trkpt lat="43.55763" lon="3.76557">
        <ele>26.9</ele>
        <time>2010-12-12T10:52:53Z</time>
      </trkpt>
      <trkpt lat="43.55767" lon="3.76552">
        <ele>27.1</ele>
        <time>2010-12-12T10:52:54Z</time>
      </trkpt>
      <trkpt lat="43.55772" lon="3.76546">
        <ele>27.3</ele>
        <time>2010-12-12T10:52:55Z</time>
      </trkpt>
      <trkpt lat="43.55776" lon="3.76541">
        <ele>27.5</ele>
        <time>2010-12-12T10:52:56Z</time>
      </trkpt>
      <trkpt lat="43.55781" lon="3.76536">
        <ele>27.7</ele>
        <time>2010-12-12T10:52:57Z</time>
      </trkpt>
      <trkpt lat="43.55786" lon="3.76531">
        <ele>27.8</ele>
        <time>2010-12-12T10:52:58Z</time>
      </trkpt>
      <trkpt lat="43.5579" lon="3.76526">
        <ele>28</ele>
        <time>2010-12-12T10:52:59Z</time>
      </trkpt>
      <trkpt lat="43.55795" lon="3.76521">
        <ele>28.2</ele>
        <time>2010-12-12T10:53:00Z</time>
      </trkpt>
      <trkpt lat="43.558" lon="3.76517">
        <ele>28.3</ele>
        <time>2010-12-12T10:53:01Z</time>
      </trkpt>
      <trkpt lat="43.55806" lon="3.76513">
        <ele>28.5</ele>
        <time>2010-12-12T10:53:02Z</time>
      </trkpt>
      <trkpt lat="43.55811" lon="3.7651">
        <ele>28.6</ele>
        <time>2010-12-12T10:53:03Z</time>
      </trkpt>
      <trkpt lat="43.55817" lon="3.76507">
        <ele>28.7</ele>
        <time>2010-12-12T10:53:04Z</time>
      </trkpt>
      <trkpt lat="43.55823" lon="3.76505">
        <ele>28.8</ele>
        <time>2010-12-12T10:53:05Z</time>
      </trkpt>
      <trkpt lat="43.55828" lon="3.76503">
        <ele>28.9</ele>
        <time>2010-12-12T10:53:06Z</time>
      </trkpt>
      <trkpt lat="43.55834" lon="3.76502">
        <ele>29</ele>
        <time>2010-12-12T10:53:07Z</time>
      </trkpt>
      <trkpt lat="43.5584" lon="3.76499">
        <ele>28.9</ele>
        <time>2010-12-12T10:53:08Z</time>
      </trkpt>
      <trkpt lat="43.55846" lon="3.76495">
        <ele>28.9</ele>
        <time>2010-12-12T10:53:09Z</time>
      </trkpt>
      <trkpt lat="43.55851" lon="3.7649">
        <ele>28.9</ele>
        <time>2010-12-12T10:53:10Z</time>
      </trkpt>
      <trkpt lat="43.55855" lon="3.76484">
        <ele>28.9</ele>
        <time>2010-12-12T10:53:11Z</time>
      </trkpt>
      <trkpt lat="43.55859" lon="3.76477">
        <ele>28.9</ele>
        <time>2010-12-12T10:53:12Z</time>
      </trkpt>
      <trkpt lat="43.55863" lon="3.76471">
        <ele>28.9</ele>
        <time>2010-12-12T10:53:13Z</time>
      </trkpt>
      <trkpt lat="43.55867" lon="3.76464">
        <ele>28.9</ele>
        <time>2010-12-12T10:53:14Z</time>
      </trkpt>
      <trkpt lat="43.55871" lon="3.76458">
        <ele>28.8</ele>
        <time>2010-12-12T10:53:15Z</time>
      </trkpt>
      <trkpt lat="43.55875" lon="3.76452">
        <ele>28.8</ele>
        <time>2010-12-12T10:53:16Z</time>
      </trkpt>
      <trkpt lat="43.5588" lon="3.76447">
        <ele>28.7</ele>
        <time>2010-12-12T10:53:17Z</time>
      </trkpt>
      <trkpt lat="43.55884" lon="3.76442">
        <ele>28.7</ele>
        <time>2010-12-12T10:53:18Z</time>
      </trkpt>
      <trkpt lat="43.5589" lon="3.76438">
        <ele>28.6</ele>
        <time>2010-12-12T10:53:19Z</time>
      </trkpt>
      <trkpt lat="43.55895" lon="3.76435">
        <ele>28.5</ele>
        <time>2010-12-12T10:53:20Z</time>
      </trkpt>
      <trkpt lat="43.55901" lon="3.76433">
        <ele>28.3</ele>
        <time>2010-12-12T10:53:21Z</time>
      </trkpt>
      <trkpt lat="43.55906" lon="3.76431">
        <ele>28.2</ele>
        <time>2010-12-12T10:53:22Z</time>
      </trkpt>
      <trkpt lat="43.55912" lon="3.76429">
        <ele>28.1</ele>
        <time>2010-12-12T10:53:23Z</time>
      </trkpt>
      <trkpt lat="43.55917" lon="3.76428">
        <ele>28</ele>
        <time>2010-12-12T10:53:24Z</time>
      </trkpt>
      <trkpt lat="43.55923" lon="3.76427">
        <ele>28.1</ele>
        <time>2010-12-12T10:53:25Z</time>
      </trkpt>
      <trkpt lat="43.55928" lon="3.76426">
        <ele>28.3</ele>
        <time>2010-12-12T10:53:26Z</time>
      </trkpt>
      <trkpt lat="43.55934" lon="3.76425">
        <ele>28.4</ele>
        <time>2010-12-12T10:53:27Z</time>
      </trkpt>
      <trkpt lat="43.55939" lon="3.76424">
        <ele>28.5</ele>
        <time>2010-12-12T10:53:28Z</time>
      </trkpt>
      <trkpt lat="43.55945" lon="3.76423">
        <ele>28.6</ele>
        <time>2010-12-12T10:53:29Z</time>
      </trkpt>
      <trkpt lat="43.5595" lon="3.76422">
        <ele>28.8</ele>
        <time>2010-12-12T10:53:30Z</time>
      </trkpt>
      <trkpt lat="43.55955" lon="3.76421">
        <ele>28.9</ele>
        <time>2010-12-12T10:53:31Z</time>
      </trkpt>
      <trkpt lat="43.5596" lon="3.7642">
        <ele>29</ele>
        <time>2010-12-12T10:53:32Z</time>
      </trkpt>
      <trkpt lat="43.55966" lon="3.7642">
        <ele>29.2</ele>
        <time>2010-12-12T10:53:33Z</time>
      </trkpt>
      <trkpt lat="43.55971" lon="3.76419">
        <ele>29.3</ele>
        <time>2010-12-12T10:53:34Z</time>
      </trkpt>
      <trkpt lat="43.55976" lon="3.76418">
        <ele>29.4</ele>
        <time>2010-12-12T10:53:35Z</time>
      </trkpt>
      <trkpt lat="43.55981" lon="3.76417">
        <ele>29.5</ele>
        <time>2010-12-12T10:53:36Z</time>
      </trkpt>
      <trkpt lat="43.55986" lon="3.76415">
        <ele>29.6</ele>
        <time>2010-12-12T10:53:37Z</time>
      </trkpt>
      <trkpt lat="43.5599" lon="3.76414">
        <ele>29.7</ele>
        <time>2010-12-12T10:53:38Z</time>
      </trkpt>
      <trkpt lat="43.55995" lon="3.76414">
        <ele>29.8</ele>
        <time>2010-12-12T10:53:39Z</time>
      </trkpt>
      <trkpt lat="43.56" lon="3.76413">
        <ele>29.9</ele>
        <time>2010-12-12T10:53:40Z</time>
      </trkpt>
      <trkpt lat="43.56004" lon="3.76412">
        <ele>30</ele>
        <time>2010-12-12T10:53:41Z</time>
      </trkpt>
      <trkpt lat="43.56009" lon="3.76411">
        <ele>30.1</ele>
        <time>2010-12-12T10:53:42Z</time>
      </trkpt>
      <trkpt lat="43.56014" lon="3.7641">
        <ele>30.2</ele>
        <time>2010-12-12T10:53:43Z</time>
      </trkpt>
      <trkpt lat="43.56019" lon="3.76409">
        <ele>30.3</ele>
        <time>2010-12-12T10:53:44Z</time>
      </trkpt>
      <trkpt lat="43.56023" lon="3.76408">
        <ele>30.3</ele>
        <time>2010-12-12T10:53:45Z</time>
      </trkpt>
      <trkpt lat="43.56028" lon="3.76407">
        <ele>30.4</ele>
        <time>2010-12-12T10:53:46Z</time>
      </trkpt>
      <trkpt lat="43.56032" lon="3.76406">
        <ele>30.5</ele>
        <time>2010-12-12T10:53:47Z</time>
      </trkpt>
      <trkpt lat="43.56037" lon="3.76406">
        <ele>30.6</ele>
        <time>2010-12-12T10:53:48Z</time>
      </trkpt>
      <trkpt lat="43.56042" lon="3.76405">
        <ele>30.7</ele>
        <time>2010-12-12T10:53:49Z</time>
      </trkpt>
      <trkpt lat="43.56046" lon="3.76404">
        <ele>30.8</ele>
        <time>2010-12-12T10:53:50Z</time>
      </trkpt>
      <trkpt lat="43.56051" lon="3.76403">
        <ele>30.9</ele>
        <time>2010-12-12T10:53:51Z</time>
      </trkpt>
      <trkpt lat="43.56056" lon="3.76403">
        <ele>31</ele>
        <time>2010-12-12T10:53:52Z</time>
      </trkpt>
      <trkpt lat="43.5606" lon="3.76403">
        <ele>31.1</ele>
        <time>2010-12-12T10:53:53Z</time>
      </trkpt>
      <trkpt lat="43.56065" lon="3.76404">
        <ele>31.2</ele>
        <time>2010-12-12T10:53:54Z</time>
      </trkpt>
      <trkpt lat="43.56069" lon="3.76404">
        <ele>31.4</ele>
        <time>2010-12-12T10:53:55Z</time>
      </trkpt>
      <trkpt lat="43.56074" lon="3.76405">
        <ele>31.5</ele>
        <time>2010-12-12T10:53:56Z</time>
      </trkpt>
      <trkpt lat="43.56078" lon="3.76407">
        <ele>31.6</ele>
        <time>2010-12-12T10:53:57Z</time>
      </trkpt>
      <trkpt lat="43.56083" lon="3.76408">
        <ele>31.8</ele>
        <time>2010-12-12T10:53:58Z</time>
      </trkpt>
      <trkpt lat="43.56088" lon="3.76409">
        <ele>32</ele>
        <time>2010-12-12T10:53:59Z</time>
      </trkpt>
      <trkpt lat="43.56092" lon="3.7641">
        <ele>32.2</ele>
        <time>2010-12-12T10:54:00Z</time>
      </trkpt>
      <trkpt lat="43.56097" lon="3.76411">
        <ele>32.4</ele>
        <time>2010-12-12T10:54:01Z</time>
      </trkpt>
      <trkpt lat="43.56106" lon="3.76413">
        <ele>32.7</ele>
        <time>2010-12-12T10:54:03Z</time>
      </trkpt>
      <trkpt lat="43.56114" lon="3.76415">
        <ele>33.1</ele>
        <time>2010-12-12T10:54:05Z</time>
      </trkpt>
      <trkpt lat="43.5612" lon="3.76416">
        <ele>33.3</ele>
        <time>2010-12-12T10:54:07Z</time>
      </trkpt>
      <trkpt lat="43.56127" lon="3.76418">
        <ele>33.6</ele>
        <time>2010-12-12T10:54:09Z</time>
      </trkpt>
      <trkpt lat="43.56133" lon="3.76419">
        <ele>33.8</ele>
        <time>2010-12-12T10:54:11Z</time>
      </trkpt>
      <trkpt lat="43.56139" lon="3.76421">
        <ele>34</ele>
        <time>2010-12-12T10:54:13Z</time>
      </trkpt>
      <trkpt lat="43.56146" lon="3.76423">
        <ele>34.3</ele>
        <time>2010-12-12T10:54:15Z</time>
      </trkpt>
      <trkpt lat="43.56154" lon="3.76425">
        <ele>34.6</ele>
        <time>2010-12-12T10:54:18Z</time>
      </trkpt>
      <trkpt lat="43.56163" lon="3.76427">
        <ele>35</ele>
        <time>2010-12-12T10:54:21Z</time>
      </trkpt>
      <trkpt lat="43.56171" lon="3.76429">
        <ele>35.2</ele>
        <time>2010-12-12T10:54:24Z</time>
      </trkpt>
      <trkpt lat="43.56179" lon="3.76432">
        <ele>35.4</ele>
        <time>2010-12-12T10:54:27Z</time>
      </trkpt>
      <trkpt lat="43.56188" lon="3.76433">
        <ele>35.6</ele>
        <time>2010-12-12T10:54:30Z</time>
      </trkpt>
      <trkpt lat="43.56196" lon="3.76436">
        <ele>35.8</ele>
        <time>2010-12-12T10:54:33Z</time>
      </trkpt>
      <trkpt lat="43.56205" lon="3.76438">
        <ele>35.9</ele>
        <time>2010-12-12T10:54:36Z</time>
      </trkpt>
      <trkpt lat="43.56214" lon="3.7644">
        <ele>36.1</ele>
        <time>2010-12-12T10:54:39Z</time>
      </trkpt>
      <trkpt lat="43.56222" lon="3.76443">
        <ele>36.2</ele>
        <time>2010-12-12T10:54:42Z</time>
      </trkpt>
      <trkpt lat="43.56228" lon="3.76445">
        <ele>36.3</ele>
        <time>2010-12-12T10:54:44Z</time>
      </trkpt>
      <trkpt lat="43.56234" lon="3.76448">
        <ele>36.4</ele>
        <time>2010-12-12T10:54:46Z</time>
      </trkpt>
      <trkpt lat="43.5624" lon="3.7645">
        <ele>36.5</ele>
        <time>2010-12-12T10:54:48Z</time>
      </trkpt>
      <trkpt lat="43.56247" lon="3.76451">
        <ele>36.5</ele>
        <time>2010-12-12T10:54:50Z</time>
      </trkpt>
      <trkpt lat="43.56253" lon="3.76452">
        <ele>36.6</ele>
        <time>2010-12-12T10:54:52Z</time>
      </trkpt>
      <trkpt lat="43.56259" lon="3.76452">
        <ele>36.7</ele>
        <time>2010-12-12T10:54:54Z</time>
      </trkpt>
      <trkpt lat="43.56265" lon="3.76451">
        <ele>36.8</ele>
        <time>2010-12-12T10:54:56Z</time>
      </trkpt>
      <trkpt lat="43.56272" lon="3.76449">
        <ele>36.9</ele>
        <time>2010-12-12T10:54:58Z</time>
      </trkpt>
      <trkpt lat="43.56279" lon="3.76447">
        <ele>37</ele>
        <time>2010-12-12T10:55:00Z</time>
      </trkpt>
      <trkpt lat="43.56282" lon="3.76446">
        <ele>37</ele>
        <time>2010-12-12T10:55:01Z</time>
      </trkpt>
      <trkpt lat="43.56293" lon="3.76443">
        <ele>37.2</ele>
        <time>2010-12-12T10:55:04Z</time>
      </trkpt>
      <trkpt lat="43.563" lon="3.76441">
        <ele>37.3</ele>
        <time>2010-12-12T10:55:06Z</time>
      </trkpt>
      <trkpt lat="43.56307" lon="3.76439">
        <ele>37.4</ele>
        <time>2010-12-12T10:55:08Z</time>
      </trkpt>
      <trkpt lat="43.56315" lon="3.76437">
        <ele>37.5</ele>
        <time>2010-12-12T10:55:10Z</time>
      </trkpt>
      <trkpt lat="43.56323" lon="3.76436">
        <ele>37.6</ele>
        <time>2010-12-12T10:55:12Z</time>
      </trkpt>
      <trkpt lat="43.5633" lon="3.76434">
        <ele>37.8</ele>
        <time>2010-12-12T10:55:14Z</time>
      </trkpt>
      <trkpt lat="43.56339" lon="3.76433">
        <ele>37.9</ele>
        <time>2010-12-12T10:55:16Z</time>
      </trkpt>
      <trkpt lat="43.56347" lon="3.76431">
        <ele>38.1</ele>
        <time>2010-12-12T10:55:18Z</time>
      </trkpt>
      <trkpt lat="43.56355" lon="3.76429">
        <ele>38.3</ele>
        <time>2010-12-12T10:55:20Z</time>
      </trkpt>
      <trkpt lat="43.56363" lon="3.76428">
        <ele>38.5</ele>
        <time>2010-12-12T10:55:22Z</time>
      </trkpt>
      <trkpt lat="43.56371" lon="3.76426">
        <ele>38.8</ele>
        <time>2010-12-12T10:55:24Z</time>
      </trkpt>
      <trkpt lat="43.56379" lon="3.76422">
        <ele>39</ele>
        <time>2010-12-12T10:55:26Z</time>
      </trkpt>
      <trkpt lat="43.56387" lon="3.76417">
        <ele>39.3</ele>
        <time>2010-12-12T10:55:28Z</time>
      </trkpt>
      <trkpt lat="43.56394" lon="3.7641">
        <ele>39.6</ele>
        <time>2010-12-12T10:55:30Z</time>
      </trkpt>
      <trkpt lat="43.56401" lon="3.76403">
        <ele>40</ele>
        <time>2010-12-12T10:55:32Z</time>
      </trkpt>
      <trkpt lat="43.56408" lon="3.76396">
        <ele>40.3</ele>
        <time>2010-12-12T10:55:34Z</time>
      </trkpt>
      <trkpt lat="43.56415" lon="3.76391">
        <ele>40.6</ele>
        <time>2010-12-12T10:55:36Z</time>
      </trkpt>
      <trkpt lat="43.56423" lon="3.76389">
        <ele>40.9</ele>
        <time>2010-12-12T10:55:38Z</time>
      </trkpt>
      <trkpt lat="43.56431" lon="3.76389">
        <ele>41.3</ele>
        <time>2010-12-12T10:55:40Z</time>
      </trkpt>
      <trkpt lat="43.56439" lon="3.76391">
        <ele>41.6</ele>
        <time>2010-12-12T10:55:42Z</time>
      </trkpt>
      <trkpt lat="43.56446" lon="3.76394">
        <ele>41.8</ele>
        <time>2010-12-12T10:55:44Z</time>
      </trkpt>
      <trkpt lat="43.56452" lon="3.76398">
        <ele>41.9</ele>
        <time>2010-12-12T10:55:46Z</time>
      </trkpt>
      <trkpt lat="43.56458" lon="3.76405">
        <ele>41.9</ele>
        <time>2010-12-12T10:55:48Z</time>
      </trkpt>
      <trkpt lat="43.56463" lon="3.76412">
        <ele>41.9</ele>
        <time>2010-12-12T10:55:50Z</time>
      </trkpt>
      <trkpt lat="43.56469" lon="3.76419">
        <ele>41.9</ele>
        <time>2010-12-12T10:55:52Z</time>
      </trkpt>
      <trkpt lat="43.56475" lon="3.76425">
        <ele>42</ele>
        <time>2010-12-12T10:55:54Z</time>
      </trkpt>
      <trkpt lat="43.56483" lon="3.76429">
        <ele>42.3</ele>
        <time>2010-12-12T10:55:58Z</time>
      </trkpt>
      <trkpt lat="43.5649" lon="3.76437">
        <ele>42.6</ele>
        <time>2010-12-12T10:57:40Z</time>
      </trkpt>
      <trkpt lat="43.56492" lon="3.76439">
        <ele>42.7</ele>
        <time>2010-12-12T10:57:41Z</time>
      </trkpt>
      <trkpt lat="43.56502" lon="3.76444">
        <ele>43.1</ele>
        <time>2010-12-12T10:57:44Z</time>
      </trkpt>
      <trkpt lat="43.56508" lon="3.76448">
        <ele>43.4</ele>
        <time>2010-12-12T10:57:46Z</time>
      </trkpt>
      <trkpt lat="43.56515" lon="3.76453">
        <ele>43.7</ele>
        <time>2010-12-12T10:57:48Z</time>
      </trkpt>
      <trkpt lat="43.56522" lon="3.76458">
        <ele>44</ele>
        <time>2010-12-12T10:57:50Z</time>
      </trkpt>
      <trkpt lat="43.56529" lon="3.76462">
        <ele>44.4</ele>
        <time>2010-12-12T10:57:52Z</time>
      </trkpt>
      <trkpt lat="43.56536" lon="3.76465">
        <ele>44.7</ele>
        <time>2010-12-12T10:57:54Z</time>
      </trkpt>
      <trkpt lat="43.56543" lon="3.76465">
        <ele>45.1</ele>
        <time>2010-12-12T10:57:56Z</time>
      </trkpt>
      <trkpt lat="43.56549" lon="3.76465">
        <ele>45.4</ele>
        <time>2010-12-12T10:57:58Z</time>
      </trkpt>
      <trkpt lat="43.56555" lon="3.76464">
        <ele>45.6</ele>
        <time>2010-12-12T10:58:00Z</time>
      </trkpt>
      <trkpt lat="43.56561" lon="3.76464">
        <ele>45.9</ele>
        <time>2010-12-12T10:58:02Z</time>
      </trkpt>
      <trkpt lat="43.5657" lon="3.76465">
        <ele>46.4</ele>
        <time>2010-12-12T10:58:05Z</time>
      </trkpt>
      <trkpt lat="43.56576" lon="3.76467">
        <ele>46.7</ele>
        <time>2010-12-12T10:58:07Z</time>
      </trkpt>
      <trkpt lat="43.56583" lon="3.76468">
        <ele>47</ele>
        <time>2010-12-12T10:58:09Z</time>
      </trkpt>
      <trkpt lat="43.56589" lon="3.76469">
        <ele>46.9</ele>
        <time>2010-12-12T10:58:11Z</time>
      </trkpt>
      <trkpt lat="43.56597" lon="3.7647">
        <ele>46.8</ele>
        <time>2010-12-12T10:58:14Z</time>
      </trkpt>
      <trkpt lat="43.56605" lon="3.7647">
        <ele>46.6</ele>
        <time>2010-12-12T10:58:17Z</time>
      </trkpt>
      <trkpt lat="43.56611" lon="3.7647">
        <ele>46.5</ele>
        <time>2010-12-12T10:58:19Z</time>
      </trkpt>
      <trkpt lat="43.56618" lon="3.76469">
        <ele>46.4</ele>
        <time>2010-12-12T10:58:21Z</time>
      </trkpt>
      <trkpt lat="43.56625" lon="3.76469">
        <ele>46.3</ele>
        <time>2010-12-12T10:58:23Z</time>
      </trkpt>
      <trkpt lat="43.56632" lon="3.76469">
        <ele>46.2</ele>
        <time>2010-12-12T10:58:25Z</time>
      </trkpt>
      <trkpt lat="43.5664" lon="3.7647">
        <ele>46.1</ele>
        <time>2010-12-12T10:58:27Z</time>
      </trkpt>
      <trkpt lat="43.56649" lon="3.76469">
        <ele>45.9</ele>
        <time>2010-12-12T10:58:29Z</time>
      </trkpt>
      <trkpt lat="43.56654" lon="3.76469">
        <ele>45.8</ele>
        <time>2010-12-12T10:58:30Z</time>
      </trkpt>
      <trkpt lat="43.56659" lon="3.76469">
        <ele>45.8</ele>
        <time>2010-12-12T10:58:31Z</time>
      </trkpt>
      <trkpt lat="43.56664" lon="3.76469">
        <ele>45.7</ele>
        <time>2010-12-12T10:58:32Z</time>
      </trkpt>
      <trkpt lat="43.56669" lon="3.76469">
        <ele>45.6</ele>
        <time>2010-12-12T10:58:33Z</time>
      </trkpt>
      <trkpt lat="43.56674" lon="3.76469">
        <ele>45.5</ele>
        <time>2010-12-12T10:58:34Z</time>
      </trkpt>
      <trkpt lat="43.56679" lon="3.76469">
        <ele>45.4</ele>
        <time>2010-12-12T10:58:35Z</time>
      </trkpt>
      <trkpt lat="43.56684" lon="3.76469">
        <ele>45.3</ele>
        <time>2010-12-12T10:58:36Z</time>
      </trkpt>
      <trkpt lat="43.5669" lon="3.76468">
        <ele>45.2</ele>
        <time>2010-12-12T10:58:37Z</time>
      </trkpt>
      <trkpt lat="43.56695" lon="3.76468">
        <ele>45.2</ele>
        <time>2010-12-12T10:58:38Z</time>
      </trkpt>
      <trkpt lat="43.567" lon="3.76469">
        <ele>45.1</ele>
        <time>2010-12-12T10:58:39Z</time>
      </trkpt>
      <trkpt lat="43.56705" lon="3.76469">
        <ele>45</ele>
        <time>2010-12-12T10:58:40Z</time>
      </trkpt>
      <trkpt lat="43.56711" lon="3.76469">
        <ele>44.9</ele>
        <time>2010-12-12T10:58:41Z</time>
      </trkpt>
      <trkpt lat="43.56716" lon="3.76468">
        <ele>44.8</ele>
        <time>2010-12-12T10:58:42Z</time>
      </trkpt>
      <trkpt lat="43.56721" lon="3.76468">
        <ele>44.7</ele>
        <time>2010-12-12T10:58:43Z</time>
      </trkpt>
      <trkpt lat="43.56726" lon="3.76468">
        <ele>44.6</ele>
        <time>2010-12-12T10:58:44Z</time>
      </trkpt>
      <trkpt lat="43.56731" lon="3.76468">
        <ele>44.5</ele>
        <time>2010-12-12T10:58:45Z</time>
      </trkpt>
      <trkpt lat="43.56736" lon="3.76468">
        <ele>44.5</ele>
        <time>2010-12-12T10:58:46Z</time>
      </trkpt>
      <trkpt lat="43.56742" lon="3.76468">
        <ele>44.4</ele>
        <time>2010-12-12T10:58:47Z</time>
      </trkpt>
      <trkpt lat="43.56747" lon="3.76467">
        <ele>44.3</ele>
        <time>2010-12-12T10:58:48Z</time>
      </trkpt>
      <trkpt lat="43.56753" lon="3.76467">
        <ele>44.1</ele>
        <time>2010-12-12T10:58:49Z</time>
      </trkpt>
      <trkpt lat="43.56759" lon="3.76467">
        <ele>43.9</ele>
        <time>2010-12-12T10:58:50Z</time>
      </trkpt>
      <trkpt lat="43.56765" lon="3.76467">
        <ele>43.7</ele>
        <time>2010-12-12T10:58:51Z</time>
      </trkpt>
      <trkpt lat="43.56771" lon="3.76466">
        <ele>43.5</ele>
        <time>2010-12-12T10:58:52Z</time>
      </trkpt>
      <trkpt lat="43.56778" lon="3.76466">
        <ele>43.3</ele>
        <time>2010-12-12T10:58:53Z</time>
      </trkpt>
      <trkpt lat="43.56784" lon="3.76467">
        <ele>43.1</ele>
        <time>2010-12-12T10:58:54Z</time>
      </trkpt>
      <trkpt lat="43.56791" lon="3.76467">
        <ele>42.9</ele>
        <time>2010-12-12T10:58:55Z</time>
      </trkpt>
      <trkpt lat="43.56798" lon="3.76468">
        <ele>42.7</ele>
        <time>2010-12-12T10:58:56Z</time>
      </trkpt>
      <trkpt lat="43.56805" lon="3.76469">
        <ele>42.5</ele>
        <time>2010-12-12T10:58:57Z</time>
      </trkpt>
      <trkpt lat="43.56812" lon="3.7647">
        <ele>42.3</ele>
        <time>2010-12-12T10:58:58Z</time>
      </trkpt>
      <trkpt lat="43.56819" lon="3.76471">
        <ele>42.1</ele>
        <time>2010-12-12T10:58:59Z</time>
      </trkpt>
      <trkpt lat="43.56825" lon="3.76472">
        <ele>41.9</ele>
        <time>2010-12-12T10:59:00Z</time>
      </trkpt>
      <trkpt lat="43.56832" lon="3.76473">
        <ele>41.7</ele>
        <time>2010-12-12T10:59:01Z</time>
      </trkpt>
      <trkpt lat="43.56839" lon="3.76475">
        <ele>41.7</ele>
        <time>2010-12-12T10:59:02Z</time>
      </trkpt>
      <trkpt lat="43.56846" lon="3.76477">
        <ele>41.7</ele>
        <time>2010-12-12T10:59:03Z</time>
      </trkpt>
      <trkpt lat="43.56852" lon="3.76479">
        <ele>41.6</ele>
        <time>2010-12-12T10:59:04Z</time>
      </trkpt>
      <trkpt lat="43.56859" lon="3.76481">
        <ele>41.6</ele>
        <time>2010-12-12T10:59:05Z</time>
      </trkpt>
      <trkpt lat="43.56867" lon="3.76483">
        <ele>41.6</ele>
        <time>2010-12-12T10:59:06Z</time>
      </trkpt>
      <trkpt lat="43.56873" lon="3.76486">
        <ele>41.5</ele>
        <time>2010-12-12T10:59:07Z</time>
      </trkpt>
      <trkpt lat="43.56879" lon="3.76489">
        <ele>41.5</ele>
        <time>2010-12-12T10:59:08Z</time>
      </trkpt>
      <trkpt lat="43.56884" lon="3.76492">
        <ele>41.4</ele>
        <time>2010-12-12T10:59:09Z</time>
      </trkpt>
      <trkpt lat="43.56892" lon="3.76497">
        <ele>41.3</ele>
        <time>2010-12-12T10:59:11Z</time>
      </trkpt>
      <trkpt lat="43.569" lon="3.76496">
        <ele>41.2</ele>
        <time>2010-12-12T10:59:13Z</time>
      </trkpt>
      <trkpt lat="43.56909" lon="3.76496">
        <ele>41.1</ele>
        <time>2010-12-12T10:59:15Z</time>
      </trkpt>
      <trkpt lat="43.56918" lon="3.76498">
        <ele>41</ele>
        <time>2010-12-12T10:59:17Z</time>
      </trkpt>
      <trkpt lat="43.56922" lon="3.76498">
        <ele>41</ele>
        <time>2010-12-12T10:59:18Z</time>
      </trkpt>
      <trkpt lat="43.56927" lon="3.76499">
        <ele>40.9</ele>
        <time>2010-12-12T10:59:19Z</time>
      </trkpt>
      <trkpt lat="43.56931" lon="3.76499">
        <ele>40.8</ele>
        <time>2010-12-12T10:59:20Z</time>
      </trkpt>
      <trkpt lat="43.56936" lon="3.76499">
        <ele>40.8</ele>
        <time>2010-12-12T10:59:21Z</time>
      </trkpt>
      <trkpt lat="43.5694" lon="3.765">
        <ele>40.7</ele>
        <time>2010-12-12T10:59:22Z</time>
      </trkpt>
      <trkpt lat="43.56945" lon="3.765">
        <ele>40.7</ele>
        <time>2010-12-12T10:59:23Z</time>
      </trkpt>
      <trkpt lat="43.56954" lon="3.76501">
        <ele>40.5</ele>
        <time>2010-12-12T10:59:25Z</time>
      </trkpt>
      <trkpt lat="43.56958" lon="3.76501">
        <ele>40.5</ele>
        <time>2010-12-12T10:59:26Z</time>
      </trkpt>
      <trkpt lat="43.56963" lon="3.76501">
        <ele>40.4</ele>
        <time>2010-12-12T10:59:27Z</time>
      </trkpt>
      <trkpt lat="43.56967" lon="3.76502">
        <ele>40.3</ele>
        <time>2010-12-12T10:59:28Z</time>
      </trkpt>
      <trkpt lat="43.56972" lon="3.76503">
        <ele>40.3</ele>
        <time>2010-12-12T10:59:29Z</time>
      </trkpt>
      <trkpt lat="43.56977" lon="3.76503">
        <ele>40.2</ele>
        <time>2010-12-12T10:59:30Z</time>
      </trkpt>
      <trkpt lat="43.56981" lon="3.76504">
        <ele>40.1</ele>
        <time>2010-12-12T10:59:31Z</time>
      </trkpt>
      <trkpt lat="43.56986" lon="3.76504">
        <ele>40.1</ele>
        <time>2010-12-12T10:59:32Z</time>
      </trkpt>
      <trkpt lat="43.56991" lon="3.76504">
        <ele>40</ele>
        <time>2010-12-12T10:59:33Z</time>
      </trkpt>
      <trkpt lat="43.56996" lon="3.76503">
        <ele>40</ele>
        <time>2010-12-12T10:59:34Z</time>
      </trkpt>
      <trkpt lat="43.57001" lon="3.76503">
        <ele>39.9</ele>
        <time>2010-12-12T10:59:35Z</time>
      </trkpt>
      <trkpt lat="43.57007" lon="3.76503">
        <ele>39.7</ele>
        <time>2010-12-12T10:59:36Z</time>
      </trkpt>
      <trkpt lat="43.57012" lon="3.76502">
        <ele>39.5</ele>
        <time>2010-12-12T10:59:37Z</time>
      </trkpt>
      <trkpt lat="43.57017" lon="3.76501">
        <ele>39.4</ele>
        <time>2010-12-12T10:59:38Z</time>
      </trkpt>
      <trkpt lat="43.57023" lon="3.76499">
        <ele>39.2</ele>
        <time>2010-12-12T10:59:39Z</time>
      </trkpt>
      <trkpt lat="43.57028" lon="3.76498">
        <ele>39.1</ele>
        <time>2010-12-12T10:59:40Z</time>
      </trkpt>
      <trkpt lat="43.57034" lon="3.76496">
        <ele>39</ele>
        <time>2010-12-12T10:59:41Z</time>
      </trkpt>
      <trkpt lat="43.5704" lon="3.76495">
        <ele>38.9</ele>
        <time>2010-12-12T10:59:42Z</time>
      </trkpt>
      <trkpt lat="43.57047" lon="3.76494">
        <ele>38.8</ele>
        <time>2010-12-12T10:59:43Z</time>
      </trkpt>
      <trkpt lat="43.57054" lon="3.76493">
        <ele>38.6</ele>
        <time>2010-12-12T10:59:44Z</time>
      </trkpt>
      <trkpt lat="43.57061" lon="3.76493">
        <ele>38.4</ele>
        <time>2010-12-12T10:59:45Z</time>
      </trkpt>
      <trkpt lat="43.57068" lon="3.76492">
        <ele>38.3</ele>
        <time>2010-12-12T10:59:46Z</time>
      </trkpt>
      <trkpt lat="43.57075" lon="3.76491">
        <ele>38.1</ele>
        <time>2010-12-12T10:59:47Z</time>
      </trkpt>
      <trkpt lat="43.57082" lon="3.7649">
        <ele>38</ele>
        <time>2010-12-12T10:59:48Z</time>
      </trkpt>
      <trkpt lat="43.57088" lon="3.76488">
        <ele>37.9</ele>
        <time>2010-12-12T10:59:49Z</time>
      </trkpt>
      <trkpt lat="43.57094" lon="3.76486">
        <ele>37.7</ele>
        <time>2010-12-12T10:59:50Z</time>
      </trkpt>
      <trkpt lat="43.57101" lon="3.76484">
        <ele>37.5</ele>
        <time>2010-12-12T10:59:51Z</time>
      </trkpt>
      <trkpt lat="43.57107" lon="3.76482">
        <ele>37.3</ele>
        <time>2010-12-12T10:59:52Z</time>
      </trkpt>
      <trkpt lat="43.57113" lon="3.76481">
        <ele>37</ele>
        <time>2010-12-12T10:59:53Z</time>
      </trkpt>
      <trkpt lat="43.57119" lon="3.76479">
        <ele>36.7</ele>
        <time>2010-12-12T10:59:54Z</time>
      </trkpt>
      <trkpt lat="43.57125" lon="3.76478">
        <ele>36.5</ele>
        <time>2010-12-12T10:59:55Z</time>
      </trkpt>
      <trkpt lat="43.57131" lon="3.76477">
        <ele>36.1</ele>
        <time>2010-12-12T10:59:56Z</time>
      </trkpt>
      <trkpt lat="43.57137" lon="3.76476">
        <ele>35.8</ele>
        <time>2010-12-12T10:59:57Z</time>
      </trkpt>
      <trkpt lat="43.57143" lon="3.76475">
        <ele>35.5</ele>
        <time>2010-12-12T10:59:58Z</time>
      </trkpt>
      <trkpt lat="43.57149" lon="3.76475">
        <ele>35.1</ele>
        <time>2010-12-12T10:59:59Z</time>
      </trkpt>
      <trkpt lat="43.57154" lon="3.76474">
        <ele>34.8</ele>
        <time>2010-12-12T11:00:00Z</time>
      </trkpt>
      <trkpt lat="43.5716" lon="3.76474">
        <ele>34.4</ele>
        <time>2010-12-12T11:00:01Z</time>
      </trkpt>
      <trkpt lat="43.57166" lon="3.76474">
        <ele>34</ele>
        <time>2010-12-12T11:00:02Z</time>
      </trkpt>
      <trkpt lat="43.57171" lon="3.76475">
        <ele>33.8</ele>
        <time>2010-12-12T11:00:03Z</time>
      </trkpt>
      <trkpt lat="43.57177" lon="3.76477">
        <ele>33.6</ele>
        <time>2010-12-12T11:00:04Z</time>
      </trkpt>
      <trkpt lat="43.57182" lon="3.76479">
        <ele>33.4</ele>
        <time>2010-12-12T11:00:05Z</time>
      </trkpt>
      <trkpt lat="43.57188" lon="3.76481">
        <ele>33.2</ele>
        <time>2010-12-12T11:00:06Z</time>
      </trkpt>
      <trkpt lat="43.57194" lon="3.76483">
        <ele>33</ele>
        <time>2010-12-12T11:00:07Z</time>
      </trkpt>
      <trkpt lat="43.57199" lon="3.76484">
        <ele>32.8</ele>
        <time>2010-12-12T11:00:08Z</time>
      </trkpt>
      <trkpt lat="43.57205" lon="3.76486">
        <ele>32.6</ele>
        <time>2010-12-12T11:00:09Z</time>
      </trkpt>
      <trkpt lat="43.5721" lon="3.76488">
        <ele>32.4</ele>
        <time>2010-12-12T11:00:10Z</time>
      </trkpt>
      <trkpt lat="43.57215" lon="3.76491">
        <ele>32.2</ele>
        <time>2010-12-12T11:00:11Z</time>
      </trkpt>
      <trkpt lat="43.5722" lon="3.76493">
        <ele>32</ele>
        <time>2010-12-12T11:00:12Z</time>
      </trkpt>
      <trkpt lat="43.57227" lon="3.76497">
        <ele>31.6</ele>
        <time>2010-12-12T11:00:14Z</time>
      </trkpt>
      <trkpt lat="43.57234" lon="3.765">
        <ele>31.4</ele>
        <time>2010-12-12T11:00:16Z</time>
      </trkpt>
      <trkpt lat="43.57242" lon="3.76498">
        <ele>31.3</ele>
        <time>2010-12-12T11:00:19Z</time>
      </trkpt>
      <trkpt lat="43.57233" lon="3.76499">
        <ele>31.5</ele>
        <time>2010-12-12T11:00:30Z</time>
      </trkpt>
      <trkpt lat="43.57228" lon="3.76492">
        <ele>31.8</ele>
        <time>2010-12-12T11:00:33Z</time>
      </trkpt>
      <trkpt lat="43.57225" lon="3.76481">
        <ele>32.3</ele>
        <time>2010-12-12T11:00:36Z</time>
      </trkpt>
      <trkpt lat="43.57222" lon="3.76473">
        <ele>32.7</ele>
        <time>2010-12-12T11:00:38Z</time>
      </trkpt>
      <trkpt lat="43.57219" lon="3.76464">
        <ele>33.1</ele>
        <time>2010-12-12T11:00:40Z</time>
      </trkpt>
      <trkpt lat="43.57216" lon="3.76455">
        <ele>33.4</ele>
        <time>2010-12-12T11:00:42Z</time>
      </trkpt>
      <trkpt lat="43.57213" lon="3.76447">
        <ele>33.8</ele>
        <time>2010-12-12T11:00:44Z</time>
      </trkpt>
      <trkpt lat="43.57211" lon="3.76442">
        <ele>34</ele>
        <time>2010-12-12T11:00:45Z</time>
      </trkpt>
      <trkpt lat="43.57207" lon="3.76428">
        <ele>34.6</ele>
        <time>2010-12-12T11:00:48Z</time>
      </trkpt>
      <trkpt lat="43.57203" lon="3.76417">
        <ele>35.1</ele>
        <time>2010-12-12T11:00:50Z</time>
      </trkpt>
      <trkpt lat="43.572" lon="3.76407">
        <ele>35</ele>
        <time>2010-12-12T11:00:52Z</time>
      </trkpt>
      <trkpt lat="43.57196" lon="3.76397">
        <ele>35</ele>
        <time>2010-12-12T11:00:54Z</time>
      </trkpt>
      <trkpt lat="43.57193" lon="3.76387">
        <ele>34.9</ele>
        <time>2010-12-12T11:00:56Z</time>
      </trkpt>
      <trkpt lat="43.57191" lon="3.76377">
        <ele>34.8</ele>
        <time>2010-12-12T11:00:58Z</time>
      </trkpt>
      <trkpt lat="43.57188" lon="3.76367">
        <ele>34.7</ele>
        <time>2010-12-12T11:01:00Z</time>
      </trkpt>
      <trkpt lat="43.57185" lon="3.76356">
        <ele>34.7</ele>
        <time>2010-12-12T11:01:02Z</time>
      </trkpt>
      <trkpt lat="43.57182" lon="3.76344">
        <ele>34.6</ele>
        <time>2010-12-12T11:01:04Z</time>
      </trkpt>
      <trkpt lat="43.57181" lon="3.76338">
        <ele>34.6</ele>
        <time>2010-12-12T11:01:05Z</time>
      </trkpt>
      <trkpt lat="43.5718" lon="3.76332">
        <ele>34.5</ele>
        <time>2010-12-12T11:01:06Z</time>
      </trkpt>
      <trkpt lat="43.57178" lon="3.76325">
        <ele>34.4</ele>
        <time>2010-12-12T11:01:07Z</time>
      </trkpt>
      <trkpt lat="43.57176" lon="3.76318">
        <ele>34.3</ele>
        <time>2010-12-12T11:01:08Z</time>
      </trkpt>
      <trkpt lat="43.57174" lon="3.7631">
        <ele>34.2</ele>
        <time>2010-12-12T11:01:09Z</time>
      </trkpt>
      <trkpt lat="43.57172" lon="3.76303">
        <ele>34.1</ele>
        <time>2010-12-12T11:01:10Z</time>
      </trkpt>
      <trkpt lat="43.5717" lon="3.76295">
        <ele>34</ele>
        <time>2010-12-12T11:01:11Z</time>
      </trkpt>
      <trkpt lat="43.57169" lon="3.76287">
        <ele>33.9</ele>
        <time>2010-12-12T11:01:12Z</time>
      </trkpt>
      <trkpt lat="43.57167" lon="3.76279">
        <ele>33.7</ele>
        <time>2010-12-12T11:01:13Z</time>
      </trkpt>
      <trkpt lat="43.57166" lon="3.76271">
        <ele>33.5</ele>
        <time>2010-12-12T11:01:14Z</time>
      </trkpt>
      <trkpt lat="43.57164" lon="3.76263">
        <ele>33.4</ele>
        <time>2010-12-12T11:01:15Z</time>
      </trkpt>
      <trkpt lat="43.57162" lon="3.76254">
        <ele>33.2</ele>
        <time>2010-12-12T11:01:16Z</time>
      </trkpt>
      <trkpt lat="43.5716" lon="3.76246">
        <ele>33.1</ele>
        <time>2010-12-12T11:01:17Z</time>
      </trkpt>
      <trkpt lat="43.57156" lon="3.76238">
        <ele>33</ele>
        <time>2010-12-12T11:01:18Z</time>
      </trkpt>
      <trkpt lat="43.57153" lon="3.76231">
        <ele>32.9</ele>
        <time>2010-12-12T11:01:19Z</time>
      </trkpt>
      <trkpt lat="43.5715" lon="3.76224">
        <ele>32.8</ele>
        <time>2010-12-12T11:01:20Z</time>
      </trkpt>
      <trkpt lat="43.57146" lon="3.76216">
        <ele>32.7</ele>
        <time>2010-12-12T11:01:21Z</time>
      </trkpt>
      <trkpt lat="43.57143" lon="3.76209">
        <ele>32.6</ele>
        <time>2010-12-12T11:01:22Z</time>
      </trkpt>
      <trkpt lat="43.5714" lon="3.76201">
        <ele>32.5</ele>
        <time>2010-12-12T11:01:23Z</time>
      </trkpt>
      <trkpt lat="43.57136" lon="3.76195">
        <ele>32.4</ele>
        <time>2010-12-12T11:01:24Z</time>
      </trkpt>
      <trkpt lat="43.57132" lon="3.76189">
        <ele>32.4</ele>
        <time>2010-12-12T11:01:25Z</time>
      </trkpt>
      <trkpt lat="43.57129" lon="3.76182">
        <ele>32.3</ele>
        <time>2010-12-12T11:01:26Z</time>
      </trkpt>
      <trkpt lat="43.57131" lon="3.76172">
        <ele>32</ele>
        <time>2010-12-12T11:01:28Z</time>
      </trkpt>
      <trkpt lat="43.57137" lon="3.76166">
        <ele>31.7</ele>
        <time>2010-12-12T11:01:30Z</time>
      </trkpt>
      <trkpt lat="43.57144" lon="3.76158">
        <ele>31.6</ele>
        <time>2010-12-12T11:01:32Z</time>
      </trkpt>
      <trkpt lat="43.57148" lon="3.76154">
        <ele>31.6</ele>
        <time>2010-12-12T11:01:33Z</time>
      </trkpt>
      <trkpt lat="43.57151" lon="3.76151">
        <ele>31.6</ele>
        <time>2010-12-12T11:01:34Z</time>
      </trkpt>
      <trkpt lat="43.57155" lon="3.76147">
        <ele>31.5</ele>
        <time>2010-12-12T11:01:35Z</time>
      </trkpt>
      <trkpt lat="43.57158" lon="3.76143">
        <ele>31.5</ele>
        <time>2010-12-12T11:01:36Z</time>
      </trkpt>
      <trkpt lat="43.57162" lon="3.76139">
        <ele>31.4</ele>
        <time>2010-12-12T11:01:37Z</time>
      </trkpt>
      <trkpt lat="43.57166" lon="3.76135">
        <ele>31.4</ele>
        <time>2010-12-12T11:01:38Z</time>
      </trkpt>
      <trkpt lat="43.57172" lon="3.76127">
        <ele>31.5</ele>
        <time>2010-12-12T11:01:40Z</time>
      </trkpt>
      <trkpt lat="43.5717" lon="3.76118">
        <ele>31.6</ele>
        <time>2010-12-12T11:01:42Z</time>
      </trkpt>
      <trkpt lat="43.57164" lon="3.76109">
        <ele>31.8</ele>
        <time>2010-12-12T11:01:44Z</time>
      </trkpt>
      <trkpt lat="43.57161" lon="3.76104">
        <ele>31.9</ele>
        <time>2010-12-12T11:01:45Z</time>
      </trkpt>
      <trkpt lat="43.57158" lon="3.761">
        <ele>32</ele>
        <time>2010-12-12T11:01:46Z</time>
      </trkpt>
      <trkpt lat="43.57155" lon="3.76095">
        <ele>32.1</ele>
        <time>2010-12-12T11:01:47Z</time>
      </trkpt>
      <trkpt lat="43.57152" lon="3.7609">
        <ele>32.3</ele>
        <time>2010-12-12T11:01:48Z</time>
      </trkpt>
      <trkpt lat="43.57149" lon="3.76084">
        <ele>32.4</ele>
        <time>2010-12-12T11:01:49Z</time>
      </trkpt>
      <trkpt lat="43.57146" lon="3.76079">
        <ele>32.5</ele>
        <time>2010-12-12T11:01:50Z</time>
      </trkpt>
      <trkpt lat="43.57143" lon="3.76073">
        <ele>32.6</ele>
        <time>2010-12-12T11:01:51Z</time>
      </trkpt>
      <trkpt lat="43.57139" lon="3.76068">
        <ele>32.7</ele>
        <time>2010-12-12T11:01:52Z</time>
      </trkpt>
      <trkpt lat="43.57136" lon="3.76062">
        <ele>32.8</ele>
        <time>2010-12-12T11:01:53Z</time>
      </trkpt>
      <trkpt lat="43.57133" lon="3.76057">
        <ele>32.9</ele>
        <time>2010-12-12T11:01:54Z</time>
      </trkpt>
      <trkpt lat="43.5713" lon="3.76052">
        <ele>32.9</ele>
        <time>2010-12-12T11:01:55Z</time>
      </trkpt>
      <trkpt lat="43.57127" lon="3.76047">
        <ele>33</ele>
        <time>2010-12-12T11:01:56Z</time>
      </trkpt>
      <trkpt lat="43.57124" lon="3.76041">
        <ele>33</ele>
        <time>2010-12-12T11:01:57Z</time>
      </trkpt>
      <trkpt lat="43.57121" lon="3.76036">
        <ele>33</ele>
        <time>2010-12-12T11:01:58Z</time>
      </trkpt>
      <trkpt lat="43.57117" lon="3.76031">
        <ele>33.1</ele>
        <time>2010-12-12T11:01:59Z</time>
      </trkpt>
      <trkpt lat="43.57113" lon="3.76027">
        <ele>33.1</ele>
        <time>2010-12-12T11:02:00Z</time>
      </trkpt>
      <trkpt lat="43.57109" lon="3.76022">
        <ele>33.1</ele>
        <time>2010-12-12T11:02:01Z</time>
      </trkpt>
      <trkpt lat="43.57106" lon="3.76016">
        <ele>33.1</ele>
        <time>2010-12-12T11:02:02Z</time>
      </trkpt>
      <trkpt lat="43.57104" lon="3.7601">
        <ele>33.1</ele>
        <time>2010-12-12T11:02:03Z</time>
      </trkpt>
      <trkpt lat="43.57103" lon="3.76003">
        <ele>33</ele>
        <time>2010-12-12T11:02:04Z</time>
      </trkpt>
      <trkpt lat="43.57101" lon="3.75996">
        <ele>33</ele>
        <time>2010-12-12T11:02:05Z</time>
      </trkpt>
      <trkpt lat="43.57099" lon="3.75989">
        <ele>33.1</ele>
        <time>2010-12-12T11:02:06Z</time>
      </trkpt>
      <trkpt lat="43.57097" lon="3.75982">
        <ele>33.2</ele>
        <time>2010-12-12T11:02:07Z</time>
      </trkpt>
      <trkpt lat="43.57095" lon="3.75976">
        <ele>33.3</ele>
        <time>2010-12-12T11:02:08Z</time>
      </trkpt>
      <trkpt lat="43.57093" lon="3.75969">
        <ele>33.4</ele>
        <time>2010-12-12T11:02:09Z</time>
      </trkpt>
      <trkpt lat="43.5709" lon="3.75962">
        <ele>33.5</ele>
        <time>2010-12-12T11:02:10Z</time>
      </trkpt>
      <trkpt lat="43.57089" lon="3.75956">
        <ele>33.5</ele>
        <time>2010-12-12T11:02:11Z</time>
      </trkpt>
      <trkpt lat="43.57091" lon="3.75944">
        <ele>33.7</ele>
        <time>2010-12-12T11:02:13Z</time>
      </trkpt>
      <trkpt lat="43.57093" lon="3.75939">
        <ele>33.7</ele>
        <time>2010-12-12T11:02:14Z</time>
      </trkpt>
      <trkpt lat="43.57096" lon="3.75934">
        <ele>33.8</ele>
        <time>2010-12-12T11:02:15Z</time>
      </trkpt>
      <trkpt lat="43.57099" lon="3.75929">
        <ele>33.9</ele>
        <time>2010-12-12T11:02:16Z</time>
      </trkpt>
      <trkpt lat="43.57102" lon="3.75924">
        <ele>33.9</ele>
        <time>2010-12-12T11:02:17Z</time>
      </trkpt>
      <trkpt lat="43.57106" lon="3.75919">
        <ele>34</ele>
        <time>2010-12-12T11:02:18Z</time>
      </trkpt>
      <trkpt lat="43.57109" lon="3.75913">
        <ele>34.1</ele>
        <time>2010-12-12T11:02:19Z</time>
      </trkpt>
      <trkpt lat="43.57112" lon="3.75908">
        <ele>34.2</ele>
        <time>2010-12-12T11:02:20Z</time>
      </trkpt>
      <trkpt lat="43.57116" lon="3.75903">
        <ele>34.3</ele>
        <time>2010-12-12T11:02:21Z</time>
      </trkpt>
      <trkpt lat="43.57119" lon="3.75897">
        <ele>34.4</ele>
        <time>2010-12-12T11:02:22Z</time>
      </trkpt>
      <trkpt lat="43.57122" lon="3.75891">
        <ele>34.5</ele>
        <time>2010-12-12T11:02:23Z</time>
      </trkpt>
      <trkpt lat="43.57126" lon="3.75886">
        <ele>34.6</ele>
        <time>2010-12-12T11:02:24Z</time>
      </trkpt>
      <trkpt lat="43.57129" lon="3.7588">
        <ele>34.6</ele>
        <time>2010-12-12T11:02:25Z</time>
      </trkpt>
      <trkpt lat="43.57133" lon="3.75874">
        <ele>34.7</ele>
        <time>2010-12-12T11:02:26Z</time>
      </trkpt>
      <trkpt lat="43.57136" lon="3.75868">
        <ele>34.8</ele>
        <time>2010-12-12T11:02:27Z</time>
      </trkpt>
      <trkpt lat="43.5714" lon="3.75862">
        <ele>34.9</ele>
        <time>2010-12-12T11:02:28Z</time>
      </trkpt>
      <trkpt lat="43.57144" lon="3.75856">
        <ele>34.9</ele>
        <time>2010-12-12T11:02:29Z</time>
      </trkpt>
      <trkpt lat="43.57147" lon="3.7585">
        <ele>35</ele>
        <time>2010-12-12T11:02:30Z</time>
      </trkpt>
      <trkpt lat="43.57151" lon="3.75844">
        <ele>35</ele>
        <time>2010-12-12T11:02:31Z</time>
      </trkpt>
      <trkpt lat="43.57154" lon="3.75838">
        <ele>35.1</ele>
        <time>2010-12-12T11:02:32Z</time>
      </trkpt>
      <trkpt lat="43.57158" lon="3.75832">
        <ele>35.1</ele>
        <time>2010-12-12T11:02:33Z</time>
      </trkpt>
      <trkpt lat="43.57161" lon="3.75825">
        <ele>35.1</ele>
        <time>2010-12-12T11:02:34Z</time>
      </trkpt>
      <trkpt lat="43.57165" lon="3.75819">
        <ele>35</ele>
        <time>2010-12-12T11:02:35Z</time>
      </trkpt>
      <trkpt lat="43.57168" lon="3.75812">
        <ele>35</ele>
        <time>2010-12-12T11:02:36Z</time>
      </trkpt>
      <trkpt lat="43.5717" lon="3.75805">
        <ele>35</ele>
        <time>2010-12-12T11:02:37Z</time>
      </trkpt>
      <trkpt lat="43.57172" lon="3.75798">
        <ele>35.1</ele>
        <time>2010-12-12T11:02:38Z</time>
      </trkpt>
      <trkpt lat="43.57173" lon="3.7579">
        <ele>35.1</ele>
        <time>2010-12-12T11:02:39Z</time>
      </trkpt>
      <trkpt lat="43.57173" lon="3.75782">
        <ele>35.1</ele>
        <time>2010-12-12T11:02:40Z</time>
      </trkpt>
      <trkpt lat="43.57173" lon="3.75774">
        <ele>35.1</ele>
        <time>2010-12-12T11:02:41Z</time>
      </trkpt>
      <trkpt lat="43.57173" lon="3.75767">
        <ele>35.1</ele>
        <time>2010-12-12T11:02:42Z</time>
      </trkpt>
      <trkpt lat="43.57173" lon="3.7576">
        <ele>35.1</ele>
        <time>2010-12-12T11:02:43Z</time>
      </trkpt>
      <trkpt lat="43.57174" lon="3.75752">
        <ele>35.2</ele>
        <time>2010-12-12T11:02:44Z</time>
      </trkpt>
      <trkpt lat="43.57178" lon="3.75746">
        <ele>35.2</ele>
        <time>2010-12-12T11:02:45Z</time>
      </trkpt>
      <trkpt lat="43.57182" lon="3.75741">
        <ele>35.2</ele>
        <time>2010-12-12T11:02:46Z</time>
      </trkpt>
      <trkpt lat="43.57186" lon="3.75736">
        <ele>35.2</ele>
        <time>2010-12-12T11:02:47Z</time>
      </trkpt>
      <trkpt lat="43.5719" lon="3.75731">
        <ele>35.3</ele>
        <time>2010-12-12T11:02:48Z</time>
      </trkpt>
      <trkpt lat="43.57194" lon="3.75726">
        <ele>35.3</ele>
        <time>2010-12-12T11:02:49Z</time>
      </trkpt>
      <trkpt lat="43.57199" lon="3.75721">
        <ele>35.3</ele>
        <time>2010-12-12T11:02:50Z</time>
      </trkpt>
      <trkpt lat="43.57203" lon="3.75716">
        <ele>35.3</ele>
        <time>2010-12-12T11:02:51Z</time>
      </trkpt>
      <trkpt lat="43.57208" lon="3.75711">
        <ele>35.3</ele>
        <time>2010-12-12T11:02:52Z</time>
      </trkpt>
      <trkpt lat="43.57211" lon="3.75705">
        <ele>35.2</ele>
        <time>2010-12-12T11:02:53Z</time>
      </trkpt>
      <trkpt lat="43.57213" lon="3.75698">
        <ele>35.1</ele>
        <time>2010-12-12T11:02:54Z</time>
      </trkpt>
      <trkpt lat="43.57214" lon="3.75691">
        <ele>35</ele>
        <time>2010-12-12T11:02:55Z</time>
      </trkpt>
      <trkpt lat="43.57214" lon="3.75684">
        <ele>34.9</ele>
        <time>2010-12-12T11:02:56Z</time>
      </trkpt>
      <trkpt lat="43.57213" lon="3.75676">
        <ele>34.7</ele>
        <time>2010-12-12T11:02:57Z</time>
      </trkpt>
      <trkpt lat="43.5721" lon="3.7567">
        <ele>34.6</ele>
        <time>2010-12-12T11:02:58Z</time>
      </trkpt>
      <trkpt lat="43.57207" lon="3.75663">
        <ele>34.5</ele>
        <time>2010-12-12T11:02:59Z</time>
      </trkpt>
      <trkpt lat="43.57205" lon="3.75657">
        <ele>34.6</ele>
        <time>2010-12-12T11:03:00Z</time>
      </trkpt>
      <trkpt lat="43.57202" lon="3.75651">
        <ele>34.7</ele>
        <time>2010-12-12T11:03:01Z</time>
      </trkpt>
      <trkpt lat="43.57199" lon="3.75644">
        <ele>34.8</ele>
        <time>2010-12-12T11:03:02Z</time>
      </trkpt>
      <trkpt lat="43.57197" lon="3.75637">
        <ele>34.9</ele>
        <time>2010-12-12T11:03:03Z</time>
      </trkpt>
      <trkpt lat="43.57195" lon="3.7563">
        <ele>35.1</ele>
        <time>2010-12-12T11:03:04Z</time>
      </trkpt>
      <trkpt lat="43.57194" lon="3.75623">
        <ele>35.2</ele>
        <time>2010-12-12T11:03:05Z</time>
      </trkpt>
      <trkpt lat="43.57193" lon="3.75615">
        <ele>35.4</ele>
        <time>2010-12-12T11:03:06Z</time>
      </trkpt>
      <trkpt lat="43.57193" lon="3.75608">
        <ele>35.5</ele>
        <time>2010-12-12T11:03:07Z</time>
      </trkpt>
      <trkpt lat="43.57192" lon="3.756">
        <ele>35.7</ele>
        <time>2010-12-12T11:03:08Z</time>
      </trkpt>
      <trkpt lat="43.57191" lon="3.75593">
        <ele>35.8</ele>
        <time>2010-12-12T11:03:09Z</time>
      </trkpt>
      <trkpt lat="43.57191" lon="3.75585">
        <ele>36</ele>
        <time>2010-12-12T11:03:10Z</time>
      </trkpt>
      <trkpt lat="43.57191" lon="3.75577">
        <ele>36</ele>
        <time>2010-12-12T11:03:11Z</time>
      </trkpt>
      <trkpt lat="43.5719" lon="3.7557">
        <ele>36.1</ele>
        <time>2010-12-12T11:03:12Z</time>
      </trkpt>
      <trkpt lat="43.5719" lon="3.75563">
        <ele>36.1</ele>
        <time>2010-12-12T11:03:13Z</time>
      </trkpt>
      <trkpt lat="43.5719" lon="3.75556">
        <ele>36.2</ele>
        <time>2010-12-12T11:03:14Z</time>
      </trkpt>
      <trkpt lat="43.5719" lon="3.75548">
        <ele>36.2</ele>
        <time>2010-12-12T11:03:15Z</time>
      </trkpt>
      <trkpt lat="43.57189" lon="3.75541">
        <ele>36.3</ele>
        <time>2010-12-12T11:03:16Z</time>
      </trkpt>
      <trkpt lat="43.57189" lon="3.75533">
        <ele>36.3</ele>
        <time>2010-12-12T11:03:17Z</time>
      </trkpt>
      <trkpt lat="43.57189" lon="3.75526">
        <ele>36.4</ele>
        <time>2010-12-12T11:03:18Z</time>
      </trkpt>
      <trkpt lat="43.57189" lon="3.75518">
        <ele>36.4</ele>
        <time>2010-12-12T11:03:19Z</time>
      </trkpt>
      <trkpt lat="43.57188" lon="3.75511">
        <ele>36.4</ele>
        <time>2010-12-12T11:03:20Z</time>
      </trkpt>
      <trkpt lat="43.57188" lon="3.75503">
        <ele>36.5</ele>
        <time>2010-12-12T11:03:21Z</time>
      </trkpt>
      <trkpt lat="43.57188" lon="3.75495">
        <ele>36.5</ele>
        <time>2010-12-12T11:03:22Z</time>
      </trkpt>
      <trkpt lat="43.57188" lon="3.75488">
        <ele>36.5</ele>
        <time>2010-12-12T11:03:23Z</time>
      </trkpt>
      <trkpt lat="43.57188" lon="3.75481">
        <ele>36.6</ele>
        <time>2010-12-12T11:03:24Z</time>
      </trkpt>
      <trkpt lat="43.57188" lon="3.75474">
        <ele>36.6</ele>
        <time>2010-12-12T11:03:25Z</time>
      </trkpt>
      <trkpt lat="43.57192" lon="3.75463">
        <ele>36.8</ele>
        <time>2010-12-12T11:03:27Z</time>
      </trkpt>
      <trkpt lat="43.572" lon="3.7546">
        <ele>37</ele>
        <time>2010-12-12T11:03:29Z</time>
      </trkpt>
      <trkpt lat="43.57209" lon="3.7546">
        <ele>37.2</ele>
        <time>2010-12-12T11:03:31Z</time>
      </trkpt>
      <trkpt lat="43.57217" lon="3.75461">
        <ele>37.5</ele>
        <time>2010-12-12T11:03:33Z</time>
      </trkpt>
      <trkpt lat="43.57225" lon="3.75462">
        <ele>37.7</ele>
        <time>2010-12-12T11:03:35Z</time>
      </trkpt>
      <trkpt lat="43.57233" lon="3.75463">
        <ele>37.9</ele>
        <time>2010-12-12T11:03:37Z</time>
      </trkpt>
      <trkpt lat="43.57241" lon="3.75464">
        <ele>38.2</ele>
        <time>2010-12-12T11:03:39Z</time>
      </trkpt>
      <trkpt lat="43.57249" lon="3.75465">
        <ele>38.4</ele>
        <time>2010-12-12T11:03:41Z</time>
      </trkpt>
      <trkpt lat="43.57254" lon="3.75465">
        <ele>38.4</ele>
        <time>2010-12-12T11:03:42Z</time>
      </trkpt>
      <trkpt lat="43.57258" lon="3.75465">
        <ele>38.5</ele>
        <time>2010-12-12T11:03:43Z</time>
      </trkpt>
      <trkpt lat="43.57263" lon="3.75466">
        <ele>38.5</ele>
        <time>2010-12-12T11:03:44Z</time>
      </trkpt>
      <trkpt lat="43.57267" lon="3.75466">
        <ele>38.5</ele>
        <time>2010-12-12T11:03:45Z</time>
      </trkpt>
      <trkpt lat="43.57272" lon="3.75466">
        <ele>38.5</ele>
        <time>2010-12-12T11:03:46Z</time>
      </trkpt>
      <trkpt lat="43.57277" lon="3.75465">
        <ele>38.6</ele>
        <time>2010-12-12T11:03:47Z</time>
      </trkpt>
      <trkpt lat="43.57281" lon="3.75464">
        <ele>38.6</ele>
        <time>2010-12-12T11:03:48Z</time>
      </trkpt>
      <trkpt lat="43.57286" lon="3.75464">
        <ele>38.6</ele>
        <time>2010-12-12T11:03:49Z</time>
      </trkpt>
      <trkpt lat="43.57291" lon="3.75463">
        <ele>38.7</ele>
        <time>2010-12-12T11:03:50Z</time>
      </trkpt>
      <trkpt lat="43.57295" lon="3.75461">
        <ele>38.7</ele>
        <time>2010-12-12T11:03:51Z</time>
      </trkpt>
      <trkpt lat="43.573" lon="3.7546">
        <ele>38.8</ele>
        <time>2010-12-12T11:03:52Z</time>
      </trkpt>
      <trkpt lat="43.57305" lon="3.75459">
        <ele>38.8</ele>
        <time>2010-12-12T11:03:53Z</time>
      </trkpt>
      <trkpt lat="43.57309" lon="3.75458">
        <ele>38.9</ele>
        <time>2010-12-12T11:03:54Z</time>
      </trkpt>
      <trkpt lat="43.57314" lon="3.75457">
        <ele>38.9</ele>
        <time>2010-12-12T11:03:55Z</time>
      </trkpt>
      <trkpt lat="43.57319" lon="3.75456">
        <ele>39</ele>
        <time>2010-12-12T11:03:56Z</time>
      </trkpt>
      <trkpt lat="43.57324" lon="3.75455">
        <ele>39</ele>
        <time>2010-12-12T11:03:57Z</time>
      </trkpt>
      <trkpt lat="43.57329" lon="3.75454">
        <ele>39.1</ele>
        <time>2010-12-12T11:03:58Z</time>
      </trkpt>
      <trkpt lat="43.57334" lon="3.75453">
        <ele>39.1</ele>
        <time>2010-12-12T11:03:59Z</time>
      </trkpt>
      <trkpt lat="43.57339" lon="3.75452">
        <ele>39.1</ele>
        <time>2010-12-12T11:04:00Z</time>
      </trkpt>
      <trkpt lat="43.57344" lon="3.75451">
        <ele>39.1</ele>
        <time>2010-12-12T11:04:01Z</time>
      </trkpt>
      <trkpt lat="43.57349" lon="3.75451">
        <ele>39.1</ele>
        <time>2010-12-12T11:04:02Z</time>
      </trkpt>
      <trkpt lat="43.57354" lon="3.7545">
        <ele>39</ele>
        <time>2010-12-12T11:04:03Z</time>
      </trkpt>
      <trkpt lat="43.57359" lon="3.7545">
        <ele>39</ele>
        <time>2010-12-12T11:04:04Z</time>
      </trkpt>
      <trkpt lat="43.57364" lon="3.7545">
        <ele>39</ele>
        <time>2010-12-12T11:04:05Z</time>
      </trkpt>
      <trkpt lat="43.57369" lon="3.75449">
        <ele>39</ele>
        <time>2010-12-12T11:04:06Z</time>
      </trkpt>
      <trkpt lat="43.57374" lon="3.75449">
        <ele>38.9</ele>
        <time>2010-12-12T11:04:07Z</time>
      </trkpt>
      <trkpt lat="43.57379" lon="3.75449">
        <ele>38.9</ele>
        <time>2010-12-12T11:04:08Z</time>
      </trkpt>
      <trkpt lat="43.57384" lon="3.75448">
        <ele>38.9</ele>
        <time>2010-12-12T11:04:09Z</time>
      </trkpt>
      <trkpt lat="43.57389" lon="3.75448">
        <ele>38.8</ele>
        <time>2010-12-12T11:04:10Z</time>
      </trkpt>
      <trkpt lat="43.57394" lon="3.75448">
        <ele>38.8</ele>
        <time>2010-12-12T11:04:11Z</time>
      </trkpt>
      <trkpt lat="43.574" lon="3.75448">
        <ele>38.8</ele>
        <time>2010-12-12T11:04:12Z</time>
      </trkpt>
      <trkpt lat="43.57405" lon="3.75448">
        <ele>38.7</ele>
        <time>2010-12-12T11:04:13Z</time>
      </trkpt>
      <trkpt lat="43.5741" lon="3.75448">
        <ele>38.7</ele>
        <time>2010-12-12T11:04:14Z</time>
      </trkpt>
      <trkpt lat="43.57415" lon="3.75448">
        <ele>38.6</ele>
        <time>2010-12-12T11:04:15Z</time>
      </trkpt>
      <trkpt lat="43.5742" lon="3.75448">
        <ele>38.6</ele>
        <time>2010-12-12T11:04:16Z</time>
      </trkpt>
      <trkpt lat="43.57425" lon="3.75447">
        <ele>38.6</ele>
        <time>2010-12-12T11:04:17Z</time>
      </trkpt>
      <trkpt lat="43.57431" lon="3.75447">
        <ele>38.6</ele>
        <time>2010-12-12T11:04:18Z</time>
      </trkpt>
      <trkpt lat="43.57436" lon="3.75447">
        <ele>38.6</ele>
        <time>2010-12-12T11:04:19Z</time>
      </trkpt>
      <trkpt lat="43.57441" lon="3.75446">
        <ele>38.6</ele>
        <time>2010-12-12T11:04:20Z</time>
      </trkpt>
      <trkpt lat="43.57446" lon="3.75446">
        <ele>38.6</ele>
        <time>2010-12-12T11:04:21Z</time>
      </trkpt>
      <trkpt lat="43.57452" lon="3.75445">
        <ele>38.7</ele>
        <time>2010-12-12T11:04:22Z</time>
      </trkpt>
      <trkpt lat="43.57457" lon="3.75445">
        <ele>38.7</ele>
        <time>2010-12-12T11:04:23Z</time>
      </trkpt>
      <trkpt lat="43.57462" lon="3.75444">
        <ele>38.7</ele>
        <time>2010-12-12T11:04:24Z</time>
      </trkpt>
      <trkpt lat="43.57468" lon="3.75443">
        <ele>38.7</ele>
        <time>2010-12-12T11:04:25Z</time>
      </trkpt>
      <trkpt lat="43.57473" lon="3.75442">
        <ele>38.7</ele>
        <time>2010-12-12T11:04:26Z</time>
      </trkpt>
      <trkpt lat="43.57478" lon="3.7544">
        <ele>38.7</ele>
        <time>2010-12-12T11:04:27Z</time>
      </trkpt>
      <trkpt lat="43.57483" lon="3.75439">
        <ele>38.7</ele>
        <time>2010-12-12T11:04:28Z</time>
      </trkpt>
      <trkpt lat="43.57488" lon="3.75436">
        <ele>38.8</ele>
        <time>2010-12-12T11:04:29Z</time>
      </trkpt>
      <trkpt lat="43.57494" lon="3.75434">
        <ele>38.8</ele>
        <time>2010-12-12T11:04:30Z</time>
      </trkpt>
      <trkpt lat="43.57499" lon="3.75432">
        <ele>38.8</ele>
        <time>2010-12-12T11:04:31Z</time>
      </trkpt>
      <trkpt lat="43.57504" lon="3.75429">
        <ele>38.9</ele>
        <time>2010-12-12T11:04:32Z</time>
      </trkpt>
      <trkpt lat="43.57509" lon="3.75427">
        <ele>38.9</ele>
        <time>2010-12-12T11:04:33Z</time>
      </trkpt>
      <trkpt lat="43.57514" lon="3.75426">
        <ele>38.9</ele>
        <time>2010-12-12T11:04:34Z</time>
      </trkpt>
      <trkpt lat="43.5752" lon="3.75426">
        <ele>38.9</ele>
        <time>2010-12-12T11:04:35Z</time>
      </trkpt>
      <trkpt lat="43.57525" lon="3.75428">
        <ele>38.9</ele>
        <time>2010-12-12T11:04:36Z</time>
      </trkpt>
      <trkpt lat="43.5753" lon="3.75431">
        <ele>39</ele>
        <time>2010-12-12T11:04:37Z</time>
      </trkpt>
      <trkpt lat="43.57535" lon="3.75434">
        <ele>39</ele>
        <time>2010-12-12T11:04:38Z</time>
      </trkpt>
      <trkpt lat="43.5754" lon="3.75439">
        <ele>39</ele>
        <time>2010-12-12T11:04:39Z</time>
      </trkpt>
      <trkpt lat="43.57544" lon="3.75443">
        <ele>39</ele>
        <time>2010-12-12T11:04:40Z</time>
      </trkpt>
      <trkpt lat="43.57549" lon="3.75447">
        <ele>39.1</ele>
        <time>2010-12-12T11:04:41Z</time>
      </trkpt>
      <trkpt lat="43.57553" lon="3.75452">
        <ele>39.1</ele>
        <time>2010-12-12T11:04:42Z</time>
      </trkpt>
      <trkpt lat="43.57558" lon="3.75456">
        <ele>39.2</ele>
        <time>2010-12-12T11:04:43Z</time>
      </trkpt>
      <trkpt lat="43.57562" lon="3.7546">
        <ele>39.3</ele>
        <time>2010-12-12T11:04:44Z</time>
      </trkpt>
      <trkpt lat="43.57567" lon="3.75464">
        <ele>39.3</ele>
        <time>2010-12-12T11:04:45Z</time>
      </trkpt>
      <trkpt lat="43.57571" lon="3.75468">
        <ele>39.4</ele>
        <time>2010-12-12T11:04:46Z</time>
      </trkpt>
      <trkpt lat="43.57576" lon="3.75472">
        <ele>39.5</ele>
        <time>2010-12-12T11:04:47Z</time>
      </trkpt>
      <trkpt lat="43.57581" lon="3.75475">
        <ele>39.7</ele>
        <time>2010-12-12T11:04:48Z</time>
      </trkpt>
      <trkpt lat="43.57586" lon="3.75479">
        <ele>39.8</ele>
        <time>2010-12-12T11:04:49Z</time>
      </trkpt>
      <trkpt lat="43.57591" lon="3.75483">
        <ele>40</ele>
        <time>2010-12-12T11:04:50Z</time>
      </trkpt>
      <trkpt lat="43.57595" lon="3.75487">
        <ele>40.1</ele>
        <time>2010-12-12T11:04:51Z</time>
      </trkpt>
      <trkpt lat="43.57601" lon="3.7549">
        <ele>40.3</ele>
        <time>2010-12-12T11:04:52Z</time>
      </trkpt>
      <trkpt lat="43.57606" lon="3.75493">
        <ele>40.5</ele>
        <time>2010-12-12T11:04:53Z</time>
      </trkpt>
      <trkpt lat="43.57611" lon="3.75496">
        <ele>40.6</ele>
        <time>2010-12-12T11:04:54Z</time>
      </trkpt>
      <trkpt lat="43.57616" lon="3.75499">
        <ele>40.8</ele>
        <time>2010-12-12T11:04:55Z</time>
      </trkpt>
      <trkpt lat="43.57621" lon="3.75501">
        <ele>40.9</ele>
        <time>2010-12-12T11:04:56Z</time>
      </trkpt>
      <trkpt lat="43.57627" lon="3.75504">
        <ele>41</ele>
        <time>2010-12-12T11:04:57Z</time>
      </trkpt>
      <trkpt lat="43.57632" lon="3.75506">
        <ele>41.1</ele>
        <time>2010-12-12T11:04:58Z</time>
      </trkpt>
      <trkpt lat="43.57637" lon="3.75508">
        <ele>41.2</ele>
        <time>2010-12-12T11:04:59Z</time>
      </trkpt>
      <trkpt lat="43.57642" lon="3.75511">
        <ele>41.3</ele>
        <time>2010-12-12T11:05:00Z</time>
      </trkpt>
      <trkpt lat="43.57647" lon="3.75513">
        <ele>41.4</ele>
        <time>2010-12-12T11:05:01Z</time>
      </trkpt>
      <trkpt lat="43.57653" lon="3.75516">
        <ele>41.5</ele>
        <time>2010-12-12T11:05:02Z</time>
      </trkpt>
      <trkpt lat="43.57658" lon="3.75518">
        <ele>41.6</ele>
        <time>2010-12-12T11:05:03Z</time>
      </trkpt>
      <trkpt lat="43.57662" lon="3.75521">
        <ele>41.6</ele>
        <time>2010-12-12T11:05:04Z</time>
      </trkpt>
      <trkpt lat="43.57667" lon="3.75524">
        <ele>41.7</ele>
        <time>2010-12-12T11:05:05Z</time>
      </trkpt>
      <trkpt lat="43.57672" lon="3.75526">
        <ele>41.7</ele>
        <time>2010-12-12T11:05:06Z</time>
      </trkpt>
      <trkpt lat="43.57677" lon="3.75529">
        <ele>41.7</ele>
        <time>2010-12-12T11:05:07Z</time>
      </trkpt>
      <trkpt lat="43.57681" lon="3.75533">
        <ele>41.7</ele>
        <time>2010-12-12T11:05:08Z</time>
      </trkpt>
      <trkpt lat="43.57686" lon="3.75536">
        <ele>41.8</ele>
        <time>2010-12-12T11:05:09Z</time>
      </trkpt>
      <trkpt lat="43.5769" lon="3.75539">
        <ele>41.8</ele>
        <time>2010-12-12T11:05:10Z</time>
      </trkpt>
      <trkpt lat="43.57695" lon="3.75543">
        <ele>41.8</ele>
        <time>2010-12-12T11:05:11Z</time>
      </trkpt>
      <trkpt lat="43.57699" lon="3.75546">
        <ele>41.9</ele>
        <time>2010-12-12T11:05:12Z</time>
      </trkpt>
      <trkpt lat="43.57704" lon="3.75549">
        <ele>41.9</ele>
        <time>2010-12-12T11:05:13Z</time>
      </trkpt>
      <trkpt lat="43.57709" lon="3.75552">
        <ele>42</ele>
        <time>2010-12-12T11:05:14Z</time>
      </trkpt>
      <trkpt lat="43.57713" lon="3.75556">
        <ele>42.1</ele>
        <time>2010-12-12T11:05:15Z</time>
      </trkpt>
      <trkpt lat="43.57718" lon="3.75559">
        <ele>42.2</ele>
        <time>2010-12-12T11:05:16Z</time>
      </trkpt>
      <trkpt lat="43.57722" lon="3.75562">
        <ele>42.2</ele>
        <time>2010-12-12T11:05:17Z</time>
      </trkpt>
      <trkpt lat="43.57727" lon="3.75565">
        <ele>42.3</ele>
        <time>2010-12-12T11:05:18Z</time>
      </trkpt>
      <trkpt lat="43.57731" lon="3.75569">
        <ele>42.5</ele>
        <time>2010-12-12T11:05:19Z</time>
      </trkpt>
      <trkpt lat="43.57736" lon="3.75572">
        <ele>42.6</ele>
        <time>2010-12-12T11:05:20Z</time>
      </trkpt>
      <trkpt lat="43.5774" lon="3.75576">
        <ele>42.7</ele>
        <time>2010-12-12T11:05:21Z</time>
      </trkpt>
      <trkpt lat="43.57745" lon="3.75579">
        <ele>42.8</ele>
        <time>2010-12-12T11:05:22Z</time>
      </trkpt>
      <trkpt lat="43.57749" lon="3.75582">
        <ele>43</ele>
        <time>2010-12-12T11:05:23Z</time>
      </trkpt>
      <trkpt lat="43.57753" lon="3.75585">
        <ele>43.1</ele>
        <time>2010-12-12T11:05:24Z</time>
      </trkpt>
      <trkpt lat="43.57758" lon="3.75589">
        <ele>43.2</ele>
        <time>2010-12-12T11:05:25Z</time>
      </trkpt>
      <trkpt lat="43.57762" lon="3.75592">
        <ele>43.4</ele>
        <time>2010-12-12T11:05:26Z</time>
      </trkpt>
      <trkpt lat="43.57766" lon="3.75594">
        <ele>43.5</ele>
        <time>2010-12-12T11:05:27Z</time>
      </trkpt>
      <trkpt lat="43.5777" lon="3.75597">
        <ele>43.6</ele>
        <time>2010-12-12T11:05:28Z</time>
      </trkpt>
      <trkpt lat="43.57775" lon="3.756">
        <ele>43.7</ele>
        <time>2010-12-12T11:05:29Z</time>
      </trkpt>
      <trkpt lat="43.57779" lon="3.75603">
        <ele>43.8</ele>
        <time>2010-12-12T11:05:30Z</time>
      </trkpt>
      <trkpt lat="43.57787" lon="3.75608">
        <ele>44</ele>
        <time>2010-12-12T11:05:32Z</time>
      </trkpt>
      <trkpt lat="43.57795" lon="3.75612">
        <ele>44.2</ele>
        <time>2010-12-12T11:05:34Z</time>
      </trkpt>
      <trkpt lat="43.57803" lon="3.75616">
        <ele>44.4</ele>
        <time>2010-12-12T11:05:36Z</time>
      </trkpt>
      <trkpt lat="43.57811" lon="3.7562">
        <ele>44.6</ele>
        <time>2010-12-12T11:05:38Z</time>
      </trkpt>
      <trkpt lat="43.57818" lon="3.75627">
        <ele>44.7</ele>
        <time>2010-12-12T11:05:40Z</time>
      </trkpt>
      <trkpt lat="43.57822" lon="3.75636">
        <ele>44.8</ele>
        <time>2010-12-12T11:05:42Z</time>
      </trkpt>
      <trkpt lat="43.57824" lon="3.75642">
        <ele>44.9</ele>
        <time>2010-12-12T11:05:43Z</time>
      </trkpt>
      <trkpt lat="43.57827" lon="3.75648">
        <ele>44.9</ele>
        <time>2010-12-12T11:05:44Z</time>
      </trkpt>
      <trkpt lat="43.57831" lon="3.75652">
        <ele>45</ele>
        <time>2010-12-12T11:05:45Z</time>
      </trkpt>
      <trkpt lat="43.57836" lon="3.75655">
        <ele>45</ele>
        <time>2010-12-12T11:05:46Z</time>
      </trkpt>
      <trkpt lat="43.57841" lon="3.75657">
        <ele>45.1</ele>
        <time>2010-12-12T11:05:47Z</time>
      </trkpt>
      <trkpt lat="43.57846" lon="3.75657">
        <ele>45.1</ele>
        <time>2010-12-12T11:05:48Z</time>
      </trkpt>
      <trkpt lat="43.57851" lon="3.75655">
        <ele>45.2</ele>
        <time>2010-12-12T11:05:49Z</time>
      </trkpt>
      <trkpt lat="43.57855" lon="3.75651">
        <ele>45.2</ele>
        <time>2010-12-12T11:05:50Z</time>
      </trkpt>
      <trkpt lat="43.57858" lon="3.75647">
        <ele>45.2</ele>
        <time>2010-12-12T11:05:51Z</time>
      </trkpt>
      <trkpt lat="43.57861" lon="3.75641">
        <ele>45.2</ele>
        <time>2010-12-12T11:05:52Z</time>
      </trkpt>
      <trkpt lat="43.57865" lon="3.75631">
        <ele>45.2</ele>
        <time>2010-12-12T11:05:54Z</time>
      </trkpt>
      <trkpt lat="43.57866" lon="3.75624">
        <ele>45.2</ele>
        <time>2010-12-12T11:05:55Z</time>
      </trkpt>
      <trkpt lat="43.57867" lon="3.75618">
        <ele>45.2</ele>
        <time>2010-12-12T11:05:56Z</time>
      </trkpt>
      <trkpt lat="43.57869" lon="3.75611">
        <ele>45.1</ele>
        <time>2010-12-12T11:05:57Z</time>
      </trkpt>
      <trkpt lat="43.57871" lon="3.75604">
        <ele>45.1</ele>
        <time>2010-12-12T11:05:58Z</time>
      </trkpt>
      <trkpt lat="43.57873" lon="3.75598">
        <ele>45.1</ele>
        <time>2010-12-12T11:05:59Z</time>
      </trkpt>
      <trkpt lat="43.57875" lon="3.75591">
        <ele>45</ele>
        <time>2010-12-12T11:06:00Z</time>
      </trkpt>
      <trkpt lat="43.57877" lon="3.75585">
        <ele>45</ele>
        <time>2010-12-12T11:06:01Z</time>
      </trkpt>
      <trkpt lat="43.57879" lon="3.75579">
        <ele>45.1</ele>
        <time>2010-12-12T11:06:02Z</time>
      </trkpt>
      <trkpt lat="43.57882" lon="3.75574">
        <ele>45.1</ele>
        <time>2010-12-12T11:06:03Z</time>
      </trkpt>
      <trkpt lat="43.57884" lon="3.75569">
        <ele>45.3</ele>
        <time>2010-12-12T11:06:04Z</time>
      </trkpt>
      <trkpt lat="43.57887" lon="3.75564">
        <ele>45.4</ele>
        <time>2010-12-12T11:06:05Z</time>
      </trkpt>
      <trkpt lat="43.5789" lon="3.75559">
        <ele>45.5</ele>
        <time>2010-12-12T11:06:06Z</time>
      </trkpt>
      <trkpt lat="43.57892" lon="3.75554">
        <ele>45.7</ele>
        <time>2010-12-12T11:06:07Z</time>
      </trkpt>
      <trkpt lat="43.57898" lon="3.75544">
        <ele>46</ele>
        <time>2010-12-12T11:06:09Z</time>
      </trkpt>
      <trkpt lat="43.57903" lon="3.75534">
        <ele>46.4</ele>
        <time>2010-12-12T11:06:11Z</time>
      </trkpt>
      <trkpt lat="43.57906" lon="3.75525">
        <ele>46.7</ele>
        <time>2010-12-12T11:06:13Z</time>
      </trkpt>
      <trkpt lat="43.57909" lon="3.75517">
        <ele>47.1</ele>
        <time>2010-12-12T11:06:15Z</time>
      </trkpt>
      <trkpt lat="43.57912" lon="3.75509">
        <ele>47.5</ele>
        <time>2010-12-12T11:06:17Z</time>
      </trkpt>
      <trkpt lat="43.57916" lon="3.75499">
        <ele>48</ele>
        <time>2010-12-12T11:06:20Z</time>
      </trkpt>
      <trkpt lat="43.57918" lon="3.75489">
        <ele>48.2</ele>
        <time>2010-12-12T11:06:23Z</time>
      </trkpt>
      <trkpt lat="43.57919" lon="3.75479">
        <ele>48.3</ele>
        <time>2010-12-12T11:06:27Z</time>
      </trkpt>
      <trkpt lat="43.57922" lon="3.75468">
        <ele>48.5</ele>
        <time>2010-12-12T11:06:31Z</time>
      </trkpt>
      <trkpt lat="43.57926" lon="3.75459">
        <ele>48.7</ele>
        <time>2010-12-12T11:06:34Z</time>
      </trkpt>
      <trkpt lat="43.57925" lon="3.75469">
        <ele>48.6</ele>
        <time>2010-12-12T11:06:50Z</time>
      </trkpt>
      <trkpt lat="43.57925" lon="3.75471">
        <ele>48.5</ele>
        <time>2010-12-12T11:06:51Z</time>
      </trkpt>
      <trkpt lat="43.57931" lon="3.75449">
        <ele>48.9</ele>
        <time>2010-12-12T11:07:10Z</time>
      </trkpt>
      <trkpt lat="43.57934" lon="3.75438">
        <ele>49.2</ele>
        <time>2010-12-12T11:10:49Z</time>
      </trkpt>
      <trkpt lat="43.57934" lon="3.75437">
        <ele>49.2</ele>
        <time>2010-12-12T11:10:50Z</time>
      </trkpt>
      <trkpt lat="43.57942" lon="3.75423">
        <ele>49.5</ele>
        <time>2010-12-12T11:10:56Z</time>
      </trkpt>
      <trkpt lat="43.57947" lon="3.75416">
        <ele>49.7</ele>
        <time>2010-12-12T11:10:58Z</time>
      </trkpt>
      <trkpt lat="43.57951" lon="3.75412">
        <ele>49.9</ele>
        <time>2010-12-12T11:10:59Z</time>
      </trkpt>
      <trkpt lat="43.57954" lon="3.75407">
        <ele>50</ele>
        <time>2010-12-12T11:11:00Z</time>
      </trkpt>
      <trkpt lat="43.57957" lon="3.754">
        <ele>50.2</ele>
        <time>2010-12-12T11:11:01Z</time>
      </trkpt>
      <trkpt lat="43.57959" lon="3.75393">
        <ele>50.3</ele>
        <time>2010-12-12T11:11:02Z</time>
      </trkpt>
      <trkpt lat="43.57962" lon="3.75385">
        <ele>50.5</ele>
        <time>2010-12-12T11:11:03Z</time>
      </trkpt>
      <trkpt lat="43.57965" lon="3.75379">
        <ele>50.6</ele>
        <time>2010-12-12T11:11:04Z</time>
      </trkpt>
      <trkpt lat="43.57969" lon="3.75372">
        <ele>50.8</ele>
        <time>2010-12-12T11:11:05Z</time>
      </trkpt>
      <trkpt lat="43.57973" lon="3.75365">
        <ele>51</ele>
        <time>2010-12-12T11:11:06Z</time>
      </trkpt>
      <trkpt lat="43.57976" lon="3.75359">
        <ele>51.1</ele>
        <time>2010-12-12T11:11:07Z</time>
      </trkpt>
      <trkpt lat="43.5798" lon="3.75352">
        <ele>51.3</ele>
        <time>2010-12-12T11:11:08Z</time>
      </trkpt>
      <trkpt lat="43.57984" lon="3.75345">
        <ele>51.5</ele>
        <time>2010-12-12T11:11:09Z</time>
      </trkpt>
      <trkpt lat="43.57987" lon="3.75338">
        <ele>51.6</ele>
        <time>2010-12-12T11:11:10Z</time>
      </trkpt>
      <trkpt lat="43.57991" lon="3.75331">
        <ele>51.8</ele>
        <time>2010-12-12T11:11:11Z</time>
      </trkpt>
      <trkpt lat="43.57995" lon="3.75324">
        <ele>51.8</ele>
        <time>2010-12-12T11:11:12Z</time>
      </trkpt>
      <trkpt lat="43.57999" lon="3.75317">
        <ele>51.8</ele>
        <time>2010-12-12T11:11:13Z</time>
      </trkpt>
      <trkpt lat="43.58003" lon="3.7531">
        <ele>51.8</ele>
        <time>2010-12-12T11:11:14Z</time>
      </trkpt>
      <trkpt lat="43.58006" lon="3.75303">
        <ele>51.7</ele>
        <time>2010-12-12T11:11:15Z</time>
      </trkpt>
      <trkpt lat="43.5801" lon="3.75297">
        <ele>51.7</ele>
        <time>2010-12-12T11:11:16Z</time>
      </trkpt>
      <trkpt lat="43.58014" lon="3.75293">
        <ele>51.8</ele>
        <time>2010-12-12T11:11:17Z</time>
      </trkpt>
      <trkpt lat="43.58018" lon="3.75289">
        <ele>51.8</ele>
        <time>2010-12-12T11:11:18Z</time>
      </trkpt>
      <trkpt lat="43.58025" lon="3.75282">
        <ele>51.9</ele>
        <time>2010-12-12T11:11:20Z</time>
      </trkpt>
      <trkpt lat="43.58031" lon="3.75273">
        <ele>51.9</ele>
        <time>2010-12-12T11:11:22Z</time>
      </trkpt>
      <trkpt lat="43.58033" lon="3.75267">
        <ele>51.9</ele>
        <time>2010-12-12T11:11:23Z</time>
      </trkpt>
      <trkpt lat="43.58036" lon="3.75261">
        <ele>51.9</ele>
        <time>2010-12-12T11:11:24Z</time>
      </trkpt>
      <trkpt lat="43.5804" lon="3.75255">
        <ele>52</ele>
        <time>2010-12-12T11:11:25Z</time>
      </trkpt>
      <trkpt lat="43.58044" lon="3.75249">
        <ele>52.1</ele>
        <time>2010-12-12T11:11:26Z</time>
      </trkpt>
      <trkpt lat="43.58048" lon="3.75243">
        <ele>52.3</ele>
        <time>2010-12-12T11:11:27Z</time>
      </trkpt>
      <trkpt lat="43.58052" lon="3.75236">
        <ele>52.6</ele>
        <time>2010-12-12T11:11:28Z</time>
      </trkpt>
      <trkpt lat="43.58055" lon="3.7523">
        <ele>52.9</ele>
        <time>2010-12-12T11:11:29Z</time>
      </trkpt>
      <trkpt lat="43.58059" lon="3.75224">
        <ele>53.2</ele>
        <time>2010-12-12T11:11:30Z</time>
      </trkpt>
      <trkpt lat="43.58063" lon="3.75218">
        <ele>53.5</ele>
        <time>2010-12-12T11:11:31Z</time>
      </trkpt>
      <trkpt lat="43.58066" lon="3.75211">
        <ele>53.8</ele>
        <time>2010-12-12T11:11:32Z</time>
      </trkpt>
      <trkpt lat="43.5807" lon="3.75205">
        <ele>54.1</ele>
        <time>2010-12-12T11:11:33Z</time>
      </trkpt>
      <trkpt lat="43.58074" lon="3.75199">
        <ele>54.5</ele>
        <time>2010-12-12T11:11:34Z</time>
      </trkpt>
      <trkpt lat="43.58077" lon="3.75192">
        <ele>54.8</ele>
        <time>2010-12-12T11:11:35Z</time>
      </trkpt>
      <trkpt lat="43.5808" lon="3.75186">
        <ele>55.2</ele>
        <time>2010-12-12T11:11:36Z</time>
      </trkpt>
      <trkpt lat="43.58083" lon="3.75179">
        <ele>55.5</ele>
        <time>2010-12-12T11:11:37Z</time>
      </trkpt>
      <trkpt lat="43.58087" lon="3.75173">
        <ele>55.8</ele>
        <time>2010-12-12T11:11:38Z</time>
      </trkpt>
      <trkpt lat="43.5809" lon="3.75167">
        <ele>56.1</ele>
        <time>2010-12-12T11:11:39Z</time>
      </trkpt>
      <trkpt lat="43.58093" lon="3.7516">
        <ele>56.3</ele>
        <time>2010-12-12T11:11:40Z</time>
      </trkpt>
      <trkpt lat="43.58096" lon="3.75154">
        <ele>56.5</ele>
        <time>2010-12-12T11:11:41Z</time>
      </trkpt>
      <trkpt lat="43.58099" lon="3.75147">
        <ele>56.7</ele>
        <time>2010-12-12T11:11:42Z</time>
      </trkpt>
      <trkpt lat="43.58102" lon="3.75141">
        <ele>56.9</ele>
        <time>2010-12-12T11:11:43Z</time>
      </trkpt>
      <trkpt lat="43.58105" lon="3.75135">
        <ele>57.1</ele>
        <time>2010-12-12T11:11:44Z</time>
      </trkpt>
      <trkpt lat="43.58108" lon="3.75129">
        <ele>57.3</ele>
        <time>2010-12-12T11:11:45Z</time>
      </trkpt>
      <trkpt lat="43.58111" lon="3.75123">
        <ele>57.6</ele>
        <time>2010-12-12T11:11:46Z</time>
      </trkpt>
      <trkpt lat="43.58114" lon="3.75117">
        <ele>57.8</ele>
        <time>2010-12-12T11:11:47Z</time>
      </trkpt>
      <trkpt lat="43.58117" lon="3.75111">
        <ele>58</ele>
        <time>2010-12-12T11:11:48Z</time>
      </trkpt>
      <trkpt lat="43.5812" lon="3.75106">
        <ele>58.2</ele>
        <time>2010-12-12T11:11:49Z</time>
      </trkpt>
      <trkpt lat="43.58122" lon="3.751">
        <ele>58.4</ele>
        <time>2010-12-12T11:11:50Z</time>
      </trkpt>
      <trkpt lat="43.58125" lon="3.75095">
        <ele>58.6</ele>
        <time>2010-12-12T11:11:51Z</time>
      </trkpt>
      <trkpt lat="43.58128" lon="3.7509">
        <ele>58.9</ele>
        <time>2010-12-12T11:11:52Z</time>
      </trkpt>
      <trkpt lat="43.58133" lon="3.7508">
        <ele>59.2</ele>
        <time>2010-12-12T11:11:54Z</time>
      </trkpt>
      <trkpt lat="43.58136" lon="3.75071">
        <ele>59.3</ele>
        <time>2010-12-12T11:11:56Z</time>
      </trkpt>
      <trkpt lat="43.58141" lon="3.75062">
        <ele>59.4</ele>
        <time>2010-12-12T11:11:58Z</time>
      </trkpt>
      <trkpt lat="43.58147" lon="3.75055">
        <ele>59.6</ele>
        <time>2010-12-12T11:12:00Z</time>
      </trkpt>
      <trkpt lat="43.58147" lon="3.75044">
        <ele>59.7</ele>
        <time>2010-12-12T11:12:02Z</time>
      </trkpt>
      <trkpt lat="43.58145" lon="3.75038">
        <ele>59.6</ele>
        <time>2010-12-12T11:12:03Z</time>
      </trkpt>
      <trkpt lat="43.58143" lon="3.75033">
        <ele>59.5</ele>
        <time>2010-12-12T11:12:04Z</time>
      </trkpt>
      <trkpt lat="43.5814" lon="3.75027">
        <ele>59.4</ele>
        <time>2010-12-12T11:12:05Z</time>
      </trkpt>
      <trkpt lat="43.58138" lon="3.75021">
        <ele>59.3</ele>
        <time>2010-12-12T11:12:06Z</time>
      </trkpt>
      <trkpt lat="43.58135" lon="3.75015">
        <ele>59.1</ele>
        <time>2010-12-12T11:12:07Z</time>
      </trkpt>
      <trkpt lat="43.58132" lon="3.7501">
        <ele>58.9</ele>
        <time>2010-12-12T11:12:08Z</time>
      </trkpt>
      <trkpt lat="43.58128" lon="3.75003">
        <ele>58.7</ele>
        <time>2010-12-12T11:12:09Z</time>
      </trkpt>
      <trkpt lat="43.58126" lon="3.74997">
        <ele>58.6</ele>
        <time>2010-12-12T11:12:10Z</time>
      </trkpt>
      <trkpt lat="43.58123" lon="3.7499">
        <ele>58.5</ele>
        <time>2010-12-12T11:12:11Z</time>
      </trkpt>
      <trkpt lat="43.5812" lon="3.74984">
        <ele>58.4</ele>
        <time>2010-12-12T11:12:12Z</time>
      </trkpt>
      <trkpt lat="43.58117" lon="3.74977">
        <ele>58.3</ele>
        <time>2010-12-12T11:12:13Z</time>
      </trkpt>
      <trkpt lat="43.58113" lon="3.7497">
        <ele>58.2</ele>
        <time>2010-12-12T11:12:14Z</time>
      </trkpt>
      <trkpt lat="43.5811" lon="3.74963">
        <ele>58.1</ele>
        <time>2010-12-12T11:12:15Z</time>
      </trkpt>
      <trkpt lat="43.58107" lon="3.74956">
        <ele>57.9</ele>
        <time>2010-12-12T11:12:16Z</time>
      </trkpt>
      <trkpt lat="43.58104" lon="3.7495">
        <ele>57.8</ele>
        <time>2010-12-12T11:12:17Z</time>
      </trkpt>
      <trkpt lat="43.58101" lon="3.74943">
        <ele>57.7</ele>
        <time>2010-12-12T11:12:18Z</time>
      </trkpt>
      <trkpt lat="43.58097" lon="3.74936">
        <ele>57.6</ele>
        <time>2010-12-12T11:12:19Z</time>
      </trkpt>
      <trkpt lat="43.58094" lon="3.74929">
        <ele>57.5</ele>
        <time>2010-12-12T11:12:20Z</time>
      </trkpt>
      <trkpt lat="43.58091" lon="3.74923">
        <ele>57.4</ele>
        <time>2010-12-12T11:12:21Z</time>
      </trkpt>
      <trkpt lat="43.5809" lon="3.74915">
        <ele>57.5</ele>
        <time>2010-12-12T11:12:22Z</time>
      </trkpt>
      <trkpt lat="43.5809" lon="3.74907">
        <ele>57.9</ele>
        <time>2010-12-12T11:12:23Z</time>
      </trkpt>
      <trkpt lat="43.58092" lon="3.74901">
        <ele>58.4</ele>
        <time>2010-12-12T11:12:24Z</time>
      </trkpt>
      <trkpt lat="43.581" lon="3.74894">
        <ele>59.2</ele>
        <time>2010-12-12T11:12:26Z</time>
      </trkpt>
      <trkpt lat="43.58106" lon="3.74891">
        <ele>59.8</ele>
        <time>2010-12-12T11:12:28Z</time>
      </trkpt>
      <trkpt lat="43.58113" lon="3.7489">
        <ele>60.5</ele>
        <time>2010-12-12T11:12:31Z</time>
      </trkpt>
      <trkpt lat="43.5812" lon="3.74887">
        <ele>61.1</ele>
        <time>2010-12-12T11:12:34Z</time>
      </trkpt>
      <trkpt lat="43.58127" lon="3.74883">
        <ele>61.8</ele>
        <time>2010-12-12T11:12:37Z</time>
      </trkpt>
      <trkpt lat="43.58133" lon="3.74875">
        <ele>62.8</ele>
        <time>2010-12-12T11:12:41Z</time>
      </trkpt>
      <trkpt lat="43.58136" lon="3.74865">
        <ele>63.8</ele>
        <time>2010-12-12T11:12:45Z</time>
      </trkpt>
      <trkpt lat="43.58139" lon="3.74855">
        <ele>64.8</ele>
        <time>2010-12-12T11:12:49Z</time>
      </trkpt>
      <trkpt lat="43.58142" lon="3.74845">
        <ele>65.8</ele>
        <time>2010-12-12T11:12:53Z</time>
      </trkpt>
      <trkpt lat="43.58143" lon="3.74843">
        <ele>66</ele>
        <time>2010-12-12T11:12:54Z</time>
      </trkpt>
      <trkpt lat="43.58149" lon="3.74826">
        <ele>67.6</ele>
        <time>2010-12-12T11:13:01Z</time>
      </trkpt>
      <trkpt lat="43.58152" lon="3.74815">
        <ele>68.4</ele>
        <time>2010-12-12T11:13:05Z</time>
      </trkpt>
      <trkpt lat="43.58155" lon="3.74804">
        <ele>69.3</ele>
        <time>2010-12-12T11:13:09Z</time>
      </trkpt>
      <trkpt lat="43.58158" lon="3.74792">
        <ele>70.1</ele>
        <time>2010-12-12T11:13:13Z</time>
      </trkpt>
      <trkpt lat="43.58161" lon="3.74784">
        <ele>70.7</ele>
        <time>2010-12-12T11:13:16Z</time>
      </trkpt>
      <trkpt lat="43.58163" lon="3.74774">
        <ele>71.4</ele>
        <time>2010-12-12T11:13:19Z</time>
      </trkpt>
      <trkpt lat="43.58163" lon="3.74764">
        <ele>71.9</ele>
        <time>2010-12-12T11:13:22Z</time>
      </trkpt>
      <trkpt lat="43.5816" lon="3.74755">
        <ele>72</ele>
        <time>2010-12-12T11:13:25Z</time>
      </trkpt>
      <trkpt lat="43.58153" lon="3.7475">
        <ele>71.6</ele>
        <time>2010-12-12T11:13:28Z</time>
      </trkpt>
      <trkpt lat="43.58146" lon="3.74745">
        <ele>71.2</ele>
        <time>2010-12-12T11:13:30Z</time>
      </trkpt>
      <trkpt lat="43.58142" lon="3.74742">
        <ele>71.1</ele>
        <time>2010-12-12T11:13:31Z</time>
      </trkpt>
      <trkpt lat="43.58138" lon="3.74738">
        <ele>70.9</ele>
        <time>2010-12-12T11:13:32Z</time>
      </trkpt>
      <trkpt lat="43.58133" lon="3.74734">
        <ele>70.7</ele>
        <time>2010-12-12T11:13:33Z</time>
      </trkpt>
      <trkpt lat="43.58129" lon="3.7473">
        <ele>70.6</ele>
        <time>2010-12-12T11:13:34Z</time>
      </trkpt>
      <trkpt lat="43.58125" lon="3.74725">
        <ele>70.6</ele>
        <time>2010-12-12T11:13:35Z</time>
      </trkpt>
      <trkpt lat="43.5812" lon="3.74719">
        <ele>70.5</ele>
        <time>2010-12-12T11:13:36Z</time>
      </trkpt>
      <trkpt lat="43.58116" lon="3.74714">
        <ele>70.5</ele>
        <time>2010-12-12T11:13:37Z</time>
      </trkpt>
      <trkpt lat="43.5811" lon="3.74708">
        <ele>70.4</ele>
        <time>2010-12-12T11:13:39Z</time>
      </trkpt>
      <trkpt lat="43.58101" lon="3.7471">
        <ele>69.3</ele>
        <time>2010-12-12T11:13:54Z</time>
      </trkpt>
      <trkpt lat="43.58101" lon="3.7471">
        <ele>69.3</ele>
        <time>2010-12-12T11:13:55Z</time>
      </trkpt>
    </trkseg>
  </trk>
</gpx>